<?xml version="1.0" encoding="UTF-8" standalone="no" ?>
<gpx xmlns="http://www.topografix.com/GPX/1/1" xmlns:xsi="http://www.w3.org/2001/XMLSchema-instance" xsi:schemaLocation="http://www.topografix.com/GPX/1/1 http://www.topografix.com/GPX/1/1/gpx.xsd" version="1.1" creator="VisuGPX - https://www.visugpx.com">
  <metadata>
    <name>2017-08-15 Bike ride-Ambérieux Saône O</name>
    <desc><![CDATA[2017-08-15 Bike ride-Ambérieux Saône O]]></desc>
  </metadata>
  <wpt lat="45.92474" lon="4.73709">
    <ele>174</ele>
    <name><![CDATA[2017-08-15 10:17 (Start)]]></name>
  </wpt>
  <wpt lat="45.92458" lon="4.73706">
    <ele>174</ele>
    <name><![CDATA[2017-08-15 10:17 (End)]]></name>
    <desc><![CDATA[Created by Google My Tracks on Android  Name: 2017-08-15 10:17 Activity type: biking Description: - Total distance: 31.44 km (19.5 mi) Total time: 1:29:51 Moving time: 1:29:17 Average speed: 21.00 km/h (13.0 mi/h) Average moving speed: 21.13 km/h (13.1 mi/h) Max speed: 35.96 km/h (22.3 mi/h) Average pace: 2:51 min/km (4:36 min/mi) Average moving pace: 2:50 min/km (4:34 min/mi) Fastest pace: 1:40 min/km (2:41 min/mi) Max elevation: 269 m (882 ft) Min elevation: 158 m (518 ft) Elevation gain: 542 m (1780 ft) Max grade: 16 % Min grade: -8 % Recorded: 15/08/2017 10:17]]></desc>
  </wpt>
  <trk>
    <name><![CDATA[2017-08-15 10:17]]></name>
    <trkseg>
      <trkpt lat="45.92474" lon="4.73709">
        <ele>174</ele>
        <time>2017-08-15T08:17:39.107Z</time>
      </trkpt>
      <trkpt lat="45.9247" lon="4.73707">
        <ele>174</ele>
        <time>2017-08-15T08:18:07Z</time>
      </trkpt>
      <trkpt lat="45.92468" lon="4.73707">
        <ele>174</ele>
        <time>2017-08-15T08:18:08Z</time>
      </trkpt>
      <trkpt lat="45.92469" lon="4.73707">
        <ele>174</ele>
        <time>2017-08-15T08:18:09Z</time>
      </trkpt>
      <trkpt lat="45.92469" lon="4.73707">
        <ele>174</ele>
        <time>2017-08-15T08:18:10Z</time>
      </trkpt>
      <trkpt lat="45.9247" lon="4.73707">
        <ele>174</ele>
        <time>2017-08-15T08:18:11Z</time>
      </trkpt>
      <trkpt lat="45.92471" lon="4.73706">
        <ele>174</ele>
        <time>2017-08-15T08:18:12Z</time>
      </trkpt>
      <trkpt lat="45.92472" lon="4.73694">
        <ele>174</ele>
        <time>2017-08-15T08:18:28Z</time>
      </trkpt>
      <trkpt lat="45.92472" lon="4.73689">
        <ele>174</ele>
        <time>2017-08-15T08:18:29Z</time>
      </trkpt>
      <trkpt lat="45.92473" lon="4.7368">
        <ele>174</ele>
        <time>2017-08-15T08:18:31Z</time>
      </trkpt>
      <trkpt lat="45.92474" lon="4.73676">
        <ele>174</ele>
        <time>2017-08-15T08:18:32Z</time>
      </trkpt>
      <trkpt lat="45.92475" lon="4.73666">
        <ele>174</ele>
        <time>2017-08-15T08:18:34Z</time>
      </trkpt>
      <trkpt lat="45.92476" lon="4.73661">
        <ele>174</ele>
        <time>2017-08-15T08:18:35Z</time>
      </trkpt>
      <trkpt lat="45.92477" lon="4.73649">
        <ele>174</ele>
        <time>2017-08-15T08:18:37Z</time>
      </trkpt>
      <trkpt lat="45.92476" lon="4.73642">
        <ele>174</ele>
        <time>2017-08-15T08:18:38Z</time>
      </trkpt>
      <trkpt lat="45.92476" lon="4.73635">
        <ele>174</ele>
        <time>2017-08-15T08:18:39Z</time>
      </trkpt>
      <trkpt lat="45.92476" lon="4.73628">
        <ele>174</ele>
        <time>2017-08-15T08:18:40Z</time>
      </trkpt>
      <trkpt lat="45.92476" lon="4.73621">
        <ele>174</ele>
        <time>2017-08-15T08:18:41Z</time>
      </trkpt>
      <trkpt lat="45.92475" lon="4.73614">
        <ele>174</ele>
        <time>2017-08-15T08:18:42Z</time>
      </trkpt>
      <trkpt lat="45.92475" lon="4.73607">
        <ele>174</ele>
        <time>2017-08-15T08:18:43Z</time>
      </trkpt>
      <trkpt lat="45.92474" lon="4.736">
        <ele>174</ele>
        <time>2017-08-15T08:18:44Z</time>
      </trkpt>
      <trkpt lat="45.92474" lon="4.73588">
        <ele>174</ele>
        <time>2017-08-15T08:18:46Z</time>
      </trkpt>
      <trkpt lat="45.92473" lon="4.73583">
        <ele>173</ele>
        <time>2017-08-15T08:18:47Z</time>
      </trkpt>
      <trkpt lat="45.92472" lon="4.73572">
        <ele>173</ele>
        <time>2017-08-15T08:18:49Z</time>
      </trkpt>
      <trkpt lat="45.92472" lon="4.73566">
        <ele>173</ele>
        <time>2017-08-15T08:18:50Z</time>
      </trkpt>
      <trkpt lat="45.9247" lon="4.73555">
        <ele>173</ele>
        <time>2017-08-15T08:18:52Z</time>
      </trkpt>
      <trkpt lat="45.9247" lon="4.7355">
        <ele>173</ele>
        <time>2017-08-15T08:18:53Z</time>
      </trkpt>
      <trkpt lat="45.92466" lon="4.73541">
        <ele>174</ele>
        <time>2017-08-15T08:18:55Z</time>
      </trkpt>
      <trkpt lat="45.92463" lon="4.73538">
        <ele>174</ele>
        <time>2017-08-15T08:18:56Z</time>
      </trkpt>
      <trkpt lat="45.92458" lon="4.73538">
        <ele>173</ele>
        <time>2017-08-15T08:18:58Z</time>
      </trkpt>
      <trkpt lat="45.92454" lon="4.73541">
        <ele>173</ele>
        <time>2017-08-15T08:18:59Z</time>
      </trkpt>
      <trkpt lat="45.92449" lon="4.73543">
        <ele>174</ele>
        <time>2017-08-15T08:19:00Z</time>
      </trkpt>
      <trkpt lat="45.92445" lon="4.73545">
        <ele>174</ele>
        <time>2017-08-15T08:19:01Z</time>
      </trkpt>
      <trkpt lat="45.9244" lon="4.73548">
        <ele>174</ele>
        <time>2017-08-15T08:19:02Z</time>
      </trkpt>
      <trkpt lat="45.92436" lon="4.7355">
        <ele>174</ele>
        <time>2017-08-15T08:19:03Z</time>
      </trkpt>
      <trkpt lat="45.92428" lon="4.73555">
        <ele>174</ele>
        <time>2017-08-15T08:19:05Z</time>
      </trkpt>
      <trkpt lat="45.92425" lon="4.73557">
        <ele>174</ele>
        <time>2017-08-15T08:19:06Z</time>
      </trkpt>
      <trkpt lat="45.92417" lon="4.73561">
        <ele>174</ele>
        <time>2017-08-15T08:19:08Z</time>
      </trkpt>
      <trkpt lat="45.92413" lon="4.73563">
        <ele>173</ele>
        <time>2017-08-15T08:19:09Z</time>
      </trkpt>
      <trkpt lat="45.92409" lon="4.73565">
        <ele>173</ele>
        <time>2017-08-15T08:19:10Z</time>
      </trkpt>
      <trkpt lat="45.92404" lon="4.73567">
        <ele>173</ele>
        <time>2017-08-15T08:19:11Z</time>
      </trkpt>
      <trkpt lat="45.92399" lon="4.7357">
        <ele>173</ele>
        <time>2017-08-15T08:19:12Z</time>
      </trkpt>
      <trkpt lat="45.92394" lon="4.73573">
        <ele>173</ele>
        <time>2017-08-15T08:19:13Z</time>
      </trkpt>
      <trkpt lat="45.92389" lon="4.73576">
        <ele>173</ele>
        <time>2017-08-15T08:19:14Z</time>
      </trkpt>
      <trkpt lat="45.92384" lon="4.73578">
        <ele>173</ele>
        <time>2017-08-15T08:19:15Z</time>
      </trkpt>
      <trkpt lat="45.9238" lon="4.73581">
        <ele>173</ele>
        <time>2017-08-15T08:19:16Z</time>
      </trkpt>
      <trkpt lat="45.92375" lon="4.73583">
        <ele>173</ele>
        <time>2017-08-15T08:19:17Z</time>
      </trkpt>
      <trkpt lat="45.9237" lon="4.73586">
        <ele>173</ele>
        <time>2017-08-15T08:19:18Z</time>
      </trkpt>
      <trkpt lat="45.92365" lon="4.73588">
        <ele>173</ele>
        <time>2017-08-15T08:19:19Z</time>
      </trkpt>
      <trkpt lat="45.9236" lon="4.73591">
        <ele>173</ele>
        <time>2017-08-15T08:19:20Z</time>
      </trkpt>
      <trkpt lat="45.92356" lon="4.73593">
        <ele>173</ele>
        <time>2017-08-15T08:19:21Z</time>
      </trkpt>
      <trkpt lat="45.92351" lon="4.73596">
        <ele>173</ele>
        <time>2017-08-15T08:19:22Z</time>
      </trkpt>
      <trkpt lat="45.92346" lon="4.73598">
        <ele>173</ele>
        <time>2017-08-15T08:19:23Z</time>
      </trkpt>
      <trkpt lat="45.92341" lon="4.736">
        <ele>172</ele>
        <time>2017-08-15T08:19:24Z</time>
      </trkpt>
      <trkpt lat="45.92331" lon="4.73606">
        <ele>172</ele>
        <time>2017-08-15T08:19:25Z</time>
      </trkpt>
      <trkpt lat="45.92324" lon="4.7361">
        <ele>172</ele>
        <time>2017-08-15T08:19:26Z</time>
      </trkpt>
      <trkpt lat="45.92319" lon="4.73614">
        <ele>172</ele>
        <time>2017-08-15T08:19:27Z</time>
      </trkpt>
      <trkpt lat="45.92314" lon="4.73617">
        <ele>172</ele>
        <time>2017-08-15T08:19:28Z</time>
      </trkpt>
      <trkpt lat="45.92309" lon="4.7362">
        <ele>172</ele>
        <time>2017-08-15T08:19:29Z</time>
      </trkpt>
      <trkpt lat="45.92304" lon="4.73623">
        <ele>172</ele>
        <time>2017-08-15T08:19:30Z</time>
      </trkpt>
      <trkpt lat="45.92299" lon="4.73625">
        <ele>172</ele>
        <time>2017-08-15T08:19:31Z</time>
      </trkpt>
      <trkpt lat="45.92294" lon="4.73628">
        <ele>172</ele>
        <time>2017-08-15T08:19:32Z</time>
      </trkpt>
      <trkpt lat="45.92289" lon="4.7363">
        <ele>172</ele>
        <time>2017-08-15T08:19:33Z</time>
      </trkpt>
      <trkpt lat="45.92285" lon="4.73633">
        <ele>172</ele>
        <time>2017-08-15T08:19:34Z</time>
      </trkpt>
      <trkpt lat="45.9228" lon="4.73636">
        <ele>172</ele>
        <time>2017-08-15T08:19:35Z</time>
      </trkpt>
      <trkpt lat="45.92275" lon="4.73639">
        <ele>172</ele>
        <time>2017-08-15T08:19:36Z</time>
      </trkpt>
      <trkpt lat="45.9227" lon="4.73643">
        <ele>172</ele>
        <time>2017-08-15T08:19:37Z</time>
      </trkpt>
      <trkpt lat="45.92265" lon="4.73645">
        <ele>172</ele>
        <time>2017-08-15T08:19:38Z</time>
      </trkpt>
      <trkpt lat="45.9226" lon="4.73648">
        <ele>171</ele>
        <time>2017-08-15T08:19:39Z</time>
      </trkpt>
      <trkpt lat="45.92255" lon="4.7365">
        <ele>171</ele>
        <time>2017-08-15T08:19:40Z</time>
      </trkpt>
      <trkpt lat="45.9225" lon="4.73653">
        <ele>171</ele>
        <time>2017-08-15T08:19:41Z</time>
      </trkpt>
      <trkpt lat="45.92245" lon="4.73656">
        <ele>171</ele>
        <time>2017-08-15T08:19:42Z</time>
      </trkpt>
      <trkpt lat="45.92239" lon="4.7366">
        <ele>171</ele>
        <time>2017-08-15T08:19:43Z</time>
      </trkpt>
      <trkpt lat="45.92234" lon="4.73663">
        <ele>171</ele>
        <time>2017-08-15T08:19:44Z</time>
      </trkpt>
      <trkpt lat="45.92229" lon="4.73666">
        <ele>171</ele>
        <time>2017-08-15T08:19:45Z</time>
      </trkpt>
      <trkpt lat="45.92223" lon="4.73669">
        <ele>171</ele>
        <time>2017-08-15T08:19:46Z</time>
      </trkpt>
      <trkpt lat="45.92218" lon="4.73672">
        <ele>171</ele>
        <time>2017-08-15T08:19:47Z</time>
      </trkpt>
      <trkpt lat="45.92213" lon="4.73675">
        <ele>171</ele>
        <time>2017-08-15T08:19:48Z</time>
      </trkpt>
      <trkpt lat="45.92207" lon="4.73678">
        <ele>171</ele>
        <time>2017-08-15T08:19:49Z</time>
      </trkpt>
      <trkpt lat="45.92202" lon="4.7368">
        <ele>171</ele>
        <time>2017-08-15T08:19:50Z</time>
      </trkpt>
      <trkpt lat="45.92197" lon="4.73683">
        <ele>171</ele>
        <time>2017-08-15T08:19:51Z</time>
      </trkpt>
      <trkpt lat="45.92191" lon="4.73686">
        <ele>171</ele>
        <time>2017-08-15T08:19:52Z</time>
      </trkpt>
      <trkpt lat="45.92186" lon="4.73689">
        <ele>171</ele>
        <time>2017-08-15T08:19:53Z</time>
      </trkpt>
      <trkpt lat="45.92182" lon="4.73691">
        <ele>171</ele>
        <time>2017-08-15T08:19:54Z</time>
      </trkpt>
      <trkpt lat="45.92177" lon="4.73694">
        <ele>171</ele>
        <time>2017-08-15T08:19:55Z</time>
      </trkpt>
      <trkpt lat="45.92172" lon="4.73696">
        <ele>171</ele>
        <time>2017-08-15T08:19:56Z</time>
      </trkpt>
      <trkpt lat="45.92166" lon="4.73699">
        <ele>171</ele>
        <time>2017-08-15T08:19:57Z</time>
      </trkpt>
      <trkpt lat="45.92161" lon="4.73702">
        <ele>171</ele>
        <time>2017-08-15T08:19:58Z</time>
      </trkpt>
      <trkpt lat="45.92156" lon="4.73705">
        <ele>171</ele>
        <time>2017-08-15T08:19:59Z</time>
      </trkpt>
      <trkpt lat="45.9215" lon="4.73707">
        <ele>171</ele>
        <time>2017-08-15T08:20:00Z</time>
      </trkpt>
      <trkpt lat="45.92145" lon="4.73709">
        <ele>171</ele>
        <time>2017-08-15T08:20:01Z</time>
      </trkpt>
      <trkpt lat="45.92139" lon="4.73711">
        <ele>171</ele>
        <time>2017-08-15T08:20:02Z</time>
      </trkpt>
      <trkpt lat="45.92134" lon="4.73713">
        <ele>171</ele>
        <time>2017-08-15T08:20:03Z</time>
      </trkpt>
      <trkpt lat="45.92129" lon="4.73715">
        <ele>171</ele>
        <time>2017-08-15T08:20:04Z</time>
      </trkpt>
      <trkpt lat="45.92123" lon="4.73717">
        <ele>171</ele>
        <time>2017-08-15T08:20:05Z</time>
      </trkpt>
      <trkpt lat="45.92118" lon="4.73718">
        <ele>171</ele>
        <time>2017-08-15T08:20:06Z</time>
      </trkpt>
      <trkpt lat="45.92112" lon="4.73719">
        <ele>171</ele>
        <time>2017-08-15T08:20:07Z</time>
      </trkpt>
      <trkpt lat="45.92107" lon="4.73721">
        <ele>171</ele>
        <time>2017-08-15T08:20:08Z</time>
      </trkpt>
      <trkpt lat="45.92102" lon="4.73722">
        <ele>171</ele>
        <time>2017-08-15T08:20:09Z</time>
      </trkpt>
      <trkpt lat="45.92096" lon="4.73724">
        <ele>171</ele>
        <time>2017-08-15T08:20:10Z</time>
      </trkpt>
      <trkpt lat="45.9209" lon="4.73725">
        <ele>171</ele>
        <time>2017-08-15T08:20:11Z</time>
      </trkpt>
      <trkpt lat="45.92084" lon="4.73725">
        <ele>171</ele>
        <time>2017-08-15T08:20:12Z</time>
      </trkpt>
      <trkpt lat="45.92078" lon="4.73726">
        <ele>171</ele>
        <time>2017-08-15T08:20:13Z</time>
      </trkpt>
      <trkpt lat="45.92072" lon="4.73727">
        <ele>171</ele>
        <time>2017-08-15T08:20:14Z</time>
      </trkpt>
      <trkpt lat="45.92066" lon="4.73728">
        <ele>171</ele>
        <time>2017-08-15T08:20:15Z</time>
      </trkpt>
      <trkpt lat="45.92061" lon="4.73728">
        <ele>171</ele>
        <time>2017-08-15T08:20:16Z</time>
      </trkpt>
      <trkpt lat="45.92055" lon="4.73728">
        <ele>171</ele>
        <time>2017-08-15T08:20:17Z</time>
      </trkpt>
      <trkpt lat="45.9205" lon="4.73729">
        <ele>171</ele>
        <time>2017-08-15T08:20:18Z</time>
      </trkpt>
      <trkpt lat="45.92045" lon="4.73729">
        <ele>171</ele>
        <time>2017-08-15T08:20:19Z</time>
      </trkpt>
      <trkpt lat="45.9204" lon="4.73729">
        <ele>171</ele>
        <time>2017-08-15T08:20:20Z</time>
      </trkpt>
      <trkpt lat="45.92035" lon="4.7373">
        <ele>171</ele>
        <time>2017-08-15T08:20:21Z</time>
      </trkpt>
      <trkpt lat="45.92029" lon="4.7373">
        <ele>171</ele>
        <time>2017-08-15T08:20:22Z</time>
      </trkpt>
      <trkpt lat="45.92024" lon="4.7373">
        <ele>171</ele>
        <time>2017-08-15T08:20:23Z</time>
      </trkpt>
      <trkpt lat="45.92018" lon="4.73731">
        <ele>171</ele>
        <time>2017-08-15T08:20:24Z</time>
      </trkpt>
      <trkpt lat="45.92013" lon="4.73731">
        <ele>171</ele>
        <time>2017-08-15T08:20:25Z</time>
      </trkpt>
      <trkpt lat="45.92007" lon="4.7373">
        <ele>171</ele>
        <time>2017-08-15T08:20:26Z</time>
      </trkpt>
      <trkpt lat="45.92001" lon="4.7373">
        <ele>171</ele>
        <time>2017-08-15T08:20:27Z</time>
      </trkpt>
      <trkpt lat="45.91995" lon="4.7373">
        <ele>171</ele>
        <time>2017-08-15T08:20:28Z</time>
      </trkpt>
      <trkpt lat="45.91989" lon="4.7373">
        <ele>171</ele>
        <time>2017-08-15T08:20:29Z</time>
      </trkpt>
      <trkpt lat="45.91983" lon="4.7373">
        <ele>171</ele>
        <time>2017-08-15T08:20:30Z</time>
      </trkpt>
      <trkpt lat="45.91977" lon="4.73731">
        <ele>171</ele>
        <time>2017-08-15T08:20:31Z</time>
      </trkpt>
      <trkpt lat="45.91972" lon="4.73731">
        <ele>171</ele>
        <time>2017-08-15T08:20:32Z</time>
      </trkpt>
      <trkpt lat="45.91966" lon="4.73731">
        <ele>171</ele>
        <time>2017-08-15T08:20:33Z</time>
      </trkpt>
      <trkpt lat="45.9196" lon="4.73731">
        <ele>171</ele>
        <time>2017-08-15T08:20:34Z</time>
      </trkpt>
      <trkpt lat="45.91954" lon="4.73731">
        <ele>170</ele>
        <time>2017-08-15T08:20:35Z</time>
      </trkpt>
      <trkpt lat="45.91948" lon="4.73731">
        <ele>170</ele>
        <time>2017-08-15T08:20:36Z</time>
      </trkpt>
      <trkpt lat="45.91943" lon="4.73731">
        <ele>170</ele>
        <time>2017-08-15T08:20:37Z</time>
      </trkpt>
      <trkpt lat="45.91938" lon="4.73732">
        <ele>170</ele>
        <time>2017-08-15T08:20:38Z</time>
      </trkpt>
      <trkpt lat="45.91933" lon="4.73732">
        <ele>170</ele>
        <time>2017-08-15T08:20:39Z</time>
      </trkpt>
      <trkpt lat="45.91928" lon="4.73732">
        <ele>170</ele>
        <time>2017-08-15T08:20:40Z</time>
      </trkpt>
      <trkpt lat="45.91923" lon="4.73732">
        <ele>170</ele>
        <time>2017-08-15T08:20:41Z</time>
      </trkpt>
      <trkpt lat="45.91918" lon="4.73731">
        <ele>170</ele>
        <time>2017-08-15T08:20:42Z</time>
      </trkpt>
      <trkpt lat="45.91913" lon="4.73731">
        <ele>171</ele>
        <time>2017-08-15T08:20:43Z</time>
      </trkpt>
      <trkpt lat="45.91907" lon="4.73731">
        <ele>171</ele>
        <time>2017-08-15T08:20:44Z</time>
      </trkpt>
      <trkpt lat="45.91902" lon="4.73732">
        <ele>171</ele>
        <time>2017-08-15T08:20:45Z</time>
      </trkpt>
      <trkpt lat="45.91896" lon="4.73732">
        <ele>171</ele>
        <time>2017-08-15T08:20:46Z</time>
      </trkpt>
      <trkpt lat="45.9189" lon="4.73731">
        <ele>171</ele>
        <time>2017-08-15T08:20:47Z</time>
      </trkpt>
      <trkpt lat="45.91884" lon="4.73731">
        <ele>171</ele>
        <time>2017-08-15T08:20:48Z</time>
      </trkpt>
      <trkpt lat="45.91879" lon="4.73731">
        <ele>171</ele>
        <time>2017-08-15T08:20:49Z</time>
      </trkpt>
      <trkpt lat="45.91873" lon="4.73732">
        <ele>171</ele>
        <time>2017-08-15T08:20:50Z</time>
      </trkpt>
      <trkpt lat="45.91868" lon="4.73732">
        <ele>171</ele>
        <time>2017-08-15T08:20:51Z</time>
      </trkpt>
      <trkpt lat="45.91862" lon="4.73732">
        <ele>171</ele>
        <time>2017-08-15T08:20:52Z</time>
      </trkpt>
      <trkpt lat="45.91856" lon="4.73732">
        <ele>171</ele>
        <time>2017-08-15T08:20:53Z</time>
      </trkpt>
      <trkpt lat="45.91851" lon="4.73732">
        <ele>171</ele>
        <time>2017-08-15T08:20:54Z</time>
      </trkpt>
      <trkpt lat="45.91846" lon="4.73732">
        <ele>172</ele>
        <time>2017-08-15T08:20:55Z</time>
      </trkpt>
      <trkpt lat="45.9184" lon="4.73733">
        <ele>172</ele>
        <time>2017-08-15T08:20:56Z</time>
      </trkpt>
      <trkpt lat="45.91835" lon="4.73733">
        <ele>172</ele>
        <time>2017-08-15T08:20:57Z</time>
      </trkpt>
      <trkpt lat="45.91829" lon="4.73734">
        <ele>172</ele>
        <time>2017-08-15T08:20:58Z</time>
      </trkpt>
      <trkpt lat="45.91825" lon="4.73733">
        <ele>172</ele>
        <time>2017-08-15T08:20:59Z</time>
      </trkpt>
      <trkpt lat="45.91821" lon="4.73733">
        <ele>172</ele>
        <time>2017-08-15T08:21:00Z</time>
      </trkpt>
      <trkpt lat="45.91816" lon="4.73733">
        <ele>172</ele>
        <time>2017-08-15T08:21:01Z</time>
      </trkpt>
      <trkpt lat="45.91811" lon="4.73733">
        <ele>172</ele>
        <time>2017-08-15T08:21:02Z</time>
      </trkpt>
      <trkpt lat="45.91806" lon="4.73733">
        <ele>172</ele>
        <time>2017-08-15T08:21:03Z</time>
      </trkpt>
      <trkpt lat="45.91801" lon="4.73733">
        <ele>172</ele>
        <time>2017-08-15T08:21:04Z</time>
      </trkpt>
      <trkpt lat="45.91796" lon="4.73733">
        <ele>172</ele>
        <time>2017-08-15T08:21:05Z</time>
      </trkpt>
      <trkpt lat="45.91791" lon="4.73733">
        <ele>173</ele>
        <time>2017-08-15T08:21:06Z</time>
      </trkpt>
      <trkpt lat="45.91786" lon="4.73733">
        <ele>173</ele>
        <time>2017-08-15T08:21:07Z</time>
      </trkpt>
      <trkpt lat="45.91781" lon="4.73733">
        <ele>173</ele>
        <time>2017-08-15T08:21:08Z</time>
      </trkpt>
      <trkpt lat="45.91776" lon="4.73732">
        <ele>173</ele>
        <time>2017-08-15T08:21:09Z</time>
      </trkpt>
      <trkpt lat="45.91771" lon="4.73732">
        <ele>173</ele>
        <time>2017-08-15T08:21:10Z</time>
      </trkpt>
      <trkpt lat="45.91766" lon="4.73732">
        <ele>173</ele>
        <time>2017-08-15T08:21:11Z</time>
      </trkpt>
      <trkpt lat="45.91761" lon="4.73732">
        <ele>173</ele>
        <time>2017-08-15T08:21:12Z</time>
      </trkpt>
      <trkpt lat="45.91756" lon="4.73731">
        <ele>173</ele>
        <time>2017-08-15T08:21:13Z</time>
      </trkpt>
      <trkpt lat="45.91751" lon="4.73731">
        <ele>173</ele>
        <time>2017-08-15T08:21:14Z</time>
      </trkpt>
      <trkpt lat="45.91746" lon="4.73731">
        <ele>173</ele>
        <time>2017-08-15T08:21:15Z</time>
      </trkpt>
      <trkpt lat="45.91741" lon="4.73731">
        <ele>173</ele>
        <time>2017-08-15T08:21:16Z</time>
      </trkpt>
      <trkpt lat="45.91735" lon="4.7373">
        <ele>173</ele>
        <time>2017-08-15T08:21:17Z</time>
      </trkpt>
      <trkpt lat="45.9173" lon="4.7373">
        <ele>173</ele>
        <time>2017-08-15T08:21:18Z</time>
      </trkpt>
      <trkpt lat="45.91724" lon="4.73731">
        <ele>173</ele>
        <time>2017-08-15T08:21:19Z</time>
      </trkpt>
      <trkpt lat="45.91718" lon="4.7373">
        <ele>173</ele>
        <time>2017-08-15T08:21:20Z</time>
      </trkpt>
      <trkpt lat="45.91713" lon="4.7373">
        <ele>173</ele>
        <time>2017-08-15T08:21:21Z</time>
      </trkpt>
      <trkpt lat="45.91708" lon="4.73731">
        <ele>172</ele>
        <time>2017-08-15T08:21:22Z</time>
      </trkpt>
      <trkpt lat="45.91703" lon="4.73731">
        <ele>172</ele>
        <time>2017-08-15T08:21:23Z</time>
      </trkpt>
      <trkpt lat="45.91698" lon="4.73731">
        <ele>172</ele>
        <time>2017-08-15T08:21:24Z</time>
      </trkpt>
      <trkpt lat="45.91694" lon="4.73732">
        <ele>172</ele>
        <time>2017-08-15T08:21:25Z</time>
      </trkpt>
      <trkpt lat="45.91689" lon="4.73732">
        <ele>172</ele>
        <time>2017-08-15T08:21:26Z</time>
      </trkpt>
      <trkpt lat="45.91684" lon="4.73732">
        <ele>172</ele>
        <time>2017-08-15T08:21:27Z</time>
      </trkpt>
      <trkpt lat="45.91678" lon="4.73733">
        <ele>172</ele>
        <time>2017-08-15T08:21:28Z</time>
      </trkpt>
      <trkpt lat="45.91673" lon="4.73733">
        <ele>172</ele>
        <time>2017-08-15T08:21:29Z</time>
      </trkpt>
      <trkpt lat="45.91667" lon="4.73733">
        <ele>172</ele>
        <time>2017-08-15T08:21:30Z</time>
      </trkpt>
      <trkpt lat="45.91662" lon="4.73733">
        <ele>172</ele>
        <time>2017-08-15T08:21:31Z</time>
      </trkpt>
      <trkpt lat="45.91656" lon="4.73733">
        <ele>172</ele>
        <time>2017-08-15T08:21:32Z</time>
      </trkpt>
      <trkpt lat="45.91651" lon="4.73734">
        <ele>172</ele>
        <time>2017-08-15T08:21:33Z</time>
      </trkpt>
      <trkpt lat="45.91645" lon="4.73734">
        <ele>172</ele>
        <time>2017-08-15T08:21:34Z</time>
      </trkpt>
      <trkpt lat="45.9164" lon="4.73734">
        <ele>172</ele>
        <time>2017-08-15T08:21:35Z</time>
      </trkpt>
      <trkpt lat="45.91634" lon="4.73734">
        <ele>172</ele>
        <time>2017-08-15T08:21:36Z</time>
      </trkpt>
      <trkpt lat="45.91629" lon="4.73734">
        <ele>172</ele>
        <time>2017-08-15T08:21:37Z</time>
      </trkpt>
      <trkpt lat="45.91624" lon="4.73734">
        <ele>173</ele>
        <time>2017-08-15T08:21:38Z</time>
      </trkpt>
      <trkpt lat="45.91618" lon="4.73734">
        <ele>173</ele>
        <time>2017-08-15T08:21:39Z</time>
      </trkpt>
      <trkpt lat="45.91613" lon="4.73735">
        <ele>173</ele>
        <time>2017-08-15T08:21:40Z</time>
      </trkpt>
      <trkpt lat="45.91608" lon="4.73735">
        <ele>173</ele>
        <time>2017-08-15T08:21:41Z</time>
      </trkpt>
      <trkpt lat="45.91603" lon="4.73735">
        <ele>173</ele>
        <time>2017-08-15T08:21:42Z</time>
      </trkpt>
      <trkpt lat="45.91598" lon="4.73735">
        <ele>173</ele>
        <time>2017-08-15T08:21:43Z</time>
      </trkpt>
      <trkpt lat="45.9159" lon="4.73736">
        <ele>173</ele>
        <time>2017-08-15T08:21:45Z</time>
      </trkpt>
      <trkpt lat="45.91585" lon="4.73736">
        <ele>173</ele>
        <time>2017-08-15T08:21:46Z</time>
      </trkpt>
      <trkpt lat="45.9158" lon="4.73736">
        <ele>173</ele>
        <time>2017-08-15T08:21:47Z</time>
      </trkpt>
      <trkpt lat="45.91576" lon="4.73736">
        <ele>173</ele>
        <time>2017-08-15T08:21:48Z</time>
      </trkpt>
      <trkpt lat="45.91571" lon="4.73736">
        <ele>173</ele>
        <time>2017-08-15T08:21:49Z</time>
      </trkpt>
      <trkpt lat="45.91565" lon="4.73736">
        <ele>173</ele>
        <time>2017-08-15T08:21:50Z</time>
      </trkpt>
      <trkpt lat="45.9156" lon="4.73736">
        <ele>173</ele>
        <time>2017-08-15T08:21:51Z</time>
      </trkpt>
      <trkpt lat="45.91555" lon="4.73736">
        <ele>174</ele>
        <time>2017-08-15T08:21:52Z</time>
      </trkpt>
      <trkpt lat="45.91549" lon="4.73736">
        <ele>174</ele>
        <time>2017-08-15T08:21:53Z</time>
      </trkpt>
      <trkpt lat="45.91544" lon="4.73736">
        <ele>174</ele>
        <time>2017-08-15T08:21:54Z</time>
      </trkpt>
      <trkpt lat="45.91539" lon="4.73736">
        <ele>174</ele>
        <time>2017-08-15T08:21:55Z</time>
      </trkpt>
      <trkpt lat="45.91534" lon="4.73736">
        <ele>174</ele>
        <time>2017-08-15T08:21:56Z</time>
      </trkpt>
      <trkpt lat="45.91528" lon="4.73736">
        <ele>174</ele>
        <time>2017-08-15T08:21:57Z</time>
      </trkpt>
      <trkpt lat="45.91523" lon="4.73736">
        <ele>174</ele>
        <time>2017-08-15T08:21:58Z</time>
      </trkpt>
      <trkpt lat="45.91517" lon="4.73737">
        <ele>174</ele>
        <time>2017-08-15T08:21:59Z</time>
      </trkpt>
      <trkpt lat="45.91511" lon="4.73737">
        <ele>174</ele>
        <time>2017-08-15T08:22:00Z</time>
      </trkpt>
      <trkpt lat="45.91506" lon="4.73738">
        <ele>174</ele>
        <time>2017-08-15T08:22:01Z</time>
      </trkpt>
      <trkpt lat="45.915" lon="4.73739">
        <ele>174</ele>
        <time>2017-08-15T08:22:02Z</time>
      </trkpt>
      <trkpt lat="45.91495" lon="4.73738">
        <ele>174</ele>
        <time>2017-08-15T08:22:03Z</time>
      </trkpt>
      <trkpt lat="45.9149" lon="4.73738">
        <ele>174</ele>
        <time>2017-08-15T08:22:04Z</time>
      </trkpt>
      <trkpt lat="45.91486" lon="4.73739">
        <ele>174</ele>
        <time>2017-08-15T08:22:05Z</time>
      </trkpt>
      <trkpt lat="45.9148" lon="4.73739">
        <ele>174</ele>
        <time>2017-08-15T08:22:06Z</time>
      </trkpt>
      <trkpt lat="45.91474" lon="4.73739">
        <ele>174</ele>
        <time>2017-08-15T08:22:07Z</time>
      </trkpt>
      <trkpt lat="45.91469" lon="4.73739">
        <ele>174</ele>
        <time>2017-08-15T08:22:08Z</time>
      </trkpt>
      <trkpt lat="45.91464" lon="4.7374">
        <ele>174</ele>
        <time>2017-08-15T08:22:09Z</time>
      </trkpt>
      <trkpt lat="45.91459" lon="4.7374">
        <ele>174</ele>
        <time>2017-08-15T08:22:10Z</time>
      </trkpt>
      <trkpt lat="45.91454" lon="4.7374">
        <ele>173</ele>
        <time>2017-08-15T08:22:11Z</time>
      </trkpt>
      <trkpt lat="45.91449" lon="4.73739">
        <ele>173</ele>
        <time>2017-08-15T08:22:12Z</time>
      </trkpt>
      <trkpt lat="45.91444" lon="4.7374">
        <ele>173</ele>
        <time>2017-08-15T08:22:13Z</time>
      </trkpt>
      <trkpt lat="45.91439" lon="4.7374">
        <ele>173</ele>
        <time>2017-08-15T08:22:14Z</time>
      </trkpt>
      <trkpt lat="45.91433" lon="4.7374">
        <ele>173</ele>
        <time>2017-08-15T08:22:15Z</time>
      </trkpt>
      <trkpt lat="45.91428" lon="4.7374">
        <ele>173</ele>
        <time>2017-08-15T08:22:16Z</time>
      </trkpt>
      <trkpt lat="45.91423" lon="4.7374">
        <ele>173</ele>
        <time>2017-08-15T08:22:17Z</time>
      </trkpt>
      <trkpt lat="45.91418" lon="4.7374">
        <ele>173</ele>
        <time>2017-08-15T08:22:18Z</time>
      </trkpt>
      <trkpt lat="45.91413" lon="4.7374">
        <ele>172</ele>
        <time>2017-08-15T08:22:19Z</time>
      </trkpt>
      <trkpt lat="45.91408" lon="4.7374">
        <ele>173</ele>
        <time>2017-08-15T08:22:20Z</time>
      </trkpt>
      <trkpt lat="45.91402" lon="4.7374">
        <ele>173</ele>
        <time>2017-08-15T08:22:21Z</time>
      </trkpt>
      <trkpt lat="45.91397" lon="4.7374">
        <ele>173</ele>
        <time>2017-08-15T08:22:22Z</time>
      </trkpt>
      <trkpt lat="45.91392" lon="4.7374">
        <ele>173</ele>
        <time>2017-08-15T08:22:23Z</time>
      </trkpt>
      <trkpt lat="45.91386" lon="4.7374">
        <ele>173</ele>
        <time>2017-08-15T08:22:24Z</time>
      </trkpt>
      <trkpt lat="45.91381" lon="4.7374">
        <ele>173</ele>
        <time>2017-08-15T08:22:25Z</time>
      </trkpt>
      <trkpt lat="45.91376" lon="4.7374">
        <ele>173</ele>
        <time>2017-08-15T08:22:26Z</time>
      </trkpt>
      <trkpt lat="45.9137" lon="4.7374">
        <ele>173</ele>
        <time>2017-08-15T08:22:27Z</time>
      </trkpt>
      <trkpt lat="45.91365" lon="4.7374">
        <ele>173</ele>
        <time>2017-08-15T08:22:28Z</time>
      </trkpt>
      <trkpt lat="45.9136" lon="4.7374">
        <ele>173</ele>
        <time>2017-08-15T08:22:29Z</time>
      </trkpt>
      <trkpt lat="45.91355" lon="4.7374">
        <ele>173</ele>
        <time>2017-08-15T08:22:30Z</time>
      </trkpt>
      <trkpt lat="45.9135" lon="4.73739">
        <ele>173</ele>
        <time>2017-08-15T08:22:31Z</time>
      </trkpt>
      <trkpt lat="45.91345" lon="4.73739">
        <ele>173</ele>
        <time>2017-08-15T08:22:32Z</time>
      </trkpt>
      <trkpt lat="45.9134" lon="4.73738">
        <ele>173</ele>
        <time>2017-08-15T08:22:33Z</time>
      </trkpt>
      <trkpt lat="45.91335" lon="4.73738">
        <ele>173</ele>
        <time>2017-08-15T08:22:34Z</time>
      </trkpt>
      <trkpt lat="45.9133" lon="4.73738">
        <ele>173</ele>
        <time>2017-08-15T08:22:35Z</time>
      </trkpt>
      <trkpt lat="45.91326" lon="4.73738">
        <ele>173</ele>
        <time>2017-08-15T08:22:36Z</time>
      </trkpt>
      <trkpt lat="45.91321" lon="4.73738">
        <ele>174</ele>
        <time>2017-08-15T08:22:37Z</time>
      </trkpt>
      <trkpt lat="45.91316" lon="4.73738">
        <ele>174</ele>
        <time>2017-08-15T08:22:38Z</time>
      </trkpt>
      <trkpt lat="45.91311" lon="4.73738">
        <ele>174</ele>
        <time>2017-08-15T08:22:39Z</time>
      </trkpt>
      <trkpt lat="45.91305" lon="4.73739">
        <ele>174</ele>
        <time>2017-08-15T08:22:40Z</time>
      </trkpt>
      <trkpt lat="45.913" lon="4.73739">
        <ele>174</ele>
        <time>2017-08-15T08:22:41Z</time>
      </trkpt>
      <trkpt lat="45.91295" lon="4.7374">
        <ele>174</ele>
        <time>2017-08-15T08:22:42Z</time>
      </trkpt>
      <trkpt lat="45.9129" lon="4.7374">
        <ele>174</ele>
        <time>2017-08-15T08:22:43Z</time>
      </trkpt>
      <trkpt lat="45.91285" lon="4.7374">
        <ele>174</ele>
        <time>2017-08-15T08:22:44Z</time>
      </trkpt>
      <trkpt lat="45.91279" lon="4.7374">
        <ele>174</ele>
        <time>2017-08-15T08:22:45Z</time>
      </trkpt>
      <trkpt lat="45.91274" lon="4.7374">
        <ele>174</ele>
        <time>2017-08-15T08:22:46Z</time>
      </trkpt>
      <trkpt lat="45.91269" lon="4.73741">
        <ele>174</ele>
        <time>2017-08-15T08:22:47Z</time>
      </trkpt>
      <trkpt lat="45.91265" lon="4.73741">
        <ele>174</ele>
        <time>2017-08-15T08:22:48Z</time>
      </trkpt>
      <trkpt lat="45.91256" lon="4.73741">
        <ele>175</ele>
        <time>2017-08-15T08:22:50Z</time>
      </trkpt>
      <trkpt lat="45.91251" lon="4.7374">
        <ele>175</ele>
        <time>2017-08-15T08:22:51Z</time>
      </trkpt>
      <trkpt lat="45.91247" lon="4.7374">
        <ele>175</ele>
        <time>2017-08-15T08:22:52Z</time>
      </trkpt>
      <trkpt lat="45.91242" lon="4.7374">
        <ele>175</ele>
        <time>2017-08-15T08:22:53Z</time>
      </trkpt>
      <trkpt lat="45.91237" lon="4.7374">
        <ele>175</ele>
        <time>2017-08-15T08:22:54Z</time>
      </trkpt>
      <trkpt lat="45.91232" lon="4.7374">
        <ele>175</ele>
        <time>2017-08-15T08:22:55Z</time>
      </trkpt>
      <trkpt lat="45.91226" lon="4.7374">
        <ele>175</ele>
        <time>2017-08-15T08:22:56Z</time>
      </trkpt>
      <trkpt lat="45.91221" lon="4.73741">
        <ele>175</ele>
        <time>2017-08-15T08:22:57Z</time>
      </trkpt>
      <trkpt lat="45.91216" lon="4.73741">
        <ele>175</ele>
        <time>2017-08-15T08:22:58Z</time>
      </trkpt>
      <trkpt lat="45.91211" lon="4.73741">
        <ele>175</ele>
        <time>2017-08-15T08:22:59Z</time>
      </trkpt>
      <trkpt lat="45.91206" lon="4.73741">
        <ele>175</ele>
        <time>2017-08-15T08:23:00Z</time>
      </trkpt>
      <trkpt lat="45.91202" lon="4.73741">
        <ele>175</ele>
        <time>2017-08-15T08:23:01Z</time>
      </trkpt>
      <trkpt lat="45.91194" lon="4.73739">
        <ele>175</ele>
        <time>2017-08-15T08:23:03Z</time>
      </trkpt>
      <trkpt lat="45.9119" lon="4.73738">
        <ele>175</ele>
        <time>2017-08-15T08:23:04Z</time>
      </trkpt>
      <trkpt lat="45.91183" lon="4.73735">
        <ele>175</ele>
        <time>2017-08-15T08:23:06Z</time>
      </trkpt>
      <trkpt lat="45.91179" lon="4.73733">
        <ele>175</ele>
        <time>2017-08-15T08:23:07Z</time>
      </trkpt>
      <trkpt lat="45.9117" lon="4.73731">
        <ele>175</ele>
        <time>2017-08-15T08:23:09Z</time>
      </trkpt>
      <trkpt lat="45.91166" lon="4.73731">
        <ele>175</ele>
        <time>2017-08-15T08:23:10Z</time>
      </trkpt>
      <trkpt lat="45.91158" lon="4.73735">
        <ele>175</ele>
        <time>2017-08-15T08:23:12Z</time>
      </trkpt>
      <trkpt lat="45.91156" lon="4.73739">
        <ele>175</ele>
        <time>2017-08-15T08:23:13Z</time>
      </trkpt>
      <trkpt lat="45.91156" lon="4.73751">
        <ele>175</ele>
        <time>2017-08-15T08:23:15Z</time>
      </trkpt>
      <trkpt lat="45.91158" lon="4.73757">
        <ele>175</ele>
        <time>2017-08-15T08:23:16Z</time>
      </trkpt>
      <trkpt lat="45.91161" lon="4.73763">
        <ele>175</ele>
        <time>2017-08-15T08:23:17Z</time>
      </trkpt>
      <trkpt lat="45.91165" lon="4.7377">
        <ele>175</ele>
        <time>2017-08-15T08:23:18Z</time>
      </trkpt>
      <trkpt lat="45.91168" lon="4.73775">
        <ele>175</ele>
        <time>2017-08-15T08:23:19Z</time>
      </trkpt>
      <trkpt lat="45.91171" lon="4.73782">
        <ele>175</ele>
        <time>2017-08-15T08:23:20Z</time>
      </trkpt>
      <trkpt lat="45.91174" lon="4.73788">
        <ele>175</ele>
        <time>2017-08-15T08:23:21Z</time>
      </trkpt>
      <trkpt lat="45.91177" lon="4.73794">
        <ele>175</ele>
        <time>2017-08-15T08:23:22Z</time>
      </trkpt>
      <trkpt lat="45.9118" lon="4.73801">
        <ele>175</ele>
        <time>2017-08-15T08:23:23Z</time>
      </trkpt>
      <trkpt lat="45.91183" lon="4.73807">
        <ele>175</ele>
        <time>2017-08-15T08:23:24Z</time>
      </trkpt>
      <trkpt lat="45.91186" lon="4.73813">
        <ele>175</ele>
        <time>2017-08-15T08:23:25Z</time>
      </trkpt>
      <trkpt lat="45.91189" lon="4.73819">
        <ele>175</ele>
        <time>2017-08-15T08:23:26Z</time>
      </trkpt>
      <trkpt lat="45.91192" lon="4.73825">
        <ele>175</ele>
        <time>2017-08-15T08:23:27Z</time>
      </trkpt>
      <trkpt lat="45.91195" lon="4.73831">
        <ele>175</ele>
        <time>2017-08-15T08:23:28Z</time>
      </trkpt>
      <trkpt lat="45.91198" lon="4.73837">
        <ele>174</ele>
        <time>2017-08-15T08:23:29Z</time>
      </trkpt>
      <trkpt lat="45.912" lon="4.73843">
        <ele>174</ele>
        <time>2017-08-15T08:23:30Z</time>
      </trkpt>
      <trkpt lat="45.91203" lon="4.7385">
        <ele>174</ele>
        <time>2017-08-15T08:23:31Z</time>
      </trkpt>
      <trkpt lat="45.91206" lon="4.73856">
        <ele>174</ele>
        <time>2017-08-15T08:23:32Z</time>
      </trkpt>
      <trkpt lat="45.91208" lon="4.73862">
        <ele>174</ele>
        <time>2017-08-15T08:23:33Z</time>
      </trkpt>
      <trkpt lat="45.91211" lon="4.73869">
        <ele>174</ele>
        <time>2017-08-15T08:23:34Z</time>
      </trkpt>
      <trkpt lat="45.91214" lon="4.73875">
        <ele>174</ele>
        <time>2017-08-15T08:23:35Z</time>
      </trkpt>
      <trkpt lat="45.91216" lon="4.73882">
        <ele>174</ele>
        <time>2017-08-15T08:23:36Z</time>
      </trkpt>
      <trkpt lat="45.91218" lon="4.73889">
        <ele>174</ele>
        <time>2017-08-15T08:23:37Z</time>
      </trkpt>
      <trkpt lat="45.91219" lon="4.73896">
        <ele>174</ele>
        <time>2017-08-15T08:23:38Z</time>
      </trkpt>
      <trkpt lat="45.91221" lon="4.73903">
        <ele>174</ele>
        <time>2017-08-15T08:23:39Z</time>
      </trkpt>
      <trkpt lat="45.91222" lon="4.7391">
        <ele>174</ele>
        <time>2017-08-15T08:23:40Z</time>
      </trkpt>
      <trkpt lat="45.91223" lon="4.73918">
        <ele>173</ele>
        <time>2017-08-15T08:23:41Z</time>
      </trkpt>
      <trkpt lat="45.91224" lon="4.73925">
        <ele>173</ele>
        <time>2017-08-15T08:23:42Z</time>
      </trkpt>
      <trkpt lat="45.91224" lon="4.73933">
        <ele>173</ele>
        <time>2017-08-15T08:23:43Z</time>
      </trkpt>
      <trkpt lat="45.91224" lon="4.7394">
        <ele>173</ele>
        <time>2017-08-15T08:23:44Z</time>
      </trkpt>
      <trkpt lat="45.91224" lon="4.73947">
        <ele>173</ele>
        <time>2017-08-15T08:23:45Z</time>
      </trkpt>
      <trkpt lat="45.91224" lon="4.73955">
        <ele>173</ele>
        <time>2017-08-15T08:23:46Z</time>
      </trkpt>
      <trkpt lat="45.91223" lon="4.73963">
        <ele>173</ele>
        <time>2017-08-15T08:23:47Z</time>
      </trkpt>
      <trkpt lat="45.91223" lon="4.7397">
        <ele>173</ele>
        <time>2017-08-15T08:23:48Z</time>
      </trkpt>
      <trkpt lat="45.91222" lon="4.73977">
        <ele>173</ele>
        <time>2017-08-15T08:23:49Z</time>
      </trkpt>
      <trkpt lat="45.91221" lon="4.73985">
        <ele>173</ele>
        <time>2017-08-15T08:23:50Z</time>
      </trkpt>
      <trkpt lat="45.9122" lon="4.73993">
        <ele>173</ele>
        <time>2017-08-15T08:23:51Z</time>
      </trkpt>
      <trkpt lat="45.91219" lon="4.74">
        <ele>173</ele>
        <time>2017-08-15T08:23:52Z</time>
      </trkpt>
      <trkpt lat="45.91218" lon="4.74008">
        <ele>173</ele>
        <time>2017-08-15T08:23:53Z</time>
      </trkpt>
      <trkpt lat="45.91216" lon="4.74015">
        <ele>173</ele>
        <time>2017-08-15T08:23:54Z</time>
      </trkpt>
      <trkpt lat="45.91215" lon="4.74022">
        <ele>173</ele>
        <time>2017-08-15T08:23:55Z</time>
      </trkpt>
      <trkpt lat="45.91214" lon="4.74029">
        <ele>173</ele>
        <time>2017-08-15T08:23:56Z</time>
      </trkpt>
      <trkpt lat="45.91212" lon="4.74036">
        <ele>173</ele>
        <time>2017-08-15T08:23:57Z</time>
      </trkpt>
      <trkpt lat="45.91211" lon="4.74042">
        <ele>173</ele>
        <time>2017-08-15T08:23:58Z</time>
      </trkpt>
      <trkpt lat="45.91209" lon="4.74048">
        <ele>173</ele>
        <time>2017-08-15T08:23:59Z</time>
      </trkpt>
      <trkpt lat="45.91208" lon="4.74054">
        <ele>173</ele>
        <time>2017-08-15T08:24:00Z</time>
      </trkpt>
      <trkpt lat="45.91205" lon="4.74066">
        <ele>173</ele>
        <time>2017-08-15T08:24:02Z</time>
      </trkpt>
      <trkpt lat="45.91203" lon="4.74071">
        <ele>173</ele>
        <time>2017-08-15T08:24:03Z</time>
      </trkpt>
      <trkpt lat="45.912" lon="4.74082">
        <ele>173</ele>
        <time>2017-08-15T08:24:05Z</time>
      </trkpt>
      <trkpt lat="45.91198" lon="4.74089">
        <ele>173</ele>
        <time>2017-08-15T08:24:06Z</time>
      </trkpt>
      <trkpt lat="45.91197" lon="4.74095">
        <ele>173</ele>
        <time>2017-08-15T08:24:07Z</time>
      </trkpt>
      <trkpt lat="45.91196" lon="4.74102">
        <ele>174</ele>
        <time>2017-08-15T08:24:08Z</time>
      </trkpt>
      <trkpt lat="45.91194" lon="4.74109">
        <ele>174</ele>
        <time>2017-08-15T08:24:09Z</time>
      </trkpt>
      <trkpt lat="45.91193" lon="4.74116">
        <ele>174</ele>
        <time>2017-08-15T08:24:10Z</time>
      </trkpt>
      <trkpt lat="45.91191" lon="4.74123">
        <ele>174</ele>
        <time>2017-08-15T08:24:11Z</time>
      </trkpt>
      <trkpt lat="45.9119" lon="4.7413">
        <ele>174</ele>
        <time>2017-08-15T08:24:12Z</time>
      </trkpt>
      <trkpt lat="45.91189" lon="4.74137">
        <ele>174</ele>
        <time>2017-08-15T08:24:13Z</time>
      </trkpt>
      <trkpt lat="45.91188" lon="4.74145">
        <ele>174</ele>
        <time>2017-08-15T08:24:14Z</time>
      </trkpt>
      <trkpt lat="45.91186" lon="4.74152">
        <ele>174</ele>
        <time>2017-08-15T08:24:15Z</time>
      </trkpt>
      <trkpt lat="45.91185" lon="4.7416">
        <ele>174</ele>
        <time>2017-08-15T08:24:16Z</time>
      </trkpt>
      <trkpt lat="45.91184" lon="4.74167">
        <ele>174</ele>
        <time>2017-08-15T08:24:17Z</time>
      </trkpt>
      <trkpt lat="45.91184" lon="4.74175">
        <ele>174</ele>
        <time>2017-08-15T08:24:18Z</time>
      </trkpt>
      <trkpt lat="45.91183" lon="4.74183">
        <ele>174</ele>
        <time>2017-08-15T08:24:19Z</time>
      </trkpt>
      <trkpt lat="45.91183" lon="4.74192">
        <ele>175</ele>
        <time>2017-08-15T08:24:20Z</time>
      </trkpt>
      <trkpt lat="45.91183" lon="4.74201">
        <ele>175</ele>
        <time>2017-08-15T08:24:21Z</time>
      </trkpt>
      <trkpt lat="45.91182" lon="4.7421">
        <ele>175</ele>
        <time>2017-08-15T08:24:22Z</time>
      </trkpt>
      <trkpt lat="45.91183" lon="4.7422">
        <ele>175</ele>
        <time>2017-08-15T08:24:23Z</time>
      </trkpt>
      <trkpt lat="45.91183" lon="4.7423">
        <ele>175</ele>
        <time>2017-08-15T08:24:24Z</time>
      </trkpt>
      <trkpt lat="45.91185" lon="4.7424">
        <ele>175</ele>
        <time>2017-08-15T08:24:25Z</time>
      </trkpt>
      <trkpt lat="45.91186" lon="4.7425">
        <ele>175</ele>
        <time>2017-08-15T08:24:26Z</time>
      </trkpt>
      <trkpt lat="45.91188" lon="4.7426">
        <ele>175</ele>
        <time>2017-08-15T08:24:27Z</time>
      </trkpt>
      <trkpt lat="45.9119" lon="4.74271">
        <ele>175</ele>
        <time>2017-08-15T08:24:28Z</time>
      </trkpt>
      <trkpt lat="45.91193" lon="4.74282">
        <ele>175</ele>
        <time>2017-08-15T08:24:29Z</time>
      </trkpt>
      <trkpt lat="45.91196" lon="4.74293">
        <ele>175</ele>
        <time>2017-08-15T08:24:30Z</time>
      </trkpt>
      <trkpt lat="45.91199" lon="4.74304">
        <ele>175</ele>
        <time>2017-08-15T08:24:31Z</time>
      </trkpt>
      <trkpt lat="45.91202" lon="4.74315">
        <ele>175</ele>
        <time>2017-08-15T08:24:32Z</time>
      </trkpt>
      <trkpt lat="45.91205" lon="4.74327">
        <ele>175</ele>
        <time>2017-08-15T08:24:33Z</time>
      </trkpt>
      <trkpt lat="45.91208" lon="4.74339">
        <ele>175</ele>
        <time>2017-08-15T08:24:34Z</time>
      </trkpt>
      <trkpt lat="45.91211" lon="4.74351">
        <ele>175</ele>
        <time>2017-08-15T08:24:35Z</time>
      </trkpt>
      <trkpt lat="45.91214" lon="4.74363">
        <ele>175</ele>
        <time>2017-08-15T08:24:36Z</time>
      </trkpt>
      <trkpt lat="45.91217" lon="4.74375">
        <ele>174</ele>
        <time>2017-08-15T08:24:37Z</time>
      </trkpt>
      <trkpt lat="45.9122" lon="4.74387">
        <ele>174</ele>
        <time>2017-08-15T08:24:38Z</time>
      </trkpt>
      <trkpt lat="45.91224" lon="4.74399">
        <ele>174</ele>
        <time>2017-08-15T08:24:39Z</time>
      </trkpt>
      <trkpt lat="45.91227" lon="4.7441">
        <ele>174</ele>
        <time>2017-08-15T08:24:40Z</time>
      </trkpt>
      <trkpt lat="45.9123" lon="4.74422">
        <ele>174</ele>
        <time>2017-08-15T08:24:41Z</time>
      </trkpt>
      <trkpt lat="45.91233" lon="4.74433">
        <ele>174</ele>
        <time>2017-08-15T08:24:42Z</time>
      </trkpt>
      <trkpt lat="45.91236" lon="4.74444">
        <ele>174</ele>
        <time>2017-08-15T08:24:43Z</time>
      </trkpt>
      <trkpt lat="45.91239" lon="4.74455">
        <ele>174</ele>
        <time>2017-08-15T08:24:44Z</time>
      </trkpt>
      <trkpt lat="45.91242" lon="4.74465">
        <ele>174</ele>
        <time>2017-08-15T08:24:45Z</time>
      </trkpt>
      <trkpt lat="45.91245" lon="4.74475">
        <ele>174</ele>
        <time>2017-08-15T08:24:46Z</time>
      </trkpt>
      <trkpt lat="45.91248" lon="4.74485">
        <ele>174</ele>
        <time>2017-08-15T08:24:47Z</time>
      </trkpt>
      <trkpt lat="45.91251" lon="4.74495">
        <ele>174</ele>
        <time>2017-08-15T08:24:48Z</time>
      </trkpt>
      <trkpt lat="45.91254" lon="4.74504">
        <ele>174</ele>
        <time>2017-08-15T08:24:49Z</time>
      </trkpt>
      <trkpt lat="45.91257" lon="4.74513">
        <ele>174</ele>
        <time>2017-08-15T08:24:50Z</time>
      </trkpt>
      <trkpt lat="45.91259" lon="4.74522">
        <ele>174</ele>
        <time>2017-08-15T08:24:51Z</time>
      </trkpt>
      <trkpt lat="45.91263" lon="4.74531">
        <ele>173</ele>
        <time>2017-08-15T08:24:52Z</time>
      </trkpt>
      <trkpt lat="45.91266" lon="4.74539">
        <ele>173</ele>
        <time>2017-08-15T08:24:53Z</time>
      </trkpt>
      <trkpt lat="45.91269" lon="4.74546">
        <ele>173</ele>
        <time>2017-08-15T08:24:54Z</time>
      </trkpt>
      <trkpt lat="45.91272" lon="4.74553">
        <ele>173</ele>
        <time>2017-08-15T08:24:55Z</time>
      </trkpt>
      <trkpt lat="45.91275" lon="4.7456">
        <ele>173</ele>
        <time>2017-08-15T08:24:56Z</time>
      </trkpt>
      <trkpt lat="45.91278" lon="4.74568">
        <ele>173</ele>
        <time>2017-08-15T08:24:57Z</time>
      </trkpt>
      <trkpt lat="45.91282" lon="4.74575">
        <ele>173</ele>
        <time>2017-08-15T08:24:58Z</time>
      </trkpt>
      <trkpt lat="45.91285" lon="4.74581">
        <ele>173</ele>
        <time>2017-08-15T08:24:59Z</time>
      </trkpt>
      <trkpt lat="45.91288" lon="4.74588">
        <ele>173</ele>
        <time>2017-08-15T08:25:00Z</time>
      </trkpt>
      <trkpt lat="45.91292" lon="4.74596">
        <ele>173</ele>
        <time>2017-08-15T08:25:01Z</time>
      </trkpt>
      <trkpt lat="45.91295" lon="4.74603">
        <ele>173</ele>
        <time>2017-08-15T08:25:02Z</time>
      </trkpt>
      <trkpt lat="45.91298" lon="4.7461">
        <ele>173</ele>
        <time>2017-08-15T08:25:03Z</time>
      </trkpt>
      <trkpt lat="45.91301" lon="4.74618">
        <ele>173</ele>
        <time>2017-08-15T08:25:04Z</time>
      </trkpt>
      <trkpt lat="45.91305" lon="4.74625">
        <ele>173</ele>
        <time>2017-08-15T08:25:05Z</time>
      </trkpt>
      <trkpt lat="45.91307" lon="4.74633">
        <ele>173</ele>
        <time>2017-08-15T08:25:06Z</time>
      </trkpt>
      <trkpt lat="45.9131" lon="4.7464">
        <ele>173</ele>
        <time>2017-08-15T08:25:07Z</time>
      </trkpt>
      <trkpt lat="45.91313" lon="4.74647">
        <ele>173</ele>
        <time>2017-08-15T08:25:08Z</time>
      </trkpt>
      <trkpt lat="45.91315" lon="4.74654">
        <ele>173</ele>
        <time>2017-08-15T08:25:09Z</time>
      </trkpt>
      <trkpt lat="45.91317" lon="4.74661">
        <ele>173</ele>
        <time>2017-08-15T08:25:10Z</time>
      </trkpt>
      <trkpt lat="45.9132" lon="4.74668">
        <ele>173</ele>
        <time>2017-08-15T08:25:11Z</time>
      </trkpt>
      <trkpt lat="45.91322" lon="4.74675">
        <ele>173</ele>
        <time>2017-08-15T08:25:12Z</time>
      </trkpt>
      <trkpt lat="45.91323" lon="4.74682">
        <ele>173</ele>
        <time>2017-08-15T08:25:13Z</time>
      </trkpt>
      <trkpt lat="45.91325" lon="4.74689">
        <ele>173</ele>
        <time>2017-08-15T08:25:14Z</time>
      </trkpt>
      <trkpt lat="45.91326" lon="4.74696">
        <ele>173</ele>
        <time>2017-08-15T08:25:15Z</time>
      </trkpt>
      <trkpt lat="45.91327" lon="4.74704">
        <ele>173</ele>
        <time>2017-08-15T08:25:16Z</time>
      </trkpt>
      <trkpt lat="45.91326" lon="4.74711">
        <ele>173</ele>
        <time>2017-08-15T08:25:17Z</time>
      </trkpt>
      <trkpt lat="45.91325" lon="4.74719">
        <ele>173</ele>
        <time>2017-08-15T08:25:18Z</time>
      </trkpt>
      <trkpt lat="45.91325" lon="4.74727">
        <ele>173</ele>
        <time>2017-08-15T08:25:19Z</time>
      </trkpt>
      <trkpt lat="45.91324" lon="4.74736">
        <ele>173</ele>
        <time>2017-08-15T08:25:20Z</time>
      </trkpt>
      <trkpt lat="45.91322" lon="4.74744">
        <ele>173</ele>
        <time>2017-08-15T08:25:21Z</time>
      </trkpt>
      <trkpt lat="45.91321" lon="4.74752">
        <ele>174</ele>
        <time>2017-08-15T08:25:22Z</time>
      </trkpt>
      <trkpt lat="45.91319" lon="4.7476">
        <ele>174</ele>
        <time>2017-08-15T08:25:23Z</time>
      </trkpt>
      <trkpt lat="45.91316" lon="4.74769">
        <ele>174</ele>
        <time>2017-08-15T08:25:24Z</time>
      </trkpt>
      <trkpt lat="45.91315" lon="4.74777">
        <ele>174</ele>
        <time>2017-08-15T08:25:25Z</time>
      </trkpt>
      <trkpt lat="45.91314" lon="4.74785">
        <ele>174</ele>
        <time>2017-08-15T08:25:26Z</time>
      </trkpt>
      <trkpt lat="45.91314" lon="4.74794">
        <ele>174</ele>
        <time>2017-08-15T08:25:27Z</time>
      </trkpt>
      <trkpt lat="45.91313" lon="4.74803">
        <ele>175</ele>
        <time>2017-08-15T08:25:28Z</time>
      </trkpt>
      <trkpt lat="45.91312" lon="4.74811">
        <ele>175</ele>
        <time>2017-08-15T08:25:29Z</time>
      </trkpt>
      <trkpt lat="45.91311" lon="4.7482">
        <ele>175</ele>
        <time>2017-08-15T08:25:30Z</time>
      </trkpt>
      <trkpt lat="45.91311" lon="4.74828">
        <ele>175</ele>
        <time>2017-08-15T08:25:31Z</time>
      </trkpt>
      <trkpt lat="45.9131" lon="4.74836">
        <ele>176</ele>
        <time>2017-08-15T08:25:32Z</time>
      </trkpt>
      <trkpt lat="45.9131" lon="4.74843">
        <ele>176</ele>
        <time>2017-08-15T08:25:33Z</time>
      </trkpt>
      <trkpt lat="45.91311" lon="4.7485">
        <ele>176</ele>
        <time>2017-08-15T08:25:34Z</time>
      </trkpt>
      <trkpt lat="45.91311" lon="4.74857">
        <ele>176</ele>
        <time>2017-08-15T08:25:35Z</time>
      </trkpt>
      <trkpt lat="45.91311" lon="4.74869">
        <ele>176</ele>
        <time>2017-08-15T08:25:37Z</time>
      </trkpt>
      <trkpt lat="45.9131" lon="4.74876">
        <ele>176</ele>
        <time>2017-08-15T08:25:38Z</time>
      </trkpt>
      <trkpt lat="45.91309" lon="4.74882">
        <ele>176</ele>
        <time>2017-08-15T08:25:39Z</time>
      </trkpt>
      <trkpt lat="45.91308" lon="4.74889">
        <ele>176</ele>
        <time>2017-08-15T08:25:40Z</time>
      </trkpt>
      <trkpt lat="45.91307" lon="4.74896">
        <ele>176</ele>
        <time>2017-08-15T08:25:41Z</time>
      </trkpt>
      <trkpt lat="45.91306" lon="4.74903">
        <ele>176</ele>
        <time>2017-08-15T08:25:42Z</time>
      </trkpt>
      <trkpt lat="45.91305" lon="4.74911">
        <ele>176</ele>
        <time>2017-08-15T08:25:43Z</time>
      </trkpt>
      <trkpt lat="45.91304" lon="4.74919">
        <ele>177</ele>
        <time>2017-08-15T08:25:44Z</time>
      </trkpt>
      <trkpt lat="45.91303" lon="4.74926">
        <ele>177</ele>
        <time>2017-08-15T08:25:45Z</time>
      </trkpt>
      <trkpt lat="45.91302" lon="4.74934">
        <ele>177</ele>
        <time>2017-08-15T08:25:46Z</time>
      </trkpt>
      <trkpt lat="45.91301" lon="4.74942">
        <ele>177</ele>
        <time>2017-08-15T08:25:47Z</time>
      </trkpt>
      <trkpt lat="45.913" lon="4.7495">
        <ele>177</ele>
        <time>2017-08-15T08:25:48Z</time>
      </trkpt>
      <trkpt lat="45.91299" lon="4.74958">
        <ele>177</ele>
        <time>2017-08-15T08:25:49Z</time>
      </trkpt>
      <trkpt lat="45.91298" lon="4.74966">
        <ele>177</ele>
        <time>2017-08-15T08:25:50Z</time>
      </trkpt>
      <trkpt lat="45.91297" lon="4.74974">
        <ele>177</ele>
        <time>2017-08-15T08:25:51Z</time>
      </trkpt>
      <trkpt lat="45.91295" lon="4.74981">
        <ele>177</ele>
        <time>2017-08-15T08:25:52Z</time>
      </trkpt>
      <trkpt lat="45.91294" lon="4.74988">
        <ele>177</ele>
        <time>2017-08-15T08:25:53Z</time>
      </trkpt>
      <trkpt lat="45.91294" lon="4.74995">
        <ele>177</ele>
        <time>2017-08-15T08:25:54Z</time>
      </trkpt>
      <trkpt lat="45.91294" lon="4.75003">
        <ele>177</ele>
        <time>2017-08-15T08:25:55Z</time>
      </trkpt>
      <trkpt lat="45.91294" lon="4.75011">
        <ele>177</ele>
        <time>2017-08-15T08:25:56Z</time>
      </trkpt>
      <trkpt lat="45.91294" lon="4.75018">
        <ele>177</ele>
        <time>2017-08-15T08:25:57Z</time>
      </trkpt>
      <trkpt lat="45.91294" lon="4.75026">
        <ele>177</ele>
        <time>2017-08-15T08:25:58Z</time>
      </trkpt>
      <trkpt lat="45.91293" lon="4.75033">
        <ele>177</ele>
        <time>2017-08-15T08:25:59Z</time>
      </trkpt>
      <trkpt lat="45.91293" lon="4.75041">
        <ele>177</ele>
        <time>2017-08-15T08:26:00Z</time>
      </trkpt>
      <trkpt lat="45.91293" lon="4.75048">
        <ele>177</ele>
        <time>2017-08-15T08:26:01Z</time>
      </trkpt>
      <trkpt lat="45.91293" lon="4.75056">
        <ele>177</ele>
        <time>2017-08-15T08:26:02Z</time>
      </trkpt>
      <trkpt lat="45.91294" lon="4.75064">
        <ele>177</ele>
        <time>2017-08-15T08:26:03Z</time>
      </trkpt>
      <trkpt lat="45.91294" lon="4.75073">
        <ele>177</ele>
        <time>2017-08-15T08:26:04Z</time>
      </trkpt>
      <trkpt lat="45.91295" lon="4.75081">
        <ele>177</ele>
        <time>2017-08-15T08:26:05Z</time>
      </trkpt>
      <trkpt lat="45.91295" lon="4.75088">
        <ele>177</ele>
        <time>2017-08-15T08:26:06Z</time>
      </trkpt>
      <trkpt lat="45.91296" lon="4.75096">
        <ele>177</ele>
        <time>2017-08-15T08:26:07Z</time>
      </trkpt>
      <trkpt lat="45.91297" lon="4.75103">
        <ele>177</ele>
        <time>2017-08-15T08:26:08Z</time>
      </trkpt>
      <trkpt lat="45.91297" lon="4.7511">
        <ele>177</ele>
        <time>2017-08-15T08:26:09Z</time>
      </trkpt>
      <trkpt lat="45.91298" lon="4.75116">
        <ele>177</ele>
        <time>2017-08-15T08:26:10Z</time>
      </trkpt>
      <trkpt lat="45.91299" lon="4.75123">
        <ele>177</ele>
        <time>2017-08-15T08:26:11Z</time>
      </trkpt>
      <trkpt lat="45.913" lon="4.75129">
        <ele>177</ele>
        <time>2017-08-15T08:26:12Z</time>
      </trkpt>
      <trkpt lat="45.91302" lon="4.75135">
        <ele>177</ele>
        <time>2017-08-15T08:26:13Z</time>
      </trkpt>
      <trkpt lat="45.91303" lon="4.75142">
        <ele>177</ele>
        <time>2017-08-15T08:26:14Z</time>
      </trkpt>
      <trkpt lat="45.91304" lon="4.75154">
        <ele>177</ele>
        <time>2017-08-15T08:26:16Z</time>
      </trkpt>
      <trkpt lat="45.91303" lon="4.75156">
        <ele>177</ele>
        <time>2017-08-15T08:26:17Z</time>
      </trkpt>
      <trkpt lat="45.91295" lon="4.75156">
        <ele>177</ele>
        <time>2017-08-15T08:26:19Z</time>
      </trkpt>
      <trkpt lat="45.91291" lon="4.75155">
        <ele>177</ele>
        <time>2017-08-15T08:26:20Z</time>
      </trkpt>
      <trkpt lat="45.91283" lon="4.75152">
        <ele>177</ele>
        <time>2017-08-15T08:26:22Z</time>
      </trkpt>
      <trkpt lat="45.91278" lon="4.75149">
        <ele>177</ele>
        <time>2017-08-15T08:26:23Z</time>
      </trkpt>
      <trkpt lat="45.91273" lon="4.75147">
        <ele>177</ele>
        <time>2017-08-15T08:26:24Z</time>
      </trkpt>
      <trkpt lat="45.91269" lon="4.75145">
        <ele>177</ele>
        <time>2017-08-15T08:26:25Z</time>
      </trkpt>
      <trkpt lat="45.91264" lon="4.75143">
        <ele>177</ele>
        <time>2017-08-15T08:26:26Z</time>
      </trkpt>
      <trkpt lat="45.9126" lon="4.7514">
        <ele>177</ele>
        <time>2017-08-15T08:26:27Z</time>
      </trkpt>
      <trkpt lat="45.91255" lon="4.75138">
        <ele>177</ele>
        <time>2017-08-15T08:26:28Z</time>
      </trkpt>
      <trkpt lat="45.9125" lon="4.75135">
        <ele>177</ele>
        <time>2017-08-15T08:26:29Z</time>
      </trkpt>
      <trkpt lat="45.91244" lon="4.75133">
        <ele>177</ele>
        <time>2017-08-15T08:26:30Z</time>
      </trkpt>
      <trkpt lat="45.91239" lon="4.7513">
        <ele>177</ele>
        <time>2017-08-15T08:26:31Z</time>
      </trkpt>
      <trkpt lat="45.91233" lon="4.75128">
        <ele>177</ele>
        <time>2017-08-15T08:26:32Z</time>
      </trkpt>
      <trkpt lat="45.91227" lon="4.75125">
        <ele>177</ele>
        <time>2017-08-15T08:26:33Z</time>
      </trkpt>
      <trkpt lat="45.91221" lon="4.75123">
        <ele>177</ele>
        <time>2017-08-15T08:26:34Z</time>
      </trkpt>
      <trkpt lat="45.91215" lon="4.75121">
        <ele>177</ele>
        <time>2017-08-15T08:26:35Z</time>
      </trkpt>
      <trkpt lat="45.91209" lon="4.75119">
        <ele>177</ele>
        <time>2017-08-15T08:26:36Z</time>
      </trkpt>
      <trkpt lat="45.91203" lon="4.75118">
        <ele>178</ele>
        <time>2017-08-15T08:26:37Z</time>
      </trkpt>
      <trkpt lat="45.91198" lon="4.75116">
        <ele>178</ele>
        <time>2017-08-15T08:26:38Z</time>
      </trkpt>
      <trkpt lat="45.91192" lon="4.75115">
        <ele>178</ele>
        <time>2017-08-15T08:26:39Z</time>
      </trkpt>
      <trkpt lat="45.91187" lon="4.75114">
        <ele>178</ele>
        <time>2017-08-15T08:26:40Z</time>
      </trkpt>
      <trkpt lat="45.91181" lon="4.75113">
        <ele>178</ele>
        <time>2017-08-15T08:26:41Z</time>
      </trkpt>
      <trkpt lat="45.91177" lon="4.75111">
        <ele>178</ele>
        <time>2017-08-15T08:26:42Z</time>
      </trkpt>
      <trkpt lat="45.91172" lon="4.7511">
        <ele>178</ele>
        <time>2017-08-15T08:26:43Z</time>
      </trkpt>
      <trkpt lat="45.91163" lon="4.75108">
        <ele>179</ele>
        <time>2017-08-15T08:26:45Z</time>
      </trkpt>
      <trkpt lat="45.91159" lon="4.75107">
        <ele>179</ele>
        <time>2017-08-15T08:26:46Z</time>
      </trkpt>
      <trkpt lat="45.91155" lon="4.75105">
        <ele>179</ele>
        <time>2017-08-15T08:26:47Z</time>
      </trkpt>
      <trkpt lat="45.9115" lon="4.75104">
        <ele>179</ele>
        <time>2017-08-15T08:26:48Z</time>
      </trkpt>
      <trkpt lat="45.91145" lon="4.75102">
        <ele>179</ele>
        <time>2017-08-15T08:26:49Z</time>
      </trkpt>
      <trkpt lat="45.9114" lon="4.75101">
        <ele>179</ele>
        <time>2017-08-15T08:26:50Z</time>
      </trkpt>
      <trkpt lat="45.91134" lon="4.75099">
        <ele>179</ele>
        <time>2017-08-15T08:26:51Z</time>
      </trkpt>
      <trkpt lat="45.91129" lon="4.75097">
        <ele>179</ele>
        <time>2017-08-15T08:26:52Z</time>
      </trkpt>
      <trkpt lat="45.91124" lon="4.75095">
        <ele>179</ele>
        <time>2017-08-15T08:26:53Z</time>
      </trkpt>
      <trkpt lat="45.91119" lon="4.75093">
        <ele>179</ele>
        <time>2017-08-15T08:26:54Z</time>
      </trkpt>
      <trkpt lat="45.91114" lon="4.75091">
        <ele>179</ele>
        <time>2017-08-15T08:26:55Z</time>
      </trkpt>
      <trkpt lat="45.9111" lon="4.75089">
        <ele>180</ele>
        <time>2017-08-15T08:26:56Z</time>
      </trkpt>
      <trkpt lat="45.91105" lon="4.75087">
        <ele>180</ele>
        <time>2017-08-15T08:26:57Z</time>
      </trkpt>
      <trkpt lat="45.911" lon="4.75085">
        <ele>180</ele>
        <time>2017-08-15T08:26:58Z</time>
      </trkpt>
      <trkpt lat="45.91095" lon="4.75084">
        <ele>180</ele>
        <time>2017-08-15T08:26:59Z</time>
      </trkpt>
      <trkpt lat="45.9109" lon="4.75082">
        <ele>180</ele>
        <time>2017-08-15T08:27:00Z</time>
      </trkpt>
      <trkpt lat="45.91084" lon="4.75081">
        <ele>180</ele>
        <time>2017-08-15T08:27:01Z</time>
      </trkpt>
      <trkpt lat="45.91079" lon="4.75079">
        <ele>180</ele>
        <time>2017-08-15T08:27:02Z</time>
      </trkpt>
      <trkpt lat="45.91074" lon="4.75077">
        <ele>179</ele>
        <time>2017-08-15T08:27:03Z</time>
      </trkpt>
      <trkpt lat="45.91068" lon="4.75075">
        <ele>179</ele>
        <time>2017-08-15T08:27:04Z</time>
      </trkpt>
      <trkpt lat="45.91063" lon="4.75073">
        <ele>179</ele>
        <time>2017-08-15T08:27:05Z</time>
      </trkpt>
      <trkpt lat="45.91058" lon="4.75071">
        <ele>179</ele>
        <time>2017-08-15T08:27:06Z</time>
      </trkpt>
      <trkpt lat="45.91053" lon="4.75069">
        <ele>179</ele>
        <time>2017-08-15T08:27:07Z</time>
      </trkpt>
      <trkpt lat="45.91049" lon="4.75067">
        <ele>179</ele>
        <time>2017-08-15T08:27:08Z</time>
      </trkpt>
      <trkpt lat="45.91044" lon="4.75065">
        <ele>179</ele>
        <time>2017-08-15T08:27:09Z</time>
      </trkpt>
      <trkpt lat="45.91039" lon="4.75064">
        <ele>179</ele>
        <time>2017-08-15T08:27:10Z</time>
      </trkpt>
      <trkpt lat="45.91033" lon="4.75061">
        <ele>179</ele>
        <time>2017-08-15T08:27:11Z</time>
      </trkpt>
      <trkpt lat="45.91028" lon="4.75059">
        <ele>179</ele>
        <time>2017-08-15T08:27:12Z</time>
      </trkpt>
      <trkpt lat="45.91023" lon="4.75057">
        <ele>179</ele>
        <time>2017-08-15T08:27:13Z</time>
      </trkpt>
      <trkpt lat="45.91018" lon="4.75055">
        <ele>179</ele>
        <time>2017-08-15T08:27:14Z</time>
      </trkpt>
      <trkpt lat="45.91013" lon="4.75052">
        <ele>179</ele>
        <time>2017-08-15T08:27:15Z</time>
      </trkpt>
      <trkpt lat="45.91008" lon="4.7505">
        <ele>178</ele>
        <time>2017-08-15T08:27:16Z</time>
      </trkpt>
      <trkpt lat="45.91003" lon="4.75048">
        <ele>178</ele>
        <time>2017-08-15T08:27:17Z</time>
      </trkpt>
      <trkpt lat="45.90998" lon="4.75046">
        <ele>179</ele>
        <time>2017-08-15T08:27:18Z</time>
      </trkpt>
      <trkpt lat="45.90994" lon="4.75045">
        <ele>179</ele>
        <time>2017-08-15T08:27:19Z</time>
      </trkpt>
      <trkpt lat="45.90989" lon="4.75043">
        <ele>179</ele>
        <time>2017-08-15T08:27:20Z</time>
      </trkpt>
      <trkpt lat="45.90983" lon="4.75041">
        <ele>179</ele>
        <time>2017-08-15T08:27:21Z</time>
      </trkpt>
      <trkpt lat="45.90978" lon="4.75039">
        <ele>179</ele>
        <time>2017-08-15T08:27:22Z</time>
      </trkpt>
      <trkpt lat="45.90973" lon="4.75037">
        <ele>179</ele>
        <time>2017-08-15T08:27:23Z</time>
      </trkpt>
      <trkpt lat="45.90968" lon="4.75034">
        <ele>179</ele>
        <time>2017-08-15T08:27:24Z</time>
      </trkpt>
      <trkpt lat="45.90963" lon="4.75032">
        <ele>179</ele>
        <time>2017-08-15T08:27:25Z</time>
      </trkpt>
      <trkpt lat="45.90957" lon="4.75029">
        <ele>179</ele>
        <time>2017-08-15T08:27:26Z</time>
      </trkpt>
      <trkpt lat="45.90952" lon="4.75027">
        <ele>179</ele>
        <time>2017-08-15T08:27:27Z</time>
      </trkpt>
      <trkpt lat="45.90947" lon="4.75025">
        <ele>179</ele>
        <time>2017-08-15T08:27:28Z</time>
      </trkpt>
      <trkpt lat="45.90942" lon="4.75024">
        <ele>179</ele>
        <time>2017-08-15T08:27:29Z</time>
      </trkpt>
      <trkpt lat="45.90937" lon="4.75022">
        <ele>179</ele>
        <time>2017-08-15T08:27:30Z</time>
      </trkpt>
      <trkpt lat="45.90929" lon="4.75018">
        <ele>178</ele>
        <time>2017-08-15T08:27:32Z</time>
      </trkpt>
      <trkpt lat="45.90925" lon="4.75016">
        <ele>178</ele>
        <time>2017-08-15T08:27:33Z</time>
      </trkpt>
      <trkpt lat="45.90921" lon="4.75014">
        <ele>178</ele>
        <time>2017-08-15T08:27:34Z</time>
      </trkpt>
      <trkpt lat="45.90916" lon="4.75012">
        <ele>179</ele>
        <time>2017-08-15T08:27:35Z</time>
      </trkpt>
      <trkpt lat="45.90911" lon="4.75009">
        <ele>179</ele>
        <time>2017-08-15T08:27:36Z</time>
      </trkpt>
      <trkpt lat="45.90906" lon="4.75007">
        <ele>179</ele>
        <time>2017-08-15T08:27:37Z</time>
      </trkpt>
      <trkpt lat="45.90901" lon="4.75005">
        <ele>179</ele>
        <time>2017-08-15T08:27:38Z</time>
      </trkpt>
      <trkpt lat="45.90896" lon="4.75003">
        <ele>179</ele>
        <time>2017-08-15T08:27:39Z</time>
      </trkpt>
      <trkpt lat="45.90891" lon="4.75001">
        <ele>179</ele>
        <time>2017-08-15T08:27:40Z</time>
      </trkpt>
      <trkpt lat="45.90886" lon="4.74998">
        <ele>178</ele>
        <time>2017-08-15T08:27:41Z</time>
      </trkpt>
      <trkpt lat="45.9088" lon="4.74996">
        <ele>178</ele>
        <time>2017-08-15T08:27:42Z</time>
      </trkpt>
      <trkpt lat="45.90875" lon="4.74994">
        <ele>179</ele>
        <time>2017-08-15T08:27:43Z</time>
      </trkpt>
      <trkpt lat="45.9087" lon="4.74992">
        <ele>179</ele>
        <time>2017-08-15T08:27:44Z</time>
      </trkpt>
      <trkpt lat="45.90865" lon="4.7499">
        <ele>179</ele>
        <time>2017-08-15T08:27:45Z</time>
      </trkpt>
      <trkpt lat="45.90861" lon="4.74988">
        <ele>179</ele>
        <time>2017-08-15T08:27:46Z</time>
      </trkpt>
      <trkpt lat="45.90856" lon="4.74986">
        <ele>179</ele>
        <time>2017-08-15T08:27:47Z</time>
      </trkpt>
      <trkpt lat="45.90852" lon="4.74984">
        <ele>179</ele>
        <time>2017-08-15T08:27:48Z</time>
      </trkpt>
      <trkpt lat="45.90847" lon="4.74983">
        <ele>179</ele>
        <time>2017-08-15T08:27:49Z</time>
      </trkpt>
      <trkpt lat="45.90843" lon="4.74981">
        <ele>179</ele>
        <time>2017-08-15T08:27:50Z</time>
      </trkpt>
      <trkpt lat="45.90838" lon="4.74979">
        <ele>179</ele>
        <time>2017-08-15T08:27:51Z</time>
      </trkpt>
      <trkpt lat="45.90833" lon="4.74977">
        <ele>179</ele>
        <time>2017-08-15T08:27:52Z</time>
      </trkpt>
      <trkpt lat="45.90828" lon="4.74975">
        <ele>179</ele>
        <time>2017-08-15T08:27:53Z</time>
      </trkpt>
      <trkpt lat="45.90823" lon="4.74973">
        <ele>179</ele>
        <time>2017-08-15T08:27:54Z</time>
      </trkpt>
      <trkpt lat="45.90818" lon="4.74971">
        <ele>179</ele>
        <time>2017-08-15T08:27:55Z</time>
      </trkpt>
      <trkpt lat="45.90812" lon="4.74969">
        <ele>179</ele>
        <time>2017-08-15T08:27:56Z</time>
      </trkpt>
      <trkpt lat="45.90807" lon="4.74967">
        <ele>179</ele>
        <time>2017-08-15T08:27:57Z</time>
      </trkpt>
      <trkpt lat="45.90802" lon="4.74965">
        <ele>179</ele>
        <time>2017-08-15T08:27:58Z</time>
      </trkpt>
      <trkpt lat="45.90798" lon="4.74964">
        <ele>179</ele>
        <time>2017-08-15T08:27:59Z</time>
      </trkpt>
      <trkpt lat="45.90793" lon="4.74962">
        <ele>179</ele>
        <time>2017-08-15T08:28:00Z</time>
      </trkpt>
      <trkpt lat="45.90788" lon="4.7496">
        <ele>180</ele>
        <time>2017-08-15T08:28:01Z</time>
      </trkpt>
      <trkpt lat="45.90784" lon="4.74959">
        <ele>180</ele>
        <time>2017-08-15T08:28:02Z</time>
      </trkpt>
      <trkpt lat="45.90779" lon="4.74957">
        <ele>180</ele>
        <time>2017-08-15T08:28:03Z</time>
      </trkpt>
      <trkpt lat="45.90774" lon="4.74955">
        <ele>180</ele>
        <time>2017-08-15T08:28:04Z</time>
      </trkpt>
      <trkpt lat="45.90769" lon="4.74954">
        <ele>180</ele>
        <time>2017-08-15T08:28:05Z</time>
      </trkpt>
      <trkpt lat="45.90764" lon="4.74952">
        <ele>180</ele>
        <time>2017-08-15T08:28:06Z</time>
      </trkpt>
      <trkpt lat="45.90759" lon="4.7495">
        <ele>180</ele>
        <time>2017-08-15T08:28:07Z</time>
      </trkpt>
      <trkpt lat="45.90754" lon="4.74949">
        <ele>180</ele>
        <time>2017-08-15T08:28:08Z</time>
      </trkpt>
      <trkpt lat="45.90749" lon="4.74947">
        <ele>181</ele>
        <time>2017-08-15T08:28:09Z</time>
      </trkpt>
      <trkpt lat="45.90745" lon="4.74945">
        <ele>181</ele>
        <time>2017-08-15T08:28:10Z</time>
      </trkpt>
      <trkpt lat="45.9074" lon="4.74943">
        <ele>181</ele>
        <time>2017-08-15T08:28:11Z</time>
      </trkpt>
      <trkpt lat="45.90735" lon="4.74941">
        <ele>181</ele>
        <time>2017-08-15T08:28:12Z</time>
      </trkpt>
      <trkpt lat="45.90731" lon="4.74939">
        <ele>181</ele>
        <time>2017-08-15T08:28:13Z</time>
      </trkpt>
      <trkpt lat="45.90723" lon="4.74937">
        <ele>181</ele>
        <time>2017-08-15T08:28:15Z</time>
      </trkpt>
      <trkpt lat="45.90718" lon="4.74936">
        <ele>181</ele>
        <time>2017-08-15T08:28:16Z</time>
      </trkpt>
      <trkpt lat="45.9071" lon="4.74937">
        <ele>181</ele>
        <time>2017-08-15T08:28:18Z</time>
      </trkpt>
      <trkpt lat="45.90705" lon="4.74939">
        <ele>181</ele>
        <time>2017-08-15T08:28:19Z</time>
      </trkpt>
      <trkpt lat="45.90701" lon="4.7494">
        <ele>181</ele>
        <time>2017-08-15T08:28:20Z</time>
      </trkpt>
      <trkpt lat="45.90696" lon="4.74941">
        <ele>181</ele>
        <time>2017-08-15T08:28:21Z</time>
      </trkpt>
      <trkpt lat="45.90691" lon="4.74943">
        <ele>181</ele>
        <time>2017-08-15T08:28:22Z</time>
      </trkpt>
      <trkpt lat="45.90686" lon="4.74944">
        <ele>181</ele>
        <time>2017-08-15T08:28:23Z</time>
      </trkpt>
      <trkpt lat="45.90681" lon="4.74946">
        <ele>181</ele>
        <time>2017-08-15T08:28:24Z</time>
      </trkpt>
      <trkpt lat="45.90676" lon="4.74948">
        <ele>181</ele>
        <time>2017-08-15T08:28:25Z</time>
      </trkpt>
      <trkpt lat="45.90671" lon="4.7495">
        <ele>182</ele>
        <time>2017-08-15T08:28:26Z</time>
      </trkpt>
      <trkpt lat="45.90667" lon="4.74952">
        <ele>183</ele>
        <time>2017-08-15T08:28:27Z</time>
      </trkpt>
      <trkpt lat="45.90662" lon="4.74954">
        <ele>183</ele>
        <time>2017-08-15T08:28:28Z</time>
      </trkpt>
      <trkpt lat="45.90658" lon="4.74956">
        <ele>183</ele>
        <time>2017-08-15T08:28:29Z</time>
      </trkpt>
      <trkpt lat="45.90653" lon="4.74958">
        <ele>183</ele>
        <time>2017-08-15T08:28:30Z</time>
      </trkpt>
      <trkpt lat="45.90649" lon="4.74959">
        <ele>183</ele>
        <time>2017-08-15T08:28:31Z</time>
      </trkpt>
      <trkpt lat="45.90644" lon="4.74961">
        <ele>183</ele>
        <time>2017-08-15T08:28:32Z</time>
      </trkpt>
      <trkpt lat="45.9064" lon="4.74963">
        <ele>183</ele>
        <time>2017-08-15T08:28:33Z</time>
      </trkpt>
      <trkpt lat="45.90635" lon="4.74964">
        <ele>183</ele>
        <time>2017-08-15T08:28:34Z</time>
      </trkpt>
      <trkpt lat="45.90631" lon="4.74966">
        <ele>183</ele>
        <time>2017-08-15T08:28:35Z</time>
      </trkpt>
      <trkpt lat="45.90626" lon="4.74967">
        <ele>183</ele>
        <time>2017-08-15T08:28:36Z</time>
      </trkpt>
      <trkpt lat="45.90622" lon="4.74968">
        <ele>183</ele>
        <time>2017-08-15T08:28:37Z</time>
      </trkpt>
      <trkpt lat="45.90613" lon="4.7497">
        <ele>184</ele>
        <time>2017-08-15T08:28:39Z</time>
      </trkpt>
      <trkpt lat="45.90608" lon="4.74971">
        <ele>184</ele>
        <time>2017-08-15T08:28:40Z</time>
      </trkpt>
      <trkpt lat="45.90603" lon="4.74971">
        <ele>184</ele>
        <time>2017-08-15T08:28:41Z</time>
      </trkpt>
      <trkpt lat="45.90599" lon="4.74972">
        <ele>184</ele>
        <time>2017-08-15T08:28:42Z</time>
      </trkpt>
      <trkpt lat="45.9059" lon="4.74974">
        <ele>184</ele>
        <time>2017-08-15T08:28:44Z</time>
      </trkpt>
      <trkpt lat="45.90586" lon="4.74974">
        <ele>184</ele>
        <time>2017-08-15T08:28:45Z</time>
      </trkpt>
      <trkpt lat="45.90577" lon="4.74976">
        <ele>184</ele>
        <time>2017-08-15T08:28:47Z</time>
      </trkpt>
      <trkpt lat="45.90573" lon="4.74976">
        <ele>184</ele>
        <time>2017-08-15T08:28:48Z</time>
      </trkpt>
      <trkpt lat="45.90564" lon="4.74978">
        <ele>184</ele>
        <time>2017-08-15T08:28:50Z</time>
      </trkpt>
      <trkpt lat="45.9056" lon="4.74978">
        <ele>184</ele>
        <time>2017-08-15T08:28:51Z</time>
      </trkpt>
      <trkpt lat="45.90555" lon="4.74979">
        <ele>184</ele>
        <time>2017-08-15T08:28:52Z</time>
      </trkpt>
      <trkpt lat="45.90551" lon="4.7498">
        <ele>185</ele>
        <time>2017-08-15T08:28:53Z</time>
      </trkpt>
      <trkpt lat="45.90546" lon="4.7498">
        <ele>185</ele>
        <time>2017-08-15T08:28:54Z</time>
      </trkpt>
      <trkpt lat="45.90542" lon="4.74981">
        <ele>185</ele>
        <time>2017-08-15T08:28:55Z</time>
      </trkpt>
      <trkpt lat="45.90534" lon="4.74983">
        <ele>185</ele>
        <time>2017-08-15T08:28:57Z</time>
      </trkpt>
      <trkpt lat="45.9053" lon="4.74984">
        <ele>185</ele>
        <time>2017-08-15T08:28:58Z</time>
      </trkpt>
      <trkpt lat="45.90521" lon="4.74985">
        <ele>185</ele>
        <time>2017-08-15T08:29:00Z</time>
      </trkpt>
      <trkpt lat="45.90516" lon="4.74986">
        <ele>185</ele>
        <time>2017-08-15T08:29:01Z</time>
      </trkpt>
      <trkpt lat="45.90508" lon="4.74987">
        <ele>185</ele>
        <time>2017-08-15T08:29:03Z</time>
      </trkpt>
      <trkpt lat="45.90504" lon="4.74987">
        <ele>185</ele>
        <time>2017-08-15T08:29:04Z</time>
      </trkpt>
      <trkpt lat="45.90495" lon="4.74989">
        <ele>186</ele>
        <time>2017-08-15T08:29:06Z</time>
      </trkpt>
      <trkpt lat="45.90491" lon="4.74989">
        <ele>186</ele>
        <time>2017-08-15T08:29:07Z</time>
      </trkpt>
      <trkpt lat="45.90482" lon="4.7499">
        <ele>186</ele>
        <time>2017-08-15T08:29:09Z</time>
      </trkpt>
      <trkpt lat="45.90478" lon="4.74991">
        <ele>186</ele>
        <time>2017-08-15T08:29:10Z</time>
      </trkpt>
      <trkpt lat="45.9047" lon="4.74992">
        <ele>186</ele>
        <time>2017-08-15T08:29:12Z</time>
      </trkpt>
      <trkpt lat="45.90465" lon="4.74993">
        <ele>186</ele>
        <time>2017-08-15T08:29:13Z</time>
      </trkpt>
      <trkpt lat="45.90456" lon="4.74994">
        <ele>186</ele>
        <time>2017-08-15T08:29:15Z</time>
      </trkpt>
      <trkpt lat="45.90452" lon="4.74995">
        <ele>186</ele>
        <time>2017-08-15T08:29:16Z</time>
      </trkpt>
      <trkpt lat="45.90443" lon="4.74997">
        <ele>186</ele>
        <time>2017-08-15T08:29:18Z</time>
      </trkpt>
      <trkpt lat="45.90439" lon="4.74998">
        <ele>187</ele>
        <time>2017-08-15T08:29:19Z</time>
      </trkpt>
      <trkpt lat="45.90431" lon="4.75">
        <ele>187</ele>
        <time>2017-08-15T08:29:21Z</time>
      </trkpt>
      <trkpt lat="45.90426" lon="4.75001">
        <ele>188</ele>
        <time>2017-08-15T08:29:22Z</time>
      </trkpt>
      <trkpt lat="45.90422" lon="4.75002">
        <ele>188</ele>
        <time>2017-08-15T08:29:23Z</time>
      </trkpt>
      <trkpt lat="45.90417" lon="4.75003">
        <ele>188</ele>
        <time>2017-08-15T08:29:24Z</time>
      </trkpt>
      <trkpt lat="45.90412" lon="4.75004">
        <ele>188</ele>
        <time>2017-08-15T08:29:25Z</time>
      </trkpt>
      <trkpt lat="45.90408" lon="4.75006">
        <ele>188</ele>
        <time>2017-08-15T08:29:26Z</time>
      </trkpt>
      <trkpt lat="45.904" lon="4.75008">
        <ele>188</ele>
        <time>2017-08-15T08:29:28Z</time>
      </trkpt>
      <trkpt lat="45.90396" lon="4.75008">
        <ele>188</ele>
        <time>2017-08-15T08:29:29Z</time>
      </trkpt>
      <trkpt lat="45.90392" lon="4.75009">
        <ele>188</ele>
        <time>2017-08-15T08:29:30Z</time>
      </trkpt>
      <trkpt lat="45.90387" lon="4.7501">
        <ele>188</ele>
        <time>2017-08-15T08:29:31Z</time>
      </trkpt>
      <trkpt lat="45.90378" lon="4.75012">
        <ele>188</ele>
        <time>2017-08-15T08:29:33Z</time>
      </trkpt>
      <trkpt lat="45.90374" lon="4.75013">
        <ele>188</ele>
        <time>2017-08-15T08:29:34Z</time>
      </trkpt>
      <trkpt lat="45.90365" lon="4.75015">
        <ele>188</ele>
        <time>2017-08-15T08:29:36Z</time>
      </trkpt>
      <trkpt lat="45.90361" lon="4.75016">
        <ele>188</ele>
        <time>2017-08-15T08:29:37Z</time>
      </trkpt>
      <trkpt lat="45.90353" lon="4.75019">
        <ele>188</ele>
        <time>2017-08-15T08:29:39Z</time>
      </trkpt>
      <trkpt lat="45.90348" lon="4.7502">
        <ele>188</ele>
        <time>2017-08-15T08:29:40Z</time>
      </trkpt>
      <trkpt lat="45.90344" lon="4.75021">
        <ele>188</ele>
        <time>2017-08-15T08:29:41Z</time>
      </trkpt>
      <trkpt lat="45.90339" lon="4.75022">
        <ele>188</ele>
        <time>2017-08-15T08:29:42Z</time>
      </trkpt>
      <trkpt lat="45.90335" lon="4.75023">
        <ele>188</ele>
        <time>2017-08-15T08:29:43Z</time>
      </trkpt>
      <trkpt lat="45.9033" lon="4.75024">
        <ele>189</ele>
        <time>2017-08-15T08:29:44Z</time>
      </trkpt>
      <trkpt lat="45.90322" lon="4.75027">
        <ele>189</ele>
        <time>2017-08-15T08:29:46Z</time>
      </trkpt>
      <trkpt lat="45.90319" lon="4.75028">
        <ele>189</ele>
        <time>2017-08-15T08:29:47Z</time>
      </trkpt>
      <trkpt lat="45.90312" lon="4.7503">
        <ele>189</ele>
        <time>2017-08-15T08:29:49Z</time>
      </trkpt>
      <trkpt lat="45.90309" lon="4.75031">
        <ele>189</ele>
        <time>2017-08-15T08:29:50Z</time>
      </trkpt>
      <trkpt lat="45.90301" lon="4.75033">
        <ele>189</ele>
        <time>2017-08-15T08:29:52Z</time>
      </trkpt>
      <trkpt lat="45.90297" lon="4.75035">
        <ele>189</ele>
        <time>2017-08-15T08:29:53Z</time>
      </trkpt>
      <trkpt lat="45.90289" lon="4.75037">
        <ele>189</ele>
        <time>2017-08-15T08:29:55Z</time>
      </trkpt>
      <trkpt lat="45.90285" lon="4.75037">
        <ele>190</ele>
        <time>2017-08-15T08:29:56Z</time>
      </trkpt>
      <trkpt lat="45.9028" lon="4.75038">
        <ele>190</ele>
        <time>2017-08-15T08:29:57Z</time>
      </trkpt>
      <trkpt lat="45.90276" lon="4.75039">
        <ele>190</ele>
        <time>2017-08-15T08:29:58Z</time>
      </trkpt>
      <trkpt lat="45.90267" lon="4.75042">
        <ele>190</ele>
        <time>2017-08-15T08:30:00Z</time>
      </trkpt>
      <trkpt lat="45.90263" lon="4.75044">
        <ele>190</ele>
        <time>2017-08-15T08:30:01Z</time>
      </trkpt>
      <trkpt lat="45.90255" lon="4.75047">
        <ele>190</ele>
        <time>2017-08-15T08:30:03Z</time>
      </trkpt>
      <trkpt lat="45.90251" lon="4.75049">
        <ele>190</ele>
        <time>2017-08-15T08:30:04Z</time>
      </trkpt>
      <trkpt lat="45.90244" lon="4.75051">
        <ele>191</ele>
        <time>2017-08-15T08:30:06Z</time>
      </trkpt>
      <trkpt lat="45.90241" lon="4.75052">
        <ele>191</ele>
        <time>2017-08-15T08:30:07Z</time>
      </trkpt>
      <trkpt lat="45.90233" lon="4.75054">
        <ele>191</ele>
        <time>2017-08-15T08:30:09Z</time>
      </trkpt>
      <trkpt lat="45.90229" lon="4.75056">
        <ele>191</ele>
        <time>2017-08-15T08:30:10Z</time>
      </trkpt>
      <trkpt lat="45.90221" lon="4.75058">
        <ele>191</ele>
        <time>2017-08-15T08:30:12Z</time>
      </trkpt>
      <trkpt lat="45.90217" lon="4.75059">
        <ele>191</ele>
        <time>2017-08-15T08:30:13Z</time>
      </trkpt>
      <trkpt lat="45.90209" lon="4.7506">
        <ele>191</ele>
        <time>2017-08-15T08:30:15Z</time>
      </trkpt>
      <trkpt lat="45.90205" lon="4.75061">
        <ele>191</ele>
        <time>2017-08-15T08:30:16Z</time>
      </trkpt>
      <trkpt lat="45.90197" lon="4.75063">
        <ele>191</ele>
        <time>2017-08-15T08:30:18Z</time>
      </trkpt>
      <trkpt lat="45.90193" lon="4.75065">
        <ele>191</ele>
        <time>2017-08-15T08:30:19Z</time>
      </trkpt>
      <trkpt lat="45.90185" lon="4.75069">
        <ele>191</ele>
        <time>2017-08-15T08:30:21Z</time>
      </trkpt>
      <trkpt lat="45.90181" lon="4.75071">
        <ele>191</ele>
        <time>2017-08-15T08:30:22Z</time>
      </trkpt>
      <trkpt lat="45.90174" lon="4.75076">
        <ele>191</ele>
        <time>2017-08-15T08:30:24Z</time>
      </trkpt>
      <trkpt lat="45.90171" lon="4.75078">
        <ele>191</ele>
        <time>2017-08-15T08:30:25Z</time>
      </trkpt>
      <trkpt lat="45.90163" lon="4.75081">
        <ele>191</ele>
        <time>2017-08-15T08:30:28Z</time>
      </trkpt>
      <trkpt lat="45.9016" lon="4.75079">
        <ele>191</ele>
        <time>2017-08-15T08:30:29Z</time>
      </trkpt>
      <trkpt lat="45.90153" lon="4.75072">
        <ele>191</ele>
        <time>2017-08-15T08:30:31Z</time>
      </trkpt>
      <trkpt lat="45.9015" lon="4.7507">
        <ele>191</ele>
        <time>2017-08-15T08:30:32Z</time>
      </trkpt>
      <trkpt lat="45.90143" lon="4.75063">
        <ele>192</ele>
        <time>2017-08-15T08:30:34Z</time>
      </trkpt>
      <trkpt lat="45.90139" lon="4.7506">
        <ele>192</ele>
        <time>2017-08-15T08:30:35Z</time>
      </trkpt>
      <trkpt lat="45.90135" lon="4.75057">
        <ele>192</ele>
        <time>2017-08-15T08:30:36Z</time>
      </trkpt>
      <trkpt lat="45.90131" lon="4.75054">
        <ele>192</ele>
        <time>2017-08-15T08:30:37Z</time>
      </trkpt>
      <trkpt lat="45.90126" lon="4.75052">
        <ele>192</ele>
        <time>2017-08-15T08:30:38Z</time>
      </trkpt>
      <trkpt lat="45.90122" lon="4.75049">
        <ele>192</ele>
        <time>2017-08-15T08:30:39Z</time>
      </trkpt>
      <trkpt lat="45.90118" lon="4.75047">
        <ele>192</ele>
        <time>2017-08-15T08:30:40Z</time>
      </trkpt>
      <trkpt lat="45.90114" lon="4.75044">
        <ele>192</ele>
        <time>2017-08-15T08:30:41Z</time>
      </trkpt>
      <trkpt lat="45.90109" lon="4.75042">
        <ele>192</ele>
        <time>2017-08-15T08:30:42Z</time>
      </trkpt>
      <trkpt lat="45.90105" lon="4.7504">
        <ele>192</ele>
        <time>2017-08-15T08:30:43Z</time>
      </trkpt>
      <trkpt lat="45.901" lon="4.75038">
        <ele>192</ele>
        <time>2017-08-15T08:30:44Z</time>
      </trkpt>
      <trkpt lat="45.90096" lon="4.75036">
        <ele>192</ele>
        <time>2017-08-15T08:30:45Z</time>
      </trkpt>
      <trkpt lat="45.90091" lon="4.75034">
        <ele>192</ele>
        <time>2017-08-15T08:30:46Z</time>
      </trkpt>
      <trkpt lat="45.90087" lon="4.75032">
        <ele>192</ele>
        <time>2017-08-15T08:30:47Z</time>
      </trkpt>
      <trkpt lat="45.90082" lon="4.7503">
        <ele>193</ele>
        <time>2017-08-15T08:30:48Z</time>
      </trkpt>
      <trkpt lat="45.90077" lon="4.75028">
        <ele>193</ele>
        <time>2017-08-15T08:30:49Z</time>
      </trkpt>
      <trkpt lat="45.90072" lon="4.75027">
        <ele>193</ele>
        <time>2017-08-15T08:30:50Z</time>
      </trkpt>
      <trkpt lat="45.90068" lon="4.75025">
        <ele>193</ele>
        <time>2017-08-15T08:30:51Z</time>
      </trkpt>
      <trkpt lat="45.90063" lon="4.75023">
        <ele>193</ele>
        <time>2017-08-15T08:30:52Z</time>
      </trkpt>
      <trkpt lat="45.90059" lon="4.75022">
        <ele>193</ele>
        <time>2017-08-15T08:30:53Z</time>
      </trkpt>
      <trkpt lat="45.90054" lon="4.7502">
        <ele>193</ele>
        <time>2017-08-15T08:30:54Z</time>
      </trkpt>
      <trkpt lat="45.90049" lon="4.75019">
        <ele>193</ele>
        <time>2017-08-15T08:30:55Z</time>
      </trkpt>
      <trkpt lat="45.90045" lon="4.75017">
        <ele>193</ele>
        <time>2017-08-15T08:30:56Z</time>
      </trkpt>
      <trkpt lat="45.9004" lon="4.75015">
        <ele>193</ele>
        <time>2017-08-15T08:30:57Z</time>
      </trkpt>
      <trkpt lat="45.90035" lon="4.75013">
        <ele>193</ele>
        <time>2017-08-15T08:30:58Z</time>
      </trkpt>
      <trkpt lat="45.9003" lon="4.75011">
        <ele>193</ele>
        <time>2017-08-15T08:30:59Z</time>
      </trkpt>
      <trkpt lat="45.90025" lon="4.75009">
        <ele>193</ele>
        <time>2017-08-15T08:31:00Z</time>
      </trkpt>
      <trkpt lat="45.9002" lon="4.75008">
        <ele>193</ele>
        <time>2017-08-15T08:31:01Z</time>
      </trkpt>
      <trkpt lat="45.90015" lon="4.75006">
        <ele>193</ele>
        <time>2017-08-15T08:31:02Z</time>
      </trkpt>
      <trkpt lat="45.9001" lon="4.75004">
        <ele>192</ele>
        <time>2017-08-15T08:31:03Z</time>
      </trkpt>
      <trkpt lat="45.90005" lon="4.75003">
        <ele>192</ele>
        <time>2017-08-15T08:31:04Z</time>
      </trkpt>
      <trkpt lat="45.9" lon="4.75001">
        <ele>192</ele>
        <time>2017-08-15T08:31:05Z</time>
      </trkpt>
      <trkpt lat="45.89995" lon="4.75">
        <ele>192</ele>
        <time>2017-08-15T08:31:06Z</time>
      </trkpt>
      <trkpt lat="45.8999" lon="4.74999">
        <ele>192</ele>
        <time>2017-08-15T08:31:07Z</time>
      </trkpt>
      <trkpt lat="45.89985" lon="4.74997">
        <ele>192</ele>
        <time>2017-08-15T08:31:08Z</time>
      </trkpt>
      <trkpt lat="45.8998" lon="4.74997">
        <ele>192</ele>
        <time>2017-08-15T08:31:09Z</time>
      </trkpt>
      <trkpt lat="45.89975" lon="4.74996">
        <ele>193</ele>
        <time>2017-08-15T08:31:10Z</time>
      </trkpt>
      <trkpt lat="45.8997" lon="4.74994">
        <ele>193</ele>
        <time>2017-08-15T08:31:11Z</time>
      </trkpt>
      <trkpt lat="45.89966" lon="4.74994">
        <ele>193</ele>
        <time>2017-08-15T08:31:12Z</time>
      </trkpt>
      <trkpt lat="45.89961" lon="4.74993">
        <ele>193</ele>
        <time>2017-08-15T08:31:13Z</time>
      </trkpt>
      <trkpt lat="45.89957" lon="4.74992">
        <ele>193</ele>
        <time>2017-08-15T08:31:14Z</time>
      </trkpt>
      <trkpt lat="45.89952" lon="4.74991">
        <ele>193</ele>
        <time>2017-08-15T08:31:15Z</time>
      </trkpt>
      <trkpt lat="45.89947" lon="4.7499">
        <ele>193</ele>
        <time>2017-08-15T08:31:16Z</time>
      </trkpt>
      <trkpt lat="45.89943" lon="4.74989">
        <ele>193</ele>
        <time>2017-08-15T08:31:17Z</time>
      </trkpt>
      <trkpt lat="45.89938" lon="4.74987">
        <ele>193</ele>
        <time>2017-08-15T08:31:18Z</time>
      </trkpt>
      <trkpt lat="45.89933" lon="4.74986">
        <ele>193</ele>
        <time>2017-08-15T08:31:19Z</time>
      </trkpt>
      <trkpt lat="45.89928" lon="4.74985">
        <ele>193</ele>
        <time>2017-08-15T08:31:20Z</time>
      </trkpt>
      <trkpt lat="45.89923" lon="4.74983">
        <ele>193</ele>
        <time>2017-08-15T08:31:21Z</time>
      </trkpt>
      <trkpt lat="45.89918" lon="4.74982">
        <ele>193</ele>
        <time>2017-08-15T08:31:22Z</time>
      </trkpt>
      <trkpt lat="45.89914" lon="4.74982">
        <ele>194</ele>
        <time>2017-08-15T08:31:23Z</time>
      </trkpt>
      <trkpt lat="45.89905" lon="4.74979">
        <ele>194</ele>
        <time>2017-08-15T08:31:25Z</time>
      </trkpt>
      <trkpt lat="45.89901" lon="4.74978">
        <ele>194</ele>
        <time>2017-08-15T08:31:26Z</time>
      </trkpt>
      <trkpt lat="45.89892" lon="4.74977">
        <ele>194</ele>
        <time>2017-08-15T08:31:28Z</time>
      </trkpt>
      <trkpt lat="45.89888" lon="4.74976">
        <ele>194</ele>
        <time>2017-08-15T08:31:29Z</time>
      </trkpt>
      <trkpt lat="45.89879" lon="4.74974">
        <ele>194</ele>
        <time>2017-08-15T08:31:31Z</time>
      </trkpt>
      <trkpt lat="45.89874" lon="4.74972">
        <ele>194</ele>
        <time>2017-08-15T08:31:32Z</time>
      </trkpt>
      <trkpt lat="45.8987" lon="4.74971">
        <ele>194</ele>
        <time>2017-08-15T08:31:33Z</time>
      </trkpt>
      <trkpt lat="45.89865" lon="4.74969">
        <ele>194</ele>
        <time>2017-08-15T08:31:34Z</time>
      </trkpt>
      <trkpt lat="45.8986" lon="4.74968">
        <ele>194</ele>
        <time>2017-08-15T08:31:35Z</time>
      </trkpt>
      <trkpt lat="45.89855" lon="4.74967">
        <ele>194</ele>
        <time>2017-08-15T08:31:36Z</time>
      </trkpt>
      <trkpt lat="45.89847" lon="4.74966">
        <ele>194</ele>
        <time>2017-08-15T08:31:38Z</time>
      </trkpt>
      <trkpt lat="45.89843" lon="4.74964">
        <ele>194</ele>
        <time>2017-08-15T08:31:39Z</time>
      </trkpt>
      <trkpt lat="45.89835" lon="4.74961">
        <ele>194</ele>
        <time>2017-08-15T08:31:41Z</time>
      </trkpt>
      <trkpt lat="45.89831" lon="4.74961">
        <ele>194</ele>
        <time>2017-08-15T08:31:42Z</time>
      </trkpt>
      <trkpt lat="45.89823" lon="4.74959">
        <ele>195</ele>
        <time>2017-08-15T08:31:44Z</time>
      </trkpt>
      <trkpt lat="45.89819" lon="4.74958">
        <ele>195</ele>
        <time>2017-08-15T08:31:45Z</time>
      </trkpt>
      <trkpt lat="45.89811" lon="4.74955">
        <ele>195</ele>
        <time>2017-08-15T08:31:47Z</time>
      </trkpt>
      <trkpt lat="45.89806" lon="4.74953">
        <ele>195</ele>
        <time>2017-08-15T08:31:48Z</time>
      </trkpt>
      <trkpt lat="45.89801" lon="4.74952">
        <ele>195</ele>
        <time>2017-08-15T08:31:49Z</time>
      </trkpt>
      <trkpt lat="45.89796" lon="4.74949">
        <ele>195</ele>
        <time>2017-08-15T08:31:50Z</time>
      </trkpt>
      <trkpt lat="45.89791" lon="4.74947">
        <ele>195</ele>
        <time>2017-08-15T08:31:51Z</time>
      </trkpt>
      <trkpt lat="45.89786" lon="4.74945">
        <ele>195</ele>
        <time>2017-08-15T08:31:52Z</time>
      </trkpt>
      <trkpt lat="45.89781" lon="4.74943">
        <ele>195</ele>
        <time>2017-08-15T08:31:53Z</time>
      </trkpt>
      <trkpt lat="45.89777" lon="4.74941">
        <ele>195</ele>
        <time>2017-08-15T08:31:54Z</time>
      </trkpt>
      <trkpt lat="45.89772" lon="4.74939">
        <ele>195</ele>
        <time>2017-08-15T08:31:55Z</time>
      </trkpt>
      <trkpt lat="45.89768" lon="4.74936">
        <ele>195</ele>
        <time>2017-08-15T08:31:56Z</time>
      </trkpt>
      <trkpt lat="45.89764" lon="4.74935">
        <ele>195</ele>
        <time>2017-08-15T08:31:57Z</time>
      </trkpt>
      <trkpt lat="45.89759" lon="4.74933">
        <ele>195</ele>
        <time>2017-08-15T08:31:58Z</time>
      </trkpt>
      <trkpt lat="45.89754" lon="4.7493">
        <ele>195</ele>
        <time>2017-08-15T08:31:59Z</time>
      </trkpt>
      <trkpt lat="45.8975" lon="4.74928">
        <ele>195</ele>
        <time>2017-08-15T08:32:00Z</time>
      </trkpt>
      <trkpt lat="45.89744" lon="4.74925">
        <ele>195</ele>
        <time>2017-08-15T08:32:01Z</time>
      </trkpt>
      <trkpt lat="45.89738" lon="4.74923">
        <ele>195</ele>
        <time>2017-08-15T08:32:02Z</time>
      </trkpt>
      <trkpt lat="45.89733" lon="4.74921">
        <ele>196</ele>
        <time>2017-08-15T08:32:03Z</time>
      </trkpt>
      <trkpt lat="45.89727" lon="4.74918">
        <ele>196</ele>
        <time>2017-08-15T08:32:04Z</time>
      </trkpt>
      <trkpt lat="45.89722" lon="4.74916">
        <ele>195</ele>
        <time>2017-08-15T08:32:05Z</time>
      </trkpt>
      <trkpt lat="45.89717" lon="4.74915">
        <ele>195</ele>
        <time>2017-08-15T08:32:06Z</time>
      </trkpt>
      <trkpt lat="45.89712" lon="4.74914">
        <ele>195</ele>
        <time>2017-08-15T08:32:07Z</time>
      </trkpt>
      <trkpt lat="45.89707" lon="4.74914">
        <ele>195</ele>
        <time>2017-08-15T08:32:08Z</time>
      </trkpt>
      <trkpt lat="45.89702" lon="4.74913">
        <ele>195</ele>
        <time>2017-08-15T08:32:09Z</time>
      </trkpt>
      <trkpt lat="45.89697" lon="4.74913">
        <ele>195</ele>
        <time>2017-08-15T08:32:10Z</time>
      </trkpt>
      <trkpt lat="45.89692" lon="4.74912">
        <ele>195</ele>
        <time>2017-08-15T08:32:11Z</time>
      </trkpt>
      <trkpt lat="45.89687" lon="4.74912">
        <ele>195</ele>
        <time>2017-08-15T08:32:12Z</time>
      </trkpt>
      <trkpt lat="45.89682" lon="4.74912">
        <ele>195</ele>
        <time>2017-08-15T08:32:13Z</time>
      </trkpt>
      <trkpt lat="45.89677" lon="4.74912">
        <ele>196</ele>
        <time>2017-08-15T08:32:14Z</time>
      </trkpt>
      <trkpt lat="45.89672" lon="4.74911">
        <ele>196</ele>
        <time>2017-08-15T08:32:15Z</time>
      </trkpt>
      <trkpt lat="45.89666" lon="4.74911">
        <ele>196</ele>
        <time>2017-08-15T08:32:16Z</time>
      </trkpt>
      <trkpt lat="45.89661" lon="4.74911">
        <ele>196</ele>
        <time>2017-08-15T08:32:17Z</time>
      </trkpt>
      <trkpt lat="45.89655" lon="4.7491">
        <ele>196</ele>
        <time>2017-08-15T08:32:18Z</time>
      </trkpt>
      <trkpt lat="45.89649" lon="4.7491">
        <ele>196</ele>
        <time>2017-08-15T08:32:19Z</time>
      </trkpt>
      <trkpt lat="45.89643" lon="4.74909">
        <ele>196</ele>
        <time>2017-08-15T08:32:20Z</time>
      </trkpt>
      <trkpt lat="45.89637" lon="4.74908">
        <ele>196</ele>
        <time>2017-08-15T08:32:21Z</time>
      </trkpt>
      <trkpt lat="45.89631" lon="4.74909">
        <ele>196</ele>
        <time>2017-08-15T08:32:22Z</time>
      </trkpt>
      <trkpt lat="45.89626" lon="4.74909">
        <ele>196</ele>
        <time>2017-08-15T08:32:23Z</time>
      </trkpt>
      <trkpt lat="45.8962" lon="4.74909">
        <ele>197</ele>
        <time>2017-08-15T08:32:24Z</time>
      </trkpt>
      <trkpt lat="45.89616" lon="4.74908">
        <ele>197</ele>
        <time>2017-08-15T08:32:25Z</time>
      </trkpt>
      <trkpt lat="45.89611" lon="4.74908">
        <ele>197</ele>
        <time>2017-08-15T08:32:26Z</time>
      </trkpt>
      <trkpt lat="45.89606" lon="4.74907">
        <ele>197</ele>
        <time>2017-08-15T08:32:27Z</time>
      </trkpt>
      <trkpt lat="45.89601" lon="4.74905">
        <ele>197</ele>
        <time>2017-08-15T08:32:28Z</time>
      </trkpt>
      <trkpt lat="45.89597" lon="4.74904">
        <ele>197</ele>
        <time>2017-08-15T08:32:29Z</time>
      </trkpt>
      <trkpt lat="45.89591" lon="4.74902">
        <ele>197</ele>
        <time>2017-08-15T08:32:30Z</time>
      </trkpt>
      <trkpt lat="45.89586" lon="4.749">
        <ele>197</ele>
        <time>2017-08-15T08:32:31Z</time>
      </trkpt>
      <trkpt lat="45.89581" lon="4.749">
        <ele>198</ele>
        <time>2017-08-15T08:32:32Z</time>
      </trkpt>
      <trkpt lat="45.89576" lon="4.74897">
        <ele>198</ele>
        <time>2017-08-15T08:32:33Z</time>
      </trkpt>
      <trkpt lat="45.89571" lon="4.74896">
        <ele>198</ele>
        <time>2017-08-15T08:32:34Z</time>
      </trkpt>
      <trkpt lat="45.89565" lon="4.74893">
        <ele>198</ele>
        <time>2017-08-15T08:32:35Z</time>
      </trkpt>
      <trkpt lat="45.8956" lon="4.74892">
        <ele>198</ele>
        <time>2017-08-15T08:32:36Z</time>
      </trkpt>
      <trkpt lat="45.89552" lon="4.7489">
        <ele>198</ele>
        <time>2017-08-15T08:32:38Z</time>
      </trkpt>
      <trkpt lat="45.89547" lon="4.74889">
        <ele>198</ele>
        <time>2017-08-15T08:32:39Z</time>
      </trkpt>
      <trkpt lat="45.89543" lon="4.74887">
        <ele>198</ele>
        <time>2017-08-15T08:32:40Z</time>
      </trkpt>
      <trkpt lat="45.89538" lon="4.74886">
        <ele>198</ele>
        <time>2017-08-15T08:32:41Z</time>
      </trkpt>
      <trkpt lat="45.89533" lon="4.74884">
        <ele>198</ele>
        <time>2017-08-15T08:32:42Z</time>
      </trkpt>
      <trkpt lat="45.89529" lon="4.74883">
        <ele>198</ele>
        <time>2017-08-15T08:32:43Z</time>
      </trkpt>
      <trkpt lat="45.89524" lon="4.74881">
        <ele>198</ele>
        <time>2017-08-15T08:32:44Z</time>
      </trkpt>
      <trkpt lat="45.89518" lon="4.7488">
        <ele>198</ele>
        <time>2017-08-15T08:32:45Z</time>
      </trkpt>
      <trkpt lat="45.8951" lon="4.74878">
        <ele>198</ele>
        <time>2017-08-15T08:32:47Z</time>
      </trkpt>
      <trkpt lat="45.89505" lon="4.74877">
        <ele>198</ele>
        <time>2017-08-15T08:32:48Z</time>
      </trkpt>
      <trkpt lat="45.895" lon="4.74875">
        <ele>198</ele>
        <time>2017-08-15T08:32:49Z</time>
      </trkpt>
      <trkpt lat="45.89496" lon="4.74874">
        <ele>198</ele>
        <time>2017-08-15T08:32:50Z</time>
      </trkpt>
      <trkpt lat="45.89487" lon="4.74872">
        <ele>198</ele>
        <time>2017-08-15T08:32:52Z</time>
      </trkpt>
      <trkpt lat="45.89483" lon="4.74871">
        <ele>198</ele>
        <time>2017-08-15T08:32:53Z</time>
      </trkpt>
      <trkpt lat="45.89478" lon="4.7487">
        <ele>198</ele>
        <time>2017-08-15T08:32:54Z</time>
      </trkpt>
      <trkpt lat="45.89473" lon="4.7487">
        <ele>198</ele>
        <time>2017-08-15T08:32:55Z</time>
      </trkpt>
      <trkpt lat="45.89468" lon="4.74869">
        <ele>198</ele>
        <time>2017-08-15T08:32:56Z</time>
      </trkpt>
      <trkpt lat="45.89463" lon="4.74869">
        <ele>198</ele>
        <time>2017-08-15T08:32:57Z</time>
      </trkpt>
      <trkpt lat="45.89456" lon="4.74873">
        <ele>199</ele>
        <time>2017-08-15T08:32:59Z</time>
      </trkpt>
      <trkpt lat="45.89452" lon="4.74874">
        <ele>199</ele>
        <time>2017-08-15T08:33:00Z</time>
      </trkpt>
      <trkpt lat="45.89443" lon="4.74874">
        <ele>199</ele>
        <time>2017-08-15T08:33:02Z</time>
      </trkpt>
      <trkpt lat="45.89439" lon="4.74875">
        <ele>199</ele>
        <time>2017-08-15T08:33:03Z</time>
      </trkpt>
      <trkpt lat="45.89434" lon="4.74874">
        <ele>199</ele>
        <time>2017-08-15T08:33:04Z</time>
      </trkpt>
      <trkpt lat="45.8943" lon="4.74874">
        <ele>199</ele>
        <time>2017-08-15T08:33:05Z</time>
      </trkpt>
      <trkpt lat="45.89422" lon="4.74873">
        <ele>199</ele>
        <time>2017-08-15T08:33:07Z</time>
      </trkpt>
      <trkpt lat="45.89417" lon="4.74873">
        <ele>199</ele>
        <time>2017-08-15T08:33:08Z</time>
      </trkpt>
      <trkpt lat="45.89412" lon="4.74873">
        <ele>199</ele>
        <time>2017-08-15T08:33:09Z</time>
      </trkpt>
      <trkpt lat="45.89407" lon="4.74873">
        <ele>199</ele>
        <time>2017-08-15T08:33:10Z</time>
      </trkpt>
      <trkpt lat="45.89402" lon="4.74872">
        <ele>199</ele>
        <time>2017-08-15T08:33:11Z</time>
      </trkpt>
      <trkpt lat="45.89398" lon="4.74872">
        <ele>199</ele>
        <time>2017-08-15T08:33:12Z</time>
      </trkpt>
      <trkpt lat="45.8939" lon="4.74873">
        <ele>199</ele>
        <time>2017-08-15T08:33:14Z</time>
      </trkpt>
      <trkpt lat="45.89386" lon="4.74871">
        <ele>199</ele>
        <time>2017-08-15T08:33:15Z</time>
      </trkpt>
      <trkpt lat="45.89381" lon="4.7487">
        <ele>199</ele>
        <time>2017-08-15T08:33:16Z</time>
      </trkpt>
      <trkpt lat="45.89376" lon="4.74869">
        <ele>199</ele>
        <time>2017-08-15T08:33:17Z</time>
      </trkpt>
      <trkpt lat="45.89371" lon="4.74868">
        <ele>199</ele>
        <time>2017-08-15T08:33:18Z</time>
      </trkpt>
      <trkpt lat="45.89365" lon="4.74867">
        <ele>199</ele>
        <time>2017-08-15T08:33:19Z</time>
      </trkpt>
      <trkpt lat="45.8936" lon="4.74867">
        <ele>199</ele>
        <time>2017-08-15T08:33:20Z</time>
      </trkpt>
      <trkpt lat="45.89354" lon="4.74866">
        <ele>199</ele>
        <time>2017-08-15T08:33:21Z</time>
      </trkpt>
      <trkpt lat="45.89349" lon="4.74866">
        <ele>199</ele>
        <time>2017-08-15T08:33:22Z</time>
      </trkpt>
      <trkpt lat="45.89343" lon="4.74866">
        <ele>199</ele>
        <time>2017-08-15T08:33:23Z</time>
      </trkpt>
      <trkpt lat="45.89337" lon="4.74865">
        <ele>199</ele>
        <time>2017-08-15T08:33:24Z</time>
      </trkpt>
      <trkpt lat="45.89332" lon="4.74864">
        <ele>198</ele>
        <time>2017-08-15T08:33:25Z</time>
      </trkpt>
      <trkpt lat="45.89327" lon="4.74864">
        <ele>198</ele>
        <time>2017-08-15T08:33:26Z</time>
      </trkpt>
      <trkpt lat="45.89323" lon="4.74863">
        <ele>198</ele>
        <time>2017-08-15T08:33:27Z</time>
      </trkpt>
      <trkpt lat="45.89318" lon="4.74863">
        <ele>198</ele>
        <time>2017-08-15T08:33:28Z</time>
      </trkpt>
      <trkpt lat="45.89313" lon="4.74863">
        <ele>198</ele>
        <time>2017-08-15T08:33:29Z</time>
      </trkpt>
      <trkpt lat="45.89308" lon="4.74862">
        <ele>198</ele>
        <time>2017-08-15T08:33:30Z</time>
      </trkpt>
      <trkpt lat="45.89303" lon="4.74862">
        <ele>198</ele>
        <time>2017-08-15T08:33:31Z</time>
      </trkpt>
      <trkpt lat="45.89299" lon="4.74862">
        <ele>198</ele>
        <time>2017-08-15T08:33:32Z</time>
      </trkpt>
      <trkpt lat="45.89293" lon="4.74862">
        <ele>198</ele>
        <time>2017-08-15T08:33:33Z</time>
      </trkpt>
      <trkpt lat="45.89289" lon="4.74862">
        <ele>198</ele>
        <time>2017-08-15T08:33:34Z</time>
      </trkpt>
      <trkpt lat="45.89283" lon="4.74863">
        <ele>198</ele>
        <time>2017-08-15T08:33:35Z</time>
      </trkpt>
      <trkpt lat="45.89278" lon="4.74864">
        <ele>198</ele>
        <time>2017-08-15T08:33:36Z</time>
      </trkpt>
      <trkpt lat="45.89273" lon="4.74863">
        <ele>198</ele>
        <time>2017-08-15T08:33:37Z</time>
      </trkpt>
      <trkpt lat="45.89268" lon="4.7486">
        <ele>198</ele>
        <time>2017-08-15T08:33:38Z</time>
      </trkpt>
      <trkpt lat="45.89262" lon="4.74858">
        <ele>198</ele>
        <time>2017-08-15T08:33:39Z</time>
      </trkpt>
      <trkpt lat="45.89257" lon="4.74852">
        <ele>198</ele>
        <time>2017-08-15T08:33:40Z</time>
      </trkpt>
      <trkpt lat="45.8925" lon="4.74853">
        <ele>198</ele>
        <time>2017-08-15T08:33:41Z</time>
      </trkpt>
      <trkpt lat="45.89243" lon="4.74853">
        <ele>198</ele>
        <time>2017-08-15T08:33:42Z</time>
      </trkpt>
      <trkpt lat="45.89238" lon="4.74853">
        <ele>198</ele>
        <time>2017-08-15T08:33:43Z</time>
      </trkpt>
      <trkpt lat="45.89232" lon="4.74853">
        <ele>198</ele>
        <time>2017-08-15T08:33:44Z</time>
      </trkpt>
      <trkpt lat="45.89227" lon="4.74853">
        <ele>198</ele>
        <time>2017-08-15T08:33:45Z</time>
      </trkpt>
      <trkpt lat="45.89222" lon="4.74854">
        <ele>198</ele>
        <time>2017-08-15T08:33:46Z</time>
      </trkpt>
      <trkpt lat="45.89216" lon="4.74853">
        <ele>198</ele>
        <time>2017-08-15T08:33:47Z</time>
      </trkpt>
      <trkpt lat="45.89207" lon="4.74852">
        <ele>198</ele>
        <time>2017-08-15T08:33:49Z</time>
      </trkpt>
      <trkpt lat="45.89202" lon="4.74852">
        <ele>198</ele>
        <time>2017-08-15T08:33:50Z</time>
      </trkpt>
      <trkpt lat="45.89197" lon="4.74853">
        <ele>198</ele>
        <time>2017-08-15T08:33:51Z</time>
      </trkpt>
      <trkpt lat="45.89192" lon="4.74853">
        <ele>198</ele>
        <time>2017-08-15T08:33:52Z</time>
      </trkpt>
      <trkpt lat="45.89186" lon="4.74853">
        <ele>198</ele>
        <time>2017-08-15T08:33:53Z</time>
      </trkpt>
      <trkpt lat="45.89182" lon="4.74854">
        <ele>198</ele>
        <time>2017-08-15T08:33:54Z</time>
      </trkpt>
      <trkpt lat="45.89173" lon="4.74854">
        <ele>198</ele>
        <time>2017-08-15T08:33:56Z</time>
      </trkpt>
      <trkpt lat="45.89169" lon="4.74855">
        <ele>198</ele>
        <time>2017-08-15T08:33:57Z</time>
      </trkpt>
      <trkpt lat="45.8916" lon="4.74855">
        <ele>198</ele>
        <time>2017-08-15T08:33:59Z</time>
      </trkpt>
      <trkpt lat="45.89155" lon="4.74855">
        <ele>198</ele>
        <time>2017-08-15T08:34:00Z</time>
      </trkpt>
      <trkpt lat="45.89146" lon="4.74856">
        <ele>199</ele>
        <time>2017-08-15T08:34:02Z</time>
      </trkpt>
      <trkpt lat="45.89142" lon="4.74856">
        <ele>199</ele>
        <time>2017-08-15T08:34:03Z</time>
      </trkpt>
      <trkpt lat="45.89135" lon="4.74861">
        <ele>199</ele>
        <time>2017-08-15T08:34:05Z</time>
      </trkpt>
      <trkpt lat="45.89131" lon="4.74861">
        <ele>199</ele>
        <time>2017-08-15T08:34:06Z</time>
      </trkpt>
      <trkpt lat="45.89122" lon="4.7486">
        <ele>199</ele>
        <time>2017-08-15T08:34:08Z</time>
      </trkpt>
      <trkpt lat="45.89119" lon="4.7486">
        <ele>199</ele>
        <time>2017-08-15T08:34:09Z</time>
      </trkpt>
      <trkpt lat="45.89112" lon="4.7486">
        <ele>199</ele>
        <time>2017-08-15T08:34:11Z</time>
      </trkpt>
      <trkpt lat="45.89108" lon="4.7486">
        <ele>199</ele>
        <time>2017-08-15T08:34:12Z</time>
      </trkpt>
      <trkpt lat="45.891" lon="4.74861">
        <ele>199</ele>
        <time>2017-08-15T08:34:14Z</time>
      </trkpt>
      <trkpt lat="45.89096" lon="4.74861">
        <ele>199</ele>
        <time>2017-08-15T08:34:15Z</time>
      </trkpt>
      <trkpt lat="45.89087" lon="4.74863">
        <ele>199</ele>
        <time>2017-08-15T08:34:17Z</time>
      </trkpt>
      <trkpt lat="45.89082" lon="4.74863">
        <ele>199</ele>
        <time>2017-08-15T08:34:18Z</time>
      </trkpt>
      <trkpt lat="45.89074" lon="4.74865">
        <ele>199</ele>
        <time>2017-08-15T08:34:20Z</time>
      </trkpt>
      <trkpt lat="45.8907" lon="4.74865">
        <ele>199</ele>
        <time>2017-08-15T08:34:21Z</time>
      </trkpt>
      <trkpt lat="45.89063" lon="4.74867">
        <ele>199</ele>
        <time>2017-08-15T08:34:23Z</time>
      </trkpt>
      <trkpt lat="45.89059" lon="4.74868">
        <ele>199</ele>
        <time>2017-08-15T08:34:24Z</time>
      </trkpt>
      <trkpt lat="45.89051" lon="4.7487">
        <ele>199</ele>
        <time>2017-08-15T08:34:26Z</time>
      </trkpt>
      <trkpt lat="45.89047" lon="4.74872">
        <ele>199</ele>
        <time>2017-08-15T08:34:27Z</time>
      </trkpt>
      <trkpt lat="45.89039" lon="4.74875">
        <ele>199</ele>
        <time>2017-08-15T08:34:29Z</time>
      </trkpt>
      <trkpt lat="45.89035" lon="4.74878">
        <ele>199</ele>
        <time>2017-08-15T08:34:30Z</time>
      </trkpt>
      <trkpt lat="45.89027" lon="4.74884">
        <ele>199</ele>
        <time>2017-08-15T08:34:32Z</time>
      </trkpt>
      <trkpt lat="45.89024" lon="4.74887">
        <ele>199</ele>
        <time>2017-08-15T08:34:33Z</time>
      </trkpt>
      <trkpt lat="45.89018" lon="4.74892">
        <ele>199</ele>
        <time>2017-08-15T08:34:35Z</time>
      </trkpt>
      <trkpt lat="45.89015" lon="4.74894">
        <ele>199</ele>
        <time>2017-08-15T08:34:36Z</time>
      </trkpt>
      <trkpt lat="45.89009" lon="4.74899">
        <ele>199</ele>
        <time>2017-08-15T08:34:38Z</time>
      </trkpt>
      <trkpt lat="45.89008" lon="4.74902">
        <ele>199</ele>
        <time>2017-08-15T08:34:39Z</time>
      </trkpt>
      <trkpt lat="45.89" lon="4.74907">
        <ele>199</ele>
        <time>2017-08-15T08:34:41Z</time>
      </trkpt>
      <trkpt lat="45.88995" lon="4.7491">
        <ele>199</ele>
        <time>2017-08-15T08:34:42Z</time>
      </trkpt>
      <trkpt lat="45.8899" lon="4.74913">
        <ele>199</ele>
        <time>2017-08-15T08:34:43Z</time>
      </trkpt>
      <trkpt lat="45.88986" lon="4.74916">
        <ele>200</ele>
        <time>2017-08-15T08:34:44Z</time>
      </trkpt>
      <trkpt lat="45.88982" lon="4.74918">
        <ele>199</ele>
        <time>2017-08-15T08:34:45Z</time>
      </trkpt>
      <trkpt lat="45.88977" lon="4.74919">
        <ele>200</ele>
        <time>2017-08-15T08:34:46Z</time>
      </trkpt>
      <trkpt lat="45.88971" lon="4.74921">
        <ele>200</ele>
        <time>2017-08-15T08:34:47Z</time>
      </trkpt>
      <trkpt lat="45.88967" lon="4.74924">
        <ele>200</ele>
        <time>2017-08-15T08:34:48Z</time>
      </trkpt>
      <trkpt lat="45.88963" lon="4.74927">
        <ele>200</ele>
        <time>2017-08-15T08:34:49Z</time>
      </trkpt>
      <trkpt lat="45.88958" lon="4.74929">
        <ele>200</ele>
        <time>2017-08-15T08:34:50Z</time>
      </trkpt>
      <trkpt lat="45.8895" lon="4.74933">
        <ele>200</ele>
        <time>2017-08-15T08:34:52Z</time>
      </trkpt>
      <trkpt lat="45.88946" lon="4.74935">
        <ele>200</ele>
        <time>2017-08-15T08:34:53Z</time>
      </trkpt>
      <trkpt lat="45.88938" lon="4.74937">
        <ele>200</ele>
        <time>2017-08-15T08:34:55Z</time>
      </trkpt>
      <trkpt lat="45.88933" lon="4.7494">
        <ele>200</ele>
        <time>2017-08-15T08:34:56Z</time>
      </trkpt>
      <trkpt lat="45.88929" lon="4.74942">
        <ele>200</ele>
        <time>2017-08-15T08:34:57Z</time>
      </trkpt>
      <trkpt lat="45.88924" lon="4.74944">
        <ele>200</ele>
        <time>2017-08-15T08:34:58Z</time>
      </trkpt>
      <trkpt lat="45.88918" lon="4.74947">
        <ele>200</ele>
        <time>2017-08-15T08:34:59Z</time>
      </trkpt>
      <trkpt lat="45.88913" lon="4.74949">
        <ele>201</ele>
        <time>2017-08-15T08:35:00Z</time>
      </trkpt>
      <trkpt lat="45.88908" lon="4.74951">
        <ele>201</ele>
        <time>2017-08-15T08:35:01Z</time>
      </trkpt>
      <trkpt lat="45.88903" lon="4.74953">
        <ele>201</ele>
        <time>2017-08-15T08:35:02Z</time>
      </trkpt>
      <trkpt lat="45.88898" lon="4.74954">
        <ele>201</ele>
        <time>2017-08-15T08:35:03Z</time>
      </trkpt>
      <trkpt lat="45.88893" lon="4.74955">
        <ele>201</ele>
        <time>2017-08-15T08:35:04Z</time>
      </trkpt>
      <trkpt lat="45.88888" lon="4.74957">
        <ele>201</ele>
        <time>2017-08-15T08:35:05Z</time>
      </trkpt>
      <trkpt lat="45.88882" lon="4.74958">
        <ele>201</ele>
        <time>2017-08-15T08:35:06Z</time>
      </trkpt>
      <trkpt lat="45.88877" lon="4.74957">
        <ele>201</ele>
        <time>2017-08-15T08:35:07Z</time>
      </trkpt>
      <trkpt lat="45.88872" lon="4.74954">
        <ele>201</ele>
        <time>2017-08-15T08:35:08Z</time>
      </trkpt>
      <trkpt lat="45.88868" lon="4.74953">
        <ele>201</ele>
        <time>2017-08-15T08:35:09Z</time>
      </trkpt>
      <trkpt lat="45.88863" lon="4.74951">
        <ele>201</ele>
        <time>2017-08-15T08:35:10Z</time>
      </trkpt>
      <trkpt lat="45.88854" lon="4.7495">
        <ele>201</ele>
        <time>2017-08-15T08:35:12Z</time>
      </trkpt>
      <trkpt lat="45.8885" lon="4.7495">
        <ele>201</ele>
        <time>2017-08-15T08:35:13Z</time>
      </trkpt>
      <trkpt lat="45.88841" lon="4.74947">
        <ele>201</ele>
        <time>2017-08-15T08:35:15Z</time>
      </trkpt>
      <trkpt lat="45.88837" lon="4.74947">
        <ele>201</ele>
        <time>2017-08-15T08:35:16Z</time>
      </trkpt>
      <trkpt lat="45.88832" lon="4.74947">
        <ele>201</ele>
        <time>2017-08-15T08:35:17Z</time>
      </trkpt>
      <trkpt lat="45.88826" lon="4.74946">
        <ele>201</ele>
        <time>2017-08-15T08:35:18Z</time>
      </trkpt>
      <trkpt lat="45.88822" lon="4.74945">
        <ele>201</ele>
        <time>2017-08-15T08:35:19Z</time>
      </trkpt>
      <trkpt lat="45.88817" lon="4.74945">
        <ele>201</ele>
        <time>2017-08-15T08:35:20Z</time>
      </trkpt>
      <trkpt lat="45.88812" lon="4.74944">
        <ele>201</ele>
        <time>2017-08-15T08:35:21Z</time>
      </trkpt>
      <trkpt lat="45.88806" lon="4.74944">
        <ele>201</ele>
        <time>2017-08-15T08:35:22Z</time>
      </trkpt>
      <trkpt lat="45.88798" lon="4.74943">
        <ele>201</ele>
        <time>2017-08-15T08:35:24Z</time>
      </trkpt>
      <trkpt lat="45.88793" lon="4.74942">
        <ele>201</ele>
        <time>2017-08-15T08:35:25Z</time>
      </trkpt>
      <trkpt lat="45.88789" lon="4.74941">
        <ele>201</ele>
        <time>2017-08-15T08:35:26Z</time>
      </trkpt>
      <trkpt lat="45.88784" lon="4.7494">
        <ele>201</ele>
        <time>2017-08-15T08:35:27Z</time>
      </trkpt>
      <trkpt lat="45.88776" lon="4.74938">
        <ele>201</ele>
        <time>2017-08-15T08:35:29Z</time>
      </trkpt>
      <trkpt lat="45.88771" lon="4.74938">
        <ele>201</ele>
        <time>2017-08-15T08:35:30Z</time>
      </trkpt>
      <trkpt lat="45.88766" lon="4.74937">
        <ele>201</ele>
        <time>2017-08-15T08:35:31Z</time>
      </trkpt>
      <trkpt lat="45.88762" lon="4.74937">
        <ele>201</ele>
        <time>2017-08-15T08:35:32Z</time>
      </trkpt>
      <trkpt lat="45.88757" lon="4.74936">
        <ele>201</ele>
        <time>2017-08-15T08:35:33Z</time>
      </trkpt>
      <trkpt lat="45.88752" lon="4.74935">
        <ele>201</ele>
        <time>2017-08-15T08:35:34Z</time>
      </trkpt>
      <trkpt lat="45.88747" lon="4.74934">
        <ele>201</ele>
        <time>2017-08-15T08:35:35Z</time>
      </trkpt>
      <trkpt lat="45.88742" lon="4.74933">
        <ele>201</ele>
        <time>2017-08-15T08:35:36Z</time>
      </trkpt>
      <trkpt lat="45.88737" lon="4.74933">
        <ele>201</ele>
        <time>2017-08-15T08:35:37Z</time>
      </trkpt>
      <trkpt lat="45.8873" lon="4.74932">
        <ele>201</ele>
        <time>2017-08-15T08:35:38Z</time>
      </trkpt>
      <trkpt lat="45.88724" lon="4.7493">
        <ele>201</ele>
        <time>2017-08-15T08:35:39Z</time>
      </trkpt>
      <trkpt lat="45.88719" lon="4.74928">
        <ele>201</ele>
        <time>2017-08-15T08:35:40Z</time>
      </trkpt>
      <trkpt lat="45.8871" lon="4.74928">
        <ele>201</ele>
        <time>2017-08-15T08:35:42Z</time>
      </trkpt>
      <trkpt lat="45.88707" lon="4.74929">
        <ele>202</ele>
        <time>2017-08-15T08:35:43Z</time>
      </trkpt>
      <trkpt lat="45.88701" lon="4.74928">
        <ele>202</ele>
        <time>2017-08-15T08:35:45Z</time>
      </trkpt>
      <trkpt lat="45.88697" lon="4.74928">
        <ele>202</ele>
        <time>2017-08-15T08:35:46Z</time>
      </trkpt>
      <trkpt lat="45.8869" lon="4.74927">
        <ele>202</ele>
        <time>2017-08-15T08:35:48Z</time>
      </trkpt>
      <trkpt lat="45.88686" lon="4.74926">
        <ele>202</ele>
        <time>2017-08-15T08:35:49Z</time>
      </trkpt>
      <trkpt lat="45.8868" lon="4.74921">
        <ele>202</ele>
        <time>2017-08-15T08:35:51Z</time>
      </trkpt>
      <trkpt lat="45.88677" lon="4.74919">
        <ele>202</ele>
        <time>2017-08-15T08:35:52Z</time>
      </trkpt>
      <trkpt lat="45.88669" lon="4.74916">
        <ele>202</ele>
        <time>2017-08-15T08:35:54Z</time>
      </trkpt>
      <trkpt lat="45.88665" lon="4.74916">
        <ele>202</ele>
        <time>2017-08-15T08:35:55Z</time>
      </trkpt>
      <trkpt lat="45.88661" lon="4.74918">
        <ele>202</ele>
        <time>2017-08-15T08:35:56Z</time>
      </trkpt>
      <trkpt lat="45.88656" lon="4.74921">
        <ele>202</ele>
        <time>2017-08-15T08:35:57Z</time>
      </trkpt>
      <trkpt lat="45.88652" lon="4.74924">
        <ele>202</ele>
        <time>2017-08-15T08:35:58Z</time>
      </trkpt>
      <trkpt lat="45.88648" lon="4.74928">
        <ele>202</ele>
        <time>2017-08-15T08:35:59Z</time>
      </trkpt>
      <trkpt lat="45.88644" lon="4.74932">
        <ele>202</ele>
        <time>2017-08-15T08:36:00Z</time>
      </trkpt>
      <trkpt lat="45.88641" lon="4.74937">
        <ele>201</ele>
        <time>2017-08-15T08:36:01Z</time>
      </trkpt>
      <trkpt lat="45.88637" lon="4.74942">
        <ele>201</ele>
        <time>2017-08-15T08:36:02Z</time>
      </trkpt>
      <trkpt lat="45.88635" lon="4.74947">
        <ele>201</ele>
        <time>2017-08-15T08:36:03Z</time>
      </trkpt>
      <trkpt lat="45.88633" lon="4.74953">
        <ele>201</ele>
        <time>2017-08-15T08:36:04Z</time>
      </trkpt>
      <trkpt lat="45.88631" lon="4.7496">
        <ele>201</ele>
        <time>2017-08-15T08:36:05Z</time>
      </trkpt>
      <trkpt lat="45.8863" lon="4.74967">
        <ele>201</ele>
        <time>2017-08-15T08:36:06Z</time>
      </trkpt>
      <trkpt lat="45.88628" lon="4.74974">
        <ele>201</ele>
        <time>2017-08-15T08:36:07Z</time>
      </trkpt>
      <trkpt lat="45.88626" lon="4.74981">
        <ele>201</ele>
        <time>2017-08-15T08:36:08Z</time>
      </trkpt>
      <trkpt lat="45.88625" lon="4.74987">
        <ele>201</ele>
        <time>2017-08-15T08:36:09Z</time>
      </trkpt>
      <trkpt lat="45.88623" lon="4.74994">
        <ele>201</ele>
        <time>2017-08-15T08:36:10Z</time>
      </trkpt>
      <trkpt lat="45.88622" lon="4.75">
        <ele>201</ele>
        <time>2017-08-15T08:36:11Z</time>
      </trkpt>
      <trkpt lat="45.8862" lon="4.75012">
        <ele>201</ele>
        <time>2017-08-15T08:36:13Z</time>
      </trkpt>
      <trkpt lat="45.88619" lon="4.75018">
        <ele>201</ele>
        <time>2017-08-15T08:36:14Z</time>
      </trkpt>
      <trkpt lat="45.88617" lon="4.75024">
        <ele>201</ele>
        <time>2017-08-15T08:36:15Z</time>
      </trkpt>
      <trkpt lat="45.88616" lon="4.75031">
        <ele>202</ele>
        <time>2017-08-15T08:36:16Z</time>
      </trkpt>
      <trkpt lat="45.88615" lon="4.75038">
        <ele>202</ele>
        <time>2017-08-15T08:36:17Z</time>
      </trkpt>
      <trkpt lat="45.88614" lon="4.75045">
        <ele>202</ele>
        <time>2017-08-15T08:36:18Z</time>
      </trkpt>
      <trkpt lat="45.88612" lon="4.75052">
        <ele>202</ele>
        <time>2017-08-15T08:36:19Z</time>
      </trkpt>
      <trkpt lat="45.88611" lon="4.75059">
        <ele>202</ele>
        <time>2017-08-15T08:36:20Z</time>
      </trkpt>
      <trkpt lat="45.88609" lon="4.75066">
        <ele>202</ele>
        <time>2017-08-15T08:36:21Z</time>
      </trkpt>
      <trkpt lat="45.88607" lon="4.75071">
        <ele>202</ele>
        <time>2017-08-15T08:36:22Z</time>
      </trkpt>
      <trkpt lat="45.88601" lon="4.75081">
        <ele>202</ele>
        <time>2017-08-15T08:36:24Z</time>
      </trkpt>
      <trkpt lat="45.88598" lon="4.75086">
        <ele>202</ele>
        <time>2017-08-15T08:36:25Z</time>
      </trkpt>
      <trkpt lat="45.88594" lon="4.7509">
        <ele>202</ele>
        <time>2017-08-15T08:36:26Z</time>
      </trkpt>
      <trkpt lat="45.88591" lon="4.75095">
        <ele>202</ele>
        <time>2017-08-15T08:36:27Z</time>
      </trkpt>
      <trkpt lat="45.88587" lon="4.751">
        <ele>202</ele>
        <time>2017-08-15T08:36:28Z</time>
      </trkpt>
      <trkpt lat="45.88583" lon="4.75104">
        <ele>201</ele>
        <time>2017-08-15T08:36:29Z</time>
      </trkpt>
      <trkpt lat="45.8858" lon="4.75109">
        <ele>201</ele>
        <time>2017-08-15T08:36:30Z</time>
      </trkpt>
      <trkpt lat="45.88575" lon="4.75114">
        <ele>201</ele>
        <time>2017-08-15T08:36:31Z</time>
      </trkpt>
      <trkpt lat="45.88572" lon="4.75119">
        <ele>201</ele>
        <time>2017-08-15T08:36:32Z</time>
      </trkpt>
      <trkpt lat="45.88568" lon="4.75123">
        <ele>201</ele>
        <time>2017-08-15T08:36:33Z</time>
      </trkpt>
      <trkpt lat="45.88561" lon="4.75131">
        <ele>201</ele>
        <time>2017-08-15T08:36:35Z</time>
      </trkpt>
      <trkpt lat="45.88558" lon="4.75135">
        <ele>201</ele>
        <time>2017-08-15T08:36:36Z</time>
      </trkpt>
      <trkpt lat="45.88555" lon="4.7514">
        <ele>201</ele>
        <time>2017-08-15T08:36:37Z</time>
      </trkpt>
      <trkpt lat="45.88551" lon="4.75145">
        <ele>201</ele>
        <time>2017-08-15T08:36:38Z</time>
      </trkpt>
      <trkpt lat="45.88547" lon="4.75149">
        <ele>201</ele>
        <time>2017-08-15T08:36:39Z</time>
      </trkpt>
      <trkpt lat="45.88544" lon="4.75155">
        <ele>201</ele>
        <time>2017-08-15T08:36:40Z</time>
      </trkpt>
      <trkpt lat="45.88541" lon="4.7516">
        <ele>201</ele>
        <time>2017-08-15T08:36:41Z</time>
      </trkpt>
      <trkpt lat="45.88538" lon="4.75167">
        <ele>201</ele>
        <time>2017-08-15T08:36:42Z</time>
      </trkpt>
      <trkpt lat="45.88535" lon="4.75173">
        <ele>201</ele>
        <time>2017-08-15T08:36:43Z</time>
      </trkpt>
      <trkpt lat="45.88532" lon="4.75179">
        <ele>201</ele>
        <time>2017-08-15T08:36:44Z</time>
      </trkpt>
      <trkpt lat="45.8853" lon="4.75185">
        <ele>201</ele>
        <time>2017-08-15T08:36:45Z</time>
      </trkpt>
      <trkpt lat="45.88527" lon="4.75191">
        <ele>201</ele>
        <time>2017-08-15T08:36:46Z</time>
      </trkpt>
      <trkpt lat="45.88524" lon="4.75197">
        <ele>201</ele>
        <time>2017-08-15T08:36:47Z</time>
      </trkpt>
      <trkpt lat="45.88522" lon="4.75203">
        <ele>201</ele>
        <time>2017-08-15T08:36:48Z</time>
      </trkpt>
      <trkpt lat="45.88519" lon="4.75209">
        <ele>201</ele>
        <time>2017-08-15T08:36:49Z</time>
      </trkpt>
      <trkpt lat="45.88516" lon="4.75215">
        <ele>201</ele>
        <time>2017-08-15T08:36:50Z</time>
      </trkpt>
      <trkpt lat="45.88513" lon="4.75221">
        <ele>201</ele>
        <time>2017-08-15T08:36:51Z</time>
      </trkpt>
      <trkpt lat="45.88509" lon="4.75225">
        <ele>201</ele>
        <time>2017-08-15T08:36:52Z</time>
      </trkpt>
      <trkpt lat="45.88506" lon="4.7523">
        <ele>201</ele>
        <time>2017-08-15T08:36:53Z</time>
      </trkpt>
      <trkpt lat="45.88502" lon="4.75233">
        <ele>201</ele>
        <time>2017-08-15T08:36:54Z</time>
      </trkpt>
      <trkpt lat="45.88494" lon="4.7524">
        <ele>201</ele>
        <time>2017-08-15T08:36:56Z</time>
      </trkpt>
      <trkpt lat="45.88491" lon="4.75243">
        <ele>201</ele>
        <time>2017-08-15T08:36:57Z</time>
      </trkpt>
      <trkpt lat="45.88484" lon="4.75248">
        <ele>201</ele>
        <time>2017-08-15T08:36:59Z</time>
      </trkpt>
      <trkpt lat="45.8848" lon="4.75251">
        <ele>201</ele>
        <time>2017-08-15T08:37:00Z</time>
      </trkpt>
      <trkpt lat="45.88472" lon="4.75256">
        <ele>201</ele>
        <time>2017-08-15T08:37:02Z</time>
      </trkpt>
      <trkpt lat="45.88468" lon="4.75258">
        <ele>201</ele>
        <time>2017-08-15T08:37:03Z</time>
      </trkpt>
      <trkpt lat="45.8846" lon="4.75264">
        <ele>201</ele>
        <time>2017-08-15T08:37:05Z</time>
      </trkpt>
      <trkpt lat="45.88456" lon="4.75266">
        <ele>201</ele>
        <time>2017-08-15T08:37:06Z</time>
      </trkpt>
      <trkpt lat="45.88451" lon="4.75269">
        <ele>201</ele>
        <time>2017-08-15T08:37:07Z</time>
      </trkpt>
      <trkpt lat="45.88447" lon="4.75271">
        <ele>201</ele>
        <time>2017-08-15T08:37:08Z</time>
      </trkpt>
      <trkpt lat="45.88442" lon="4.75274">
        <ele>201</ele>
        <time>2017-08-15T08:37:09Z</time>
      </trkpt>
      <trkpt lat="45.88438" lon="4.75278">
        <ele>201</ele>
        <time>2017-08-15T08:37:10Z</time>
      </trkpt>
      <trkpt lat="45.88435" lon="4.75282">
        <ele>201</ele>
        <time>2017-08-15T08:37:11Z</time>
      </trkpt>
      <trkpt lat="45.88431" lon="4.75286">
        <ele>201</ele>
        <time>2017-08-15T08:37:12Z</time>
      </trkpt>
      <trkpt lat="45.88427" lon="4.7529">
        <ele>201</ele>
        <time>2017-08-15T08:37:13Z</time>
      </trkpt>
      <trkpt lat="45.88423" lon="4.75296">
        <ele>201</ele>
        <time>2017-08-15T08:37:14Z</time>
      </trkpt>
      <trkpt lat="45.88419" lon="4.75301">
        <ele>201</ele>
        <time>2017-08-15T08:37:15Z</time>
      </trkpt>
      <trkpt lat="45.88415" lon="4.75307">
        <ele>200</ele>
        <time>2017-08-15T08:37:16Z</time>
      </trkpt>
      <trkpt lat="45.88412" lon="4.75314">
        <ele>200</ele>
        <time>2017-08-15T08:37:17Z</time>
      </trkpt>
      <trkpt lat="45.88409" lon="4.7532">
        <ele>200</ele>
        <time>2017-08-15T08:37:18Z</time>
      </trkpt>
      <trkpt lat="45.88406" lon="4.75326">
        <ele>200</ele>
        <time>2017-08-15T08:37:19Z</time>
      </trkpt>
      <trkpt lat="45.88403" lon="4.75332">
        <ele>200</ele>
        <time>2017-08-15T08:37:20Z</time>
      </trkpt>
      <trkpt lat="45.88398" lon="4.75342">
        <ele>201</ele>
        <time>2017-08-15T08:37:22Z</time>
      </trkpt>
      <trkpt lat="45.88395" lon="4.75346">
        <ele>201</ele>
        <time>2017-08-15T08:37:23Z</time>
      </trkpt>
      <trkpt lat="45.8839" lon="4.75355">
        <ele>201</ele>
        <time>2017-08-15T08:37:25Z</time>
      </trkpt>
      <trkpt lat="45.88387" lon="4.75359">
        <ele>201</ele>
        <time>2017-08-15T08:37:26Z</time>
      </trkpt>
      <trkpt lat="45.88382" lon="4.75368">
        <ele>201</ele>
        <time>2017-08-15T08:37:28Z</time>
      </trkpt>
      <trkpt lat="45.8838" lon="4.75373">
        <ele>201</ele>
        <time>2017-08-15T08:37:29Z</time>
      </trkpt>
      <trkpt lat="45.88379" lon="4.75379">
        <ele>201</ele>
        <time>2017-08-15T08:37:30Z</time>
      </trkpt>
      <trkpt lat="45.88377" lon="4.75385">
        <ele>201</ele>
        <time>2017-08-15T08:37:31Z</time>
      </trkpt>
      <trkpt lat="45.88375" lon="4.75392">
        <ele>201</ele>
        <time>2017-08-15T08:37:32Z</time>
      </trkpt>
      <trkpt lat="45.88373" lon="4.75398">
        <ele>202</ele>
        <time>2017-08-15T08:37:33Z</time>
      </trkpt>
      <trkpt lat="45.88372" lon="4.75405">
        <ele>202</ele>
        <time>2017-08-15T08:37:34Z</time>
      </trkpt>
      <trkpt lat="45.88371" lon="4.75412">
        <ele>202</ele>
        <time>2017-08-15T08:37:35Z</time>
      </trkpt>
      <trkpt lat="45.88369" lon="4.7542">
        <ele>203</ele>
        <time>2017-08-15T08:37:36Z</time>
      </trkpt>
      <trkpt lat="45.88368" lon="4.75426">
        <ele>203</ele>
        <time>2017-08-15T08:37:37Z</time>
      </trkpt>
      <trkpt lat="45.88367" lon="4.75433">
        <ele>203</ele>
        <time>2017-08-15T08:37:38Z</time>
      </trkpt>
      <trkpt lat="45.88366" lon="4.75439">
        <ele>203</ele>
        <time>2017-08-15T08:37:39Z</time>
      </trkpt>
      <trkpt lat="45.88364" lon="4.75451">
        <ele>203</ele>
        <time>2017-08-15T08:37:41Z</time>
      </trkpt>
      <trkpt lat="45.88364" lon="4.75456">
        <ele>203</ele>
        <time>2017-08-15T08:37:42Z</time>
      </trkpt>
      <trkpt lat="45.88363" lon="4.75462">
        <ele>203</ele>
        <time>2017-08-15T08:37:43Z</time>
      </trkpt>
      <trkpt lat="45.88362" lon="4.75469">
        <ele>203</ele>
        <time>2017-08-15T08:37:44Z</time>
      </trkpt>
      <trkpt lat="45.88362" lon="4.75476">
        <ele>203</ele>
        <time>2017-08-15T08:37:45Z</time>
      </trkpt>
      <trkpt lat="45.88361" lon="4.75483">
        <ele>203</ele>
        <time>2017-08-15T08:37:46Z</time>
      </trkpt>
      <trkpt lat="45.88361" lon="4.7549">
        <ele>203</ele>
        <time>2017-08-15T08:37:47Z</time>
      </trkpt>
      <trkpt lat="45.88361" lon="4.75497">
        <ele>203</ele>
        <time>2017-08-15T08:37:48Z</time>
      </trkpt>
      <trkpt lat="45.88361" lon="4.75504">
        <ele>204</ele>
        <time>2017-08-15T08:37:49Z</time>
      </trkpt>
      <trkpt lat="45.88361" lon="4.7551">
        <ele>204</ele>
        <time>2017-08-15T08:37:50Z</time>
      </trkpt>
      <trkpt lat="45.88361" lon="4.75523">
        <ele>204</ele>
        <time>2017-08-15T08:37:52Z</time>
      </trkpt>
      <trkpt lat="45.88361" lon="4.75529">
        <ele>204</ele>
        <time>2017-08-15T08:37:53Z</time>
      </trkpt>
      <trkpt lat="45.88361" lon="4.75536">
        <ele>204</ele>
        <time>2017-08-15T08:37:54Z</time>
      </trkpt>
      <trkpt lat="45.88361" lon="4.75544">
        <ele>204</ele>
        <time>2017-08-15T08:37:55Z</time>
      </trkpt>
      <trkpt lat="45.88361" lon="4.75551">
        <ele>204</ele>
        <time>2017-08-15T08:37:56Z</time>
      </trkpt>
      <trkpt lat="45.88361" lon="4.75559">
        <ele>204</ele>
        <time>2017-08-15T08:37:57Z</time>
      </trkpt>
      <trkpt lat="45.88361" lon="4.75567">
        <ele>204</ele>
        <time>2017-08-15T08:37:58Z</time>
      </trkpt>
      <trkpt lat="45.88361" lon="4.75575">
        <ele>204</ele>
        <time>2017-08-15T08:37:59Z</time>
      </trkpt>
      <trkpt lat="45.88361" lon="4.75582">
        <ele>204</ele>
        <time>2017-08-15T08:38:00Z</time>
      </trkpt>
      <trkpt lat="45.88361" lon="4.75589">
        <ele>204</ele>
        <time>2017-08-15T08:38:01Z</time>
      </trkpt>
      <trkpt lat="45.88361" lon="4.75596">
        <ele>204</ele>
        <time>2017-08-15T08:38:02Z</time>
      </trkpt>
      <trkpt lat="45.88361" lon="4.75603">
        <ele>204</ele>
        <time>2017-08-15T08:38:03Z</time>
      </trkpt>
      <trkpt lat="45.8836" lon="4.75615">
        <ele>204</ele>
        <time>2017-08-15T08:38:05Z</time>
      </trkpt>
      <trkpt lat="45.8836" lon="4.75621">
        <ele>204</ele>
        <time>2017-08-15T08:38:06Z</time>
      </trkpt>
      <trkpt lat="45.88359" lon="4.75632">
        <ele>204</ele>
        <time>2017-08-15T08:38:08Z</time>
      </trkpt>
      <trkpt lat="45.88358" lon="4.75639">
        <ele>204</ele>
        <time>2017-08-15T08:38:09Z</time>
      </trkpt>
      <trkpt lat="45.88358" lon="4.75645">
        <ele>204</ele>
        <time>2017-08-15T08:38:10Z</time>
      </trkpt>
      <trkpt lat="45.88358" lon="4.75652">
        <ele>204</ele>
        <time>2017-08-15T08:38:11Z</time>
      </trkpt>
      <trkpt lat="45.88357" lon="4.75659">
        <ele>203</ele>
        <time>2017-08-15T08:38:12Z</time>
      </trkpt>
      <trkpt lat="45.88357" lon="4.75666">
        <ele>203</ele>
        <time>2017-08-15T08:38:13Z</time>
      </trkpt>
      <trkpt lat="45.88356" lon="4.75673">
        <ele>203</ele>
        <time>2017-08-15T08:38:14Z</time>
      </trkpt>
      <trkpt lat="45.88355" lon="4.75681">
        <ele>203</ele>
        <time>2017-08-15T08:38:15Z</time>
      </trkpt>
      <trkpt lat="45.88353" lon="4.75688">
        <ele>203</ele>
        <time>2017-08-15T08:38:16Z</time>
      </trkpt>
      <trkpt lat="45.88352" lon="4.75695">
        <ele>204</ele>
        <time>2017-08-15T08:38:17Z</time>
      </trkpt>
      <trkpt lat="45.88351" lon="4.75701">
        <ele>204</ele>
        <time>2017-08-15T08:38:18Z</time>
      </trkpt>
      <trkpt lat="45.8835" lon="4.75708">
        <ele>204</ele>
        <time>2017-08-15T08:38:19Z</time>
      </trkpt>
      <trkpt lat="45.88348" lon="4.75715">
        <ele>204</ele>
        <time>2017-08-15T08:38:20Z</time>
      </trkpt>
      <trkpt lat="45.88347" lon="4.75722">
        <ele>204</ele>
        <time>2017-08-15T08:38:21Z</time>
      </trkpt>
      <trkpt lat="45.88345" lon="4.75729">
        <ele>203</ele>
        <time>2017-08-15T08:38:22Z</time>
      </trkpt>
      <trkpt lat="45.88344" lon="4.75736">
        <ele>203</ele>
        <time>2017-08-15T08:38:23Z</time>
      </trkpt>
      <trkpt lat="45.88342" lon="4.75748">
        <ele>203</ele>
        <time>2017-08-15T08:38:25Z</time>
      </trkpt>
      <trkpt lat="45.8834" lon="4.75753">
        <ele>203</ele>
        <time>2017-08-15T08:38:26Z</time>
      </trkpt>
      <trkpt lat="45.88339" lon="4.75765">
        <ele>203</ele>
        <time>2017-08-15T08:38:28Z</time>
      </trkpt>
      <trkpt lat="45.88338" lon="4.75772">
        <ele>203</ele>
        <time>2017-08-15T08:38:29Z</time>
      </trkpt>
      <trkpt lat="45.88338" lon="4.75779">
        <ele>203</ele>
        <time>2017-08-15T08:38:30Z</time>
      </trkpt>
      <trkpt lat="45.88337" lon="4.75786">
        <ele>203</ele>
        <time>2017-08-15T08:38:31Z</time>
      </trkpt>
      <trkpt lat="45.88337" lon="4.75793">
        <ele>203</ele>
        <time>2017-08-15T08:38:32Z</time>
      </trkpt>
      <trkpt lat="45.88336" lon="4.758">
        <ele>203</ele>
        <time>2017-08-15T08:38:33Z</time>
      </trkpt>
      <trkpt lat="45.88336" lon="4.75807">
        <ele>203</ele>
        <time>2017-08-15T08:38:34Z</time>
      </trkpt>
      <trkpt lat="45.88336" lon="4.75814">
        <ele>203</ele>
        <time>2017-08-15T08:38:35Z</time>
      </trkpt>
      <trkpt lat="45.88336" lon="4.75821">
        <ele>203</ele>
        <time>2017-08-15T08:38:36Z</time>
      </trkpt>
      <trkpt lat="45.88336" lon="4.75828">
        <ele>203</ele>
        <time>2017-08-15T08:38:37Z</time>
      </trkpt>
      <trkpt lat="45.88336" lon="4.75835">
        <ele>203</ele>
        <time>2017-08-15T08:38:38Z</time>
      </trkpt>
      <trkpt lat="45.88336" lon="4.75841">
        <ele>203</ele>
        <time>2017-08-15T08:38:39Z</time>
      </trkpt>
      <trkpt lat="45.88334" lon="4.75853">
        <ele>204</ele>
        <time>2017-08-15T08:38:41Z</time>
      </trkpt>
      <trkpt lat="45.88334" lon="4.7586">
        <ele>204</ele>
        <time>2017-08-15T08:38:42Z</time>
      </trkpt>
      <trkpt lat="45.88333" lon="4.75867">
        <ele>204</ele>
        <time>2017-08-15T08:38:43Z</time>
      </trkpt>
      <trkpt lat="45.88331" lon="4.75874">
        <ele>204</ele>
        <time>2017-08-15T08:38:44Z</time>
      </trkpt>
      <trkpt lat="45.8833" lon="4.75882">
        <ele>204</ele>
        <time>2017-08-15T08:38:45Z</time>
      </trkpt>
      <trkpt lat="45.88329" lon="4.75889">
        <ele>205</ele>
        <time>2017-08-15T08:38:46Z</time>
      </trkpt>
      <trkpt lat="45.88328" lon="4.75896">
        <ele>205</ele>
        <time>2017-08-15T08:38:47Z</time>
      </trkpt>
      <trkpt lat="45.88327" lon="4.75903">
        <ele>205</ele>
        <time>2017-08-15T08:38:48Z</time>
      </trkpt>
      <trkpt lat="45.88326" lon="4.7591">
        <ele>205</ele>
        <time>2017-08-15T08:38:49Z</time>
      </trkpt>
      <trkpt lat="45.88324" lon="4.75917">
        <ele>205</ele>
        <time>2017-08-15T08:38:50Z</time>
      </trkpt>
      <trkpt lat="45.88321" lon="4.75928">
        <ele>205</ele>
        <time>2017-08-15T08:38:52Z</time>
      </trkpt>
      <trkpt lat="45.8832" lon="4.75933">
        <ele>206</ele>
        <time>2017-08-15T08:38:53Z</time>
      </trkpt>
      <trkpt lat="45.88316" lon="4.75944">
        <ele>206</ele>
        <time>2017-08-15T08:38:55Z</time>
      </trkpt>
      <trkpt lat="45.88314" lon="4.7595">
        <ele>206</ele>
        <time>2017-08-15T08:38:56Z</time>
      </trkpt>
      <trkpt lat="45.88312" lon="4.75956">
        <ele>206</ele>
        <time>2017-08-15T08:38:57Z</time>
      </trkpt>
      <trkpt lat="45.8831" lon="4.75962">
        <ele>206</ele>
        <time>2017-08-15T08:38:58Z</time>
      </trkpt>
      <trkpt lat="45.88308" lon="4.75968">
        <ele>206</ele>
        <time>2017-08-15T08:38:59Z</time>
      </trkpt>
      <trkpt lat="45.88306" lon="4.75974">
        <ele>206</ele>
        <time>2017-08-15T08:39:00Z</time>
      </trkpt>
      <trkpt lat="45.88304" lon="4.7598">
        <ele>206</ele>
        <time>2017-08-15T08:39:01Z</time>
      </trkpt>
      <trkpt lat="45.88302" lon="4.75986">
        <ele>206</ele>
        <time>2017-08-15T08:39:02Z</time>
      </trkpt>
      <trkpt lat="45.883" lon="4.75992">
        <ele>206</ele>
        <time>2017-08-15T08:39:03Z</time>
      </trkpt>
      <trkpt lat="45.88298" lon="4.75997">
        <ele>206</ele>
        <time>2017-08-15T08:39:04Z</time>
      </trkpt>
      <trkpt lat="45.88295" lon="4.76009">
        <ele>207</ele>
        <time>2017-08-15T08:39:06Z</time>
      </trkpt>
      <trkpt lat="45.88294" lon="4.76015">
        <ele>207</ele>
        <time>2017-08-15T08:39:07Z</time>
      </trkpt>
      <trkpt lat="45.88293" lon="4.76022">
        <ele>207</ele>
        <time>2017-08-15T08:39:08Z</time>
      </trkpt>
      <trkpt lat="45.88293" lon="4.76028">
        <ele>207</ele>
        <time>2017-08-15T08:39:09Z</time>
      </trkpt>
      <trkpt lat="45.88291" lon="4.76041">
        <ele>208</ele>
        <time>2017-08-15T08:39:11Z</time>
      </trkpt>
      <trkpt lat="45.88291" lon="4.76047">
        <ele>208</ele>
        <time>2017-08-15T08:39:12Z</time>
      </trkpt>
      <trkpt lat="45.8829" lon="4.76058">
        <ele>208</ele>
        <time>2017-08-15T08:39:14Z</time>
      </trkpt>
      <trkpt lat="45.88289" lon="4.76065">
        <ele>208</ele>
        <time>2017-08-15T08:39:15Z</time>
      </trkpt>
      <trkpt lat="45.88289" lon="4.76077">
        <ele>208</ele>
        <time>2017-08-15T08:39:17Z</time>
      </trkpt>
      <trkpt lat="45.88288" lon="4.76083">
        <ele>208</ele>
        <time>2017-08-15T08:39:18Z</time>
      </trkpt>
      <trkpt lat="45.88287" lon="4.76094">
        <ele>210</ele>
        <time>2017-08-15T08:39:20Z</time>
      </trkpt>
      <trkpt lat="45.88286" lon="4.761">
        <ele>210</ele>
        <time>2017-08-15T08:39:21Z</time>
      </trkpt>
      <trkpt lat="45.88285" lon="4.76112">
        <ele>210</ele>
        <time>2017-08-15T08:39:23Z</time>
      </trkpt>
      <trkpt lat="45.88285" lon="4.76117">
        <ele>210</ele>
        <time>2017-08-15T08:39:24Z</time>
      </trkpt>
      <trkpt lat="45.88284" lon="4.76128">
        <ele>210</ele>
        <time>2017-08-15T08:39:26Z</time>
      </trkpt>
      <trkpt lat="45.88284" lon="4.76134">
        <ele>210</ele>
        <time>2017-08-15T08:39:27Z</time>
      </trkpt>
      <trkpt lat="45.88284" lon="4.76145">
        <ele>211</ele>
        <time>2017-08-15T08:39:29Z</time>
      </trkpt>
      <trkpt lat="45.88284" lon="4.7615">
        <ele>211</ele>
        <time>2017-08-15T08:39:30Z</time>
      </trkpt>
      <trkpt lat="45.88283" lon="4.76159">
        <ele>211</ele>
        <time>2017-08-15T08:39:32Z</time>
      </trkpt>
      <trkpt lat="45.88283" lon="4.76164">
        <ele>211</ele>
        <time>2017-08-15T08:39:33Z</time>
      </trkpt>
      <trkpt lat="45.88283" lon="4.76174">
        <ele>213</ele>
        <time>2017-08-15T08:39:35Z</time>
      </trkpt>
      <trkpt lat="45.88283" lon="4.76179">
        <ele>213</ele>
        <time>2017-08-15T08:39:36Z</time>
      </trkpt>
      <trkpt lat="45.88283" lon="4.76189">
        <ele>213</ele>
        <time>2017-08-15T08:39:38Z</time>
      </trkpt>
      <trkpt lat="45.88282" lon="4.76195">
        <ele>213</ele>
        <time>2017-08-15T08:39:39Z</time>
      </trkpt>
      <trkpt lat="45.88281" lon="4.76206">
        <ele>213</ele>
        <time>2017-08-15T08:39:41Z</time>
      </trkpt>
      <trkpt lat="45.8828" lon="4.76211">
        <ele>213</ele>
        <time>2017-08-15T08:39:42Z</time>
      </trkpt>
      <trkpt lat="45.88279" lon="4.76222">
        <ele>213</ele>
        <time>2017-08-15T08:39:44Z</time>
      </trkpt>
      <trkpt lat="45.88279" lon="4.76228">
        <ele>213</ele>
        <time>2017-08-15T08:39:45Z</time>
      </trkpt>
      <trkpt lat="45.88277" lon="4.76239">
        <ele>213</ele>
        <time>2017-08-15T08:39:47Z</time>
      </trkpt>
      <trkpt lat="45.88277" lon="4.76245">
        <ele>213</ele>
        <time>2017-08-15T08:39:48Z</time>
      </trkpt>
      <trkpt lat="45.88276" lon="4.76256">
        <ele>214</ele>
        <time>2017-08-15T08:39:50Z</time>
      </trkpt>
      <trkpt lat="45.88275" lon="4.76262">
        <ele>214</ele>
        <time>2017-08-15T08:39:51Z</time>
      </trkpt>
      <trkpt lat="45.88274" lon="4.76274">
        <ele>214</ele>
        <time>2017-08-15T08:39:53Z</time>
      </trkpt>
      <trkpt lat="45.88273" lon="4.76279">
        <ele>214</ele>
        <time>2017-08-15T08:39:54Z</time>
      </trkpt>
      <trkpt lat="45.88271" lon="4.76289">
        <ele>214</ele>
        <time>2017-08-15T08:39:56Z</time>
      </trkpt>
      <trkpt lat="45.8827" lon="4.76294">
        <ele>214</ele>
        <time>2017-08-15T08:39:57Z</time>
      </trkpt>
      <trkpt lat="45.88269" lon="4.76305">
        <ele>214</ele>
        <time>2017-08-15T08:39:59Z</time>
      </trkpt>
      <trkpt lat="45.88268" lon="4.7631">
        <ele>214</ele>
        <time>2017-08-15T08:40:00Z</time>
      </trkpt>
      <trkpt lat="45.88264" lon="4.76321">
        <ele>214</ele>
        <time>2017-08-15T08:40:02Z</time>
      </trkpt>
      <trkpt lat="45.88262" lon="4.76327">
        <ele>214</ele>
        <time>2017-08-15T08:40:03Z</time>
      </trkpt>
      <trkpt lat="45.88259" lon="4.76338">
        <ele>214</ele>
        <time>2017-08-15T08:40:05Z</time>
      </trkpt>
      <trkpt lat="45.88257" lon="4.76343">
        <ele>214</ele>
        <time>2017-08-15T08:40:06Z</time>
      </trkpt>
      <trkpt lat="45.88253" lon="4.76353">
        <ele>214</ele>
        <time>2017-08-15T08:40:08Z</time>
      </trkpt>
      <trkpt lat="45.88251" lon="4.76357">
        <ele>214</ele>
        <time>2017-08-15T08:40:09Z</time>
      </trkpt>
      <trkpt lat="45.88248" lon="4.76366">
        <ele>215</ele>
        <time>2017-08-15T08:40:11Z</time>
      </trkpt>
      <trkpt lat="45.88246" lon="4.7637">
        <ele>215</ele>
        <time>2017-08-15T08:40:12Z</time>
      </trkpt>
      <trkpt lat="45.88241" lon="4.76381">
        <ele>215</ele>
        <time>2017-08-15T08:40:15Z</time>
      </trkpt>
      <trkpt lat="45.88239" lon="4.76384">
        <ele>215</ele>
        <time>2017-08-15T08:40:16Z</time>
      </trkpt>
      <trkpt lat="45.88235" lon="4.76392">
        <ele>215</ele>
        <time>2017-08-15T08:40:18Z</time>
      </trkpt>
      <trkpt lat="45.88234" lon="4.76396">
        <ele>215</ele>
        <time>2017-08-15T08:40:19Z</time>
      </trkpt>
      <trkpt lat="45.8823" lon="4.76407">
        <ele>215</ele>
        <time>2017-08-15T08:40:21Z</time>
      </trkpt>
      <trkpt lat="45.88228" lon="4.76414">
        <ele>215</ele>
        <time>2017-08-15T08:40:22Z</time>
      </trkpt>
      <trkpt lat="45.88226" lon="4.7642">
        <ele>214</ele>
        <time>2017-08-15T08:40:23Z</time>
      </trkpt>
      <trkpt lat="45.88224" lon="4.76426">
        <ele>214</ele>
        <time>2017-08-15T08:40:24Z</time>
      </trkpt>
      <trkpt lat="45.88222" lon="4.76432">
        <ele>214</ele>
        <time>2017-08-15T08:40:25Z</time>
      </trkpt>
      <trkpt lat="45.8822" lon="4.76438">
        <ele>214</ele>
        <time>2017-08-15T08:40:26Z</time>
      </trkpt>
      <trkpt lat="45.88216" lon="4.76449">
        <ele>214</ele>
        <time>2017-08-15T08:40:28Z</time>
      </trkpt>
      <trkpt lat="45.88214" lon="4.76454">
        <ele>214</ele>
        <time>2017-08-15T08:40:29Z</time>
      </trkpt>
      <trkpt lat="45.8821" lon="4.76465">
        <ele>214</ele>
        <time>2017-08-15T08:40:31Z</time>
      </trkpt>
      <trkpt lat="45.88209" lon="4.76471">
        <ele>214</ele>
        <time>2017-08-15T08:40:32Z</time>
      </trkpt>
      <trkpt lat="45.88207" lon="4.76477">
        <ele>214</ele>
        <time>2017-08-15T08:40:33Z</time>
      </trkpt>
      <trkpt lat="45.88204" lon="4.76483">
        <ele>214</ele>
        <time>2017-08-15T08:40:34Z</time>
      </trkpt>
      <trkpt lat="45.88202" lon="4.76489">
        <ele>214</ele>
        <time>2017-08-15T08:40:35Z</time>
      </trkpt>
      <trkpt lat="45.882" lon="4.76496">
        <ele>214</ele>
        <time>2017-08-15T08:40:36Z</time>
      </trkpt>
      <trkpt lat="45.88198" lon="4.76503">
        <ele>214</ele>
        <time>2017-08-15T08:40:37Z</time>
      </trkpt>
      <trkpt lat="45.88196" lon="4.76511">
        <ele>214</ele>
        <time>2017-08-15T08:40:38Z</time>
      </trkpt>
      <trkpt lat="45.88194" lon="4.76518">
        <ele>214</ele>
        <time>2017-08-15T08:40:39Z</time>
      </trkpt>
      <trkpt lat="45.88192" lon="4.76525">
        <ele>214</ele>
        <time>2017-08-15T08:40:40Z</time>
      </trkpt>
      <trkpt lat="45.8819" lon="4.76533">
        <ele>214</ele>
        <time>2017-08-15T08:40:41Z</time>
      </trkpt>
      <trkpt lat="45.88188" lon="4.76541">
        <ele>214</ele>
        <time>2017-08-15T08:40:42Z</time>
      </trkpt>
      <trkpt lat="45.88185" lon="4.76548">
        <ele>214</ele>
        <time>2017-08-15T08:40:43Z</time>
      </trkpt>
      <trkpt lat="45.88183" lon="4.76556">
        <ele>214</ele>
        <time>2017-08-15T08:40:44Z</time>
      </trkpt>
      <trkpt lat="45.8818" lon="4.76563">
        <ele>214</ele>
        <time>2017-08-15T08:40:45Z</time>
      </trkpt>
      <trkpt lat="45.88178" lon="4.76571">
        <ele>214</ele>
        <time>2017-08-15T08:40:46Z</time>
      </trkpt>
      <trkpt lat="45.88176" lon="4.76578">
        <ele>215</ele>
        <time>2017-08-15T08:40:47Z</time>
      </trkpt>
      <trkpt lat="45.88174" lon="4.76586">
        <ele>215</ele>
        <time>2017-08-15T08:40:48Z</time>
      </trkpt>
      <trkpt lat="45.88173" lon="4.76593">
        <ele>214</ele>
        <time>2017-08-15T08:40:49Z</time>
      </trkpt>
      <trkpt lat="45.8817" lon="4.76599">
        <ele>214</ele>
        <time>2017-08-15T08:40:50Z</time>
      </trkpt>
      <trkpt lat="45.88168" lon="4.76606">
        <ele>214</ele>
        <time>2017-08-15T08:40:51Z</time>
      </trkpt>
      <trkpt lat="45.88166" lon="4.76611">
        <ele>215</ele>
        <time>2017-08-15T08:40:52Z</time>
      </trkpt>
      <trkpt lat="45.88161" lon="4.76622">
        <ele>215</ele>
        <time>2017-08-15T08:40:54Z</time>
      </trkpt>
      <trkpt lat="45.88159" lon="4.76627">
        <ele>215</ele>
        <time>2017-08-15T08:40:55Z</time>
      </trkpt>
      <trkpt lat="45.88155" lon="4.76638">
        <ele>215</ele>
        <time>2017-08-15T08:40:57Z</time>
      </trkpt>
      <trkpt lat="45.88152" lon="4.76644">
        <ele>215</ele>
        <time>2017-08-15T08:40:58Z</time>
      </trkpt>
      <trkpt lat="45.88149" lon="4.7665">
        <ele>214</ele>
        <time>2017-08-15T08:40:59Z</time>
      </trkpt>
      <trkpt lat="45.88147" lon="4.76657">
        <ele>214</ele>
        <time>2017-08-15T08:41:00Z</time>
      </trkpt>
      <trkpt lat="45.88145" lon="4.76663">
        <ele>214</ele>
        <time>2017-08-15T08:41:01Z</time>
      </trkpt>
      <trkpt lat="45.88142" lon="4.76669">
        <ele>214</ele>
        <time>2017-08-15T08:41:02Z</time>
      </trkpt>
      <trkpt lat="45.88139" lon="4.76676">
        <ele>214</ele>
        <time>2017-08-15T08:41:03Z</time>
      </trkpt>
      <trkpt lat="45.88137" lon="4.76682">
        <ele>214</ele>
        <time>2017-08-15T08:41:04Z</time>
      </trkpt>
      <trkpt lat="45.88134" lon="4.76688">
        <ele>214</ele>
        <time>2017-08-15T08:41:05Z</time>
      </trkpt>
      <trkpt lat="45.88131" lon="4.76694">
        <ele>214</ele>
        <time>2017-08-15T08:41:06Z</time>
      </trkpt>
      <trkpt lat="45.88129" lon="4.767">
        <ele>214</ele>
        <time>2017-08-15T08:41:07Z</time>
      </trkpt>
      <trkpt lat="45.88127" lon="4.76706">
        <ele>214</ele>
        <time>2017-08-15T08:41:08Z</time>
      </trkpt>
      <trkpt lat="45.88124" lon="4.76711">
        <ele>214</ele>
        <time>2017-08-15T08:41:09Z</time>
      </trkpt>
      <trkpt lat="45.88121" lon="4.76717">
        <ele>214</ele>
        <time>2017-08-15T08:41:10Z</time>
      </trkpt>
      <trkpt lat="45.88118" lon="4.76723">
        <ele>214</ele>
        <time>2017-08-15T08:41:11Z</time>
      </trkpt>
      <trkpt lat="45.88116" lon="4.76729">
        <ele>214</ele>
        <time>2017-08-15T08:41:12Z</time>
      </trkpt>
      <trkpt lat="45.88113" lon="4.76736">
        <ele>214</ele>
        <time>2017-08-15T08:41:13Z</time>
      </trkpt>
      <trkpt lat="45.88111" lon="4.76743">
        <ele>214</ele>
        <time>2017-08-15T08:41:14Z</time>
      </trkpt>
      <trkpt lat="45.88109" lon="4.76751">
        <ele>213</ele>
        <time>2017-08-15T08:41:15Z</time>
      </trkpt>
      <trkpt lat="45.88108" lon="4.76758">
        <ele>213</ele>
        <time>2017-08-15T08:41:16Z</time>
      </trkpt>
      <trkpt lat="45.88107" lon="4.76766">
        <ele>213</ele>
        <time>2017-08-15T08:41:17Z</time>
      </trkpt>
      <trkpt lat="45.88106" lon="4.76774">
        <ele>213</ele>
        <time>2017-08-15T08:41:18Z</time>
      </trkpt>
      <trkpt lat="45.88105" lon="4.76782">
        <ele>213</ele>
        <time>2017-08-15T08:41:19Z</time>
      </trkpt>
      <trkpt lat="45.88104" lon="4.7679">
        <ele>213</ele>
        <time>2017-08-15T08:41:20Z</time>
      </trkpt>
      <trkpt lat="45.88103" lon="4.76798">
        <ele>213</ele>
        <time>2017-08-15T08:41:21Z</time>
      </trkpt>
      <trkpt lat="45.88102" lon="4.76805">
        <ele>213</ele>
        <time>2017-08-15T08:41:22Z</time>
      </trkpt>
      <trkpt lat="45.88101" lon="4.76812">
        <ele>213</ele>
        <time>2017-08-15T08:41:23Z</time>
      </trkpt>
      <trkpt lat="45.881" lon="4.76819">
        <ele>213</ele>
        <time>2017-08-15T08:41:24Z</time>
      </trkpt>
      <trkpt lat="45.88099" lon="4.76826">
        <ele>213</ele>
        <time>2017-08-15T08:41:25Z</time>
      </trkpt>
      <trkpt lat="45.88098" lon="4.76832">
        <ele>213</ele>
        <time>2017-08-15T08:41:26Z</time>
      </trkpt>
      <trkpt lat="45.88097" lon="4.76839">
        <ele>212</ele>
        <time>2017-08-15T08:41:27Z</time>
      </trkpt>
      <trkpt lat="45.88096" lon="4.76845">
        <ele>212</ele>
        <time>2017-08-15T08:41:28Z</time>
      </trkpt>
      <trkpt lat="45.88095" lon="4.76852">
        <ele>212</ele>
        <time>2017-08-15T08:41:29Z</time>
      </trkpt>
      <trkpt lat="45.88094" lon="4.76859">
        <ele>212</ele>
        <time>2017-08-15T08:41:30Z</time>
      </trkpt>
      <trkpt lat="45.88093" lon="4.76866">
        <ele>212</ele>
        <time>2017-08-15T08:41:31Z</time>
      </trkpt>
      <trkpt lat="45.88092" lon="4.76873">
        <ele>212</ele>
        <time>2017-08-15T08:41:32Z</time>
      </trkpt>
      <trkpt lat="45.8809" lon="4.76881">
        <ele>212</ele>
        <time>2017-08-15T08:41:33Z</time>
      </trkpt>
      <trkpt lat="45.88089" lon="4.76888">
        <ele>212</ele>
        <time>2017-08-15T08:41:34Z</time>
      </trkpt>
      <trkpt lat="45.88088" lon="4.76895">
        <ele>212</ele>
        <time>2017-08-15T08:41:35Z</time>
      </trkpt>
      <trkpt lat="45.88087" lon="4.76902">
        <ele>212</ele>
        <time>2017-08-15T08:41:36Z</time>
      </trkpt>
      <trkpt lat="45.88086" lon="4.76909">
        <ele>213</ele>
        <time>2017-08-15T08:41:37Z</time>
      </trkpt>
      <trkpt lat="45.88085" lon="4.76915">
        <ele>213</ele>
        <time>2017-08-15T08:41:38Z</time>
      </trkpt>
      <trkpt lat="45.88084" lon="4.76921">
        <ele>213</ele>
        <time>2017-08-15T08:41:39Z</time>
      </trkpt>
      <trkpt lat="45.88083" lon="4.76927">
        <ele>213</ele>
        <time>2017-08-15T08:41:40Z</time>
      </trkpt>
      <trkpt lat="45.88081" lon="4.76934">
        <ele>213</ele>
        <time>2017-08-15T08:41:41Z</time>
      </trkpt>
      <trkpt lat="45.88079" lon="4.7694">
        <ele>213</ele>
        <time>2017-08-15T08:41:42Z</time>
      </trkpt>
      <trkpt lat="45.88077" lon="4.76946">
        <ele>213</ele>
        <time>2017-08-15T08:41:43Z</time>
      </trkpt>
      <trkpt lat="45.88075" lon="4.76953">
        <ele>213</ele>
        <time>2017-08-15T08:41:44Z</time>
      </trkpt>
      <trkpt lat="45.88074" lon="4.7696">
        <ele>213</ele>
        <time>2017-08-15T08:41:45Z</time>
      </trkpt>
      <trkpt lat="45.88073" lon="4.76967">
        <ele>213</ele>
        <time>2017-08-15T08:41:46Z</time>
      </trkpt>
      <trkpt lat="45.88071" lon="4.76975">
        <ele>213</ele>
        <time>2017-08-15T08:41:47Z</time>
      </trkpt>
      <trkpt lat="45.8807" lon="4.76982">
        <ele>213</ele>
        <time>2017-08-15T08:41:48Z</time>
      </trkpt>
      <trkpt lat="45.88068" lon="4.76988">
        <ele>213</ele>
        <time>2017-08-15T08:41:49Z</time>
      </trkpt>
      <trkpt lat="45.88067" lon="4.76995">
        <ele>213</ele>
        <time>2017-08-15T08:41:50Z</time>
      </trkpt>
      <trkpt lat="45.88065" lon="4.77001">
        <ele>214</ele>
        <time>2017-08-15T08:41:51Z</time>
      </trkpt>
      <trkpt lat="45.88064" lon="4.77007">
        <ele>214</ele>
        <time>2017-08-15T08:41:52Z</time>
      </trkpt>
      <trkpt lat="45.88063" lon="4.77013">
        <ele>214</ele>
        <time>2017-08-15T08:41:53Z</time>
      </trkpt>
      <trkpt lat="45.88061" lon="4.7702">
        <ele>214</ele>
        <time>2017-08-15T08:41:54Z</time>
      </trkpt>
      <trkpt lat="45.8806" lon="4.77026">
        <ele>214</ele>
        <time>2017-08-15T08:41:55Z</time>
      </trkpt>
      <trkpt lat="45.88059" lon="4.77033">
        <ele>214</ele>
        <time>2017-08-15T08:41:56Z</time>
      </trkpt>
      <trkpt lat="45.88057" lon="4.77041">
        <ele>214</ele>
        <time>2017-08-15T08:41:57Z</time>
      </trkpt>
      <trkpt lat="45.88056" lon="4.77048">
        <ele>214</ele>
        <time>2017-08-15T08:41:58Z</time>
      </trkpt>
      <trkpt lat="45.88054" lon="4.77054">
        <ele>214</ele>
        <time>2017-08-15T08:41:59Z</time>
      </trkpt>
      <trkpt lat="45.88053" lon="4.77061">
        <ele>214</ele>
        <time>2017-08-15T08:42:00Z</time>
      </trkpt>
      <trkpt lat="45.8805" lon="4.77072">
        <ele>214</ele>
        <time>2017-08-15T08:42:02Z</time>
      </trkpt>
      <trkpt lat="45.88048" lon="4.77078">
        <ele>214</ele>
        <time>2017-08-15T08:42:03Z</time>
      </trkpt>
      <trkpt lat="45.88047" lon="4.77084">
        <ele>215</ele>
        <time>2017-08-15T08:42:04Z</time>
      </trkpt>
      <trkpt lat="45.88045" lon="4.7709">
        <ele>215</ele>
        <time>2017-08-15T08:42:05Z</time>
      </trkpt>
      <trkpt lat="45.88044" lon="4.77096">
        <ele>215</ele>
        <time>2017-08-15T08:42:06Z</time>
      </trkpt>
      <trkpt lat="45.88042" lon="4.77103">
        <ele>215</ele>
        <time>2017-08-15T08:42:07Z</time>
      </trkpt>
      <trkpt lat="45.88041" lon="4.77109">
        <ele>215</ele>
        <time>2017-08-15T08:42:08Z</time>
      </trkpt>
      <trkpt lat="45.88039" lon="4.77116">
        <ele>215</ele>
        <time>2017-08-15T08:42:09Z</time>
      </trkpt>
      <trkpt lat="45.88037" lon="4.77128">
        <ele>215</ele>
        <time>2017-08-15T08:42:11Z</time>
      </trkpt>
      <trkpt lat="45.88037" lon="4.77134">
        <ele>215</ele>
        <time>2017-08-15T08:42:12Z</time>
      </trkpt>
      <trkpt lat="45.88036" lon="4.7714">
        <ele>215</ele>
        <time>2017-08-15T08:42:13Z</time>
      </trkpt>
      <trkpt lat="45.88036" lon="4.77147">
        <ele>215</ele>
        <time>2017-08-15T08:42:14Z</time>
      </trkpt>
      <trkpt lat="45.88035" lon="4.77153">
        <ele>215</ele>
        <time>2017-08-15T08:42:15Z</time>
      </trkpt>
      <trkpt lat="45.88034" lon="4.7716">
        <ele>215</ele>
        <time>2017-08-15T08:42:16Z</time>
      </trkpt>
      <trkpt lat="45.88034" lon="4.77167">
        <ele>216</ele>
        <time>2017-08-15T08:42:17Z</time>
      </trkpt>
      <trkpt lat="45.88033" lon="4.77174">
        <ele>216</ele>
        <time>2017-08-15T08:42:18Z</time>
      </trkpt>
      <trkpt lat="45.88033" lon="4.77181">
        <ele>216</ele>
        <time>2017-08-15T08:42:19Z</time>
      </trkpt>
      <trkpt lat="45.88033" lon="4.77187">
        <ele>216</ele>
        <time>2017-08-15T08:42:20Z</time>
      </trkpt>
      <trkpt lat="45.88032" lon="4.77199">
        <ele>216</ele>
        <time>2017-08-15T08:42:22Z</time>
      </trkpt>
      <trkpt lat="45.88031" lon="4.77205">
        <ele>216</ele>
        <time>2017-08-15T08:42:23Z</time>
      </trkpt>
      <trkpt lat="45.88031" lon="4.77216">
        <ele>216</ele>
        <time>2017-08-15T08:42:25Z</time>
      </trkpt>
      <trkpt lat="45.8803" lon="4.77221">
        <ele>216</ele>
        <time>2017-08-15T08:42:26Z</time>
      </trkpt>
      <trkpt lat="45.88028" lon="4.77234">
        <ele>216</ele>
        <time>2017-08-15T08:42:28Z</time>
      </trkpt>
      <trkpt lat="45.88027" lon="4.7724">
        <ele>216</ele>
        <time>2017-08-15T08:42:29Z</time>
      </trkpt>
      <trkpt lat="45.88027" lon="4.77247">
        <ele>216</ele>
        <time>2017-08-15T08:42:30Z</time>
      </trkpt>
      <trkpt lat="45.88026" lon="4.77254">
        <ele>216</ele>
        <time>2017-08-15T08:42:31Z</time>
      </trkpt>
      <trkpt lat="45.88025" lon="4.77261">
        <ele>216</ele>
        <time>2017-08-15T08:42:32Z</time>
      </trkpt>
      <trkpt lat="45.88024" lon="4.77268">
        <ele>216</ele>
        <time>2017-08-15T08:42:33Z</time>
      </trkpt>
      <trkpt lat="45.88022" lon="4.7728">
        <ele>215</ele>
        <time>2017-08-15T08:42:35Z</time>
      </trkpt>
      <trkpt lat="45.88021" lon="4.77286">
        <ele>215</ele>
        <time>2017-08-15T08:42:36Z</time>
      </trkpt>
      <trkpt lat="45.8802" lon="4.77298">
        <ele>215</ele>
        <time>2017-08-15T08:42:38Z</time>
      </trkpt>
      <trkpt lat="45.88019" lon="4.77304">
        <ele>215</ele>
        <time>2017-08-15T08:42:39Z</time>
      </trkpt>
      <trkpt lat="45.88018" lon="4.7731">
        <ele>215</ele>
        <time>2017-08-15T08:42:40Z</time>
      </trkpt>
      <trkpt lat="45.88016" lon="4.77317">
        <ele>215</ele>
        <time>2017-08-15T08:42:41Z</time>
      </trkpt>
      <trkpt lat="45.88016" lon="4.77324">
        <ele>215</ele>
        <time>2017-08-15T08:42:42Z</time>
      </trkpt>
      <trkpt lat="45.88014" lon="4.77331">
        <ele>216</ele>
        <time>2017-08-15T08:42:43Z</time>
      </trkpt>
      <trkpt lat="45.88013" lon="4.77338">
        <ele>215</ele>
        <time>2017-08-15T08:42:44Z</time>
      </trkpt>
      <trkpt lat="45.88012" lon="4.77346">
        <ele>215</ele>
        <time>2017-08-15T08:42:45Z</time>
      </trkpt>
      <trkpt lat="45.8801" lon="4.77353">
        <ele>215</ele>
        <time>2017-08-15T08:42:46Z</time>
      </trkpt>
      <trkpt lat="45.88009" lon="4.77359">
        <ele>215</ele>
        <time>2017-08-15T08:42:47Z</time>
      </trkpt>
      <trkpt lat="45.88007" lon="4.77366">
        <ele>215</ele>
        <time>2017-08-15T08:42:48Z</time>
      </trkpt>
      <trkpt lat="45.88006" lon="4.77373">
        <ele>215</ele>
        <time>2017-08-15T08:42:49Z</time>
      </trkpt>
      <trkpt lat="45.88004" lon="4.77385">
        <ele>215</ele>
        <time>2017-08-15T08:42:51Z</time>
      </trkpt>
      <trkpt lat="45.88003" lon="4.77391">
        <ele>215</ele>
        <time>2017-08-15T08:42:52Z</time>
      </trkpt>
      <trkpt lat="45.88001" lon="4.77403">
        <ele>215</ele>
        <time>2017-08-15T08:42:54Z</time>
      </trkpt>
      <trkpt lat="45.88" lon="4.77409">
        <ele>215</ele>
        <time>2017-08-15T08:42:55Z</time>
      </trkpt>
      <trkpt lat="45.88" lon="4.77416">
        <ele>215</ele>
        <time>2017-08-15T08:42:56Z</time>
      </trkpt>
      <trkpt lat="45.87999" lon="4.77423">
        <ele>216</ele>
        <time>2017-08-15T08:42:57Z</time>
      </trkpt>
      <trkpt lat="45.87998" lon="4.7743">
        <ele>216</ele>
        <time>2017-08-15T08:42:58Z</time>
      </trkpt>
      <trkpt lat="45.87998" lon="4.77437">
        <ele>216</ele>
        <time>2017-08-15T08:42:59Z</time>
      </trkpt>
      <trkpt lat="45.87997" lon="4.77445">
        <ele>216</ele>
        <time>2017-08-15T08:43:00Z</time>
      </trkpt>
      <trkpt lat="45.87996" lon="4.77452">
        <ele>217</ele>
        <time>2017-08-15T08:43:01Z</time>
      </trkpt>
      <trkpt lat="45.87995" lon="4.77459">
        <ele>217</ele>
        <time>2017-08-15T08:43:02Z</time>
      </trkpt>
      <trkpt lat="45.87995" lon="4.77466">
        <ele>217</ele>
        <time>2017-08-15T08:43:03Z</time>
      </trkpt>
      <trkpt lat="45.87994" lon="4.77473">
        <ele>217</ele>
        <time>2017-08-15T08:43:04Z</time>
      </trkpt>
      <trkpt lat="45.87993" lon="4.77479">
        <ele>217</ele>
        <time>2017-08-15T08:43:05Z</time>
      </trkpt>
      <trkpt lat="45.87991" lon="4.77491">
        <ele>216</ele>
        <time>2017-08-15T08:43:07Z</time>
      </trkpt>
      <trkpt lat="45.8799" lon="4.77497">
        <ele>216</ele>
        <time>2017-08-15T08:43:08Z</time>
      </trkpt>
      <trkpt lat="45.87989" lon="4.77509">
        <ele>217</ele>
        <time>2017-08-15T08:43:10Z</time>
      </trkpt>
      <trkpt lat="45.87988" lon="4.77515">
        <ele>217</ele>
        <time>2017-08-15T08:43:11Z</time>
      </trkpt>
      <trkpt lat="45.87987" lon="4.77522">
        <ele>217</ele>
        <time>2017-08-15T08:43:12Z</time>
      </trkpt>
      <trkpt lat="45.87986" lon="4.77529">
        <ele>217</ele>
        <time>2017-08-15T08:43:13Z</time>
      </trkpt>
      <trkpt lat="45.87985" lon="4.77536">
        <ele>217</ele>
        <time>2017-08-15T08:43:14Z</time>
      </trkpt>
      <trkpt lat="45.87984" lon="4.77543">
        <ele>217</ele>
        <time>2017-08-15T08:43:15Z</time>
      </trkpt>
      <trkpt lat="45.87983" lon="4.7755">
        <ele>217</ele>
        <time>2017-08-15T08:43:16Z</time>
      </trkpt>
      <trkpt lat="45.87982" lon="4.77557">
        <ele>217</ele>
        <time>2017-08-15T08:43:17Z</time>
      </trkpt>
      <trkpt lat="45.87981" lon="4.77564">
        <ele>217</ele>
        <time>2017-08-15T08:43:18Z</time>
      </trkpt>
      <trkpt lat="45.87979" lon="4.77571">
        <ele>217</ele>
        <time>2017-08-15T08:43:19Z</time>
      </trkpt>
      <trkpt lat="45.87978" lon="4.77578">
        <ele>217</ele>
        <time>2017-08-15T08:43:20Z</time>
      </trkpt>
      <trkpt lat="45.87977" lon="4.77585">
        <ele>218</ele>
        <time>2017-08-15T08:43:21Z</time>
      </trkpt>
      <trkpt lat="45.87975" lon="4.77592">
        <ele>218</ele>
        <time>2017-08-15T08:43:22Z</time>
      </trkpt>
      <trkpt lat="45.87973" lon="4.77598">
        <ele>218</ele>
        <time>2017-08-15T08:43:23Z</time>
      </trkpt>
      <trkpt lat="45.87971" lon="4.7761">
        <ele>218</ele>
        <time>2017-08-15T08:43:25Z</time>
      </trkpt>
      <trkpt lat="45.87969" lon="4.77616">
        <ele>218</ele>
        <time>2017-08-15T08:43:26Z</time>
      </trkpt>
      <trkpt lat="45.87968" lon="4.77622">
        <ele>218</ele>
        <time>2017-08-15T08:43:27Z</time>
      </trkpt>
      <trkpt lat="45.87966" lon="4.77628">
        <ele>218</ele>
        <time>2017-08-15T08:43:28Z</time>
      </trkpt>
      <trkpt lat="45.87964" lon="4.77635">
        <ele>218</ele>
        <time>2017-08-15T08:43:29Z</time>
      </trkpt>
      <trkpt lat="45.87963" lon="4.77641">
        <ele>218</ele>
        <time>2017-08-15T08:43:30Z</time>
      </trkpt>
      <trkpt lat="45.87961" lon="4.77647">
        <ele>218</ele>
        <time>2017-08-15T08:43:31Z</time>
      </trkpt>
      <trkpt lat="45.87959" lon="4.77654">
        <ele>218</ele>
        <time>2017-08-15T08:43:32Z</time>
      </trkpt>
      <trkpt lat="45.87956" lon="4.7766">
        <ele>218</ele>
        <time>2017-08-15T08:43:33Z</time>
      </trkpt>
      <trkpt lat="45.87954" lon="4.77666">
        <ele>218</ele>
        <time>2017-08-15T08:43:34Z</time>
      </trkpt>
      <trkpt lat="45.87951" lon="4.77672">
        <ele>218</ele>
        <time>2017-08-15T08:43:35Z</time>
      </trkpt>
      <trkpt lat="45.8795" lon="4.77678">
        <ele>218</ele>
        <time>2017-08-15T08:43:36Z</time>
      </trkpt>
      <trkpt lat="45.87949" lon="4.77685">
        <ele>218</ele>
        <time>2017-08-15T08:43:37Z</time>
      </trkpt>
      <trkpt lat="45.87949" lon="4.77692">
        <ele>218</ele>
        <time>2017-08-15T08:43:38Z</time>
      </trkpt>
      <trkpt lat="45.87948" lon="4.77699">
        <ele>218</ele>
        <time>2017-08-15T08:43:39Z</time>
      </trkpt>
      <trkpt lat="45.87948" lon="4.77706">
        <ele>219</ele>
        <time>2017-08-15T08:43:40Z</time>
      </trkpt>
      <trkpt lat="45.87948" lon="4.77713">
        <ele>219</ele>
        <time>2017-08-15T08:43:41Z</time>
      </trkpt>
      <trkpt lat="45.87948" lon="4.7772">
        <ele>219</ele>
        <time>2017-08-15T08:43:42Z</time>
      </trkpt>
      <trkpt lat="45.87948" lon="4.77727">
        <ele>219</ele>
        <time>2017-08-15T08:43:43Z</time>
      </trkpt>
      <trkpt lat="45.87949" lon="4.77735">
        <ele>219</ele>
        <time>2017-08-15T08:43:44Z</time>
      </trkpt>
      <trkpt lat="45.8795" lon="4.77742">
        <ele>219</ele>
        <time>2017-08-15T08:43:45Z</time>
      </trkpt>
      <trkpt lat="45.87951" lon="4.7775">
        <ele>219</ele>
        <time>2017-08-15T08:43:46Z</time>
      </trkpt>
      <trkpt lat="45.87952" lon="4.77758">
        <ele>219</ele>
        <time>2017-08-15T08:43:47Z</time>
      </trkpt>
      <trkpt lat="45.87953" lon="4.77765">
        <ele>219</ele>
        <time>2017-08-15T08:43:48Z</time>
      </trkpt>
      <trkpt lat="45.87954" lon="4.77771">
        <ele>219</ele>
        <time>2017-08-15T08:43:49Z</time>
      </trkpt>
      <trkpt lat="45.87955" lon="4.77778">
        <ele>219</ele>
        <time>2017-08-15T08:43:50Z</time>
      </trkpt>
      <trkpt lat="45.87957" lon="4.77789">
        <ele>219</ele>
        <time>2017-08-15T08:43:52Z</time>
      </trkpt>
      <trkpt lat="45.87957" lon="4.77795">
        <ele>219</ele>
        <time>2017-08-15T08:43:53Z</time>
      </trkpt>
      <trkpt lat="45.87959" lon="4.77807">
        <ele>219</ele>
        <time>2017-08-15T08:43:55Z</time>
      </trkpt>
      <trkpt lat="45.87959" lon="4.77813">
        <ele>219</ele>
        <time>2017-08-15T08:43:56Z</time>
      </trkpt>
      <trkpt lat="45.8796" lon="4.77819">
        <ele>219</ele>
        <time>2017-08-15T08:43:57Z</time>
      </trkpt>
      <trkpt lat="45.87961" lon="4.77826">
        <ele>219</ele>
        <time>2017-08-15T08:43:58Z</time>
      </trkpt>
      <trkpt lat="45.87961" lon="4.77832">
        <ele>219</ele>
        <time>2017-08-15T08:43:59Z</time>
      </trkpt>
      <trkpt lat="45.87961" lon="4.7784">
        <ele>219</ele>
        <time>2017-08-15T08:44:00Z</time>
      </trkpt>
      <trkpt lat="45.87962" lon="4.77846">
        <ele>219</ele>
        <time>2017-08-15T08:44:01Z</time>
      </trkpt>
      <trkpt lat="45.87963" lon="4.77853">
        <ele>219</ele>
        <time>2017-08-15T08:44:02Z</time>
      </trkpt>
      <trkpt lat="45.87963" lon="4.77859">
        <ele>219</ele>
        <time>2017-08-15T08:44:03Z</time>
      </trkpt>
      <trkpt lat="45.87963" lon="4.77866">
        <ele>219</ele>
        <time>2017-08-15T08:44:04Z</time>
      </trkpt>
      <trkpt lat="45.87963" lon="4.77878">
        <ele>220</ele>
        <time>2017-08-15T08:44:06Z</time>
      </trkpt>
      <trkpt lat="45.87963" lon="4.77885">
        <ele>220</ele>
        <time>2017-08-15T08:44:07Z</time>
      </trkpt>
      <trkpt lat="45.87964" lon="4.77891">
        <ele>220</ele>
        <time>2017-08-15T08:44:08Z</time>
      </trkpt>
      <trkpt lat="45.87964" lon="4.77898">
        <ele>220</ele>
        <time>2017-08-15T08:44:09Z</time>
      </trkpt>
      <trkpt lat="45.87965" lon="4.77905">
        <ele>220</ele>
        <time>2017-08-15T08:44:10Z</time>
      </trkpt>
      <trkpt lat="45.87966" lon="4.77912">
        <ele>220</ele>
        <time>2017-08-15T08:44:11Z</time>
      </trkpt>
      <trkpt lat="45.87968" lon="4.77924">
        <ele>220</ele>
        <time>2017-08-15T08:44:13Z</time>
      </trkpt>
      <trkpt lat="45.87969" lon="4.77929">
        <ele>220</ele>
        <time>2017-08-15T08:44:14Z</time>
      </trkpt>
      <trkpt lat="45.87973" lon="4.77939">
        <ele>219</ele>
        <time>2017-08-15T08:44:16Z</time>
      </trkpt>
      <trkpt lat="45.87974" lon="4.77943">
        <ele>219</ele>
        <time>2017-08-15T08:44:17Z</time>
      </trkpt>
      <trkpt lat="45.87974" lon="4.77955">
        <ele>219</ele>
        <time>2017-08-15T08:44:19Z</time>
      </trkpt>
      <trkpt lat="45.87976" lon="4.77961">
        <ele>219</ele>
        <time>2017-08-15T08:44:20Z</time>
      </trkpt>
      <trkpt lat="45.87977" lon="4.77967">
        <ele>219</ele>
        <time>2017-08-15T08:44:21Z</time>
      </trkpt>
      <trkpt lat="45.87979" lon="4.77973">
        <ele>219</ele>
        <time>2017-08-15T08:44:22Z</time>
      </trkpt>
      <trkpt lat="45.8798" lon="4.7798">
        <ele>219</ele>
        <time>2017-08-15T08:44:23Z</time>
      </trkpt>
      <trkpt lat="45.87981" lon="4.77987">
        <ele>219</ele>
        <time>2017-08-15T08:44:24Z</time>
      </trkpt>
      <trkpt lat="45.87981" lon="4.77995">
        <ele>219</ele>
        <time>2017-08-15T08:44:25Z</time>
      </trkpt>
      <trkpt lat="45.87982" lon="4.78002">
        <ele>218</ele>
        <time>2017-08-15T08:44:26Z</time>
      </trkpt>
      <trkpt lat="45.87983" lon="4.7801">
        <ele>218</ele>
        <time>2017-08-15T08:44:27Z</time>
      </trkpt>
      <trkpt lat="45.87984" lon="4.78018">
        <ele>218</ele>
        <time>2017-08-15T08:44:28Z</time>
      </trkpt>
      <trkpt lat="45.87986" lon="4.78026">
        <ele>218</ele>
        <time>2017-08-15T08:44:29Z</time>
      </trkpt>
      <trkpt lat="45.87987" lon="4.78033">
        <ele>218</ele>
        <time>2017-08-15T08:44:30Z</time>
      </trkpt>
      <trkpt lat="45.87989" lon="4.78041">
        <ele>217</ele>
        <time>2017-08-15T08:44:31Z</time>
      </trkpt>
      <trkpt lat="45.8799" lon="4.78049">
        <ele>217</ele>
        <time>2017-08-15T08:44:32Z</time>
      </trkpt>
      <trkpt lat="45.87991" lon="4.78057">
        <ele>217</ele>
        <time>2017-08-15T08:44:33Z</time>
      </trkpt>
      <trkpt lat="45.87992" lon="4.78065">
        <ele>217</ele>
        <time>2017-08-15T08:44:34Z</time>
      </trkpt>
      <trkpt lat="45.87993" lon="4.78074">
        <ele>216</ele>
        <time>2017-08-15T08:44:35Z</time>
      </trkpt>
      <trkpt lat="45.87994" lon="4.78082">
        <ele>216</ele>
        <time>2017-08-15T08:44:36Z</time>
      </trkpt>
      <trkpt lat="45.87995" lon="4.78091">
        <ele>215</ele>
        <time>2017-08-15T08:44:37Z</time>
      </trkpt>
      <trkpt lat="45.87997" lon="4.781">
        <ele>216</ele>
        <time>2017-08-15T08:44:38Z</time>
      </trkpt>
      <trkpt lat="45.87998" lon="4.78109">
        <ele>216</ele>
        <time>2017-08-15T08:44:39Z</time>
      </trkpt>
      <trkpt lat="45.87999" lon="4.78117">
        <ele>216</ele>
        <time>2017-08-15T08:44:40Z</time>
      </trkpt>
      <trkpt lat="45.88" lon="4.78125">
        <ele>216</ele>
        <time>2017-08-15T08:44:41Z</time>
      </trkpt>
      <trkpt lat="45.88" lon="4.78133">
        <ele>214</ele>
        <time>2017-08-15T08:44:42Z</time>
      </trkpt>
      <trkpt lat="45.88001" lon="4.78142">
        <ele>214</ele>
        <time>2017-08-15T08:44:43Z</time>
      </trkpt>
      <trkpt lat="45.88002" lon="4.7815">
        <ele>214</ele>
        <time>2017-08-15T08:44:44Z</time>
      </trkpt>
      <trkpt lat="45.88003" lon="4.78158">
        <ele>215</ele>
        <time>2017-08-15T08:44:45Z</time>
      </trkpt>
      <trkpt lat="45.88003" lon="4.78166">
        <ele>215</ele>
        <time>2017-08-15T08:44:46Z</time>
      </trkpt>
      <trkpt lat="45.88004" lon="4.78175">
        <ele>214</ele>
        <time>2017-08-15T08:44:47Z</time>
      </trkpt>
      <trkpt lat="45.88004" lon="4.78183">
        <ele>214</ele>
        <time>2017-08-15T08:44:48Z</time>
      </trkpt>
      <trkpt lat="45.88003" lon="4.78192">
        <ele>214</ele>
        <time>2017-08-15T08:44:49Z</time>
      </trkpt>
      <trkpt lat="45.88002" lon="4.782">
        <ele>214</ele>
        <time>2017-08-15T08:44:50Z</time>
      </trkpt>
      <trkpt lat="45.88001" lon="4.78209">
        <ele>214</ele>
        <time>2017-08-15T08:44:51Z</time>
      </trkpt>
      <trkpt lat="45.88001" lon="4.78217">
        <ele>214</ele>
        <time>2017-08-15T08:44:52Z</time>
      </trkpt>
      <trkpt lat="45.88" lon="4.78224">
        <ele>214</ele>
        <time>2017-08-15T08:44:53Z</time>
      </trkpt>
      <trkpt lat="45.87999" lon="4.78232">
        <ele>215</ele>
        <time>2017-08-15T08:44:54Z</time>
      </trkpt>
      <trkpt lat="45.87998" lon="4.78239">
        <ele>215</ele>
        <time>2017-08-15T08:44:55Z</time>
      </trkpt>
      <trkpt lat="45.87997" lon="4.78248">
        <ele>214</ele>
        <time>2017-08-15T08:44:56Z</time>
      </trkpt>
      <trkpt lat="45.87996" lon="4.78256">
        <ele>214</ele>
        <time>2017-08-15T08:44:57Z</time>
      </trkpt>
      <trkpt lat="45.87995" lon="4.78264">
        <ele>215</ele>
        <time>2017-08-15T08:44:58Z</time>
      </trkpt>
      <trkpt lat="45.87994" lon="4.78272">
        <ele>215</ele>
        <time>2017-08-15T08:44:59Z</time>
      </trkpt>
      <trkpt lat="45.87993" lon="4.78281">
        <ele>215</ele>
        <time>2017-08-15T08:45:00Z</time>
      </trkpt>
      <trkpt lat="45.87991" lon="4.7829">
        <ele>215</ele>
        <time>2017-08-15T08:45:01Z</time>
      </trkpt>
      <trkpt lat="45.8799" lon="4.78299">
        <ele>215</ele>
        <time>2017-08-15T08:45:02Z</time>
      </trkpt>
      <trkpt lat="45.87988" lon="4.78307">
        <ele>215</ele>
        <time>2017-08-15T08:45:03Z</time>
      </trkpt>
      <trkpt lat="45.87987" lon="4.78315">
        <ele>215</ele>
        <time>2017-08-15T08:45:04Z</time>
      </trkpt>
      <trkpt lat="45.87986" lon="4.78324">
        <ele>215</ele>
        <time>2017-08-15T08:45:05Z</time>
      </trkpt>
      <trkpt lat="45.87986" lon="4.78332">
        <ele>215</ele>
        <time>2017-08-15T08:45:06Z</time>
      </trkpt>
      <trkpt lat="45.87985" lon="4.7834">
        <ele>215</ele>
        <time>2017-08-15T08:45:07Z</time>
      </trkpt>
      <trkpt lat="45.87984" lon="4.78347">
        <ele>215</ele>
        <time>2017-08-15T08:45:08Z</time>
      </trkpt>
      <trkpt lat="45.87983" lon="4.78355">
        <ele>215</ele>
        <time>2017-08-15T08:45:09Z</time>
      </trkpt>
      <trkpt lat="45.87983" lon="4.78362">
        <ele>215</ele>
        <time>2017-08-15T08:45:10Z</time>
      </trkpt>
      <trkpt lat="45.87983" lon="4.78369">
        <ele>215</ele>
        <time>2017-08-15T08:45:11Z</time>
      </trkpt>
      <trkpt lat="45.87983" lon="4.78377">
        <ele>215</ele>
        <time>2017-08-15T08:45:12Z</time>
      </trkpt>
      <trkpt lat="45.87983" lon="4.78384">
        <ele>215</ele>
        <time>2017-08-15T08:45:13Z</time>
      </trkpt>
      <trkpt lat="45.87984" lon="4.78392">
        <ele>215</ele>
        <time>2017-08-15T08:45:14Z</time>
      </trkpt>
      <trkpt lat="45.87985" lon="4.78398">
        <ele>214</ele>
        <time>2017-08-15T08:45:15Z</time>
      </trkpt>
      <trkpt lat="45.87985" lon="4.78405">
        <ele>214</ele>
        <time>2017-08-15T08:45:16Z</time>
      </trkpt>
      <trkpt lat="45.87981" lon="4.78414">
        <ele>214</ele>
        <time>2017-08-15T08:45:18Z</time>
      </trkpt>
      <trkpt lat="45.87979" lon="4.78416">
        <ele>214</ele>
        <time>2017-08-15T08:45:19Z</time>
      </trkpt>
      <trkpt lat="45.87973" lon="4.78419">
        <ele>215</ele>
        <time>2017-08-15T08:45:21Z</time>
      </trkpt>
      <trkpt lat="45.87969" lon="4.78419">
        <ele>215</ele>
        <time>2017-08-15T08:45:22Z</time>
      </trkpt>
      <trkpt lat="45.87962" lon="4.78421">
        <ele>215</ele>
        <time>2017-08-15T08:45:24Z</time>
      </trkpt>
      <trkpt lat="45.87959" lon="4.78422">
        <ele>215</ele>
        <time>2017-08-15T08:45:25Z</time>
      </trkpt>
      <trkpt lat="45.87951" lon="4.78424">
        <ele>216</ele>
        <time>2017-08-15T08:45:27Z</time>
      </trkpt>
      <trkpt lat="45.87947" lon="4.78425">
        <ele>216</ele>
        <time>2017-08-15T08:45:28Z</time>
      </trkpt>
      <trkpt lat="45.87939" lon="4.78428">
        <ele>216</ele>
        <time>2017-08-15T08:45:30Z</time>
      </trkpt>
      <trkpt lat="45.87935" lon="4.78429">
        <ele>216</ele>
        <time>2017-08-15T08:45:31Z</time>
      </trkpt>
      <trkpt lat="45.87927" lon="4.78432">
        <ele>216</ele>
        <time>2017-08-15T08:45:33Z</time>
      </trkpt>
      <trkpt lat="45.87923" lon="4.78433">
        <ele>216</ele>
        <time>2017-08-15T08:45:34Z</time>
      </trkpt>
      <trkpt lat="45.87914" lon="4.78434">
        <ele>219</ele>
        <time>2017-08-15T08:45:36Z</time>
      </trkpt>
      <trkpt lat="45.8791" lon="4.78435">
        <ele>219</ele>
        <time>2017-08-15T08:45:37Z</time>
      </trkpt>
      <trkpt lat="45.87903" lon="4.78437">
        <ele>220</ele>
        <time>2017-08-15T08:45:39Z</time>
      </trkpt>
      <trkpt lat="45.87899" lon="4.78438">
        <ele>220</ele>
        <time>2017-08-15T08:45:40Z</time>
      </trkpt>
      <trkpt lat="45.87892" lon="4.78439">
        <ele>220</ele>
        <time>2017-08-15T08:45:42Z</time>
      </trkpt>
      <trkpt lat="45.87889" lon="4.7844">
        <ele>220</ele>
        <time>2017-08-15T08:45:43Z</time>
      </trkpt>
      <trkpt lat="45.87882" lon="4.78441">
        <ele>221</ele>
        <time>2017-08-15T08:45:45Z</time>
      </trkpt>
      <trkpt lat="45.87878" lon="4.78442">
        <ele>221</ele>
        <time>2017-08-15T08:45:46Z</time>
      </trkpt>
      <trkpt lat="45.87871" lon="4.78444">
        <ele>221</ele>
        <time>2017-08-15T08:45:48Z</time>
      </trkpt>
      <trkpt lat="45.87868" lon="4.78445">
        <ele>221</ele>
        <time>2017-08-15T08:45:49Z</time>
      </trkpt>
      <trkpt lat="45.8786" lon="4.78447">
        <ele>222</ele>
        <time>2017-08-15T08:45:51Z</time>
      </trkpt>
      <trkpt lat="45.87856" lon="4.78447">
        <ele>222</ele>
        <time>2017-08-15T08:45:52Z</time>
      </trkpt>
      <trkpt lat="45.8785" lon="4.78449">
        <ele>222</ele>
        <time>2017-08-15T08:45:54Z</time>
      </trkpt>
      <trkpt lat="45.87846" lon="4.7845">
        <ele>222</ele>
        <time>2017-08-15T08:45:55Z</time>
      </trkpt>
      <trkpt lat="45.87842" lon="4.78451">
        <ele>222</ele>
        <time>2017-08-15T08:45:56Z</time>
      </trkpt>
      <trkpt lat="45.87837" lon="4.78452">
        <ele>222</ele>
        <time>2017-08-15T08:45:57Z</time>
      </trkpt>
      <trkpt lat="45.8783" lon="4.78453">
        <ele>225</ele>
        <time>2017-08-15T08:45:59Z</time>
      </trkpt>
      <trkpt lat="45.87827" lon="4.78453">
        <ele>225</ele>
        <time>2017-08-15T08:46:00Z</time>
      </trkpt>
      <trkpt lat="45.8782" lon="4.78453">
        <ele>225</ele>
        <time>2017-08-15T08:46:02Z</time>
      </trkpt>
      <trkpt lat="45.87818" lon="4.78452">
        <ele>225</ele>
        <time>2017-08-15T08:46:03Z</time>
      </trkpt>
      <trkpt lat="45.87811" lon="4.78447">
        <ele>225</ele>
        <time>2017-08-15T08:46:06Z</time>
      </trkpt>
      <trkpt lat="45.87808" lon="4.78448">
        <ele>225</ele>
        <time>2017-08-15T08:46:07Z</time>
      </trkpt>
      <trkpt lat="45.87806" lon="4.78455">
        <ele>226</ele>
        <time>2017-08-15T08:46:09Z</time>
      </trkpt>
      <trkpt lat="45.87805" lon="4.78461">
        <ele>226</ele>
        <time>2017-08-15T08:46:10Z</time>
      </trkpt>
      <trkpt lat="45.87805" lon="4.78467">
        <ele>226</ele>
        <time>2017-08-15T08:46:11Z</time>
      </trkpt>
      <trkpt lat="45.87806" lon="4.78473">
        <ele>226</ele>
        <time>2017-08-15T08:46:12Z</time>
      </trkpt>
      <trkpt lat="45.87807" lon="4.7848">
        <ele>226</ele>
        <time>2017-08-15T08:46:13Z</time>
      </trkpt>
      <trkpt lat="45.87809" lon="4.78486">
        <ele>226</ele>
        <time>2017-08-15T08:46:14Z</time>
      </trkpt>
      <trkpt lat="45.87812" lon="4.78497">
        <ele>226</ele>
        <time>2017-08-15T08:46:16Z</time>
      </trkpt>
      <trkpt lat="45.87813" lon="4.78502">
        <ele>228</ele>
        <time>2017-08-15T08:46:17Z</time>
      </trkpt>
      <trkpt lat="45.87816" lon="4.78513">
        <ele>228</ele>
        <time>2017-08-15T08:46:19Z</time>
      </trkpt>
      <trkpt lat="45.87817" lon="4.78518">
        <ele>228</ele>
        <time>2017-08-15T08:46:20Z</time>
      </trkpt>
      <trkpt lat="45.8782" lon="4.78529">
        <ele>228</ele>
        <time>2017-08-15T08:46:22Z</time>
      </trkpt>
      <trkpt lat="45.87821" lon="4.78535">
        <ele>228</ele>
        <time>2017-08-15T08:46:23Z</time>
      </trkpt>
      <trkpt lat="45.87823" lon="4.78546">
        <ele>228</ele>
        <time>2017-08-15T08:46:25Z</time>
      </trkpt>
      <trkpt lat="45.87824" lon="4.78552">
        <ele>228</ele>
        <time>2017-08-15T08:46:26Z</time>
      </trkpt>
      <trkpt lat="45.87825" lon="4.78558">
        <ele>228</ele>
        <time>2017-08-15T08:46:27Z</time>
      </trkpt>
      <trkpt lat="45.87827" lon="4.78566">
        <ele>228</ele>
        <time>2017-08-15T08:46:28Z</time>
      </trkpt>
      <trkpt lat="45.87828" lon="4.78572">
        <ele>228</ele>
        <time>2017-08-15T08:46:29Z</time>
      </trkpt>
      <trkpt lat="45.87828" lon="4.78578">
        <ele>228</ele>
        <time>2017-08-15T08:46:30Z</time>
      </trkpt>
      <trkpt lat="45.87831" lon="4.7859">
        <ele>229</ele>
        <time>2017-08-15T08:46:32Z</time>
      </trkpt>
      <trkpt lat="45.87832" lon="4.78595">
        <ele>229</ele>
        <time>2017-08-15T08:46:33Z</time>
      </trkpt>
      <trkpt lat="45.87834" lon="4.78607">
        <ele>226</ele>
        <time>2017-08-15T08:46:35Z</time>
      </trkpt>
      <trkpt lat="45.87835" lon="4.78612">
        <ele>226</ele>
        <time>2017-08-15T08:46:36Z</time>
      </trkpt>
      <trkpt lat="45.87836" lon="4.78619">
        <ele>226</ele>
        <time>2017-08-15T08:46:37Z</time>
      </trkpt>
      <trkpt lat="45.87837" lon="4.78625">
        <ele>226</ele>
        <time>2017-08-15T08:46:38Z</time>
      </trkpt>
      <trkpt lat="45.87838" lon="4.78633">
        <ele>226</ele>
        <time>2017-08-15T08:46:39Z</time>
      </trkpt>
      <trkpt lat="45.87839" lon="4.7864">
        <ele>226</ele>
        <time>2017-08-15T08:46:40Z</time>
      </trkpt>
      <trkpt lat="45.8784" lon="4.78648">
        <ele>226</ele>
        <time>2017-08-15T08:46:41Z</time>
      </trkpt>
      <trkpt lat="45.87841" lon="4.78656">
        <ele>227</ele>
        <time>2017-08-15T08:46:42Z</time>
      </trkpt>
      <trkpt lat="45.87842" lon="4.78663">
        <ele>227</ele>
        <time>2017-08-15T08:46:43Z</time>
      </trkpt>
      <trkpt lat="45.87843" lon="4.7867">
        <ele>227</ele>
        <time>2017-08-15T08:46:44Z</time>
      </trkpt>
      <trkpt lat="45.87844" lon="4.78677">
        <ele>226</ele>
        <time>2017-08-15T08:46:45Z</time>
      </trkpt>
      <trkpt lat="45.87844" lon="4.78684">
        <ele>226</ele>
        <time>2017-08-15T08:46:46Z</time>
      </trkpt>
      <trkpt lat="45.87845" lon="4.78691">
        <ele>226</ele>
        <time>2017-08-15T08:46:47Z</time>
      </trkpt>
      <trkpt lat="45.87846" lon="4.78697">
        <ele>226</ele>
        <time>2017-08-15T08:46:48Z</time>
      </trkpt>
      <trkpt lat="45.87846" lon="4.78704">
        <ele>226</ele>
        <time>2017-08-15T08:46:49Z</time>
      </trkpt>
      <trkpt lat="45.87847" lon="4.7871">
        <ele>226</ele>
        <time>2017-08-15T08:46:50Z</time>
      </trkpt>
      <trkpt lat="45.87847" lon="4.78722">
        <ele>226</ele>
        <time>2017-08-15T08:46:52Z</time>
      </trkpt>
      <trkpt lat="45.87848" lon="4.78728">
        <ele>226</ele>
        <time>2017-08-15T08:46:53Z</time>
      </trkpt>
      <trkpt lat="45.87849" lon="4.78741">
        <ele>226</ele>
        <time>2017-08-15T08:46:55Z</time>
      </trkpt>
      <trkpt lat="45.87849" lon="4.78748">
        <ele>226</ele>
        <time>2017-08-15T08:46:56Z</time>
      </trkpt>
      <trkpt lat="45.87849" lon="4.78756">
        <ele>226</ele>
        <time>2017-08-15T08:46:57Z</time>
      </trkpt>
      <trkpt lat="45.87849" lon="4.78763">
        <ele>226</ele>
        <time>2017-08-15T08:46:58Z</time>
      </trkpt>
      <trkpt lat="45.87849" lon="4.78771">
        <ele>226</ele>
        <time>2017-08-15T08:46:59Z</time>
      </trkpt>
      <trkpt lat="45.87849" lon="4.78778">
        <ele>226</ele>
        <time>2017-08-15T08:47:00Z</time>
      </trkpt>
      <trkpt lat="45.87849" lon="4.7879">
        <ele>226</ele>
        <time>2017-08-15T08:47:02Z</time>
      </trkpt>
      <trkpt lat="45.87848" lon="4.78796">
        <ele>226</ele>
        <time>2017-08-15T08:47:03Z</time>
      </trkpt>
      <trkpt lat="45.87849" lon="4.78808">
        <ele>226</ele>
        <time>2017-08-15T08:47:05Z</time>
      </trkpt>
      <trkpt lat="45.87849" lon="4.78814">
        <ele>227</ele>
        <time>2017-08-15T08:47:06Z</time>
      </trkpt>
      <trkpt lat="45.87848" lon="4.78827">
        <ele>227</ele>
        <time>2017-08-15T08:47:08Z</time>
      </trkpt>
      <trkpt lat="45.87847" lon="4.78833">
        <ele>227</ele>
        <time>2017-08-15T08:47:09Z</time>
      </trkpt>
      <trkpt lat="45.87846" lon="4.7884">
        <ele>227</ele>
        <time>2017-08-15T08:47:10Z</time>
      </trkpt>
      <trkpt lat="45.87845" lon="4.78847">
        <ele>227</ele>
        <time>2017-08-15T08:47:11Z</time>
      </trkpt>
      <trkpt lat="45.87844" lon="4.78854">
        <ele>226</ele>
        <time>2017-08-15T08:47:12Z</time>
      </trkpt>
      <trkpt lat="45.87843" lon="4.7886">
        <ele>226</ele>
        <time>2017-08-15T08:47:13Z</time>
      </trkpt>
      <trkpt lat="45.87842" lon="4.78872">
        <ele>226</ele>
        <time>2017-08-15T08:47:15Z</time>
      </trkpt>
      <trkpt lat="45.87841" lon="4.78878">
        <ele>226</ele>
        <time>2017-08-15T08:47:16Z</time>
      </trkpt>
      <trkpt lat="45.87839" lon="4.78889">
        <ele>225</ele>
        <time>2017-08-15T08:47:18Z</time>
      </trkpt>
      <trkpt lat="45.87838" lon="4.78893">
        <ele>226</ele>
        <time>2017-08-15T08:47:19Z</time>
      </trkpt>
      <trkpt lat="45.87837" lon="4.78904">
        <ele>226</ele>
        <time>2017-08-15T08:47:21Z</time>
      </trkpt>
      <trkpt lat="45.87836" lon="4.7891">
        <ele>226</ele>
        <time>2017-08-15T08:47:22Z</time>
      </trkpt>
      <trkpt lat="45.87835" lon="4.78917">
        <ele>227</ele>
        <time>2017-08-15T08:47:23Z</time>
      </trkpt>
      <trkpt lat="45.87834" lon="4.78923">
        <ele>226</ele>
        <time>2017-08-15T08:47:24Z</time>
      </trkpt>
      <trkpt lat="45.87833" lon="4.78929">
        <ele>230</ele>
        <time>2017-08-15T08:47:25Z</time>
      </trkpt>
      <trkpt lat="45.87834" lon="4.78936">
        <ele>226</ele>
        <time>2017-08-15T08:47:26Z</time>
      </trkpt>
      <trkpt lat="45.87834" lon="4.78949">
        <ele>225</ele>
        <time>2017-08-15T08:47:28Z</time>
      </trkpt>
      <trkpt lat="45.87835" lon="4.78956">
        <ele>225</ele>
        <time>2017-08-15T08:47:29Z</time>
      </trkpt>
      <trkpt lat="45.87836" lon="4.78968">
        <ele>226</ele>
        <time>2017-08-15T08:47:31Z</time>
      </trkpt>
      <trkpt lat="45.87837" lon="4.78974">
        <ele>226</ele>
        <time>2017-08-15T08:47:32Z</time>
      </trkpt>
      <trkpt lat="45.87838" lon="4.78982">
        <ele>227</ele>
        <time>2017-08-15T08:47:33Z</time>
      </trkpt>
      <trkpt lat="45.87839" lon="4.78988">
        <ele>227</ele>
        <time>2017-08-15T08:47:34Z</time>
      </trkpt>
      <trkpt lat="45.8784" lon="4.78999">
        <ele>228</ele>
        <time>2017-08-15T08:47:36Z</time>
      </trkpt>
      <trkpt lat="45.87841" lon="4.79005">
        <ele>228</ele>
        <time>2017-08-15T08:47:37Z</time>
      </trkpt>
      <trkpt lat="45.87843" lon="4.79017">
        <ele>228</ele>
        <time>2017-08-15T08:47:39Z</time>
      </trkpt>
      <trkpt lat="45.87843" lon="4.79022">
        <ele>228</ele>
        <time>2017-08-15T08:47:40Z</time>
      </trkpt>
      <trkpt lat="45.87845" lon="4.79033">
        <ele>228</ele>
        <time>2017-08-15T08:47:42Z</time>
      </trkpt>
      <trkpt lat="45.87845" lon="4.7904">
        <ele>228</ele>
        <time>2017-08-15T08:47:43Z</time>
      </trkpt>
      <trkpt lat="45.87847" lon="4.79051">
        <ele>228</ele>
        <time>2017-08-15T08:47:45Z</time>
      </trkpt>
      <trkpt lat="45.87848" lon="4.79057">
        <ele>228</ele>
        <time>2017-08-15T08:47:46Z</time>
      </trkpt>
      <trkpt lat="45.87848" lon="4.79063">
        <ele>229</ele>
        <time>2017-08-15T08:47:47Z</time>
      </trkpt>
      <trkpt lat="45.87849" lon="4.7907">
        <ele>229</ele>
        <time>2017-08-15T08:47:48Z</time>
      </trkpt>
      <trkpt lat="45.87851" lon="4.79082">
        <ele>229</ele>
        <time>2017-08-15T08:47:50Z</time>
      </trkpt>
      <trkpt lat="45.87852" lon="4.79088">
        <ele>230</ele>
        <time>2017-08-15T08:47:51Z</time>
      </trkpt>
      <trkpt lat="45.87853" lon="4.79099">
        <ele>230</ele>
        <time>2017-08-15T08:47:53Z</time>
      </trkpt>
      <trkpt lat="45.87854" lon="4.79104">
        <ele>230</ele>
        <time>2017-08-15T08:47:54Z</time>
      </trkpt>
      <trkpt lat="45.87855" lon="4.79115">
        <ele>230</ele>
        <time>2017-08-15T08:47:56Z</time>
      </trkpt>
      <trkpt lat="45.87855" lon="4.7912">
        <ele>230</ele>
        <time>2017-08-15T08:47:57Z</time>
      </trkpt>
      <trkpt lat="45.87856" lon="4.79131">
        <ele>230</ele>
        <time>2017-08-15T08:47:59Z</time>
      </trkpt>
      <trkpt lat="45.87857" lon="4.79136">
        <ele>230</ele>
        <time>2017-08-15T08:48:00Z</time>
      </trkpt>
      <trkpt lat="45.87859" lon="4.79148">
        <ele>231</ele>
        <time>2017-08-15T08:48:02Z</time>
      </trkpt>
      <trkpt lat="45.8786" lon="4.79155">
        <ele>231</ele>
        <time>2017-08-15T08:48:03Z</time>
      </trkpt>
      <trkpt lat="45.87862" lon="4.79161">
        <ele>231</ele>
        <time>2017-08-15T08:48:04Z</time>
      </trkpt>
      <trkpt lat="45.87863" lon="4.79167">
        <ele>233</ele>
        <time>2017-08-15T08:48:05Z</time>
      </trkpt>
      <trkpt lat="45.87864" lon="4.79179">
        <ele>233</ele>
        <time>2017-08-15T08:48:07Z</time>
      </trkpt>
      <trkpt lat="45.87864" lon="4.79184">
        <ele>233</ele>
        <time>2017-08-15T08:48:08Z</time>
      </trkpt>
      <trkpt lat="45.87866" lon="4.79196">
        <ele>233</ele>
        <time>2017-08-15T08:48:10Z</time>
      </trkpt>
      <trkpt lat="45.87867" lon="4.79202">
        <ele>233</ele>
        <time>2017-08-15T08:48:11Z</time>
      </trkpt>
      <trkpt lat="45.87869" lon="4.79213">
        <ele>233</ele>
        <time>2017-08-15T08:48:13Z</time>
      </trkpt>
      <trkpt lat="45.87869" lon="4.79219">
        <ele>233</ele>
        <time>2017-08-15T08:48:14Z</time>
      </trkpt>
      <trkpt lat="45.8787" lon="4.7923">
        <ele>233</ele>
        <time>2017-08-15T08:48:16Z</time>
      </trkpt>
      <trkpt lat="45.87871" lon="4.79236">
        <ele>233</ele>
        <time>2017-08-15T08:48:17Z</time>
      </trkpt>
      <trkpt lat="45.87872" lon="4.79248">
        <ele>234</ele>
        <time>2017-08-15T08:48:19Z</time>
      </trkpt>
      <trkpt lat="45.87873" lon="4.79253">
        <ele>236</ele>
        <time>2017-08-15T08:48:20Z</time>
      </trkpt>
      <trkpt lat="45.87874" lon="4.79263">
        <ele>236</ele>
        <time>2017-08-15T08:48:22Z</time>
      </trkpt>
      <trkpt lat="45.87875" lon="4.79268">
        <ele>236</ele>
        <time>2017-08-15T08:48:23Z</time>
      </trkpt>
      <trkpt lat="45.87876" lon="4.79278">
        <ele>237</ele>
        <time>2017-08-15T08:48:25Z</time>
      </trkpt>
      <trkpt lat="45.87877" lon="4.79283">
        <ele>237</ele>
        <time>2017-08-15T08:48:26Z</time>
      </trkpt>
      <trkpt lat="45.87879" lon="4.79292">
        <ele>237</ele>
        <time>2017-08-15T08:48:28Z</time>
      </trkpt>
      <trkpt lat="45.8788" lon="4.79296">
        <ele>237</ele>
        <time>2017-08-15T08:48:29Z</time>
      </trkpt>
      <trkpt lat="45.87882" lon="4.79307">
        <ele>237</ele>
        <time>2017-08-15T08:48:31Z</time>
      </trkpt>
      <trkpt lat="45.87885" lon="4.79313">
        <ele>237</ele>
        <time>2017-08-15T08:48:32Z</time>
      </trkpt>
      <trkpt lat="45.87887" lon="4.79322">
        <ele>237</ele>
        <time>2017-08-15T08:48:34Z</time>
      </trkpt>
      <trkpt lat="45.87888" lon="4.79327">
        <ele>236</ele>
        <time>2017-08-15T08:48:35Z</time>
      </trkpt>
      <trkpt lat="45.87889" lon="4.79337">
        <ele>239</ele>
        <time>2017-08-15T08:48:37Z</time>
      </trkpt>
      <trkpt lat="45.8789" lon="4.79342">
        <ele>239</ele>
        <time>2017-08-15T08:48:38Z</time>
      </trkpt>
      <trkpt lat="45.87891" lon="4.79351">
        <ele>240</ele>
        <time>2017-08-15T08:48:40Z</time>
      </trkpt>
      <trkpt lat="45.87891" lon="4.79357">
        <ele>240</ele>
        <time>2017-08-15T08:48:41Z</time>
      </trkpt>
      <trkpt lat="45.87892" lon="4.79367">
        <ele>241</ele>
        <time>2017-08-15T08:48:43Z</time>
      </trkpt>
      <trkpt lat="45.87893" lon="4.79372">
        <ele>241</ele>
        <time>2017-08-15T08:48:44Z</time>
      </trkpt>
      <trkpt lat="45.87894" lon="4.79382">
        <ele>241</ele>
        <time>2017-08-15T08:48:46Z</time>
      </trkpt>
      <trkpt lat="45.87895" lon="4.79387">
        <ele>241</ele>
        <time>2017-08-15T08:48:47Z</time>
      </trkpt>
      <trkpt lat="45.87897" lon="4.79397">
        <ele>241</ele>
        <time>2017-08-15T08:48:49Z</time>
      </trkpt>
      <trkpt lat="45.87898" lon="4.79402">
        <ele>241</ele>
        <time>2017-08-15T08:48:50Z</time>
      </trkpt>
      <trkpt lat="45.879" lon="4.79413">
        <ele>240</ele>
        <time>2017-08-15T08:48:52Z</time>
      </trkpt>
      <trkpt lat="45.87901" lon="4.79419">
        <ele>243</ele>
        <time>2017-08-15T08:48:53Z</time>
      </trkpt>
      <trkpt lat="45.87903" lon="4.79429">
        <ele>243</ele>
        <time>2017-08-15T08:48:55Z</time>
      </trkpt>
      <trkpt lat="45.87904" lon="4.79435">
        <ele>244</ele>
        <time>2017-08-15T08:48:56Z</time>
      </trkpt>
      <trkpt lat="45.87905" lon="4.79446">
        <ele>245</ele>
        <time>2017-08-15T08:48:58Z</time>
      </trkpt>
      <trkpt lat="45.87906" lon="4.79451">
        <ele>245</ele>
        <time>2017-08-15T08:48:59Z</time>
      </trkpt>
      <trkpt lat="45.87908" lon="4.79462">
        <ele>246</ele>
        <time>2017-08-15T08:49:01Z</time>
      </trkpt>
      <trkpt lat="45.8791" lon="4.79468">
        <ele>246</ele>
        <time>2017-08-15T08:49:02Z</time>
      </trkpt>
      <trkpt lat="45.87912" lon="4.7948">
        <ele>246</ele>
        <time>2017-08-15T08:49:04Z</time>
      </trkpt>
      <trkpt lat="45.87914" lon="4.79485">
        <ele>246</ele>
        <time>2017-08-15T08:49:05Z</time>
      </trkpt>
      <trkpt lat="45.87918" lon="4.79496">
        <ele>243</ele>
        <time>2017-08-15T08:49:07Z</time>
      </trkpt>
      <trkpt lat="45.87919" lon="4.795">
        <ele>244</ele>
        <time>2017-08-15T08:49:08Z</time>
      </trkpt>
      <trkpt lat="45.87922" lon="4.79509">
        <ele>243</ele>
        <time>2017-08-15T08:49:10Z</time>
      </trkpt>
      <trkpt lat="45.87924" lon="4.79515">
        <ele>242</ele>
        <time>2017-08-15T08:49:11Z</time>
      </trkpt>
      <trkpt lat="45.87927" lon="4.79525">
        <ele>241</ele>
        <time>2017-08-15T08:49:13Z</time>
      </trkpt>
      <trkpt lat="45.87929" lon="4.7953">
        <ele>241</ele>
        <time>2017-08-15T08:49:14Z</time>
      </trkpt>
      <trkpt lat="45.87931" lon="4.79536">
        <ele>241</ele>
        <time>2017-08-15T08:49:15Z</time>
      </trkpt>
      <trkpt lat="45.87933" lon="4.79543">
        <ele>241</ele>
        <time>2017-08-15T08:49:16Z</time>
      </trkpt>
      <trkpt lat="45.87936" lon="4.7955">
        <ele>241</ele>
        <time>2017-08-15T08:49:17Z</time>
      </trkpt>
      <trkpt lat="45.87939" lon="4.79557">
        <ele>241</ele>
        <time>2017-08-15T08:49:18Z</time>
      </trkpt>
      <trkpt lat="45.87942" lon="4.79564">
        <ele>241</ele>
        <time>2017-08-15T08:49:19Z</time>
      </trkpt>
      <trkpt lat="45.87944" lon="4.79572">
        <ele>241</ele>
        <time>2017-08-15T08:49:20Z</time>
      </trkpt>
      <trkpt lat="45.87947" lon="4.7958">
        <ele>240</ele>
        <time>2017-08-15T08:49:21Z</time>
      </trkpt>
      <trkpt lat="45.87949" lon="4.79589">
        <ele>241</ele>
        <time>2017-08-15T08:49:22Z</time>
      </trkpt>
      <trkpt lat="45.87952" lon="4.79598">
        <ele>240</ele>
        <time>2017-08-15T08:49:23Z</time>
      </trkpt>
      <trkpt lat="45.87956" lon="4.79608">
        <ele>240</ele>
        <time>2017-08-15T08:49:24Z</time>
      </trkpt>
      <trkpt lat="45.8796" lon="4.79618">
        <ele>240</ele>
        <time>2017-08-15T08:49:25Z</time>
      </trkpt>
      <trkpt lat="45.87965" lon="4.79627">
        <ele>239</ele>
        <time>2017-08-15T08:49:26Z</time>
      </trkpt>
      <trkpt lat="45.87969" lon="4.79636">
        <ele>239</ele>
        <time>2017-08-15T08:49:27Z</time>
      </trkpt>
      <trkpt lat="45.87973" lon="4.79645">
        <ele>239</ele>
        <time>2017-08-15T08:49:28Z</time>
      </trkpt>
      <trkpt lat="45.87977" lon="4.79654">
        <ele>238</ele>
        <time>2017-08-15T08:49:29Z</time>
      </trkpt>
      <trkpt lat="45.8798" lon="4.79663">
        <ele>238</ele>
        <time>2017-08-15T08:49:30Z</time>
      </trkpt>
      <trkpt lat="45.87983" lon="4.79671">
        <ele>239</ele>
        <time>2017-08-15T08:49:31Z</time>
      </trkpt>
      <trkpt lat="45.87987" lon="4.79679">
        <ele>239</ele>
        <time>2017-08-15T08:49:32Z</time>
      </trkpt>
      <trkpt lat="45.8799" lon="4.79687">
        <ele>240</ele>
        <time>2017-08-15T08:49:33Z</time>
      </trkpt>
      <trkpt lat="45.87992" lon="4.79696">
        <ele>241</ele>
        <time>2017-08-15T08:49:34Z</time>
      </trkpt>
      <trkpt lat="45.87995" lon="4.79703">
        <ele>241</ele>
        <time>2017-08-15T08:49:35Z</time>
      </trkpt>
      <trkpt lat="45.87998" lon="4.7971">
        <ele>242</ele>
        <time>2017-08-15T08:49:36Z</time>
      </trkpt>
      <trkpt lat="45.88001" lon="4.79716">
        <ele>237</ele>
        <time>2017-08-15T08:49:37Z</time>
      </trkpt>
      <trkpt lat="45.88003" lon="4.79721">
        <ele>237</ele>
        <time>2017-08-15T08:49:38Z</time>
      </trkpt>
      <trkpt lat="45.88007" lon="4.7973">
        <ele>238</ele>
        <time>2017-08-15T08:49:40Z</time>
      </trkpt>
      <trkpt lat="45.88009" lon="4.79734">
        <ele>238</ele>
        <time>2017-08-15T08:49:41Z</time>
      </trkpt>
      <trkpt lat="45.88012" lon="4.79743">
        <ele>239</ele>
        <time>2017-08-15T08:49:43Z</time>
      </trkpt>
      <trkpt lat="45.88014" lon="4.79747">
        <ele>239</ele>
        <time>2017-08-15T08:49:44Z</time>
      </trkpt>
      <trkpt lat="45.88018" lon="4.79755">
        <ele>241</ele>
        <time>2017-08-15T08:49:46Z</time>
      </trkpt>
      <trkpt lat="45.8802" lon="4.7976">
        <ele>241</ele>
        <time>2017-08-15T08:49:47Z</time>
      </trkpt>
      <trkpt lat="45.88022" lon="4.79771">
        <ele>242</ele>
        <time>2017-08-15T08:49:49Z</time>
      </trkpt>
      <trkpt lat="45.88024" lon="4.79777">
        <ele>242</ele>
        <time>2017-08-15T08:49:50Z</time>
      </trkpt>
      <trkpt lat="45.88026" lon="4.79787">
        <ele>242</ele>
        <time>2017-08-15T08:49:52Z</time>
      </trkpt>
      <trkpt lat="45.88026" lon="4.79792">
        <ele>242</ele>
        <time>2017-08-15T08:49:53Z</time>
      </trkpt>
      <trkpt lat="45.88027" lon="4.79801">
        <ele>243</ele>
        <time>2017-08-15T08:49:55Z</time>
      </trkpt>
      <trkpt lat="45.88028" lon="4.79805">
        <ele>243</ele>
        <time>2017-08-15T08:49:56Z</time>
      </trkpt>
      <trkpt lat="45.88028" lon="4.79815">
        <ele>243</ele>
        <time>2017-08-15T08:49:58Z</time>
      </trkpt>
      <trkpt lat="45.88029" lon="4.79819">
        <ele>243</ele>
        <time>2017-08-15T08:49:59Z</time>
      </trkpt>
      <trkpt lat="45.88028" lon="4.79828">
        <ele>244</ele>
        <time>2017-08-15T08:50:01Z</time>
      </trkpt>
      <trkpt lat="45.88028" lon="4.79833">
        <ele>244</ele>
        <time>2017-08-15T08:50:02Z</time>
      </trkpt>
      <trkpt lat="45.88028" lon="4.79841">
        <ele>247</ele>
        <time>2017-08-15T08:50:04Z</time>
      </trkpt>
      <trkpt lat="45.88029" lon="4.79846">
        <ele>247</ele>
        <time>2017-08-15T08:50:05Z</time>
      </trkpt>
      <trkpt lat="45.88027" lon="4.79854">
        <ele>247</ele>
        <time>2017-08-15T08:50:07Z</time>
      </trkpt>
      <trkpt lat="45.88025" lon="4.79858">
        <ele>247</ele>
        <time>2017-08-15T08:50:08Z</time>
      </trkpt>
      <trkpt lat="45.88025" lon="4.79868">
        <ele>247</ele>
        <time>2017-08-15T08:50:10Z</time>
      </trkpt>
      <trkpt lat="45.88024" lon="4.79872">
        <ele>247</ele>
        <time>2017-08-15T08:50:11Z</time>
      </trkpt>
      <trkpt lat="45.88022" lon="4.79881">
        <ele>248</ele>
        <time>2017-08-15T08:50:13Z</time>
      </trkpt>
      <trkpt lat="45.88021" lon="4.79885">
        <ele>248</ele>
        <time>2017-08-15T08:50:14Z</time>
      </trkpt>
      <trkpt lat="45.8802" lon="4.79893">
        <ele>248</ele>
        <time>2017-08-15T08:50:16Z</time>
      </trkpt>
      <trkpt lat="45.88019" lon="4.79898">
        <ele>248</ele>
        <time>2017-08-15T08:50:17Z</time>
      </trkpt>
      <trkpt lat="45.88017" lon="4.79906">
        <ele>249</ele>
        <time>2017-08-15T08:50:19Z</time>
      </trkpt>
      <trkpt lat="45.88016" lon="4.7991">
        <ele>249</ele>
        <time>2017-08-15T08:50:20Z</time>
      </trkpt>
      <trkpt lat="45.88014" lon="4.79919">
        <ele>250</ele>
        <time>2017-08-15T08:50:22Z</time>
      </trkpt>
      <trkpt lat="45.88013" lon="4.79923">
        <ele>250</ele>
        <time>2017-08-15T08:50:23Z</time>
      </trkpt>
      <trkpt lat="45.8801" lon="4.7993">
        <ele>250</ele>
        <time>2017-08-15T08:50:25Z</time>
      </trkpt>
      <trkpt lat="45.88009" lon="4.79934">
        <ele>250</ele>
        <time>2017-08-15T08:50:26Z</time>
      </trkpt>
      <trkpt lat="45.88007" lon="4.79942">
        <ele>250</ele>
        <time>2017-08-15T08:50:28Z</time>
      </trkpt>
      <trkpt lat="45.88006" lon="4.79947">
        <ele>250</ele>
        <time>2017-08-15T08:50:29Z</time>
      </trkpt>
      <trkpt lat="45.88004" lon="4.79955">
        <ele>250</ele>
        <time>2017-08-15T08:50:31Z</time>
      </trkpt>
      <trkpt lat="45.88002" lon="4.79959">
        <ele>250</ele>
        <time>2017-08-15T08:50:32Z</time>
      </trkpt>
      <trkpt lat="45.87999" lon="4.79971">
        <ele>254</ele>
        <time>2017-08-15T08:50:35Z</time>
      </trkpt>
      <trkpt lat="45.87998" lon="4.79975">
        <ele>254</ele>
        <time>2017-08-15T08:50:36Z</time>
      </trkpt>
      <trkpt lat="45.87996" lon="4.79984">
        <ele>253</ele>
        <time>2017-08-15T08:50:38Z</time>
      </trkpt>
      <trkpt lat="45.87995" lon="4.79988">
        <ele>253</ele>
        <time>2017-08-15T08:50:39Z</time>
      </trkpt>
      <trkpt lat="45.87994" lon="4.79997">
        <ele>252</ele>
        <time>2017-08-15T08:50:41Z</time>
      </trkpt>
      <trkpt lat="45.87992" lon="4.80002">
        <ele>253</ele>
        <time>2017-08-15T08:50:42Z</time>
      </trkpt>
      <trkpt lat="45.87989" lon="4.80009">
        <ele>254</ele>
        <time>2017-08-15T08:50:44Z</time>
      </trkpt>
      <trkpt lat="45.87986" lon="4.80013">
        <ele>254</ele>
        <time>2017-08-15T08:50:45Z</time>
      </trkpt>
      <trkpt lat="45.87982" lon="4.8002">
        <ele>255</ele>
        <time>2017-08-15T08:50:47Z</time>
      </trkpt>
      <trkpt lat="45.87981" lon="4.80023">
        <ele>255</ele>
        <time>2017-08-15T08:50:48Z</time>
      </trkpt>
      <trkpt lat="45.87976" lon="4.80034">
        <ele>256</ele>
        <time>2017-08-15T08:50:51Z</time>
      </trkpt>
      <trkpt lat="45.87973" lon="4.80037">
        <ele>256</ele>
        <time>2017-08-15T08:50:52Z</time>
      </trkpt>
      <trkpt lat="45.87967" lon="4.80045">
        <ele>257</ele>
        <time>2017-08-15T08:50:55Z</time>
      </trkpt>
      <trkpt lat="45.87965" lon="4.80048">
        <ele>257</ele>
        <time>2017-08-15T08:50:56Z</time>
      </trkpt>
      <trkpt lat="45.87959" lon="4.80055">
        <ele>257</ele>
        <time>2017-08-15T08:50:59Z</time>
      </trkpt>
      <trkpt lat="45.87957" lon="4.80058">
        <ele>257</ele>
        <time>2017-08-15T08:51:00Z</time>
      </trkpt>
      <trkpt lat="45.87951" lon="4.80065">
        <ele>258</ele>
        <time>2017-08-15T08:51:03Z</time>
      </trkpt>
      <trkpt lat="45.87949" lon="4.80068">
        <ele>258</ele>
        <time>2017-08-15T08:51:04Z</time>
      </trkpt>
      <trkpt lat="45.87941" lon="4.80072">
        <ele>259</ele>
        <time>2017-08-15T08:51:07Z</time>
      </trkpt>
      <trkpt lat="45.87939" lon="4.80073">
        <ele>259</ele>
        <time>2017-08-15T08:51:08Z</time>
      </trkpt>
      <trkpt lat="45.87932" lon="4.80076">
        <ele>260</ele>
        <time>2017-08-15T08:51:11Z</time>
      </trkpt>
      <trkpt lat="45.87929" lon="4.80077">
        <ele>260</ele>
        <time>2017-08-15T08:51:12Z</time>
      </trkpt>
      <trkpt lat="45.87921" lon="4.80082">
        <ele>261</ele>
        <time>2017-08-15T08:51:15Z</time>
      </trkpt>
      <trkpt lat="45.87918" lon="4.80085">
        <ele>262</ele>
        <time>2017-08-15T08:51:16Z</time>
      </trkpt>
      <trkpt lat="45.87913" lon="4.8009">
        <ele>262</ele>
        <time>2017-08-15T08:51:18Z</time>
      </trkpt>
      <trkpt lat="45.87911" lon="4.80093">
        <ele>262</ele>
        <time>2017-08-15T08:51:19Z</time>
      </trkpt>
      <trkpt lat="45.87904" lon="4.80101">
        <ele>262</ele>
        <time>2017-08-15T08:51:22Z</time>
      </trkpt>
      <trkpt lat="45.87902" lon="4.80104">
        <ele>262</ele>
        <time>2017-08-15T08:51:23Z</time>
      </trkpt>
      <trkpt lat="45.87896" lon="4.80113">
        <ele>262</ele>
        <time>2017-08-15T08:51:26Z</time>
      </trkpt>
      <trkpt lat="45.87894" lon="4.80116">
        <ele>262</ele>
        <time>2017-08-15T08:51:27Z</time>
      </trkpt>
      <trkpt lat="45.87892" lon="4.80124">
        <ele>262</ele>
        <time>2017-08-15T08:51:29Z</time>
      </trkpt>
      <trkpt lat="45.87891" lon="4.80129">
        <ele>262</ele>
        <time>2017-08-15T08:51:30Z</time>
      </trkpt>
      <trkpt lat="45.8789" lon="4.80136">
        <ele>262</ele>
        <time>2017-08-15T08:51:31Z</time>
      </trkpt>
      <trkpt lat="45.87889" lon="4.80143">
        <ele>262</ele>
        <time>2017-08-15T08:51:32Z</time>
      </trkpt>
      <trkpt lat="45.87889" lon="4.80151">
        <ele>261</ele>
        <time>2017-08-15T08:51:33Z</time>
      </trkpt>
      <trkpt lat="45.87889" lon="4.8016">
        <ele>261</ele>
        <time>2017-08-15T08:51:34Z</time>
      </trkpt>
      <trkpt lat="45.87888" lon="4.80168">
        <ele>258</ele>
        <time>2017-08-15T08:51:35Z</time>
      </trkpt>
      <trkpt lat="45.87888" lon="4.80179">
        <ele>257</ele>
        <time>2017-08-15T08:51:36Z</time>
      </trkpt>
      <trkpt lat="45.87888" lon="4.80191">
        <ele>257</ele>
        <time>2017-08-15T08:51:37Z</time>
      </trkpt>
      <trkpt lat="45.87887" lon="4.80205">
        <ele>257</ele>
        <time>2017-08-15T08:51:38Z</time>
      </trkpt>
      <trkpt lat="45.87887" lon="4.80217">
        <ele>256</ele>
        <time>2017-08-15T08:51:39Z</time>
      </trkpt>
      <trkpt lat="45.87886" lon="4.8023">
        <ele>256</ele>
        <time>2017-08-15T08:51:40Z</time>
      </trkpt>
      <trkpt lat="45.87886" lon="4.80244">
        <ele>255</ele>
        <time>2017-08-15T08:51:41Z</time>
      </trkpt>
      <trkpt lat="45.87885" lon="4.80256">
        <ele>252</ele>
        <time>2017-08-15T08:51:42Z</time>
      </trkpt>
      <trkpt lat="45.87884" lon="4.80268">
        <ele>252</ele>
        <time>2017-08-15T08:51:43Z</time>
      </trkpt>
      <trkpt lat="45.87883" lon="4.80279">
        <ele>252</ele>
        <time>2017-08-15T08:51:44Z</time>
      </trkpt>
      <trkpt lat="45.87883" lon="4.80291">
        <ele>252</ele>
        <time>2017-08-15T08:51:45Z</time>
      </trkpt>
      <trkpt lat="45.87882" lon="4.80301">
        <ele>252</ele>
        <time>2017-08-15T08:51:46Z</time>
      </trkpt>
      <trkpt lat="45.87881" lon="4.80312">
        <ele>252</ele>
        <time>2017-08-15T08:51:47Z</time>
      </trkpt>
      <trkpt lat="45.8788" lon="4.80323">
        <ele>252</ele>
        <time>2017-08-15T08:51:48Z</time>
      </trkpt>
      <trkpt lat="45.8788" lon="4.80334">
        <ele>250</ele>
        <time>2017-08-15T08:51:49Z</time>
      </trkpt>
      <trkpt lat="45.87879" lon="4.80345">
        <ele>250</ele>
        <time>2017-08-15T08:51:50Z</time>
      </trkpt>
      <trkpt lat="45.87878" lon="4.80357">
        <ele>249</ele>
        <time>2017-08-15T08:51:51Z</time>
      </trkpt>
      <trkpt lat="45.87877" lon="4.80368">
        <ele>249</ele>
        <time>2017-08-15T08:51:52Z</time>
      </trkpt>
      <trkpt lat="45.87876" lon="4.8038">
        <ele>249</ele>
        <time>2017-08-15T08:51:53Z</time>
      </trkpt>
      <trkpt lat="45.87875" lon="4.8039">
        <ele>249</ele>
        <time>2017-08-15T08:51:54Z</time>
      </trkpt>
      <trkpt lat="45.87874" lon="4.80401">
        <ele>248</ele>
        <time>2017-08-15T08:51:55Z</time>
      </trkpt>
      <trkpt lat="45.87874" lon="4.80412">
        <ele>248</ele>
        <time>2017-08-15T08:51:56Z</time>
      </trkpt>
      <trkpt lat="45.87873" lon="4.80422">
        <ele>247</ele>
        <time>2017-08-15T08:51:57Z</time>
      </trkpt>
      <trkpt lat="45.87873" lon="4.80432">
        <ele>248</ele>
        <time>2017-08-15T08:51:58Z</time>
      </trkpt>
      <trkpt lat="45.87872" lon="4.80442">
        <ele>248</ele>
        <time>2017-08-15T08:51:59Z</time>
      </trkpt>
      <trkpt lat="45.87872" lon="4.80451">
        <ele>248</ele>
        <time>2017-08-15T08:52:00Z</time>
      </trkpt>
      <trkpt lat="45.87871" lon="4.8046">
        <ele>248</ele>
        <time>2017-08-15T08:52:01Z</time>
      </trkpt>
      <trkpt lat="45.8787" lon="4.80468">
        <ele>248</ele>
        <time>2017-08-15T08:52:02Z</time>
      </trkpt>
      <trkpt lat="45.87869" lon="4.80474">
        <ele>248</ele>
        <time>2017-08-15T08:52:03Z</time>
      </trkpt>
      <trkpt lat="45.87868" lon="4.80486">
        <ele>249</ele>
        <time>2017-08-15T08:52:05Z</time>
      </trkpt>
      <trkpt lat="45.87868" lon="4.80492">
        <ele>249</ele>
        <time>2017-08-15T08:52:06Z</time>
      </trkpt>
      <trkpt lat="45.87867" lon="4.80503">
        <ele>251</ele>
        <time>2017-08-15T08:52:08Z</time>
      </trkpt>
      <trkpt lat="45.87867" lon="4.80506">
        <ele>251</ele>
        <time>2017-08-15T08:52:09Z</time>
      </trkpt>
      <trkpt lat="45.87867" lon="4.80515">
        <ele>251</ele>
        <time>2017-08-15T08:52:11Z</time>
      </trkpt>
      <trkpt lat="45.87867" lon="4.80521">
        <ele>251</ele>
        <time>2017-08-15T08:52:12Z</time>
      </trkpt>
      <trkpt lat="45.87865" lon="4.80531">
        <ele>251</ele>
        <time>2017-08-15T08:52:14Z</time>
      </trkpt>
      <trkpt lat="45.87865" lon="4.80536">
        <ele>251</ele>
        <time>2017-08-15T08:52:15Z</time>
      </trkpt>
      <trkpt lat="45.87864" lon="4.80547">
        <ele>251</ele>
        <time>2017-08-15T08:52:17Z</time>
      </trkpt>
      <trkpt lat="45.87864" lon="4.80553">
        <ele>251</ele>
        <time>2017-08-15T08:52:18Z</time>
      </trkpt>
      <trkpt lat="45.87863" lon="4.80563">
        <ele>252</ele>
        <time>2017-08-15T08:52:20Z</time>
      </trkpt>
      <trkpt lat="45.87863" lon="4.80569">
        <ele>252</ele>
        <time>2017-08-15T08:52:21Z</time>
      </trkpt>
      <trkpt lat="45.87861" lon="4.8058">
        <ele>252</ele>
        <time>2017-08-15T08:52:23Z</time>
      </trkpt>
      <trkpt lat="45.8786" lon="4.80585">
        <ele>254</ele>
        <time>2017-08-15T08:52:24Z</time>
      </trkpt>
      <trkpt lat="45.8786" lon="4.80596">
        <ele>254</ele>
        <time>2017-08-15T08:52:26Z</time>
      </trkpt>
      <trkpt lat="45.8786" lon="4.80602">
        <ele>254</ele>
        <time>2017-08-15T08:52:27Z</time>
      </trkpt>
      <trkpt lat="45.87861" lon="4.80614">
        <ele>255</ele>
        <time>2017-08-15T08:52:29Z</time>
      </trkpt>
      <trkpt lat="45.87861" lon="4.80619">
        <ele>255</ele>
        <time>2017-08-15T08:52:30Z</time>
      </trkpt>
      <trkpt lat="45.87861" lon="4.8063">
        <ele>255</ele>
        <time>2017-08-15T08:52:32Z</time>
      </trkpt>
      <trkpt lat="45.87861" lon="4.80635">
        <ele>255</ele>
        <time>2017-08-15T08:52:33Z</time>
      </trkpt>
      <trkpt lat="45.87861" lon="4.80647">
        <ele>256</ele>
        <time>2017-08-15T08:52:36Z</time>
      </trkpt>
      <trkpt lat="45.87861" lon="4.80651">
        <ele>256</ele>
        <time>2017-08-15T08:52:37Z</time>
      </trkpt>
      <trkpt lat="45.87861" lon="4.80661">
        <ele>256</ele>
        <time>2017-08-15T08:52:39Z</time>
      </trkpt>
      <trkpt lat="45.87861" lon="4.80666">
        <ele>256</ele>
        <time>2017-08-15T08:52:40Z</time>
      </trkpt>
      <trkpt lat="45.8786" lon="4.80675">
        <ele>257</ele>
        <time>2017-08-15T08:52:42Z</time>
      </trkpt>
      <trkpt lat="45.87861" lon="4.8068">
        <ele>257</ele>
        <time>2017-08-15T08:52:43Z</time>
      </trkpt>
      <trkpt lat="45.87862" lon="4.8069">
        <ele>257</ele>
        <time>2017-08-15T08:52:45Z</time>
      </trkpt>
      <trkpt lat="45.87863" lon="4.80695">
        <ele>257</ele>
        <time>2017-08-15T08:52:46Z</time>
      </trkpt>
      <trkpt lat="45.87864" lon="4.80705">
        <ele>257</ele>
        <time>2017-08-15T08:52:48Z</time>
      </trkpt>
      <trkpt lat="45.87865" lon="4.8071">
        <ele>257</ele>
        <time>2017-08-15T08:52:49Z</time>
      </trkpt>
      <trkpt lat="45.87864" lon="4.80721">
        <ele>257</ele>
        <time>2017-08-15T08:52:51Z</time>
      </trkpt>
      <trkpt lat="45.87864" lon="4.80726">
        <ele>257</ele>
        <time>2017-08-15T08:52:52Z</time>
      </trkpt>
      <trkpt lat="45.87861" lon="4.80735">
        <ele>257</ele>
        <time>2017-08-15T08:52:54Z</time>
      </trkpt>
      <trkpt lat="45.87861" lon="4.8074">
        <ele>257</ele>
        <time>2017-08-15T08:52:55Z</time>
      </trkpt>
      <trkpt lat="45.87857" lon="4.80748">
        <ele>257</ele>
        <time>2017-08-15T08:52:57Z</time>
      </trkpt>
      <trkpt lat="45.87855" lon="4.80751">
        <ele>256</ele>
        <time>2017-08-15T08:52:58Z</time>
      </trkpt>
      <trkpt lat="45.87851" lon="4.80759">
        <ele>256</ele>
        <time>2017-08-15T08:53:00Z</time>
      </trkpt>
      <trkpt lat="45.87849" lon="4.80763">
        <ele>256</ele>
        <time>2017-08-15T08:53:01Z</time>
      </trkpt>
      <trkpt lat="45.87844" lon="4.80772">
        <ele>256</ele>
        <time>2017-08-15T08:53:03Z</time>
      </trkpt>
      <trkpt lat="45.87841" lon="4.80776">
        <ele>256</ele>
        <time>2017-08-15T08:53:04Z</time>
      </trkpt>
      <trkpt lat="45.87835" lon="4.80784">
        <ele>256</ele>
        <time>2017-08-15T08:53:06Z</time>
      </trkpt>
      <trkpt lat="45.87832" lon="4.80789">
        <ele>257</ele>
        <time>2017-08-15T08:53:07Z</time>
      </trkpt>
      <trkpt lat="45.87827" lon="4.80798">
        <ele>256</ele>
        <time>2017-08-15T08:53:09Z</time>
      </trkpt>
      <trkpt lat="45.87824" lon="4.80803">
        <ele>256</ele>
        <time>2017-08-15T08:53:10Z</time>
      </trkpt>
      <trkpt lat="45.87821" lon="4.80809">
        <ele>256</ele>
        <time>2017-08-15T08:53:11Z</time>
      </trkpt>
      <trkpt lat="45.87817" lon="4.80814">
        <ele>256</ele>
        <time>2017-08-15T08:53:12Z</time>
      </trkpt>
      <trkpt lat="45.87814" lon="4.80819">
        <ele>256</ele>
        <time>2017-08-15T08:53:13Z</time>
      </trkpt>
      <trkpt lat="45.8781" lon="4.80826">
        <ele>256</ele>
        <time>2017-08-15T08:53:14Z</time>
      </trkpt>
      <trkpt lat="45.87806" lon="4.80833">
        <ele>256</ele>
        <time>2017-08-15T08:53:15Z</time>
      </trkpt>
      <trkpt lat="45.87802" lon="4.80838">
        <ele>254</ele>
        <time>2017-08-15T08:53:16Z</time>
      </trkpt>
      <trkpt lat="45.87798" lon="4.80844">
        <ele>254</ele>
        <time>2017-08-15T08:53:17Z</time>
      </trkpt>
      <trkpt lat="45.87794" lon="4.8085">
        <ele>253</ele>
        <time>2017-08-15T08:53:18Z</time>
      </trkpt>
      <trkpt lat="45.8779" lon="4.80856">
        <ele>253</ele>
        <time>2017-08-15T08:53:19Z</time>
      </trkpt>
      <trkpt lat="45.87786" lon="4.80862">
        <ele>253</ele>
        <time>2017-08-15T08:53:20Z</time>
      </trkpt>
      <trkpt lat="45.87782" lon="4.80868">
        <ele>253</ele>
        <time>2017-08-15T08:53:21Z</time>
      </trkpt>
      <trkpt lat="45.87779" lon="4.80873">
        <ele>253</ele>
        <time>2017-08-15T08:53:22Z</time>
      </trkpt>
      <trkpt lat="45.87775" lon="4.80879">
        <ele>253</ele>
        <time>2017-08-15T08:53:23Z</time>
      </trkpt>
      <trkpt lat="45.87771" lon="4.80885">
        <ele>252</ele>
        <time>2017-08-15T08:53:24Z</time>
      </trkpt>
      <trkpt lat="45.87768" lon="4.80892">
        <ele>252</ele>
        <time>2017-08-15T08:53:25Z</time>
      </trkpt>
      <trkpt lat="45.87765" lon="4.809">
        <ele>252</ele>
        <time>2017-08-15T08:53:26Z</time>
      </trkpt>
      <trkpt lat="45.87762" lon="4.80908">
        <ele>251</ele>
        <time>2017-08-15T08:53:27Z</time>
      </trkpt>
      <trkpt lat="45.87758" lon="4.80915">
        <ele>251</ele>
        <time>2017-08-15T08:53:28Z</time>
      </trkpt>
      <trkpt lat="45.87755" lon="4.80924">
        <ele>250</ele>
        <time>2017-08-15T08:53:29Z</time>
      </trkpt>
      <trkpt lat="45.87753" lon="4.80933">
        <ele>249</ele>
        <time>2017-08-15T08:53:30Z</time>
      </trkpt>
      <trkpt lat="45.87751" lon="4.80942">
        <ele>249</ele>
        <time>2017-08-15T08:53:31Z</time>
      </trkpt>
      <trkpt lat="45.8775" lon="4.80951">
        <ele>252</ele>
        <time>2017-08-15T08:53:32Z</time>
      </trkpt>
      <trkpt lat="45.87749" lon="4.8096">
        <ele>252</ele>
        <time>2017-08-15T08:53:33Z</time>
      </trkpt>
      <trkpt lat="45.87749" lon="4.80968">
        <ele>251</ele>
        <time>2017-08-15T08:53:34Z</time>
      </trkpt>
      <trkpt lat="45.87748" lon="4.80977">
        <ele>251</ele>
        <time>2017-08-15T08:53:35Z</time>
      </trkpt>
      <trkpt lat="45.87748" lon="4.80986">
        <ele>251</ele>
        <time>2017-08-15T08:53:36Z</time>
      </trkpt>
      <trkpt lat="45.87749" lon="4.80994">
        <ele>250</ele>
        <time>2017-08-15T08:53:37Z</time>
      </trkpt>
      <trkpt lat="45.87749" lon="4.81003">
        <ele>249</ele>
        <time>2017-08-15T08:53:38Z</time>
      </trkpt>
      <trkpt lat="45.87749" lon="4.81012">
        <ele>249</ele>
        <time>2017-08-15T08:53:39Z</time>
      </trkpt>
      <trkpt lat="45.87749" lon="4.81021">
        <ele>249</ele>
        <time>2017-08-15T08:53:40Z</time>
      </trkpt>
      <trkpt lat="45.87748" lon="4.8103">
        <ele>249</ele>
        <time>2017-08-15T08:53:41Z</time>
      </trkpt>
      <trkpt lat="45.87748" lon="4.81041">
        <ele>249</ele>
        <time>2017-08-15T08:53:42Z</time>
      </trkpt>
      <trkpt lat="45.87747" lon="4.81049">
        <ele>249</ele>
        <time>2017-08-15T08:53:43Z</time>
      </trkpt>
      <trkpt lat="45.87747" lon="4.81058">
        <ele>248</ele>
        <time>2017-08-15T08:53:44Z</time>
      </trkpt>
      <trkpt lat="45.87745" lon="4.81066">
        <ele>248</ele>
        <time>2017-08-15T08:53:45Z</time>
      </trkpt>
      <trkpt lat="45.87743" lon="4.81074">
        <ele>247</ele>
        <time>2017-08-15T08:53:46Z</time>
      </trkpt>
      <trkpt lat="45.8774" lon="4.81082">
        <ele>247</ele>
        <time>2017-08-15T08:53:47Z</time>
      </trkpt>
      <trkpt lat="45.87737" lon="4.81089">
        <ele>246</ele>
        <time>2017-08-15T08:53:48Z</time>
      </trkpt>
      <trkpt lat="45.87733" lon="4.81096">
        <ele>246</ele>
        <time>2017-08-15T08:53:49Z</time>
      </trkpt>
      <trkpt lat="45.8773" lon="4.81103">
        <ele>246</ele>
        <time>2017-08-15T08:53:50Z</time>
      </trkpt>
      <trkpt lat="45.87726" lon="4.81109">
        <ele>246</ele>
        <time>2017-08-15T08:53:51Z</time>
      </trkpt>
      <trkpt lat="45.87723" lon="4.81114">
        <ele>246</ele>
        <time>2017-08-15T08:53:52Z</time>
      </trkpt>
      <trkpt lat="45.87716" lon="4.81121">
        <ele>246</ele>
        <time>2017-08-15T08:53:54Z</time>
      </trkpt>
      <trkpt lat="45.87713" lon="4.81125">
        <ele>246</ele>
        <time>2017-08-15T08:53:55Z</time>
      </trkpt>
      <trkpt lat="45.87706" lon="4.81131">
        <ele>246</ele>
        <time>2017-08-15T08:53:57Z</time>
      </trkpt>
      <trkpt lat="45.87702" lon="4.81134">
        <ele>246</ele>
        <time>2017-08-15T08:53:58Z</time>
      </trkpt>
      <trkpt lat="45.87698" lon="4.81138">
        <ele>246</ele>
        <time>2017-08-15T08:53:59Z</time>
      </trkpt>
      <trkpt lat="45.87694" lon="4.81142">
        <ele>246</ele>
        <time>2017-08-15T08:54:00Z</time>
      </trkpt>
      <trkpt lat="45.87689" lon="4.81146">
        <ele>246</ele>
        <time>2017-08-15T08:54:01Z</time>
      </trkpt>
      <trkpt lat="45.87684" lon="4.8115">
        <ele>246</ele>
        <time>2017-08-15T08:54:02Z</time>
      </trkpt>
      <trkpt lat="45.87679" lon="4.81153">
        <ele>246</ele>
        <time>2017-08-15T08:54:03Z</time>
      </trkpt>
      <trkpt lat="45.87674" lon="4.81157">
        <ele>247</ele>
        <time>2017-08-15T08:54:04Z</time>
      </trkpt>
      <trkpt lat="45.8767" lon="4.8116">
        <ele>247</ele>
        <time>2017-08-15T08:54:05Z</time>
      </trkpt>
      <trkpt lat="45.87666" lon="4.81165">
        <ele>247</ele>
        <time>2017-08-15T08:54:06Z</time>
      </trkpt>
      <trkpt lat="45.87661" lon="4.81169">
        <ele>247</ele>
        <time>2017-08-15T08:54:07Z</time>
      </trkpt>
      <trkpt lat="45.87656" lon="4.81173">
        <ele>247</ele>
        <time>2017-08-15T08:54:08Z</time>
      </trkpt>
      <trkpt lat="45.87651" lon="4.81176">
        <ele>247</ele>
        <time>2017-08-15T08:54:09Z</time>
      </trkpt>
      <trkpt lat="45.87646" lon="4.81179">
        <ele>247</ele>
        <time>2017-08-15T08:54:10Z</time>
      </trkpt>
      <trkpt lat="45.87641" lon="4.81182">
        <ele>247</ele>
        <time>2017-08-15T08:54:11Z</time>
      </trkpt>
      <trkpt lat="45.87637" lon="4.81184">
        <ele>247</ele>
        <time>2017-08-15T08:54:12Z</time>
      </trkpt>
      <trkpt lat="45.87632" lon="4.81186">
        <ele>247</ele>
        <time>2017-08-15T08:54:13Z</time>
      </trkpt>
      <trkpt lat="45.87628" lon="4.81189">
        <ele>247</ele>
        <time>2017-08-15T08:54:14Z</time>
      </trkpt>
      <trkpt lat="45.8762" lon="4.81193">
        <ele>247</ele>
        <time>2017-08-15T08:54:16Z</time>
      </trkpt>
      <trkpt lat="45.87615" lon="4.81196">
        <ele>247</ele>
        <time>2017-08-15T08:54:17Z</time>
      </trkpt>
      <trkpt lat="45.87611" lon="4.81199">
        <ele>247</ele>
        <time>2017-08-15T08:54:18Z</time>
      </trkpt>
      <trkpt lat="45.87606" lon="4.81202">
        <ele>247</ele>
        <time>2017-08-15T08:54:19Z</time>
      </trkpt>
      <trkpt lat="45.87602" lon="4.81204">
        <ele>248</ele>
        <time>2017-08-15T08:54:20Z</time>
      </trkpt>
      <trkpt lat="45.87597" lon="4.81205">
        <ele>248</ele>
        <time>2017-08-15T08:54:21Z</time>
      </trkpt>
      <trkpt lat="45.87592" lon="4.81208">
        <ele>248</ele>
        <time>2017-08-15T08:54:22Z</time>
      </trkpt>
      <trkpt lat="45.87587" lon="4.8121">
        <ele>248</ele>
        <time>2017-08-15T08:54:23Z</time>
      </trkpt>
      <trkpt lat="45.87582" lon="4.81212">
        <ele>251</ele>
        <time>2017-08-15T08:54:24Z</time>
      </trkpt>
      <trkpt lat="45.87578" lon="4.81216">
        <ele>251</ele>
        <time>2017-08-15T08:54:25Z</time>
      </trkpt>
      <trkpt lat="45.8757" lon="4.8122">
        <ele>251</ele>
        <time>2017-08-15T08:54:27Z</time>
      </trkpt>
      <trkpt lat="45.87567" lon="4.81221">
        <ele>251</ele>
        <time>2017-08-15T08:54:28Z</time>
      </trkpt>
      <trkpt lat="45.8756" lon="4.81224">
        <ele>251</ele>
        <time>2017-08-15T08:54:30Z</time>
      </trkpt>
      <trkpt lat="45.87556" lon="4.81224">
        <ele>252</ele>
        <time>2017-08-15T08:54:31Z</time>
      </trkpt>
      <trkpt lat="45.87551" lon="4.81224">
        <ele>252</ele>
        <time>2017-08-15T08:54:32Z</time>
      </trkpt>
      <trkpt lat="45.87547" lon="4.81226">
        <ele>252</ele>
        <time>2017-08-15T08:54:33Z</time>
      </trkpt>
      <trkpt lat="45.87538" lon="4.81228">
        <ele>252</ele>
        <time>2017-08-15T08:54:35Z</time>
      </trkpt>
      <trkpt lat="45.87534" lon="4.81229">
        <ele>253</ele>
        <time>2017-08-15T08:54:36Z</time>
      </trkpt>
      <trkpt lat="45.87525" lon="4.81233">
        <ele>253</ele>
        <time>2017-08-15T08:54:38Z</time>
      </trkpt>
      <trkpt lat="45.87522" lon="4.81235">
        <ele>253</ele>
        <time>2017-08-15T08:54:39Z</time>
      </trkpt>
      <trkpt lat="45.87514" lon="4.81242">
        <ele>253</ele>
        <time>2017-08-15T08:54:41Z</time>
      </trkpt>
      <trkpt lat="45.87511" lon="4.81246">
        <ele>253</ele>
        <time>2017-08-15T08:54:42Z</time>
      </trkpt>
      <trkpt lat="45.87508" lon="4.81251">
        <ele>251</ele>
        <time>2017-08-15T08:54:43Z</time>
      </trkpt>
      <trkpt lat="45.87506" lon="4.81257">
        <ele>251</ele>
        <time>2017-08-15T08:54:44Z</time>
      </trkpt>
      <trkpt lat="45.87503" lon="4.81268">
        <ele>250</ele>
        <time>2017-08-15T08:54:46Z</time>
      </trkpt>
      <trkpt lat="45.87502" lon="4.81274">
        <ele>249</ele>
        <time>2017-08-15T08:54:47Z</time>
      </trkpt>
      <trkpt lat="45.87501" lon="4.81281">
        <ele>249</ele>
        <time>2017-08-15T08:54:48Z</time>
      </trkpt>
      <trkpt lat="45.875" lon="4.81288">
        <ele>254</ele>
        <time>2017-08-15T08:54:49Z</time>
      </trkpt>
      <trkpt lat="45.87499" lon="4.81295">
        <ele>253</ele>
        <time>2017-08-15T08:54:50Z</time>
      </trkpt>
      <trkpt lat="45.87499" lon="4.81303">
        <ele>253</ele>
        <time>2017-08-15T08:54:51Z</time>
      </trkpt>
      <trkpt lat="45.87498" lon="4.81312">
        <ele>252</ele>
        <time>2017-08-15T08:54:52Z</time>
      </trkpt>
      <trkpt lat="45.87495" lon="4.8132">
        <ele>251</ele>
        <time>2017-08-15T08:54:53Z</time>
      </trkpt>
      <trkpt lat="45.87493" lon="4.81329">
        <ele>250</ele>
        <time>2017-08-15T08:54:54Z</time>
      </trkpt>
      <trkpt lat="45.87489" lon="4.81338">
        <ele>248</ele>
        <time>2017-08-15T08:54:55Z</time>
      </trkpt>
      <trkpt lat="45.87485" lon="4.81346">
        <ele>248</ele>
        <time>2017-08-15T08:54:56Z</time>
      </trkpt>
      <trkpt lat="45.87481" lon="4.81354">
        <ele>248</ele>
        <time>2017-08-15T08:54:57Z</time>
      </trkpt>
      <trkpt lat="45.87476" lon="4.81363">
        <ele>248</ele>
        <time>2017-08-15T08:54:58Z</time>
      </trkpt>
      <trkpt lat="45.87472" lon="4.81371">
        <ele>248</ele>
        <time>2017-08-15T08:54:59Z</time>
      </trkpt>
      <trkpt lat="45.87467" lon="4.81379">
        <ele>248</ele>
        <time>2017-08-15T08:55:00Z</time>
      </trkpt>
      <trkpt lat="45.87461" lon="4.81387">
        <ele>248</ele>
        <time>2017-08-15T08:55:01Z</time>
      </trkpt>
      <trkpt lat="45.87455" lon="4.81396">
        <ele>248</ele>
        <time>2017-08-15T08:55:02Z</time>
      </trkpt>
      <trkpt lat="45.8745" lon="4.81405">
        <ele>248</ele>
        <time>2017-08-15T08:55:03Z</time>
      </trkpt>
      <trkpt lat="45.87445" lon="4.81414">
        <ele>248</ele>
        <time>2017-08-15T08:55:04Z</time>
      </trkpt>
      <trkpt lat="45.87441" lon="4.81423">
        <ele>244</ele>
        <time>2017-08-15T08:55:05Z</time>
      </trkpt>
      <trkpt lat="45.87435" lon="4.81432">
        <ele>244</ele>
        <time>2017-08-15T08:55:06Z</time>
      </trkpt>
      <trkpt lat="45.87431" lon="4.81441">
        <ele>243</ele>
        <time>2017-08-15T08:55:07Z</time>
      </trkpt>
      <trkpt lat="45.87426" lon="4.8145">
        <ele>243</ele>
        <time>2017-08-15T08:55:08Z</time>
      </trkpt>
      <trkpt lat="45.87422" lon="4.8146">
        <ele>242</ele>
        <time>2017-08-15T08:55:09Z</time>
      </trkpt>
      <trkpt lat="45.87418" lon="4.8147">
        <ele>242</ele>
        <time>2017-08-15T08:55:10Z</time>
      </trkpt>
      <trkpt lat="45.87414" lon="4.8148">
        <ele>247</ele>
        <time>2017-08-15T08:55:11Z</time>
      </trkpt>
      <trkpt lat="45.8741" lon="4.81489">
        <ele>245</ele>
        <time>2017-08-15T08:55:12Z</time>
      </trkpt>
      <trkpt lat="45.87406" lon="4.81498">
        <ele>245</ele>
        <time>2017-08-15T08:55:13Z</time>
      </trkpt>
      <trkpt lat="45.87402" lon="4.81508">
        <ele>244</ele>
        <time>2017-08-15T08:55:14Z</time>
      </trkpt>
      <trkpt lat="45.87399" lon="4.81518">
        <ele>244</ele>
        <time>2017-08-15T08:55:15Z</time>
      </trkpt>
      <trkpt lat="45.87395" lon="4.81527">
        <ele>244</ele>
        <time>2017-08-15T08:55:16Z</time>
      </trkpt>
      <trkpt lat="45.87391" lon="4.81536">
        <ele>244</ele>
        <time>2017-08-15T08:55:17Z</time>
      </trkpt>
      <trkpt lat="45.87388" lon="4.81546">
        <ele>244</ele>
        <time>2017-08-15T08:55:18Z</time>
      </trkpt>
      <trkpt lat="45.87385" lon="4.81556">
        <ele>244</ele>
        <time>2017-08-15T08:55:19Z</time>
      </trkpt>
      <trkpt lat="45.87383" lon="4.81568">
        <ele>244</ele>
        <time>2017-08-15T08:55:20Z</time>
      </trkpt>
      <trkpt lat="45.8738" lon="4.8158">
        <ele>244</ele>
        <time>2017-08-15T08:55:21Z</time>
      </trkpt>
      <trkpt lat="45.87378" lon="4.81591">
        <ele>240</ele>
        <time>2017-08-15T08:55:22Z</time>
      </trkpt>
      <trkpt lat="45.87373" lon="4.81601">
        <ele>240</ele>
        <time>2017-08-15T08:55:23Z</time>
      </trkpt>
      <trkpt lat="45.87369" lon="4.81612">
        <ele>240</ele>
        <time>2017-08-15T08:55:24Z</time>
      </trkpt>
      <trkpt lat="45.87365" lon="4.81622">
        <ele>240</ele>
        <time>2017-08-15T08:55:25Z</time>
      </trkpt>
      <trkpt lat="45.87361" lon="4.81633">
        <ele>240</ele>
        <time>2017-08-15T08:55:26Z</time>
      </trkpt>
      <trkpt lat="45.87357" lon="4.81644">
        <ele>240</ele>
        <time>2017-08-15T08:55:27Z</time>
      </trkpt>
      <trkpt lat="45.87353" lon="4.81655">
        <ele>240</ele>
        <time>2017-08-15T08:55:28Z</time>
      </trkpt>
      <trkpt lat="45.87351" lon="4.81666">
        <ele>240</ele>
        <time>2017-08-15T08:55:29Z</time>
      </trkpt>
      <trkpt lat="45.87347" lon="4.81677">
        <ele>238</ele>
        <time>2017-08-15T08:55:30Z</time>
      </trkpt>
      <trkpt lat="45.87343" lon="4.81687">
        <ele>238</ele>
        <time>2017-08-15T08:55:31Z</time>
      </trkpt>
      <trkpt lat="45.87339" lon="4.81697">
        <ele>237</ele>
        <time>2017-08-15T08:55:32Z</time>
      </trkpt>
      <trkpt lat="45.87336" lon="4.81708">
        <ele>237</ele>
        <time>2017-08-15T08:55:33Z</time>
      </trkpt>
      <trkpt lat="45.87333" lon="4.81718">
        <ele>241</ele>
        <time>2017-08-15T08:55:34Z</time>
      </trkpt>
      <trkpt lat="45.8733" lon="4.81728">
        <ele>241</ele>
        <time>2017-08-15T08:55:35Z</time>
      </trkpt>
      <trkpt lat="45.87327" lon="4.81738">
        <ele>240</ele>
        <time>2017-08-15T08:55:36Z</time>
      </trkpt>
      <trkpt lat="45.87324" lon="4.81748">
        <ele>240</ele>
        <time>2017-08-15T08:55:37Z</time>
      </trkpt>
      <trkpt lat="45.87321" lon="4.81759">
        <ele>239</ele>
        <time>2017-08-15T08:55:38Z</time>
      </trkpt>
      <trkpt lat="45.87319" lon="4.81769">
        <ele>239</ele>
        <time>2017-08-15T08:55:39Z</time>
      </trkpt>
      <trkpt lat="45.87316" lon="4.81779">
        <ele>239</ele>
        <time>2017-08-15T08:55:40Z</time>
      </trkpt>
      <trkpt lat="45.87313" lon="4.81789">
        <ele>239</ele>
        <time>2017-08-15T08:55:41Z</time>
      </trkpt>
      <trkpt lat="45.8731" lon="4.81799">
        <ele>238</ele>
        <time>2017-08-15T08:55:42Z</time>
      </trkpt>
      <trkpt lat="45.87308" lon="4.81809">
        <ele>238</ele>
        <time>2017-08-15T08:55:43Z</time>
      </trkpt>
      <trkpt lat="45.87305" lon="4.81819">
        <ele>238</ele>
        <time>2017-08-15T08:55:44Z</time>
      </trkpt>
      <trkpt lat="45.87302" lon="4.81829">
        <ele>238</ele>
        <time>2017-08-15T08:55:45Z</time>
      </trkpt>
      <trkpt lat="45.87298" lon="4.8184">
        <ele>236</ele>
        <time>2017-08-15T08:55:46Z</time>
      </trkpt>
      <trkpt lat="45.87295" lon="4.8185">
        <ele>236</ele>
        <time>2017-08-15T08:55:47Z</time>
      </trkpt>
      <trkpt lat="45.87294" lon="4.81861">
        <ele>236</ele>
        <time>2017-08-15T08:55:48Z</time>
      </trkpt>
      <trkpt lat="45.87293" lon="4.81871">
        <ele>235</ele>
        <time>2017-08-15T08:55:49Z</time>
      </trkpt>
      <trkpt lat="45.87292" lon="4.81881">
        <ele>235</ele>
        <time>2017-08-15T08:55:50Z</time>
      </trkpt>
      <trkpt lat="45.87289" lon="4.81891">
        <ele>235</ele>
        <time>2017-08-15T08:55:51Z</time>
      </trkpt>
      <trkpt lat="45.87284" lon="4.81898">
        <ele>235</ele>
        <time>2017-08-15T08:55:52Z</time>
      </trkpt>
      <trkpt lat="45.87278" lon="4.81903">
        <ele>235</ele>
        <time>2017-08-15T08:55:53Z</time>
      </trkpt>
      <trkpt lat="45.87272" lon="4.81907">
        <ele>235</ele>
        <time>2017-08-15T08:55:54Z</time>
      </trkpt>
      <trkpt lat="45.87266" lon="4.81911">
        <ele>235</ele>
        <time>2017-08-15T08:55:55Z</time>
      </trkpt>
      <trkpt lat="45.8726" lon="4.81915">
        <ele>234</ele>
        <time>2017-08-15T08:55:56Z</time>
      </trkpt>
      <trkpt lat="45.87255" lon="4.81919">
        <ele>233</ele>
        <time>2017-08-15T08:55:57Z</time>
      </trkpt>
      <trkpt lat="45.87249" lon="4.81922">
        <ele>233</ele>
        <time>2017-08-15T08:55:58Z</time>
      </trkpt>
      <trkpt lat="45.87243" lon="4.81925">
        <ele>233</ele>
        <time>2017-08-15T08:55:59Z</time>
      </trkpt>
      <trkpt lat="45.87238" lon="4.81927">
        <ele>233</ele>
        <time>2017-08-15T08:56:00Z</time>
      </trkpt>
      <trkpt lat="45.87232" lon="4.8193">
        <ele>232</ele>
        <time>2017-08-15T08:56:01Z</time>
      </trkpt>
      <trkpt lat="45.87227" lon="4.81933">
        <ele>232</ele>
        <time>2017-08-15T08:56:02Z</time>
      </trkpt>
      <trkpt lat="45.87222" lon="4.81936">
        <ele>232</ele>
        <time>2017-08-15T08:56:03Z</time>
      </trkpt>
      <trkpt lat="45.87218" lon="4.81939">
        <ele>232</ele>
        <time>2017-08-15T08:56:04Z</time>
      </trkpt>
      <trkpt lat="45.87214" lon="4.81942">
        <ele>232</ele>
        <time>2017-08-15T08:56:05Z</time>
      </trkpt>
      <trkpt lat="45.87209" lon="4.81945">
        <ele>232</ele>
        <time>2017-08-15T08:56:06Z</time>
      </trkpt>
      <trkpt lat="45.87204" lon="4.81947">
        <ele>232</ele>
        <time>2017-08-15T08:56:07Z</time>
      </trkpt>
      <trkpt lat="45.87199" lon="4.8195">
        <ele>232</ele>
        <time>2017-08-15T08:56:08Z</time>
      </trkpt>
      <trkpt lat="45.87193" lon="4.81952">
        <ele>232</ele>
        <time>2017-08-15T08:56:09Z</time>
      </trkpt>
      <trkpt lat="45.87187" lon="4.81954">
        <ele>232</ele>
        <time>2017-08-15T08:56:10Z</time>
      </trkpt>
      <trkpt lat="45.8718" lon="4.81956">
        <ele>232</ele>
        <time>2017-08-15T08:56:11Z</time>
      </trkpt>
      <trkpt lat="45.87173" lon="4.81957">
        <ele>232</ele>
        <time>2017-08-15T08:56:12Z</time>
      </trkpt>
      <trkpt lat="45.87167" lon="4.81958">
        <ele>232</ele>
        <time>2017-08-15T08:56:13Z</time>
      </trkpt>
      <trkpt lat="45.87162" lon="4.81959">
        <ele>232</ele>
        <time>2017-08-15T08:56:14Z</time>
      </trkpt>
      <trkpt lat="45.87156" lon="4.81959">
        <ele>232</ele>
        <time>2017-08-15T08:56:15Z</time>
      </trkpt>
      <trkpt lat="45.8715" lon="4.8196">
        <ele>232</ele>
        <time>2017-08-15T08:56:16Z</time>
      </trkpt>
      <trkpt lat="45.87144" lon="4.8196">
        <ele>232</ele>
        <time>2017-08-15T08:56:17Z</time>
      </trkpt>
      <trkpt lat="45.87139" lon="4.81961">
        <ele>232</ele>
        <time>2017-08-15T08:56:18Z</time>
      </trkpt>
      <trkpt lat="45.87132" lon="4.8196">
        <ele>232</ele>
        <time>2017-08-15T08:56:19Z</time>
      </trkpt>
      <trkpt lat="45.87127" lon="4.81967">
        <ele>231</ele>
        <time>2017-08-15T08:56:20Z</time>
      </trkpt>
      <trkpt lat="45.87118" lon="4.81969">
        <ele>231</ele>
        <time>2017-08-15T08:56:21Z</time>
      </trkpt>
      <trkpt lat="45.8711" lon="4.81968">
        <ele>231</ele>
        <time>2017-08-15T08:56:22Z</time>
      </trkpt>
      <trkpt lat="45.87102" lon="4.81967">
        <ele>231</ele>
        <time>2017-08-15T08:56:23Z</time>
      </trkpt>
      <trkpt lat="45.87094" lon="4.81965">
        <ele>231</ele>
        <time>2017-08-15T08:56:24Z</time>
      </trkpt>
      <trkpt lat="45.87084" lon="4.81963">
        <ele>231</ele>
        <time>2017-08-15T08:56:25Z</time>
      </trkpt>
      <trkpt lat="45.87075" lon="4.81961">
        <ele>229</ele>
        <time>2017-08-15T08:56:26Z</time>
      </trkpt>
      <trkpt lat="45.87067" lon="4.81958">
        <ele>229</ele>
        <time>2017-08-15T08:56:27Z</time>
      </trkpt>
      <trkpt lat="45.87058" lon="4.81955">
        <ele>230</ele>
        <time>2017-08-15T08:56:28Z</time>
      </trkpt>
      <trkpt lat="45.8705" lon="4.81952">
        <ele>230</ele>
        <time>2017-08-15T08:56:29Z</time>
      </trkpt>
      <trkpt lat="45.87042" lon="4.81949">
        <ele>229</ele>
        <time>2017-08-15T08:56:30Z</time>
      </trkpt>
      <trkpt lat="45.87033" lon="4.81946">
        <ele>229</ele>
        <time>2017-08-15T08:56:31Z</time>
      </trkpt>
      <trkpt lat="45.87024" lon="4.81943">
        <ele>230</ele>
        <time>2017-08-15T08:56:32Z</time>
      </trkpt>
      <trkpt lat="45.87015" lon="4.81941">
        <ele>230</ele>
        <time>2017-08-15T08:56:33Z</time>
      </trkpt>
      <trkpt lat="45.87004" lon="4.81944">
        <ele>229</ele>
        <time>2017-08-15T08:56:34Z</time>
      </trkpt>
      <trkpt lat="45.86994" lon="4.81946">
        <ele>227</ele>
        <time>2017-08-15T08:56:35Z</time>
      </trkpt>
      <trkpt lat="45.86986" lon="4.81949">
        <ele>227</ele>
        <time>2017-08-15T08:56:36Z</time>
      </trkpt>
      <trkpt lat="45.86981" lon="4.81954">
        <ele>226</ele>
        <time>2017-08-15T08:56:37Z</time>
      </trkpt>
      <trkpt lat="45.8698" lon="4.81962">
        <ele>226</ele>
        <time>2017-08-15T08:56:38Z</time>
      </trkpt>
      <trkpt lat="45.8698" lon="4.81968">
        <ele>225</ele>
        <time>2017-08-15T08:56:39Z</time>
      </trkpt>
      <trkpt lat="45.86981" lon="4.81974">
        <ele>224</ele>
        <time>2017-08-15T08:56:40Z</time>
      </trkpt>
      <trkpt lat="45.86981" lon="4.81982">
        <ele>224</ele>
        <time>2017-08-15T08:56:41Z</time>
      </trkpt>
      <trkpt lat="45.86982" lon="4.81988">
        <ele>223</ele>
        <time>2017-08-15T08:56:42Z</time>
      </trkpt>
      <trkpt lat="45.86982" lon="4.81995">
        <ele>222</ele>
        <time>2017-08-15T08:56:43Z</time>
      </trkpt>
      <trkpt lat="45.86982" lon="4.82007">
        <ele>222</ele>
        <time>2017-08-15T08:56:45Z</time>
      </trkpt>
      <trkpt lat="45.86983" lon="4.82012">
        <ele>222</ele>
        <time>2017-08-15T08:56:46Z</time>
      </trkpt>
      <trkpt lat="45.86988" lon="4.82021">
        <ele>223</ele>
        <time>2017-08-15T08:56:48Z</time>
      </trkpt>
      <trkpt lat="45.86992" lon="4.82025">
        <ele>223</ele>
        <time>2017-08-15T08:56:49Z</time>
      </trkpt>
      <trkpt lat="45.86998" lon="4.82029">
        <ele>223</ele>
        <time>2017-08-15T08:56:50Z</time>
      </trkpt>
      <trkpt lat="45.87005" lon="4.82035">
        <ele>218</ele>
        <time>2017-08-15T08:56:51Z</time>
      </trkpt>
      <trkpt lat="45.87011" lon="4.8204">
        <ele>218</ele>
        <time>2017-08-15T08:56:52Z</time>
      </trkpt>
      <trkpt lat="45.87018" lon="4.82045">
        <ele>218</ele>
        <time>2017-08-15T08:56:53Z</time>
      </trkpt>
      <trkpt lat="45.87024" lon="4.8205">
        <ele>218</ele>
        <time>2017-08-15T08:56:54Z</time>
      </trkpt>
      <trkpt lat="45.87031" lon="4.82055">
        <ele>218</ele>
        <time>2017-08-15T08:56:55Z</time>
      </trkpt>
      <trkpt lat="45.87038" lon="4.8206">
        <ele>218</ele>
        <time>2017-08-15T08:56:56Z</time>
      </trkpt>
      <trkpt lat="45.87046" lon="4.82065">
        <ele>218</ele>
        <time>2017-08-15T08:56:57Z</time>
      </trkpt>
      <trkpt lat="45.87054" lon="4.8207">
        <ele>217</ele>
        <time>2017-08-15T08:56:58Z</time>
      </trkpt>
      <trkpt lat="45.87061" lon="4.82075">
        <ele>217</ele>
        <time>2017-08-15T08:56:59Z</time>
      </trkpt>
      <trkpt lat="45.87071" lon="4.82081">
        <ele>216</ele>
        <time>2017-08-15T08:57:00Z</time>
      </trkpt>
      <trkpt lat="45.87079" lon="4.82087">
        <ele>215</ele>
        <time>2017-08-15T08:57:01Z</time>
      </trkpt>
      <trkpt lat="45.87087" lon="4.82092">
        <ele>214</ele>
        <time>2017-08-15T08:57:02Z</time>
      </trkpt>
      <trkpt lat="45.87095" lon="4.82097">
        <ele>213</ele>
        <time>2017-08-15T08:57:03Z</time>
      </trkpt>
      <trkpt lat="45.87103" lon="4.82102">
        <ele>213</ele>
        <time>2017-08-15T08:57:04Z</time>
      </trkpt>
      <trkpt lat="45.87111" lon="4.82107">
        <ele>213</ele>
        <time>2017-08-15T08:57:05Z</time>
      </trkpt>
      <trkpt lat="45.87119" lon="4.82112">
        <ele>212</ele>
        <time>2017-08-15T08:57:06Z</time>
      </trkpt>
      <trkpt lat="45.87127" lon="4.82118">
        <ele>212</ele>
        <time>2017-08-15T08:57:07Z</time>
      </trkpt>
      <trkpt lat="45.87135" lon="4.82125">
        <ele>212</ele>
        <time>2017-08-15T08:57:08Z</time>
      </trkpt>
      <trkpt lat="45.87143" lon="4.82133">
        <ele>212</ele>
        <time>2017-08-15T08:57:09Z</time>
      </trkpt>
      <trkpt lat="45.8715" lon="4.82142">
        <ele>211</ele>
        <time>2017-08-15T08:57:10Z</time>
      </trkpt>
      <trkpt lat="45.87156" lon="4.82152">
        <ele>210</ele>
        <time>2017-08-15T08:57:11Z</time>
      </trkpt>
      <trkpt lat="45.87162" lon="4.82163">
        <ele>209</ele>
        <time>2017-08-15T08:57:12Z</time>
      </trkpt>
      <trkpt lat="45.87167" lon="4.82175">
        <ele>208</ele>
        <time>2017-08-15T08:57:13Z</time>
      </trkpt>
      <trkpt lat="45.87171" lon="4.82188">
        <ele>208</ele>
        <time>2017-08-15T08:57:14Z</time>
      </trkpt>
      <trkpt lat="45.87175" lon="4.822">
        <ele>208</ele>
        <time>2017-08-15T08:57:15Z</time>
      </trkpt>
      <trkpt lat="45.87179" lon="4.82213">
        <ele>208</ele>
        <time>2017-08-15T08:57:16Z</time>
      </trkpt>
      <trkpt lat="45.87184" lon="4.82225">
        <ele>208</ele>
        <time>2017-08-15T08:57:17Z</time>
      </trkpt>
      <trkpt lat="45.87188" lon="4.82237">
        <ele>208</ele>
        <time>2017-08-15T08:57:18Z</time>
      </trkpt>
      <trkpt lat="45.87192" lon="4.82248">
        <ele>208</ele>
        <time>2017-08-15T08:57:19Z</time>
      </trkpt>
      <trkpt lat="45.87196" lon="4.8226">
        <ele>210</ele>
        <time>2017-08-15T08:57:20Z</time>
      </trkpt>
      <trkpt lat="45.872" lon="4.82271">
        <ele>210</ele>
        <time>2017-08-15T08:57:21Z</time>
      </trkpt>
      <trkpt lat="45.87203" lon="4.8228">
        <ele>210</ele>
        <time>2017-08-15T08:57:22Z</time>
      </trkpt>
      <trkpt lat="45.87207" lon="4.82289">
        <ele>210</ele>
        <time>2017-08-15T08:57:23Z</time>
      </trkpt>
      <trkpt lat="45.87212" lon="4.82298">
        <ele>210</ele>
        <time>2017-08-15T08:57:24Z</time>
      </trkpt>
      <trkpt lat="45.87216" lon="4.82305">
        <ele>210</ele>
        <time>2017-08-15T08:57:25Z</time>
      </trkpt>
      <trkpt lat="45.8722" lon="4.82312">
        <ele>210</ele>
        <time>2017-08-15T08:57:26Z</time>
      </trkpt>
      <trkpt lat="45.87224" lon="4.82319">
        <ele>210</ele>
        <time>2017-08-15T08:57:27Z</time>
      </trkpt>
      <trkpt lat="45.87227" lon="4.82324">
        <ele>210</ele>
        <time>2017-08-15T08:57:28Z</time>
      </trkpt>
      <trkpt lat="45.8723" lon="4.8233">
        <ele>210</ele>
        <time>2017-08-15T08:57:29Z</time>
      </trkpt>
      <trkpt lat="45.87233" lon="4.82335">
        <ele>213</ele>
        <time>2017-08-15T08:57:30Z</time>
      </trkpt>
      <trkpt lat="45.87235" lon="4.8234">
        <ele>212</ele>
        <time>2017-08-15T08:57:31Z</time>
      </trkpt>
      <trkpt lat="45.87238" lon="4.82345">
        <ele>213</ele>
        <time>2017-08-15T08:57:32Z</time>
      </trkpt>
      <trkpt lat="45.87241" lon="4.8235">
        <ele>213</ele>
        <time>2017-08-15T08:57:33Z</time>
      </trkpt>
      <trkpt lat="45.87244" lon="4.82355">
        <ele>213</ele>
        <time>2017-08-15T08:57:34Z</time>
      </trkpt>
      <trkpt lat="45.87247" lon="4.8236">
        <ele>214</ele>
        <time>2017-08-15T08:57:35Z</time>
      </trkpt>
      <trkpt lat="45.87252" lon="4.8237">
        <ele>209</ele>
        <time>2017-08-15T08:57:37Z</time>
      </trkpt>
      <trkpt lat="45.87255" lon="4.82375">
        <ele>209</ele>
        <time>2017-08-15T08:57:38Z</time>
      </trkpt>
      <trkpt lat="45.87258" lon="4.8238">
        <ele>209</ele>
        <time>2017-08-15T08:57:39Z</time>
      </trkpt>
      <trkpt lat="45.87261" lon="4.82386">
        <ele>209</ele>
        <time>2017-08-15T08:57:40Z</time>
      </trkpt>
      <trkpt lat="45.87264" lon="4.82391">
        <ele>210</ele>
        <time>2017-08-15T08:57:41Z</time>
      </trkpt>
      <trkpt lat="45.87267" lon="4.82396">
        <ele>210</ele>
        <time>2017-08-15T08:57:42Z</time>
      </trkpt>
      <trkpt lat="45.8727" lon="4.82401">
        <ele>210</ele>
        <time>2017-08-15T08:57:43Z</time>
      </trkpt>
      <trkpt lat="45.87273" lon="4.82406">
        <ele>210</ele>
        <time>2017-08-15T08:57:44Z</time>
      </trkpt>
      <trkpt lat="45.87276" lon="4.82412">
        <ele>210</ele>
        <time>2017-08-15T08:57:45Z</time>
      </trkpt>
      <trkpt lat="45.87279" lon="4.82418">
        <ele>213</ele>
        <time>2017-08-15T08:57:46Z</time>
      </trkpt>
      <trkpt lat="45.87283" lon="4.82424">
        <ele>213</ele>
        <time>2017-08-15T08:57:47Z</time>
      </trkpt>
      <trkpt lat="45.87286" lon="4.82428">
        <ele>213</ele>
        <time>2017-08-15T08:57:48Z</time>
      </trkpt>
      <trkpt lat="45.87289" lon="4.82434">
        <ele>212</ele>
        <time>2017-08-15T08:57:49Z</time>
      </trkpt>
      <trkpt lat="45.87292" lon="4.82439">
        <ele>212</ele>
        <time>2017-08-15T08:57:50Z</time>
      </trkpt>
      <trkpt lat="45.87298" lon="4.82448">
        <ele>212</ele>
        <time>2017-08-15T08:57:52Z</time>
      </trkpt>
      <trkpt lat="45.873" lon="4.82452">
        <ele>212</ele>
        <time>2017-08-15T08:57:53Z</time>
      </trkpt>
      <trkpt lat="45.87306" lon="4.82461">
        <ele>212</ele>
        <time>2017-08-15T08:57:55Z</time>
      </trkpt>
      <trkpt lat="45.8731" lon="4.82465">
        <ele>212</ele>
        <time>2017-08-15T08:57:56Z</time>
      </trkpt>
      <trkpt lat="45.87313" lon="4.82469">
        <ele>212</ele>
        <time>2017-08-15T08:57:57Z</time>
      </trkpt>
      <trkpt lat="45.87316" lon="4.82474">
        <ele>212</ele>
        <time>2017-08-15T08:57:58Z</time>
      </trkpt>
      <trkpt lat="45.87319" lon="4.82479">
        <ele>211</ele>
        <time>2017-08-15T08:57:59Z</time>
      </trkpt>
      <trkpt lat="45.87322" lon="4.82485">
        <ele>211</ele>
        <time>2017-08-15T08:58:00Z</time>
      </trkpt>
      <trkpt lat="45.87325" lon="4.8249">
        <ele>211</ele>
        <time>2017-08-15T08:58:01Z</time>
      </trkpt>
      <trkpt lat="45.87327" lon="4.82496">
        <ele>210</ele>
        <time>2017-08-15T08:58:02Z</time>
      </trkpt>
      <trkpt lat="45.8733" lon="4.82505">
        <ele>211</ele>
        <time>2017-08-15T08:58:04Z</time>
      </trkpt>
      <trkpt lat="45.87332" lon="4.8251">
        <ele>212</ele>
        <time>2017-08-15T08:58:05Z</time>
      </trkpt>
      <trkpt lat="45.87334" lon="4.82516">
        <ele>208</ele>
        <time>2017-08-15T08:58:06Z</time>
      </trkpt>
      <trkpt lat="45.87336" lon="4.82522">
        <ele>208</ele>
        <time>2017-08-15T08:58:07Z</time>
      </trkpt>
      <trkpt lat="45.8734" lon="4.82532">
        <ele>208</ele>
        <time>2017-08-15T08:58:09Z</time>
      </trkpt>
      <trkpt lat="45.87342" lon="4.82537">
        <ele>209</ele>
        <time>2017-08-15T08:58:10Z</time>
      </trkpt>
      <trkpt lat="45.87347" lon="4.82547">
        <ele>209</ele>
        <time>2017-08-15T08:58:12Z</time>
      </trkpt>
      <trkpt lat="45.87349" lon="4.82552">
        <ele>209</ele>
        <time>2017-08-15T08:58:13Z</time>
      </trkpt>
      <trkpt lat="45.87351" lon="4.82558">
        <ele>210</ele>
        <time>2017-08-15T08:58:14Z</time>
      </trkpt>
      <trkpt lat="45.87353" lon="4.82564">
        <ele>210</ele>
        <time>2017-08-15T08:58:15Z</time>
      </trkpt>
      <trkpt lat="45.87355" lon="4.8257">
        <ele>210</ele>
        <time>2017-08-15T08:58:16Z</time>
      </trkpt>
      <trkpt lat="45.87357" lon="4.82577">
        <ele>210</ele>
        <time>2017-08-15T08:58:17Z</time>
      </trkpt>
      <trkpt lat="45.87359" lon="4.82582">
        <ele>210</ele>
        <time>2017-08-15T08:58:18Z</time>
      </trkpt>
      <trkpt lat="45.87362" lon="4.82588">
        <ele>213</ele>
        <time>2017-08-15T08:58:19Z</time>
      </trkpt>
      <trkpt lat="45.87364" lon="4.82594">
        <ele>213</ele>
        <time>2017-08-15T08:58:20Z</time>
      </trkpt>
      <trkpt lat="45.87366" lon="4.82601">
        <ele>213</ele>
        <time>2017-08-15T08:58:21Z</time>
      </trkpt>
      <trkpt lat="45.87369" lon="4.82607">
        <ele>213</ele>
        <time>2017-08-15T08:58:22Z</time>
      </trkpt>
      <trkpt lat="45.87371" lon="4.82613">
        <ele>213</ele>
        <time>2017-08-15T08:58:23Z</time>
      </trkpt>
      <trkpt lat="45.87374" lon="4.82619">
        <ele>213</ele>
        <time>2017-08-15T08:58:24Z</time>
      </trkpt>
      <trkpt lat="45.87376" lon="4.82625">
        <ele>213</ele>
        <time>2017-08-15T08:58:25Z</time>
      </trkpt>
      <trkpt lat="45.8738" lon="4.82631">
        <ele>213</ele>
        <time>2017-08-15T08:58:26Z</time>
      </trkpt>
      <trkpt lat="45.87383" lon="4.82637">
        <ele>213</ele>
        <time>2017-08-15T08:58:27Z</time>
      </trkpt>
      <trkpt lat="45.87385" lon="4.82644">
        <ele>213</ele>
        <time>2017-08-15T08:58:28Z</time>
      </trkpt>
      <trkpt lat="45.87388" lon="4.8265">
        <ele>213</ele>
        <time>2017-08-15T08:58:29Z</time>
      </trkpt>
      <trkpt lat="45.87391" lon="4.82656">
        <ele>213</ele>
        <time>2017-08-15T08:58:30Z</time>
      </trkpt>
      <trkpt lat="45.87394" lon="4.82662">
        <ele>213</ele>
        <time>2017-08-15T08:58:31Z</time>
      </trkpt>
      <trkpt lat="45.87397" lon="4.82669">
        <ele>214</ele>
        <time>2017-08-15T08:58:32Z</time>
      </trkpt>
      <trkpt lat="45.874" lon="4.82676">
        <ele>214</ele>
        <time>2017-08-15T08:58:33Z</time>
      </trkpt>
      <trkpt lat="45.87403" lon="4.82683">
        <ele>214</ele>
        <time>2017-08-15T08:58:34Z</time>
      </trkpt>
      <trkpt lat="45.87407" lon="4.8269">
        <ele>215</ele>
        <time>2017-08-15T08:58:35Z</time>
      </trkpt>
      <trkpt lat="45.87411" lon="4.82697">
        <ele>215</ele>
        <time>2017-08-15T08:58:36Z</time>
      </trkpt>
      <trkpt lat="45.87415" lon="4.82704">
        <ele>215</ele>
        <time>2017-08-15T08:58:37Z</time>
      </trkpt>
      <trkpt lat="45.87419" lon="4.82711">
        <ele>209</ele>
        <time>2017-08-15T08:58:38Z</time>
      </trkpt>
      <trkpt lat="45.87422" lon="4.82717">
        <ele>209</ele>
        <time>2017-08-15T08:58:39Z</time>
      </trkpt>
      <trkpt lat="45.87425" lon="4.82725">
        <ele>209</ele>
        <time>2017-08-15T08:58:40Z</time>
      </trkpt>
      <trkpt lat="45.87429" lon="4.82732">
        <ele>210</ele>
        <time>2017-08-15T08:58:41Z</time>
      </trkpt>
      <trkpt lat="45.87433" lon="4.82738">
        <ele>210</ele>
        <time>2017-08-15T08:58:42Z</time>
      </trkpt>
      <trkpt lat="45.87437" lon="4.82745">
        <ele>210</ele>
        <time>2017-08-15T08:58:43Z</time>
      </trkpt>
      <trkpt lat="45.8744" lon="4.82752">
        <ele>211</ele>
        <time>2017-08-15T08:58:44Z</time>
      </trkpt>
      <trkpt lat="45.87444" lon="4.82759">
        <ele>211</ele>
        <time>2017-08-15T08:58:45Z</time>
      </trkpt>
      <trkpt lat="45.87447" lon="4.82766">
        <ele>210</ele>
        <time>2017-08-15T08:58:46Z</time>
      </trkpt>
      <trkpt lat="45.87451" lon="4.82773">
        <ele>210</ele>
        <time>2017-08-15T08:58:47Z</time>
      </trkpt>
      <trkpt lat="45.87454" lon="4.8278">
        <ele>210</ele>
        <time>2017-08-15T08:58:48Z</time>
      </trkpt>
      <trkpt lat="45.87457" lon="4.82788">
        <ele>210</ele>
        <time>2017-08-15T08:58:49Z</time>
      </trkpt>
      <trkpt lat="45.8746" lon="4.82795">
        <ele>209</ele>
        <time>2017-08-15T08:58:50Z</time>
      </trkpt>
      <trkpt lat="45.87464" lon="4.82802">
        <ele>209</ele>
        <time>2017-08-15T08:58:51Z</time>
      </trkpt>
      <trkpt lat="45.87467" lon="4.82809">
        <ele>209</ele>
        <time>2017-08-15T08:58:52Z</time>
      </trkpt>
      <trkpt lat="45.87471" lon="4.82816">
        <ele>209</ele>
        <time>2017-08-15T08:58:53Z</time>
      </trkpt>
      <trkpt lat="45.87474" lon="4.82823">
        <ele>209</ele>
        <time>2017-08-15T08:58:54Z</time>
      </trkpt>
      <trkpt lat="45.87478" lon="4.82829">
        <ele>209</ele>
        <time>2017-08-15T08:58:55Z</time>
      </trkpt>
      <trkpt lat="45.8748" lon="4.82837">
        <ele>210</ele>
        <time>2017-08-15T08:58:56Z</time>
      </trkpt>
      <trkpt lat="45.87483" lon="4.82846">
        <ele>210</ele>
        <time>2017-08-15T08:58:57Z</time>
      </trkpt>
      <trkpt lat="45.87486" lon="4.82855">
        <ele>210</ele>
        <time>2017-08-15T08:58:58Z</time>
      </trkpt>
      <trkpt lat="45.8749" lon="4.82863">
        <ele>210</ele>
        <time>2017-08-15T08:58:59Z</time>
      </trkpt>
      <trkpt lat="45.87494" lon="4.82871">
        <ele>210</ele>
        <time>2017-08-15T08:59:00Z</time>
      </trkpt>
      <trkpt lat="45.87497" lon="4.82879">
        <ele>210</ele>
        <time>2017-08-15T08:59:01Z</time>
      </trkpt>
      <trkpt lat="45.875" lon="4.82888">
        <ele>206</ele>
        <time>2017-08-15T08:59:02Z</time>
      </trkpt>
      <trkpt lat="45.87504" lon="4.82897">
        <ele>207</ele>
        <time>2017-08-15T08:59:03Z</time>
      </trkpt>
      <trkpt lat="45.87507" lon="4.82907">
        <ele>208</ele>
        <time>2017-08-15T08:59:04Z</time>
      </trkpt>
      <trkpt lat="45.87511" lon="4.82918">
        <ele>208</ele>
        <time>2017-08-15T08:59:05Z</time>
      </trkpt>
      <trkpt lat="45.87514" lon="4.82929">
        <ele>208</ele>
        <time>2017-08-15T08:59:06Z</time>
      </trkpt>
      <trkpt lat="45.87518" lon="4.8294">
        <ele>207</ele>
        <time>2017-08-15T08:59:07Z</time>
      </trkpt>
      <trkpt lat="45.87521" lon="4.82953">
        <ele>206</ele>
        <time>2017-08-15T08:59:08Z</time>
      </trkpt>
      <trkpt lat="45.87525" lon="4.82966">
        <ele>206</ele>
        <time>2017-08-15T08:59:09Z</time>
      </trkpt>
      <trkpt lat="45.87527" lon="4.82978">
        <ele>206</ele>
        <time>2017-08-15T08:59:10Z</time>
      </trkpt>
      <trkpt lat="45.87529" lon="4.82991">
        <ele>206</ele>
        <time>2017-08-15T08:59:11Z</time>
      </trkpt>
      <trkpt lat="45.87531" lon="4.83002">
        <ele>203</ele>
        <time>2017-08-15T08:59:12Z</time>
      </trkpt>
      <trkpt lat="45.87531" lon="4.83013">
        <ele>202</ele>
        <time>2017-08-15T08:59:13Z</time>
      </trkpt>
      <trkpt lat="45.87531" lon="4.83023">
        <ele>202</ele>
        <time>2017-08-15T08:59:14Z</time>
      </trkpt>
      <trkpt lat="45.87531" lon="4.83035">
        <ele>201</ele>
        <time>2017-08-15T08:59:15Z</time>
      </trkpt>
      <trkpt lat="45.8753" lon="4.83046">
        <ele>201</ele>
        <time>2017-08-15T08:59:16Z</time>
      </trkpt>
      <trkpt lat="45.87528" lon="4.83057">
        <ele>200</ele>
        <time>2017-08-15T08:59:17Z</time>
      </trkpt>
      <trkpt lat="45.87524" lon="4.83068">
        <ele>200</ele>
        <time>2017-08-15T08:59:18Z</time>
      </trkpt>
      <trkpt lat="45.87519" lon="4.83079">
        <ele>199</ele>
        <time>2017-08-15T08:59:19Z</time>
      </trkpt>
      <trkpt lat="45.87514" lon="4.83088">
        <ele>196</ele>
        <time>2017-08-15T08:59:20Z</time>
      </trkpt>
      <trkpt lat="45.87508" lon="4.83098">
        <ele>195</ele>
        <time>2017-08-15T08:59:21Z</time>
      </trkpt>
      <trkpt lat="45.87501" lon="4.83107">
        <ele>194</ele>
        <time>2017-08-15T08:59:22Z</time>
      </trkpt>
      <trkpt lat="45.87494" lon="4.83115">
        <ele>196</ele>
        <time>2017-08-15T08:59:23Z</time>
      </trkpt>
      <trkpt lat="45.87487" lon="4.83122">
        <ele>195</ele>
        <time>2017-08-15T08:59:24Z</time>
      </trkpt>
      <trkpt lat="45.87483" lon="4.83131">
        <ele>194</ele>
        <time>2017-08-15T08:59:25Z</time>
      </trkpt>
      <trkpt lat="45.87482" lon="4.83139">
        <ele>194</ele>
        <time>2017-08-15T08:59:26Z</time>
      </trkpt>
      <trkpt lat="45.87483" lon="4.83148">
        <ele>193</ele>
        <time>2017-08-15T08:59:27Z</time>
      </trkpt>
      <trkpt lat="45.87486" lon="4.83157">
        <ele>192</ele>
        <time>2017-08-15T08:59:28Z</time>
      </trkpt>
      <trkpt lat="45.8749" lon="4.83164">
        <ele>192</ele>
        <time>2017-08-15T08:59:29Z</time>
      </trkpt>
      <trkpt lat="45.87496" lon="4.8317">
        <ele>189</ele>
        <time>2017-08-15T08:59:30Z</time>
      </trkpt>
      <trkpt lat="45.87504" lon="4.83169">
        <ele>189</ele>
        <time>2017-08-15T08:59:31Z</time>
      </trkpt>
      <trkpt lat="45.87512" lon="4.83168">
        <ele>187</ele>
        <time>2017-08-15T08:59:32Z</time>
      </trkpt>
      <trkpt lat="45.8752" lon="4.83166">
        <ele>190</ele>
        <time>2017-08-15T08:59:33Z</time>
      </trkpt>
      <trkpt lat="45.87528" lon="4.83167">
        <ele>185</ele>
        <time>2017-08-15T08:59:34Z</time>
      </trkpt>
      <trkpt lat="45.87535" lon="4.8317">
        <ele>184</ele>
        <time>2017-08-15T08:59:35Z</time>
      </trkpt>
      <trkpt lat="45.87542" lon="4.83176">
        <ele>184</ele>
        <time>2017-08-15T08:59:36Z</time>
      </trkpt>
      <trkpt lat="45.87548" lon="4.83183">
        <ele>183</ele>
        <time>2017-08-15T08:59:37Z</time>
      </trkpt>
      <trkpt lat="45.87553" lon="4.83194">
        <ele>183</ele>
        <time>2017-08-15T08:59:38Z</time>
      </trkpt>
      <trkpt lat="45.87558" lon="4.83205">
        <ele>182</ele>
        <time>2017-08-15T08:59:39Z</time>
      </trkpt>
      <trkpt lat="45.87563" lon="4.83214">
        <ele>182</ele>
        <time>2017-08-15T08:59:40Z</time>
      </trkpt>
      <trkpt lat="45.87567" lon="4.83223">
        <ele>181</ele>
        <time>2017-08-15T08:59:41Z</time>
      </trkpt>
      <trkpt lat="45.87569" lon="4.83231">
        <ele>181</ele>
        <time>2017-08-15T08:59:42Z</time>
      </trkpt>
      <trkpt lat="45.87568" lon="4.83241">
        <ele>180</ele>
        <time>2017-08-15T08:59:43Z</time>
      </trkpt>
      <trkpt lat="45.87563" lon="4.83247">
        <ele>180</ele>
        <time>2017-08-15T08:59:44Z</time>
      </trkpt>
      <trkpt lat="45.87558" lon="4.83251">
        <ele>178</ele>
        <time>2017-08-15T08:59:45Z</time>
      </trkpt>
      <trkpt lat="45.87552" lon="4.83255">
        <ele>178</ele>
        <time>2017-08-15T08:59:46Z</time>
      </trkpt>
      <trkpt lat="45.87547" lon="4.8326">
        <ele>178</ele>
        <time>2017-08-15T08:59:47Z</time>
      </trkpt>
      <trkpt lat="45.87542" lon="4.83267">
        <ele>178</ele>
        <time>2017-08-15T08:59:48Z</time>
      </trkpt>
      <trkpt lat="45.87538" lon="4.83275">
        <ele>178</ele>
        <time>2017-08-15T08:59:49Z</time>
      </trkpt>
      <trkpt lat="45.87535" lon="4.83284">
        <ele>178</ele>
        <time>2017-08-15T08:59:50Z</time>
      </trkpt>
      <trkpt lat="45.87536" lon="4.83295">
        <ele>177</ele>
        <time>2017-08-15T08:59:51Z</time>
      </trkpt>
      <trkpt lat="45.87539" lon="4.83305">
        <ele>177</ele>
        <time>2017-08-15T08:59:52Z</time>
      </trkpt>
      <trkpt lat="45.87543" lon="4.83314">
        <ele>177</ele>
        <time>2017-08-15T08:59:53Z</time>
      </trkpt>
      <trkpt lat="45.87548" lon="4.83324">
        <ele>177</ele>
        <time>2017-08-15T08:59:54Z</time>
      </trkpt>
      <trkpt lat="45.87554" lon="4.83333">
        <ele>177</ele>
        <time>2017-08-15T08:59:55Z</time>
      </trkpt>
      <trkpt lat="45.8756" lon="4.83343">
        <ele>176</ele>
        <time>2017-08-15T08:59:56Z</time>
      </trkpt>
      <trkpt lat="45.87566" lon="4.83352">
        <ele>175</ele>
        <time>2017-08-15T08:59:57Z</time>
      </trkpt>
      <trkpt lat="45.87573" lon="4.83361">
        <ele>175</ele>
        <time>2017-08-15T08:59:58Z</time>
      </trkpt>
      <trkpt lat="45.8758" lon="4.8337">
        <ele>175</ele>
        <time>2017-08-15T08:59:59Z</time>
      </trkpt>
      <trkpt lat="45.87586" lon="4.83378">
        <ele>174</ele>
        <time>2017-08-15T09:00:00Z</time>
      </trkpt>
      <trkpt lat="45.87594" lon="4.83386">
        <ele>174</ele>
        <time>2017-08-15T09:00:01Z</time>
      </trkpt>
      <trkpt lat="45.87601" lon="4.83394">
        <ele>174</ele>
        <time>2017-08-15T09:00:02Z</time>
      </trkpt>
      <trkpt lat="45.87608" lon="4.83401">
        <ele>174</ele>
        <time>2017-08-15T09:00:03Z</time>
      </trkpt>
      <trkpt lat="45.87616" lon="4.83408">
        <ele>174</ele>
        <time>2017-08-15T09:00:04Z</time>
      </trkpt>
      <trkpt lat="45.87623" lon="4.83415">
        <ele>174</ele>
        <time>2017-08-15T09:00:05Z</time>
      </trkpt>
      <trkpt lat="45.8763" lon="4.83422">
        <ele>172</ele>
        <time>2017-08-15T09:00:06Z</time>
      </trkpt>
      <trkpt lat="45.87637" lon="4.83429">
        <ele>172</ele>
        <time>2017-08-15T09:00:07Z</time>
      </trkpt>
      <trkpt lat="45.87643" lon="4.83438">
        <ele>172</ele>
        <time>2017-08-15T09:00:08Z</time>
      </trkpt>
      <trkpt lat="45.87649" lon="4.83446">
        <ele>172</ele>
        <time>2017-08-15T09:00:09Z</time>
      </trkpt>
      <trkpt lat="45.87655" lon="4.83454">
        <ele>172</ele>
        <time>2017-08-15T09:00:10Z</time>
      </trkpt>
      <trkpt lat="45.8766" lon="4.83462">
        <ele>172</ele>
        <time>2017-08-15T09:00:11Z</time>
      </trkpt>
      <trkpt lat="45.87663" lon="4.83472">
        <ele>171</ele>
        <time>2017-08-15T09:00:12Z</time>
      </trkpt>
      <trkpt lat="45.87666" lon="4.83482">
        <ele>171</ele>
        <time>2017-08-15T09:00:13Z</time>
      </trkpt>
      <trkpt lat="45.87667" lon="4.83492">
        <ele>171</ele>
        <time>2017-08-15T09:00:14Z</time>
      </trkpt>
      <trkpt lat="45.87669" lon="4.83502">
        <ele>171</ele>
        <time>2017-08-15T09:00:15Z</time>
      </trkpt>
      <trkpt lat="45.8767" lon="4.8351">
        <ele>170</ele>
        <time>2017-08-15T09:00:16Z</time>
      </trkpt>
      <trkpt lat="45.87671" lon="4.83516">
        <ele>170</ele>
        <time>2017-08-15T09:00:17Z</time>
      </trkpt>
      <trkpt lat="45.87673" lon="4.83525">
        <ele>169</ele>
        <time>2017-08-15T09:00:19Z</time>
      </trkpt>
      <trkpt lat="45.87673" lon="4.8353">
        <ele>169</ele>
        <time>2017-08-15T09:00:20Z</time>
      </trkpt>
      <trkpt lat="45.87672" lon="4.83541">
        <ele>168</ele>
        <time>2017-08-15T09:00:22Z</time>
      </trkpt>
      <trkpt lat="45.87673" lon="4.83548">
        <ele>168</ele>
        <time>2017-08-15T09:00:23Z</time>
      </trkpt>
      <trkpt lat="45.87674" lon="4.83554">
        <ele>168</ele>
        <time>2017-08-15T09:00:24Z</time>
      </trkpt>
      <trkpt lat="45.87676" lon="4.83561">
        <ele>167</ele>
        <time>2017-08-15T09:00:25Z</time>
      </trkpt>
      <trkpt lat="45.87676" lon="4.83569">
        <ele>167</ele>
        <time>2017-08-15T09:00:26Z</time>
      </trkpt>
      <trkpt lat="45.87677" lon="4.83576">
        <ele>166</ele>
        <time>2017-08-15T09:00:27Z</time>
      </trkpt>
      <trkpt lat="45.87678" lon="4.83584">
        <ele>165</ele>
        <time>2017-08-15T09:00:28Z</time>
      </trkpt>
      <trkpt lat="45.87678" lon="4.83592">
        <ele>165</ele>
        <time>2017-08-15T09:00:29Z</time>
      </trkpt>
      <trkpt lat="45.87679" lon="4.83599">
        <ele>165</ele>
        <time>2017-08-15T09:00:30Z</time>
      </trkpt>
      <trkpt lat="45.87679" lon="4.83607">
        <ele>165</ele>
        <time>2017-08-15T09:00:31Z</time>
      </trkpt>
      <trkpt lat="45.87679" lon="4.83614">
        <ele>165</ele>
        <time>2017-08-15T09:00:32Z</time>
      </trkpt>
      <trkpt lat="45.8768" lon="4.83621">
        <ele>165</ele>
        <time>2017-08-15T09:00:33Z</time>
      </trkpt>
      <trkpt lat="45.8768" lon="4.83629">
        <ele>165</ele>
        <time>2017-08-15T09:00:34Z</time>
      </trkpt>
      <trkpt lat="45.87681" lon="4.83635">
        <ele>165</ele>
        <time>2017-08-15T09:00:35Z</time>
      </trkpt>
      <trkpt lat="45.87682" lon="4.83642">
        <ele>165</ele>
        <time>2017-08-15T09:00:36Z</time>
      </trkpt>
      <trkpt lat="45.87682" lon="4.83649">
        <ele>165</ele>
        <time>2017-08-15T09:00:37Z</time>
      </trkpt>
      <trkpt lat="45.87683" lon="4.83656">
        <ele>165</ele>
        <time>2017-08-15T09:00:38Z</time>
      </trkpt>
      <trkpt lat="45.87684" lon="4.83662">
        <ele>165</ele>
        <time>2017-08-15T09:00:39Z</time>
      </trkpt>
      <trkpt lat="45.87684" lon="4.83674">
        <ele>165</ele>
        <time>2017-08-15T09:00:41Z</time>
      </trkpt>
      <trkpt lat="45.87686" lon="4.83681">
        <ele>165</ele>
        <time>2017-08-15T09:00:42Z</time>
      </trkpt>
      <trkpt lat="45.87686" lon="4.83693">
        <ele>165</ele>
        <time>2017-08-15T09:00:44Z</time>
      </trkpt>
      <trkpt lat="45.87686" lon="4.837">
        <ele>165</ele>
        <time>2017-08-15T09:00:45Z</time>
      </trkpt>
      <trkpt lat="45.87687" lon="4.83706">
        <ele>165</ele>
        <time>2017-08-15T09:00:46Z</time>
      </trkpt>
      <trkpt lat="45.87688" lon="4.83713">
        <ele>165</ele>
        <time>2017-08-15T09:00:47Z</time>
      </trkpt>
      <trkpt lat="45.87689" lon="4.8372">
        <ele>165</ele>
        <time>2017-08-15T09:00:48Z</time>
      </trkpt>
      <trkpt lat="45.8769" lon="4.83727">
        <ele>165</ele>
        <time>2017-08-15T09:00:49Z</time>
      </trkpt>
      <trkpt lat="45.8769" lon="4.83733">
        <ele>165</ele>
        <time>2017-08-15T09:00:50Z</time>
      </trkpt>
      <trkpt lat="45.8769" lon="4.8374">
        <ele>165</ele>
        <time>2017-08-15T09:00:51Z</time>
      </trkpt>
      <trkpt lat="45.8769" lon="4.83747">
        <ele>165</ele>
        <time>2017-08-15T09:00:52Z</time>
      </trkpt>
      <trkpt lat="45.8769" lon="4.83754">
        <ele>167</ele>
        <time>2017-08-15T09:00:53Z</time>
      </trkpt>
      <trkpt lat="45.8769" lon="4.83761">
        <ele>167</ele>
        <time>2017-08-15T09:00:54Z</time>
      </trkpt>
      <trkpt lat="45.87691" lon="4.8377">
        <ele>167</ele>
        <time>2017-08-15T09:00:55Z</time>
      </trkpt>
      <trkpt lat="45.87692" lon="4.83778">
        <ele>168</ele>
        <time>2017-08-15T09:00:56Z</time>
      </trkpt>
      <trkpt lat="45.87693" lon="4.83786">
        <ele>168</ele>
        <time>2017-08-15T09:00:57Z</time>
      </trkpt>
      <trkpt lat="45.87694" lon="4.83795">
        <ele>168</ele>
        <time>2017-08-15T09:00:58Z</time>
      </trkpt>
      <trkpt lat="45.87695" lon="4.83803">
        <ele>169</ele>
        <time>2017-08-15T09:00:59Z</time>
      </trkpt>
      <trkpt lat="45.87695" lon="4.83811">
        <ele>169</ele>
        <time>2017-08-15T09:01:00Z</time>
      </trkpt>
      <trkpt lat="45.87695" lon="4.83818">
        <ele>169</ele>
        <time>2017-08-15T09:01:01Z</time>
      </trkpt>
      <trkpt lat="45.87694" lon="4.83824">
        <ele>170</ele>
        <time>2017-08-15T09:01:02Z</time>
      </trkpt>
      <trkpt lat="45.87694" lon="4.83831">
        <ele>170</ele>
        <time>2017-08-15T09:01:03Z</time>
      </trkpt>
      <trkpt lat="45.87695" lon="4.83838">
        <ele>172</ele>
        <time>2017-08-15T09:01:04Z</time>
      </trkpt>
      <trkpt lat="45.87698" lon="4.83845">
        <ele>172</ele>
        <time>2017-08-15T09:01:05Z</time>
      </trkpt>
      <trkpt lat="45.87702" lon="4.8385">
        <ele>172</ele>
        <time>2017-08-15T09:01:06Z</time>
      </trkpt>
      <trkpt lat="45.87706" lon="4.83853">
        <ele>172</ele>
        <time>2017-08-15T09:01:07Z</time>
      </trkpt>
      <trkpt lat="45.87712" lon="4.83855">
        <ele>172</ele>
        <time>2017-08-15T09:01:08Z</time>
      </trkpt>
      <trkpt lat="45.87717" lon="4.83855">
        <ele>172</ele>
        <time>2017-08-15T09:01:09Z</time>
      </trkpt>
      <trkpt lat="45.87722" lon="4.83855">
        <ele>172</ele>
        <time>2017-08-15T09:01:10Z</time>
      </trkpt>
      <trkpt lat="45.87727" lon="4.83853">
        <ele>172</ele>
        <time>2017-08-15T09:01:11Z</time>
      </trkpt>
      <trkpt lat="45.87732" lon="4.83852">
        <ele>172</ele>
        <time>2017-08-15T09:01:12Z</time>
      </trkpt>
      <trkpt lat="45.87738" lon="4.83851">
        <ele>172</ele>
        <time>2017-08-15T09:01:13Z</time>
      </trkpt>
      <trkpt lat="45.87744" lon="4.8385">
        <ele>172</ele>
        <time>2017-08-15T09:01:14Z</time>
      </trkpt>
      <trkpt lat="45.87749" lon="4.83848">
        <ele>172</ele>
        <time>2017-08-15T09:01:15Z</time>
      </trkpt>
      <trkpt lat="45.87753" lon="4.83846">
        <ele>171</ele>
        <time>2017-08-15T09:01:16Z</time>
      </trkpt>
      <trkpt lat="45.87758" lon="4.83843">
        <ele>171</ele>
        <time>2017-08-15T09:01:17Z</time>
      </trkpt>
      <trkpt lat="45.87763" lon="4.83841">
        <ele>171</ele>
        <time>2017-08-15T09:01:18Z</time>
      </trkpt>
      <trkpt lat="45.87768" lon="4.83838">
        <ele>172</ele>
        <time>2017-08-15T09:01:19Z</time>
      </trkpt>
      <trkpt lat="45.87773" lon="4.83835">
        <ele>172</ele>
        <time>2017-08-15T09:01:20Z</time>
      </trkpt>
      <trkpt lat="45.87778" lon="4.8383">
        <ele>170</ele>
        <time>2017-08-15T09:01:21Z</time>
      </trkpt>
      <trkpt lat="45.87782" lon="4.83826">
        <ele>170</ele>
        <time>2017-08-15T09:01:22Z</time>
      </trkpt>
      <trkpt lat="45.87786" lon="4.83822">
        <ele>170</ele>
        <time>2017-08-15T09:01:23Z</time>
      </trkpt>
      <trkpt lat="45.8779" lon="4.83818">
        <ele>169</ele>
        <time>2017-08-15T09:01:24Z</time>
      </trkpt>
      <trkpt lat="45.87794" lon="4.83814">
        <ele>169</ele>
        <time>2017-08-15T09:01:25Z</time>
      </trkpt>
      <trkpt lat="45.87798" lon="4.8381">
        <ele>169</ele>
        <time>2017-08-15T09:01:26Z</time>
      </trkpt>
      <trkpt lat="45.87803" lon="4.83804">
        <ele>169</ele>
        <time>2017-08-15T09:01:27Z</time>
      </trkpt>
      <trkpt lat="45.87807" lon="4.83799">
        <ele>169</ele>
        <time>2017-08-15T09:01:28Z</time>
      </trkpt>
      <trkpt lat="45.87812" lon="4.83794">
        <ele>169</ele>
        <time>2017-08-15T09:01:29Z</time>
      </trkpt>
      <trkpt lat="45.87817" lon="4.8379">
        <ele>169</ele>
        <time>2017-08-15T09:01:30Z</time>
      </trkpt>
      <trkpt lat="45.87823" lon="4.83786">
        <ele>168</ele>
        <time>2017-08-15T09:01:31Z</time>
      </trkpt>
      <trkpt lat="45.87828" lon="4.83781">
        <ele>168</ele>
        <time>2017-08-15T09:01:32Z</time>
      </trkpt>
      <trkpt lat="45.87833" lon="4.83776">
        <ele>168</ele>
        <time>2017-08-15T09:01:33Z</time>
      </trkpt>
      <trkpt lat="45.87838" lon="4.83771">
        <ele>169</ele>
        <time>2017-08-15T09:01:34Z</time>
      </trkpt>
      <trkpt lat="45.87843" lon="4.83766">
        <ele>168</ele>
        <time>2017-08-15T09:01:35Z</time>
      </trkpt>
      <trkpt lat="45.87848" lon="4.83761">
        <ele>168</ele>
        <time>2017-08-15T09:01:36Z</time>
      </trkpt>
      <trkpt lat="45.87853" lon="4.83757">
        <ele>169</ele>
        <time>2017-08-15T09:01:37Z</time>
      </trkpt>
      <trkpt lat="45.87858" lon="4.83752">
        <ele>169</ele>
        <time>2017-08-15T09:01:38Z</time>
      </trkpt>
      <trkpt lat="45.87862" lon="4.83747">
        <ele>168</ele>
        <time>2017-08-15T09:01:39Z</time>
      </trkpt>
      <trkpt lat="45.87867" lon="4.83743">
        <ele>168</ele>
        <time>2017-08-15T09:01:40Z</time>
      </trkpt>
      <trkpt lat="45.87871" lon="4.83738">
        <ele>168</ele>
        <time>2017-08-15T09:01:41Z</time>
      </trkpt>
      <trkpt lat="45.87876" lon="4.83734">
        <ele>169</ele>
        <time>2017-08-15T09:01:42Z</time>
      </trkpt>
      <trkpt lat="45.8788" lon="4.8373">
        <ele>169</ele>
        <time>2017-08-15T09:01:43Z</time>
      </trkpt>
      <trkpt lat="45.87885" lon="4.83727">
        <ele>169</ele>
        <time>2017-08-15T09:01:44Z</time>
      </trkpt>
      <trkpt lat="45.87891" lon="4.83721">
        <ele>169</ele>
        <time>2017-08-15T09:01:45Z</time>
      </trkpt>
      <trkpt lat="45.87897" lon="4.83716">
        <ele>169</ele>
        <time>2017-08-15T09:01:46Z</time>
      </trkpt>
      <trkpt lat="45.87902" lon="4.83711">
        <ele>170</ele>
        <time>2017-08-15T09:01:47Z</time>
      </trkpt>
      <trkpt lat="45.87908" lon="4.83705">
        <ele>170</ele>
        <time>2017-08-15T09:01:48Z</time>
      </trkpt>
      <trkpt lat="45.87914" lon="4.837">
        <ele>170</ele>
        <time>2017-08-15T09:01:49Z</time>
      </trkpt>
      <trkpt lat="45.8792" lon="4.83694">
        <ele>172</ele>
        <time>2017-08-15T09:01:50Z</time>
      </trkpt>
      <trkpt lat="45.87926" lon="4.83689">
        <ele>172</ele>
        <time>2017-08-15T09:01:51Z</time>
      </trkpt>
      <trkpt lat="45.87931" lon="4.83683">
        <ele>171</ele>
        <time>2017-08-15T09:01:52Z</time>
      </trkpt>
      <trkpt lat="45.87936" lon="4.83678">
        <ele>171</ele>
        <time>2017-08-15T09:01:53Z</time>
      </trkpt>
      <trkpt lat="45.87942" lon="4.83672">
        <ele>171</ele>
        <time>2017-08-15T09:01:54Z</time>
      </trkpt>
      <trkpt lat="45.87948" lon="4.83667">
        <ele>171</ele>
        <time>2017-08-15T09:01:55Z</time>
      </trkpt>
      <trkpt lat="45.87952" lon="4.83662">
        <ele>171</ele>
        <time>2017-08-15T09:01:56Z</time>
      </trkpt>
      <trkpt lat="45.87957" lon="4.83657">
        <ele>171</ele>
        <time>2017-08-15T09:01:57Z</time>
      </trkpt>
      <trkpt lat="45.87962" lon="4.83652">
        <ele>171</ele>
        <time>2017-08-15T09:01:58Z</time>
      </trkpt>
      <trkpt lat="45.87967" lon="4.83647">
        <ele>171</ele>
        <time>2017-08-15T09:01:59Z</time>
      </trkpt>
      <trkpt lat="45.87972" lon="4.83643">
        <ele>171</ele>
        <time>2017-08-15T09:02:00Z</time>
      </trkpt>
      <trkpt lat="45.87976" lon="4.83639">
        <ele>171</ele>
        <time>2017-08-15T09:02:01Z</time>
      </trkpt>
      <trkpt lat="45.8798" lon="4.83634">
        <ele>171</ele>
        <time>2017-08-15T09:02:02Z</time>
      </trkpt>
      <trkpt lat="45.87985" lon="4.8363">
        <ele>171</ele>
        <time>2017-08-15T09:02:03Z</time>
      </trkpt>
      <trkpt lat="45.87989" lon="4.83625">
        <ele>171</ele>
        <time>2017-08-15T09:02:04Z</time>
      </trkpt>
      <trkpt lat="45.87994" lon="4.8362">
        <ele>171</ele>
        <time>2017-08-15T09:02:05Z</time>
      </trkpt>
      <trkpt lat="45.87998" lon="4.83615">
        <ele>171</ele>
        <time>2017-08-15T09:02:06Z</time>
      </trkpt>
      <trkpt lat="45.88003" lon="4.8361">
        <ele>172</ele>
        <time>2017-08-15T09:02:07Z</time>
      </trkpt>
      <trkpt lat="45.88008" lon="4.83605">
        <ele>172</ele>
        <time>2017-08-15T09:02:08Z</time>
      </trkpt>
      <trkpt lat="45.88013" lon="4.836">
        <ele>172</ele>
        <time>2017-08-15T09:02:09Z</time>
      </trkpt>
      <trkpt lat="45.88017" lon="4.83594">
        <ele>172</ele>
        <time>2017-08-15T09:02:10Z</time>
      </trkpt>
      <trkpt lat="45.88022" lon="4.8359">
        <ele>172</ele>
        <time>2017-08-15T09:02:11Z</time>
      </trkpt>
      <trkpt lat="45.88026" lon="4.83585">
        <ele>172</ele>
        <time>2017-08-15T09:02:12Z</time>
      </trkpt>
      <trkpt lat="45.8803" lon="4.8358">
        <ele>172</ele>
        <time>2017-08-15T09:02:13Z</time>
      </trkpt>
      <trkpt lat="45.88034" lon="4.83575">
        <ele>172</ele>
        <time>2017-08-15T09:02:14Z</time>
      </trkpt>
      <trkpt lat="45.88038" lon="4.83572">
        <ele>172</ele>
        <time>2017-08-15T09:02:15Z</time>
      </trkpt>
      <trkpt lat="45.8804" lon="4.83565">
        <ele>172</ele>
        <time>2017-08-15T09:02:16Z</time>
      </trkpt>
      <trkpt lat="45.88044" lon="4.83561">
        <ele>172</ele>
        <time>2017-08-15T09:02:17Z</time>
      </trkpt>
      <trkpt lat="45.8805" lon="4.83555">
        <ele>172</ele>
        <time>2017-08-15T09:02:18Z</time>
      </trkpt>
      <trkpt lat="45.88054" lon="4.83549">
        <ele>173</ele>
        <time>2017-08-15T09:02:19Z</time>
      </trkpt>
      <trkpt lat="45.88058" lon="4.83544">
        <ele>173</ele>
        <time>2017-08-15T09:02:20Z</time>
      </trkpt>
      <trkpt lat="45.88062" lon="4.83536">
        <ele>173</ele>
        <time>2017-08-15T09:02:21Z</time>
      </trkpt>
      <trkpt lat="45.88067" lon="4.8353">
        <ele>173</ele>
        <time>2017-08-15T09:02:22Z</time>
      </trkpt>
      <trkpt lat="45.88071" lon="4.83525">
        <ele>173</ele>
        <time>2017-08-15T09:02:23Z</time>
      </trkpt>
      <trkpt lat="45.88077" lon="4.8352">
        <ele>173</ele>
        <time>2017-08-15T09:02:24Z</time>
      </trkpt>
      <trkpt lat="45.88082" lon="4.83516">
        <ele>173</ele>
        <time>2017-08-15T09:02:25Z</time>
      </trkpt>
      <trkpt lat="45.88086" lon="4.83511">
        <ele>173</ele>
        <time>2017-08-15T09:02:26Z</time>
      </trkpt>
      <trkpt lat="45.88091" lon="4.83508">
        <ele>173</ele>
        <time>2017-08-15T09:02:27Z</time>
      </trkpt>
      <trkpt lat="45.88095" lon="4.83504">
        <ele>173</ele>
        <time>2017-08-15T09:02:28Z</time>
      </trkpt>
      <trkpt lat="45.881" lon="4.83501">
        <ele>173</ele>
        <time>2017-08-15T09:02:29Z</time>
      </trkpt>
      <trkpt lat="45.88104" lon="4.83498">
        <ele>172</ele>
        <time>2017-08-15T09:02:30Z</time>
      </trkpt>
      <trkpt lat="45.88108" lon="4.83494">
        <ele>172</ele>
        <time>2017-08-15T09:02:31Z</time>
      </trkpt>
      <trkpt lat="45.88113" lon="4.83491">
        <ele>172</ele>
        <time>2017-08-15T09:02:32Z</time>
      </trkpt>
      <trkpt lat="45.88118" lon="4.83488">
        <ele>172</ele>
        <time>2017-08-15T09:02:33Z</time>
      </trkpt>
      <trkpt lat="45.88123" lon="4.83484">
        <ele>172</ele>
        <time>2017-08-15T09:02:34Z</time>
      </trkpt>
      <trkpt lat="45.88129" lon="4.8348">
        <ele>172</ele>
        <time>2017-08-15T09:02:35Z</time>
      </trkpt>
      <trkpt lat="45.88135" lon="4.83475">
        <ele>172</ele>
        <time>2017-08-15T09:02:36Z</time>
      </trkpt>
      <trkpt lat="45.88141" lon="4.83471">
        <ele>172</ele>
        <time>2017-08-15T09:02:37Z</time>
      </trkpt>
      <trkpt lat="45.88146" lon="4.83467">
        <ele>172</ele>
        <time>2017-08-15T09:02:38Z</time>
      </trkpt>
      <trkpt lat="45.88151" lon="4.83464">
        <ele>171</ele>
        <time>2017-08-15T09:02:39Z</time>
      </trkpt>
      <trkpt lat="45.88156" lon="4.8346">
        <ele>171</ele>
        <time>2017-08-15T09:02:40Z</time>
      </trkpt>
      <trkpt lat="45.88161" lon="4.83457">
        <ele>171</ele>
        <time>2017-08-15T09:02:41Z</time>
      </trkpt>
      <trkpt lat="45.88166" lon="4.83454">
        <ele>171</ele>
        <time>2017-08-15T09:02:42Z</time>
      </trkpt>
      <trkpt lat="45.8817" lon="4.83452">
        <ele>171</ele>
        <time>2017-08-15T09:02:43Z</time>
      </trkpt>
      <trkpt lat="45.88175" lon="4.83449">
        <ele>171</ele>
        <time>2017-08-15T09:02:44Z</time>
      </trkpt>
      <trkpt lat="45.8818" lon="4.83447">
        <ele>171</ele>
        <time>2017-08-15T09:02:45Z</time>
      </trkpt>
      <trkpt lat="45.88185" lon="4.83444">
        <ele>171</ele>
        <time>2017-08-15T09:02:46Z</time>
      </trkpt>
      <trkpt lat="45.8819" lon="4.8344">
        <ele>171</ele>
        <time>2017-08-15T09:02:47Z</time>
      </trkpt>
      <trkpt lat="45.88195" lon="4.83436">
        <ele>171</ele>
        <time>2017-08-15T09:02:48Z</time>
      </trkpt>
      <trkpt lat="45.88201" lon="4.83434">
        <ele>171</ele>
        <time>2017-08-15T09:02:49Z</time>
      </trkpt>
      <trkpt lat="45.88206" lon="4.83433">
        <ele>172</ele>
        <time>2017-08-15T09:02:50Z</time>
      </trkpt>
      <trkpt lat="45.88212" lon="4.83431">
        <ele>172</ele>
        <time>2017-08-15T09:02:51Z</time>
      </trkpt>
      <trkpt lat="45.88216" lon="4.83429">
        <ele>172</ele>
        <time>2017-08-15T09:02:52Z</time>
      </trkpt>
      <trkpt lat="45.88221" lon="4.83428">
        <ele>172</ele>
        <time>2017-08-15T09:02:53Z</time>
      </trkpt>
      <trkpt lat="45.88227" lon="4.83427">
        <ele>172</ele>
        <time>2017-08-15T09:02:54Z</time>
      </trkpt>
      <trkpt lat="45.88232" lon="4.83425">
        <ele>172</ele>
        <time>2017-08-15T09:02:55Z</time>
      </trkpt>
      <trkpt lat="45.88237" lon="4.83422">
        <ele>172</ele>
        <time>2017-08-15T09:02:56Z</time>
      </trkpt>
      <trkpt lat="45.88241" lon="4.83421">
        <ele>172</ele>
        <time>2017-08-15T09:02:57Z</time>
      </trkpt>
      <trkpt lat="45.88246" lon="4.83419">
        <ele>172</ele>
        <time>2017-08-15T09:02:58Z</time>
      </trkpt>
      <trkpt lat="45.88251" lon="4.83417">
        <ele>172</ele>
        <time>2017-08-15T09:02:59Z</time>
      </trkpt>
      <trkpt lat="45.88255" lon="4.83415">
        <ele>172</ele>
        <time>2017-08-15T09:03:00Z</time>
      </trkpt>
      <trkpt lat="45.8826" lon="4.83413">
        <ele>172</ele>
        <time>2017-08-15T09:03:01Z</time>
      </trkpt>
      <trkpt lat="45.88264" lon="4.83412">
        <ele>172</ele>
        <time>2017-08-15T09:03:02Z</time>
      </trkpt>
      <trkpt lat="45.88269" lon="4.8341">
        <ele>172</ele>
        <time>2017-08-15T09:03:03Z</time>
      </trkpt>
      <trkpt lat="45.88277" lon="4.83408">
        <ele>172</ele>
        <time>2017-08-15T09:03:05Z</time>
      </trkpt>
      <trkpt lat="45.88282" lon="4.83407">
        <ele>172</ele>
        <time>2017-08-15T09:03:06Z</time>
      </trkpt>
      <trkpt lat="45.88287" lon="4.83405">
        <ele>172</ele>
        <time>2017-08-15T09:03:07Z</time>
      </trkpt>
      <trkpt lat="45.88291" lon="4.83404">
        <ele>172</ele>
        <time>2017-08-15T09:03:08Z</time>
      </trkpt>
      <trkpt lat="45.88296" lon="4.83402">
        <ele>172</ele>
        <time>2017-08-15T09:03:09Z</time>
      </trkpt>
      <trkpt lat="45.88301" lon="4.834">
        <ele>172</ele>
        <time>2017-08-15T09:03:10Z</time>
      </trkpt>
      <trkpt lat="45.88306" lon="4.83398">
        <ele>172</ele>
        <time>2017-08-15T09:03:11Z</time>
      </trkpt>
      <trkpt lat="45.88311" lon="4.83396">
        <ele>172</ele>
        <time>2017-08-15T09:03:12Z</time>
      </trkpt>
      <trkpt lat="45.88317" lon="4.83395">
        <ele>172</ele>
        <time>2017-08-15T09:03:13Z</time>
      </trkpt>
      <trkpt lat="45.88322" lon="4.83394">
        <ele>172</ele>
        <time>2017-08-15T09:03:14Z</time>
      </trkpt>
      <trkpt lat="45.88328" lon="4.83391">
        <ele>172</ele>
        <time>2017-08-15T09:03:15Z</time>
      </trkpt>
      <trkpt lat="45.88334" lon="4.8339">
        <ele>172</ele>
        <time>2017-08-15T09:03:16Z</time>
      </trkpt>
      <trkpt lat="45.8834" lon="4.83388">
        <ele>172</ele>
        <time>2017-08-15T09:03:17Z</time>
      </trkpt>
      <trkpt lat="45.88345" lon="4.83387">
        <ele>172</ele>
        <time>2017-08-15T09:03:18Z</time>
      </trkpt>
      <trkpt lat="45.88351" lon="4.83385">
        <ele>172</ele>
        <time>2017-08-15T09:03:19Z</time>
      </trkpt>
      <trkpt lat="45.88357" lon="4.83383">
        <ele>172</ele>
        <time>2017-08-15T09:03:20Z</time>
      </trkpt>
      <trkpt lat="45.88363" lon="4.8338">
        <ele>172</ele>
        <time>2017-08-15T09:03:21Z</time>
      </trkpt>
      <trkpt lat="45.88368" lon="4.83378">
        <ele>172</ele>
        <time>2017-08-15T09:03:22Z</time>
      </trkpt>
      <trkpt lat="45.88373" lon="4.83376">
        <ele>172</ele>
        <time>2017-08-15T09:03:23Z</time>
      </trkpt>
      <trkpt lat="45.88378" lon="4.83373">
        <ele>172</ele>
        <time>2017-08-15T09:03:24Z</time>
      </trkpt>
      <trkpt lat="45.88383" lon="4.83371">
        <ele>172</ele>
        <time>2017-08-15T09:03:25Z</time>
      </trkpt>
      <trkpt lat="45.88388" lon="4.8337">
        <ele>172</ele>
        <time>2017-08-15T09:03:26Z</time>
      </trkpt>
      <trkpt lat="45.88393" lon="4.83367">
        <ele>172</ele>
        <time>2017-08-15T09:03:27Z</time>
      </trkpt>
      <trkpt lat="45.88398" lon="4.83365">
        <ele>172</ele>
        <time>2017-08-15T09:03:28Z</time>
      </trkpt>
      <trkpt lat="45.88403" lon="4.83363">
        <ele>172</ele>
        <time>2017-08-15T09:03:29Z</time>
      </trkpt>
      <trkpt lat="45.88407" lon="4.83361">
        <ele>172</ele>
        <time>2017-08-15T09:03:30Z</time>
      </trkpt>
      <trkpt lat="45.88413" lon="4.83358">
        <ele>172</ele>
        <time>2017-08-15T09:03:31Z</time>
      </trkpt>
      <trkpt lat="45.88419" lon="4.83356">
        <ele>173</ele>
        <time>2017-08-15T09:03:32Z</time>
      </trkpt>
      <trkpt lat="45.88424" lon="4.83352">
        <ele>172</ele>
        <time>2017-08-15T09:03:33Z</time>
      </trkpt>
      <trkpt lat="45.88429" lon="4.83349">
        <ele>172</ele>
        <time>2017-08-15T09:03:34Z</time>
      </trkpt>
      <trkpt lat="45.88434" lon="4.83346">
        <ele>172</ele>
        <time>2017-08-15T09:03:35Z</time>
      </trkpt>
      <trkpt lat="45.88439" lon="4.83342">
        <ele>172</ele>
        <time>2017-08-15T09:03:36Z</time>
      </trkpt>
      <trkpt lat="45.88444" lon="4.83338">
        <ele>172</ele>
        <time>2017-08-15T09:03:37Z</time>
      </trkpt>
      <trkpt lat="45.8845" lon="4.83335">
        <ele>172</ele>
        <time>2017-08-15T09:03:38Z</time>
      </trkpt>
      <trkpt lat="45.88455" lon="4.83332">
        <ele>172</ele>
        <time>2017-08-15T09:03:39Z</time>
      </trkpt>
      <trkpt lat="45.8846" lon="4.83329">
        <ele>172</ele>
        <time>2017-08-15T09:03:40Z</time>
      </trkpt>
      <trkpt lat="45.88465" lon="4.83326">
        <ele>172</ele>
        <time>2017-08-15T09:03:41Z</time>
      </trkpt>
      <trkpt lat="45.8847" lon="4.83323">
        <ele>172</ele>
        <time>2017-08-15T09:03:42Z</time>
      </trkpt>
      <trkpt lat="45.88475" lon="4.8332">
        <ele>172</ele>
        <time>2017-08-15T09:03:43Z</time>
      </trkpt>
      <trkpt lat="45.8848" lon="4.83318">
        <ele>172</ele>
        <time>2017-08-15T09:03:44Z</time>
      </trkpt>
      <trkpt lat="45.88486" lon="4.83315">
        <ele>172</ele>
        <time>2017-08-15T09:03:45Z</time>
      </trkpt>
      <trkpt lat="45.88491" lon="4.83313">
        <ele>172</ele>
        <time>2017-08-15T09:03:46Z</time>
      </trkpt>
      <trkpt lat="45.88496" lon="4.83309">
        <ele>172</ele>
        <time>2017-08-15T09:03:47Z</time>
      </trkpt>
      <trkpt lat="45.88502" lon="4.83306">
        <ele>172</ele>
        <time>2017-08-15T09:03:48Z</time>
      </trkpt>
      <trkpt lat="45.88507" lon="4.83302">
        <ele>172</ele>
        <time>2017-08-15T09:03:49Z</time>
      </trkpt>
      <trkpt lat="45.88512" lon="4.83298">
        <ele>172</ele>
        <time>2017-08-15T09:03:50Z</time>
      </trkpt>
      <trkpt lat="45.88517" lon="4.83295">
        <ele>172</ele>
        <time>2017-08-15T09:03:51Z</time>
      </trkpt>
      <trkpt lat="45.88522" lon="4.83291">
        <ele>172</ele>
        <time>2017-08-15T09:03:52Z</time>
      </trkpt>
      <trkpt lat="45.88527" lon="4.83288">
        <ele>172</ele>
        <time>2017-08-15T09:03:53Z</time>
      </trkpt>
      <trkpt lat="45.88532" lon="4.83285">
        <ele>172</ele>
        <time>2017-08-15T09:03:54Z</time>
      </trkpt>
      <trkpt lat="45.88536" lon="4.83281">
        <ele>172</ele>
        <time>2017-08-15T09:03:55Z</time>
      </trkpt>
      <trkpt lat="45.88541" lon="4.83278">
        <ele>172</ele>
        <time>2017-08-15T09:03:56Z</time>
      </trkpt>
      <trkpt lat="45.88546" lon="4.83273">
        <ele>172</ele>
        <time>2017-08-15T09:03:57Z</time>
      </trkpt>
      <trkpt lat="45.8855" lon="4.83269">
        <ele>172</ele>
        <time>2017-08-15T09:03:58Z</time>
      </trkpt>
      <trkpt lat="45.88554" lon="4.83264">
        <ele>172</ele>
        <time>2017-08-15T09:03:59Z</time>
      </trkpt>
      <trkpt lat="45.88558" lon="4.83258">
        <ele>172</ele>
        <time>2017-08-15T09:04:00Z</time>
      </trkpt>
      <trkpt lat="45.88562" lon="4.83253">
        <ele>172</ele>
        <time>2017-08-15T09:04:01Z</time>
      </trkpt>
      <trkpt lat="45.88567" lon="4.83247">
        <ele>172</ele>
        <time>2017-08-15T09:04:02Z</time>
      </trkpt>
      <trkpt lat="45.88571" lon="4.83241">
        <ele>172</ele>
        <time>2017-08-15T09:04:03Z</time>
      </trkpt>
      <trkpt lat="45.88575" lon="4.83235">
        <ele>172</ele>
        <time>2017-08-15T09:04:04Z</time>
      </trkpt>
      <trkpt lat="45.88579" lon="4.83229">
        <ele>172</ele>
        <time>2017-08-15T09:04:05Z</time>
      </trkpt>
      <trkpt lat="45.88583" lon="4.83223">
        <ele>172</ele>
        <time>2017-08-15T09:04:06Z</time>
      </trkpt>
      <trkpt lat="45.88587" lon="4.83218">
        <ele>172</ele>
        <time>2017-08-15T09:04:07Z</time>
      </trkpt>
      <trkpt lat="45.8859" lon="4.83212">
        <ele>172</ele>
        <time>2017-08-15T09:04:08Z</time>
      </trkpt>
      <trkpt lat="45.88594" lon="4.83207">
        <ele>172</ele>
        <time>2017-08-15T09:04:09Z</time>
      </trkpt>
      <trkpt lat="45.88598" lon="4.83202">
        <ele>172</ele>
        <time>2017-08-15T09:04:10Z</time>
      </trkpt>
      <trkpt lat="45.88602" lon="4.83198">
        <ele>172</ele>
        <time>2017-08-15T09:04:11Z</time>
      </trkpt>
      <trkpt lat="45.88607" lon="4.83193">
        <ele>172</ele>
        <time>2017-08-15T09:04:12Z</time>
      </trkpt>
      <trkpt lat="45.88612" lon="4.83187">
        <ele>172</ele>
        <time>2017-08-15T09:04:13Z</time>
      </trkpt>
      <trkpt lat="45.88617" lon="4.83182">
        <ele>172</ele>
        <time>2017-08-15T09:04:14Z</time>
      </trkpt>
      <trkpt lat="45.88621" lon="4.83177">
        <ele>172</ele>
        <time>2017-08-15T09:04:15Z</time>
      </trkpt>
      <trkpt lat="45.88626" lon="4.83172">
        <ele>172</ele>
        <time>2017-08-15T09:04:16Z</time>
      </trkpt>
      <trkpt lat="45.8863" lon="4.83167">
        <ele>172</ele>
        <time>2017-08-15T09:04:17Z</time>
      </trkpt>
      <trkpt lat="45.88635" lon="4.83161">
        <ele>173</ele>
        <time>2017-08-15T09:04:18Z</time>
      </trkpt>
      <trkpt lat="45.88638" lon="4.83155">
        <ele>173</ele>
        <time>2017-08-15T09:04:19Z</time>
      </trkpt>
      <trkpt lat="45.88642" lon="4.83151">
        <ele>173</ele>
        <time>2017-08-15T09:04:20Z</time>
      </trkpt>
      <trkpt lat="45.88646" lon="4.83146">
        <ele>173</ele>
        <time>2017-08-15T09:04:21Z</time>
      </trkpt>
      <trkpt lat="45.8865" lon="4.83141">
        <ele>173</ele>
        <time>2017-08-15T09:04:22Z</time>
      </trkpt>
      <trkpt lat="45.88654" lon="4.83136">
        <ele>173</ele>
        <time>2017-08-15T09:04:23Z</time>
      </trkpt>
      <trkpt lat="45.88659" lon="4.83131">
        <ele>173</ele>
        <time>2017-08-15T09:04:24Z</time>
      </trkpt>
      <trkpt lat="45.88664" lon="4.83125">
        <ele>173</ele>
        <time>2017-08-15T09:04:25Z</time>
      </trkpt>
      <trkpt lat="45.88668" lon="4.8312">
        <ele>174</ele>
        <time>2017-08-15T09:04:26Z</time>
      </trkpt>
      <trkpt lat="45.88672" lon="4.83115">
        <ele>174</ele>
        <time>2017-08-15T09:04:27Z</time>
      </trkpt>
      <trkpt lat="45.88675" lon="4.83109">
        <ele>174</ele>
        <time>2017-08-15T09:04:28Z</time>
      </trkpt>
      <trkpt lat="45.88679" lon="4.83104">
        <ele>174</ele>
        <time>2017-08-15T09:04:29Z</time>
      </trkpt>
      <trkpt lat="45.88683" lon="4.831">
        <ele>174</ele>
        <time>2017-08-15T09:04:30Z</time>
      </trkpt>
      <trkpt lat="45.88687" lon="4.83096">
        <ele>174</ele>
        <time>2017-08-15T09:04:31Z</time>
      </trkpt>
      <trkpt lat="45.88691" lon="4.83091">
        <ele>174</ele>
        <time>2017-08-15T09:04:32Z</time>
      </trkpt>
      <trkpt lat="45.88694" lon="4.83087">
        <ele>174</ele>
        <time>2017-08-15T09:04:33Z</time>
      </trkpt>
      <trkpt lat="45.88699" lon="4.83081">
        <ele>174</ele>
        <time>2017-08-15T09:04:34Z</time>
      </trkpt>
      <trkpt lat="45.88703" lon="4.83076">
        <ele>174</ele>
        <time>2017-08-15T09:04:35Z</time>
      </trkpt>
      <trkpt lat="45.88708" lon="4.83072">
        <ele>174</ele>
        <time>2017-08-15T09:04:36Z</time>
      </trkpt>
      <trkpt lat="45.88712" lon="4.83067">
        <ele>174</ele>
        <time>2017-08-15T09:04:37Z</time>
      </trkpt>
      <trkpt lat="45.88716" lon="4.83063">
        <ele>174</ele>
        <time>2017-08-15T09:04:38Z</time>
      </trkpt>
      <trkpt lat="45.8872" lon="4.83059">
        <ele>174</ele>
        <time>2017-08-15T09:04:39Z</time>
      </trkpt>
      <trkpt lat="45.88723" lon="4.83055">
        <ele>174</ele>
        <time>2017-08-15T09:04:40Z</time>
      </trkpt>
      <trkpt lat="45.8873" lon="4.83047">
        <ele>173</ele>
        <time>2017-08-15T09:04:42Z</time>
      </trkpt>
      <trkpt lat="45.88734" lon="4.83042">
        <ele>173</ele>
        <time>2017-08-15T09:04:43Z</time>
      </trkpt>
      <trkpt lat="45.88737" lon="4.83038">
        <ele>173</ele>
        <time>2017-08-15T09:04:44Z</time>
      </trkpt>
      <trkpt lat="45.88741" lon="4.83033">
        <ele>173</ele>
        <time>2017-08-15T09:04:45Z</time>
      </trkpt>
      <trkpt lat="45.88744" lon="4.83028">
        <ele>173</ele>
        <time>2017-08-15T09:04:46Z</time>
      </trkpt>
      <trkpt lat="45.88748" lon="4.83024">
        <ele>173</ele>
        <time>2017-08-15T09:04:47Z</time>
      </trkpt>
      <trkpt lat="45.88752" lon="4.83018">
        <ele>173</ele>
        <time>2017-08-15T09:04:48Z</time>
      </trkpt>
      <trkpt lat="45.88756" lon="4.83012">
        <ele>173</ele>
        <time>2017-08-15T09:04:49Z</time>
      </trkpt>
      <trkpt lat="45.88761" lon="4.83007">
        <ele>173</ele>
        <time>2017-08-15T09:04:50Z</time>
      </trkpt>
      <trkpt lat="45.88765" lon="4.83002">
        <ele>173</ele>
        <time>2017-08-15T09:04:51Z</time>
      </trkpt>
      <trkpt lat="45.88769" lon="4.82997">
        <ele>172</ele>
        <time>2017-08-15T09:04:52Z</time>
      </trkpt>
      <trkpt lat="45.88773" lon="4.82992">
        <ele>172</ele>
        <time>2017-08-15T09:04:53Z</time>
      </trkpt>
      <trkpt lat="45.88777" lon="4.82987">
        <ele>172</ele>
        <time>2017-08-15T09:04:54Z</time>
      </trkpt>
      <trkpt lat="45.88781" lon="4.82983">
        <ele>172</ele>
        <time>2017-08-15T09:04:55Z</time>
      </trkpt>
      <trkpt lat="45.88785" lon="4.82978">
        <ele>172</ele>
        <time>2017-08-15T09:04:56Z</time>
      </trkpt>
      <trkpt lat="45.88789" lon="4.82973">
        <ele>172</ele>
        <time>2017-08-15T09:04:57Z</time>
      </trkpt>
      <trkpt lat="45.88793" lon="4.82968">
        <ele>172</ele>
        <time>2017-08-15T09:04:58Z</time>
      </trkpt>
      <trkpt lat="45.88798" lon="4.82963">
        <ele>172</ele>
        <time>2017-08-15T09:04:59Z</time>
      </trkpt>
      <trkpt lat="45.88802" lon="4.82957">
        <ele>172</ele>
        <time>2017-08-15T09:05:00Z</time>
      </trkpt>
      <trkpt lat="45.88807" lon="4.82951">
        <ele>172</ele>
        <time>2017-08-15T09:05:01Z</time>
      </trkpt>
      <trkpt lat="45.88811" lon="4.82946">
        <ele>172</ele>
        <time>2017-08-15T09:05:02Z</time>
      </trkpt>
      <trkpt lat="45.88816" lon="4.82939">
        <ele>172</ele>
        <time>2017-08-15T09:05:03Z</time>
      </trkpt>
      <trkpt lat="45.8882" lon="4.82933">
        <ele>172</ele>
        <time>2017-08-15T09:05:04Z</time>
      </trkpt>
      <trkpt lat="45.88825" lon="4.82928">
        <ele>172</ele>
        <time>2017-08-15T09:05:05Z</time>
      </trkpt>
      <trkpt lat="45.88829" lon="4.82923">
        <ele>172</ele>
        <time>2017-08-15T09:05:06Z</time>
      </trkpt>
      <trkpt lat="45.88834" lon="4.82918">
        <ele>172</ele>
        <time>2017-08-15T09:05:07Z</time>
      </trkpt>
      <trkpt lat="45.88838" lon="4.82913">
        <ele>172</ele>
        <time>2017-08-15T09:05:08Z</time>
      </trkpt>
      <trkpt lat="45.88842" lon="4.82907">
        <ele>172</ele>
        <time>2017-08-15T09:05:09Z</time>
      </trkpt>
      <trkpt lat="45.88845" lon="4.82902">
        <ele>172</ele>
        <time>2017-08-15T09:05:10Z</time>
      </trkpt>
      <trkpt lat="45.88849" lon="4.82897">
        <ele>172</ele>
        <time>2017-08-15T09:05:11Z</time>
      </trkpt>
      <trkpt lat="45.88854" lon="4.82893">
        <ele>172</ele>
        <time>2017-08-15T09:05:12Z</time>
      </trkpt>
      <trkpt lat="45.88858" lon="4.82888">
        <ele>172</ele>
        <time>2017-08-15T09:05:13Z</time>
      </trkpt>
      <trkpt lat="45.88862" lon="4.82883">
        <ele>172</ele>
        <time>2017-08-15T09:05:14Z</time>
      </trkpt>
      <trkpt lat="45.88866" lon="4.82877">
        <ele>172</ele>
        <time>2017-08-15T09:05:15Z</time>
      </trkpt>
      <trkpt lat="45.88871" lon="4.82872">
        <ele>172</ele>
        <time>2017-08-15T09:05:16Z</time>
      </trkpt>
      <trkpt lat="45.88876" lon="4.82867">
        <ele>172</ele>
        <time>2017-08-15T09:05:17Z</time>
      </trkpt>
      <trkpt lat="45.88881" lon="4.82862">
        <ele>172</ele>
        <time>2017-08-15T09:05:18Z</time>
      </trkpt>
      <trkpt lat="45.88886" lon="4.82856">
        <ele>172</ele>
        <time>2017-08-15T09:05:19Z</time>
      </trkpt>
      <trkpt lat="45.8889" lon="4.8285">
        <ele>172</ele>
        <time>2017-08-15T09:05:20Z</time>
      </trkpt>
      <trkpt lat="45.88895" lon="4.82844">
        <ele>172</ele>
        <time>2017-08-15T09:05:21Z</time>
      </trkpt>
      <trkpt lat="45.889" lon="4.82839">
        <ele>172</ele>
        <time>2017-08-15T09:05:22Z</time>
      </trkpt>
      <trkpt lat="45.88904" lon="4.82834">
        <ele>172</ele>
        <time>2017-08-15T09:05:23Z</time>
      </trkpt>
      <trkpt lat="45.88909" lon="4.82828">
        <ele>172</ele>
        <time>2017-08-15T09:05:24Z</time>
      </trkpt>
      <trkpt lat="45.88913" lon="4.82822">
        <ele>172</ele>
        <time>2017-08-15T09:05:25Z</time>
      </trkpt>
      <trkpt lat="45.88918" lon="4.82816">
        <ele>172</ele>
        <time>2017-08-15T09:05:26Z</time>
      </trkpt>
      <trkpt lat="45.88922" lon="4.82811">
        <ele>172</ele>
        <time>2017-08-15T09:05:27Z</time>
      </trkpt>
      <trkpt lat="45.88926" lon="4.82806">
        <ele>172</ele>
        <time>2017-08-15T09:05:28Z</time>
      </trkpt>
      <trkpt lat="45.8893" lon="4.82801">
        <ele>172</ele>
        <time>2017-08-15T09:05:29Z</time>
      </trkpt>
      <trkpt lat="45.88934" lon="4.82797">
        <ele>172</ele>
        <time>2017-08-15T09:05:30Z</time>
      </trkpt>
      <trkpt lat="45.88938" lon="4.82792">
        <ele>172</ele>
        <time>2017-08-15T09:05:31Z</time>
      </trkpt>
      <trkpt lat="45.88942" lon="4.82787">
        <ele>172</ele>
        <time>2017-08-15T09:05:32Z</time>
      </trkpt>
      <trkpt lat="45.88946" lon="4.82782">
        <ele>172</ele>
        <time>2017-08-15T09:05:33Z</time>
      </trkpt>
      <trkpt lat="45.8895" lon="4.82777">
        <ele>172</ele>
        <time>2017-08-15T09:05:34Z</time>
      </trkpt>
      <trkpt lat="45.88954" lon="4.82773">
        <ele>172</ele>
        <time>2017-08-15T09:05:35Z</time>
      </trkpt>
      <trkpt lat="45.88957" lon="4.82768">
        <ele>172</ele>
        <time>2017-08-15T09:05:36Z</time>
      </trkpt>
      <trkpt lat="45.88961" lon="4.82762">
        <ele>172</ele>
        <time>2017-08-15T09:05:37Z</time>
      </trkpt>
      <trkpt lat="45.88965" lon="4.82757">
        <ele>172</ele>
        <time>2017-08-15T09:05:38Z</time>
      </trkpt>
      <trkpt lat="45.88969" lon="4.82751">
        <ele>172</ele>
        <time>2017-08-15T09:05:39Z</time>
      </trkpt>
      <trkpt lat="45.88974" lon="4.82745">
        <ele>173</ele>
        <time>2017-08-15T09:05:40Z</time>
      </trkpt>
      <trkpt lat="45.88978" lon="4.82739">
        <ele>173</ele>
        <time>2017-08-15T09:05:41Z</time>
      </trkpt>
      <trkpt lat="45.88981" lon="4.82734">
        <ele>173</ele>
        <time>2017-08-15T09:05:42Z</time>
      </trkpt>
      <trkpt lat="45.88984" lon="4.82728">
        <ele>173</ele>
        <time>2017-08-15T09:05:43Z</time>
      </trkpt>
      <trkpt lat="45.88988" lon="4.82723">
        <ele>173</ele>
        <time>2017-08-15T09:05:44Z</time>
      </trkpt>
      <trkpt lat="45.88991" lon="4.82717">
        <ele>173</ele>
        <time>2017-08-15T09:05:45Z</time>
      </trkpt>
      <trkpt lat="45.88994" lon="4.82712">
        <ele>173</ele>
        <time>2017-08-15T09:05:46Z</time>
      </trkpt>
      <trkpt lat="45.88997" lon="4.82706">
        <ele>173</ele>
        <time>2017-08-15T09:05:47Z</time>
      </trkpt>
      <trkpt lat="45.89" lon="4.82701">
        <ele>173</ele>
        <time>2017-08-15T09:05:48Z</time>
      </trkpt>
      <trkpt lat="45.89003" lon="4.82695">
        <ele>173</ele>
        <time>2017-08-15T09:05:49Z</time>
      </trkpt>
      <trkpt lat="45.89006" lon="4.82689">
        <ele>173</ele>
        <time>2017-08-15T09:05:50Z</time>
      </trkpt>
      <trkpt lat="45.89009" lon="4.82684">
        <ele>173</ele>
        <time>2017-08-15T09:05:51Z</time>
      </trkpt>
      <trkpt lat="45.89013" lon="4.82678">
        <ele>173</ele>
        <time>2017-08-15T09:05:52Z</time>
      </trkpt>
      <trkpt lat="45.89016" lon="4.82671">
        <ele>173</ele>
        <time>2017-08-15T09:05:53Z</time>
      </trkpt>
      <trkpt lat="45.89019" lon="4.82665">
        <ele>173</ele>
        <time>2017-08-15T09:05:54Z</time>
      </trkpt>
      <trkpt lat="45.89023" lon="4.82658">
        <ele>173</ele>
        <time>2017-08-15T09:05:55Z</time>
      </trkpt>
      <trkpt lat="45.89025" lon="4.82652">
        <ele>174</ele>
        <time>2017-08-15T09:05:56Z</time>
      </trkpt>
      <trkpt lat="45.89028" lon="4.82645">
        <ele>174</ele>
        <time>2017-08-15T09:05:57Z</time>
      </trkpt>
      <trkpt lat="45.8903" lon="4.82639">
        <ele>174</ele>
        <time>2017-08-15T09:05:58Z</time>
      </trkpt>
      <trkpt lat="45.89033" lon="4.82633">
        <ele>174</ele>
        <time>2017-08-15T09:05:59Z</time>
      </trkpt>
      <trkpt lat="45.89035" lon="4.82627">
        <ele>174</ele>
        <time>2017-08-15T09:06:00Z</time>
      </trkpt>
      <trkpt lat="45.89038" lon="4.82621">
        <ele>174</ele>
        <time>2017-08-15T09:06:01Z</time>
      </trkpt>
      <trkpt lat="45.8904" lon="4.82616">
        <ele>174</ele>
        <time>2017-08-15T09:06:02Z</time>
      </trkpt>
      <trkpt lat="45.89043" lon="4.8261">
        <ele>174</ele>
        <time>2017-08-15T09:06:03Z</time>
      </trkpt>
      <trkpt lat="45.89047" lon="4.82599">
        <ele>174</ele>
        <time>2017-08-15T09:06:05Z</time>
      </trkpt>
      <trkpt lat="45.8905" lon="4.82594">
        <ele>174</ele>
        <time>2017-08-15T09:06:06Z</time>
      </trkpt>
      <trkpt lat="45.89055" lon="4.82585">
        <ele>174</ele>
        <time>2017-08-15T09:06:08Z</time>
      </trkpt>
      <trkpt lat="45.89058" lon="4.82581">
        <ele>174</ele>
        <time>2017-08-15T09:06:09Z</time>
      </trkpt>
      <trkpt lat="45.89064" lon="4.82574">
        <ele>174</ele>
        <time>2017-08-15T09:06:11Z</time>
      </trkpt>
      <trkpt lat="45.89068" lon="4.82573">
        <ele>174</ele>
        <time>2017-08-15T09:06:12Z</time>
      </trkpt>
      <trkpt lat="45.89076" lon="4.82575">
        <ele>174</ele>
        <time>2017-08-15T09:06:14Z</time>
      </trkpt>
      <trkpt lat="45.89079" lon="4.82579">
        <ele>174</ele>
        <time>2017-08-15T09:06:15Z</time>
      </trkpt>
      <trkpt lat="45.89082" lon="4.82585">
        <ele>174</ele>
        <time>2017-08-15T09:06:16Z</time>
      </trkpt>
      <trkpt lat="45.89084" lon="4.8259">
        <ele>174</ele>
        <time>2017-08-15T09:06:17Z</time>
      </trkpt>
      <trkpt lat="45.89087" lon="4.82595">
        <ele>174</ele>
        <time>2017-08-15T09:06:18Z</time>
      </trkpt>
      <trkpt lat="45.89092" lon="4.826">
        <ele>174</ele>
        <time>2017-08-15T09:06:19Z</time>
      </trkpt>
      <trkpt lat="45.89097" lon="4.82603">
        <ele>174</ele>
        <time>2017-08-15T09:06:20Z</time>
      </trkpt>
      <trkpt lat="45.89103" lon="4.82605">
        <ele>174</ele>
        <time>2017-08-15T09:06:21Z</time>
      </trkpt>
      <trkpt lat="45.89109" lon="4.82605">
        <ele>174</ele>
        <time>2017-08-15T09:06:22Z</time>
      </trkpt>
      <trkpt lat="45.89115" lon="4.82604">
        <ele>174</ele>
        <time>2017-08-15T09:06:23Z</time>
      </trkpt>
      <trkpt lat="45.89121" lon="4.82603">
        <ele>174</ele>
        <time>2017-08-15T09:06:24Z</time>
      </trkpt>
      <trkpt lat="45.89127" lon="4.82599">
        <ele>174</ele>
        <time>2017-08-15T09:06:25Z</time>
      </trkpt>
      <trkpt lat="45.89132" lon="4.82593">
        <ele>174</ele>
        <time>2017-08-15T09:06:26Z</time>
      </trkpt>
      <trkpt lat="45.89136" lon="4.82585">
        <ele>174</ele>
        <time>2017-08-15T09:06:27Z</time>
      </trkpt>
      <trkpt lat="45.89139" lon="4.82577">
        <ele>173</ele>
        <time>2017-08-15T09:06:28Z</time>
      </trkpt>
      <trkpt lat="45.89142" lon="4.82568">
        <ele>173</ele>
        <time>2017-08-15T09:06:29Z</time>
      </trkpt>
      <trkpt lat="45.89146" lon="4.8256">
        <ele>173</ele>
        <time>2017-08-15T09:06:30Z</time>
      </trkpt>
      <trkpt lat="45.89149" lon="4.82553">
        <ele>173</ele>
        <time>2017-08-15T09:06:31Z</time>
      </trkpt>
      <trkpt lat="45.89155" lon="4.82547">
        <ele>173</ele>
        <time>2017-08-15T09:06:32Z</time>
      </trkpt>
      <trkpt lat="45.89161" lon="4.82541">
        <ele>173</ele>
        <time>2017-08-15T09:06:33Z</time>
      </trkpt>
      <trkpt lat="45.89167" lon="4.82536">
        <ele>173</ele>
        <time>2017-08-15T09:06:34Z</time>
      </trkpt>
      <trkpt lat="45.89172" lon="4.8253">
        <ele>172</ele>
        <time>2017-08-15T09:06:35Z</time>
      </trkpt>
      <trkpt lat="45.89178" lon="4.82525">
        <ele>172</ele>
        <time>2017-08-15T09:06:36Z</time>
      </trkpt>
      <trkpt lat="45.89183" lon="4.82521">
        <ele>172</ele>
        <time>2017-08-15T09:06:37Z</time>
      </trkpt>
      <trkpt lat="45.89188" lon="4.82516">
        <ele>172</ele>
        <time>2017-08-15T09:06:38Z</time>
      </trkpt>
      <trkpt lat="45.89193" lon="4.8251">
        <ele>172</ele>
        <time>2017-08-15T09:06:39Z</time>
      </trkpt>
      <trkpt lat="45.89198" lon="4.82505">
        <ele>172</ele>
        <time>2017-08-15T09:06:40Z</time>
      </trkpt>
      <trkpt lat="45.89202" lon="4.82499">
        <ele>172</ele>
        <time>2017-08-15T09:06:41Z</time>
      </trkpt>
      <trkpt lat="45.89207" lon="4.82494">
        <ele>172</ele>
        <time>2017-08-15T09:06:42Z</time>
      </trkpt>
      <trkpt lat="45.89212" lon="4.8249">
        <ele>173</ele>
        <time>2017-08-15T09:06:43Z</time>
      </trkpt>
      <trkpt lat="45.89217" lon="4.82484">
        <ele>173</ele>
        <time>2017-08-15T09:06:44Z</time>
      </trkpt>
      <trkpt lat="45.89221" lon="4.8248">
        <ele>173</ele>
        <time>2017-08-15T09:06:45Z</time>
      </trkpt>
      <trkpt lat="45.89226" lon="4.82475">
        <ele>173</ele>
        <time>2017-08-15T09:06:46Z</time>
      </trkpt>
      <trkpt lat="45.89231" lon="4.8247">
        <ele>173</ele>
        <time>2017-08-15T09:06:47Z</time>
      </trkpt>
      <trkpt lat="45.89236" lon="4.82465">
        <ele>173</ele>
        <time>2017-08-15T09:06:48Z</time>
      </trkpt>
      <trkpt lat="45.89241" lon="4.82459">
        <ele>173</ele>
        <time>2017-08-15T09:06:49Z</time>
      </trkpt>
      <trkpt lat="45.89246" lon="4.82453">
        <ele>173</ele>
        <time>2017-08-15T09:06:50Z</time>
      </trkpt>
      <trkpt lat="45.89252" lon="4.82447">
        <ele>173</ele>
        <time>2017-08-15T09:06:51Z</time>
      </trkpt>
      <trkpt lat="45.89257" lon="4.82441">
        <ele>173</ele>
        <time>2017-08-15T09:06:52Z</time>
      </trkpt>
      <trkpt lat="45.89262" lon="4.82435">
        <ele>173</ele>
        <time>2017-08-15T09:06:53Z</time>
      </trkpt>
      <trkpt lat="45.89266" lon="4.8243">
        <ele>173</ele>
        <time>2017-08-15T09:06:54Z</time>
      </trkpt>
      <trkpt lat="45.89271" lon="4.82424">
        <ele>173</ele>
        <time>2017-08-15T09:06:55Z</time>
      </trkpt>
      <trkpt lat="45.89276" lon="4.82419">
        <ele>173</ele>
        <time>2017-08-15T09:06:56Z</time>
      </trkpt>
      <trkpt lat="45.89281" lon="4.82413">
        <ele>173</ele>
        <time>2017-08-15T09:06:57Z</time>
      </trkpt>
      <trkpt lat="45.89285" lon="4.82408">
        <ele>173</ele>
        <time>2017-08-15T09:06:58Z</time>
      </trkpt>
      <trkpt lat="45.8929" lon="4.82402">
        <ele>173</ele>
        <time>2017-08-15T09:06:59Z</time>
      </trkpt>
      <trkpt lat="45.89295" lon="4.82396">
        <ele>173</ele>
        <time>2017-08-15T09:07:00Z</time>
      </trkpt>
      <trkpt lat="45.89299" lon="4.8239">
        <ele>173</ele>
        <time>2017-08-15T09:07:01Z</time>
      </trkpt>
      <trkpt lat="45.89304" lon="4.82385">
        <ele>173</ele>
        <time>2017-08-15T09:07:02Z</time>
      </trkpt>
      <trkpt lat="45.89309" lon="4.8238">
        <ele>173</ele>
        <time>2017-08-15T09:07:03Z</time>
      </trkpt>
      <trkpt lat="45.89313" lon="4.82374">
        <ele>173</ele>
        <time>2017-08-15T09:07:04Z</time>
      </trkpt>
      <trkpt lat="45.89318" lon="4.82368">
        <ele>173</ele>
        <time>2017-08-15T09:07:05Z</time>
      </trkpt>
      <trkpt lat="45.89322" lon="4.82363">
        <ele>173</ele>
        <time>2017-08-15T09:07:06Z</time>
      </trkpt>
      <trkpt lat="45.89327" lon="4.82356">
        <ele>173</ele>
        <time>2017-08-15T09:07:07Z</time>
      </trkpt>
      <trkpt lat="45.89332" lon="4.8235">
        <ele>173</ele>
        <time>2017-08-15T09:07:08Z</time>
      </trkpt>
      <trkpt lat="45.89337" lon="4.82343">
        <ele>172</ele>
        <time>2017-08-15T09:07:09Z</time>
      </trkpt>
      <trkpt lat="45.89341" lon="4.82337">
        <ele>172</ele>
        <time>2017-08-15T09:07:10Z</time>
      </trkpt>
      <trkpt lat="45.89346" lon="4.82331">
        <ele>172</ele>
        <time>2017-08-15T09:07:11Z</time>
      </trkpt>
      <trkpt lat="45.89351" lon="4.82325">
        <ele>172</ele>
        <time>2017-08-15T09:07:12Z</time>
      </trkpt>
      <trkpt lat="45.89355" lon="4.82319">
        <ele>172</ele>
        <time>2017-08-15T09:07:13Z</time>
      </trkpt>
      <trkpt lat="45.89358" lon="4.82313">
        <ele>172</ele>
        <time>2017-08-15T09:07:14Z</time>
      </trkpt>
      <trkpt lat="45.89362" lon="4.82308">
        <ele>172</ele>
        <time>2017-08-15T09:07:15Z</time>
      </trkpt>
      <trkpt lat="45.89366" lon="4.82303">
        <ele>172</ele>
        <time>2017-08-15T09:07:16Z</time>
      </trkpt>
      <trkpt lat="45.8937" lon="4.82297">
        <ele>172</ele>
        <time>2017-08-15T09:07:17Z</time>
      </trkpt>
      <trkpt lat="45.89374" lon="4.82292">
        <ele>172</ele>
        <time>2017-08-15T09:07:18Z</time>
      </trkpt>
      <trkpt lat="45.89379" lon="4.82286">
        <ele>172</ele>
        <time>2017-08-15T09:07:19Z</time>
      </trkpt>
      <trkpt lat="45.89384" lon="4.82281">
        <ele>172</ele>
        <time>2017-08-15T09:07:20Z</time>
      </trkpt>
      <trkpt lat="45.89388" lon="4.82275">
        <ele>172</ele>
        <time>2017-08-15T09:07:21Z</time>
      </trkpt>
      <trkpt lat="45.89393" lon="4.8227">
        <ele>172</ele>
        <time>2017-08-15T09:07:22Z</time>
      </trkpt>
      <trkpt lat="45.89398" lon="4.82263">
        <ele>172</ele>
        <time>2017-08-15T09:07:23Z</time>
      </trkpt>
      <trkpt lat="45.89403" lon="4.82257">
        <ele>171</ele>
        <time>2017-08-15T09:07:24Z</time>
      </trkpt>
      <trkpt lat="45.89408" lon="4.82251">
        <ele>171</ele>
        <time>2017-08-15T09:07:25Z</time>
      </trkpt>
      <trkpt lat="45.89413" lon="4.82244">
        <ele>171</ele>
        <time>2017-08-15T09:07:26Z</time>
      </trkpt>
      <trkpt lat="45.89419" lon="4.82237">
        <ele>171</ele>
        <time>2017-08-15T09:07:27Z</time>
      </trkpt>
      <trkpt lat="45.89424" lon="4.8223">
        <ele>171</ele>
        <time>2017-08-15T09:07:28Z</time>
      </trkpt>
      <trkpt lat="45.89429" lon="4.82223">
        <ele>171</ele>
        <time>2017-08-15T09:07:29Z</time>
      </trkpt>
      <trkpt lat="45.89434" lon="4.82217">
        <ele>171</ele>
        <time>2017-08-15T09:07:30Z</time>
      </trkpt>
      <trkpt lat="45.89439" lon="4.8221">
        <ele>171</ele>
        <time>2017-08-15T09:07:31Z</time>
      </trkpt>
      <trkpt lat="45.89445" lon="4.82204">
        <ele>171</ele>
        <time>2017-08-15T09:07:32Z</time>
      </trkpt>
      <trkpt lat="45.8945" lon="4.82199">
        <ele>171</ele>
        <time>2017-08-15T09:07:33Z</time>
      </trkpt>
      <trkpt lat="45.89456" lon="4.82194">
        <ele>171</ele>
        <time>2017-08-15T09:07:34Z</time>
      </trkpt>
      <trkpt lat="45.89461" lon="4.8219">
        <ele>171</ele>
        <time>2017-08-15T09:07:35Z</time>
      </trkpt>
      <trkpt lat="45.89467" lon="4.82186">
        <ele>171</ele>
        <time>2017-08-15T09:07:36Z</time>
      </trkpt>
      <trkpt lat="45.89472" lon="4.82182">
        <ele>171</ele>
        <time>2017-08-15T09:07:37Z</time>
      </trkpt>
      <trkpt lat="45.89477" lon="4.82177">
        <ele>171</ele>
        <time>2017-08-15T09:07:38Z</time>
      </trkpt>
      <trkpt lat="45.89483" lon="4.82173">
        <ele>171</ele>
        <time>2017-08-15T09:07:39Z</time>
      </trkpt>
      <trkpt lat="45.89487" lon="4.82169">
        <ele>171</ele>
        <time>2017-08-15T09:07:40Z</time>
      </trkpt>
      <trkpt lat="45.89492" lon="4.82164">
        <ele>171</ele>
        <time>2017-08-15T09:07:41Z</time>
      </trkpt>
      <trkpt lat="45.89497" lon="4.8216">
        <ele>171</ele>
        <time>2017-08-15T09:07:42Z</time>
      </trkpt>
      <trkpt lat="45.89502" lon="4.82156">
        <ele>172</ele>
        <time>2017-08-15T09:07:43Z</time>
      </trkpt>
      <trkpt lat="45.89506" lon="4.82152">
        <ele>172</ele>
        <time>2017-08-15T09:07:44Z</time>
      </trkpt>
      <trkpt lat="45.89511" lon="4.82149">
        <ele>172</ele>
        <time>2017-08-15T09:07:45Z</time>
      </trkpt>
      <trkpt lat="45.89515" lon="4.82145">
        <ele>172</ele>
        <time>2017-08-15T09:07:46Z</time>
      </trkpt>
      <trkpt lat="45.8952" lon="4.82142">
        <ele>172</ele>
        <time>2017-08-15T09:07:47Z</time>
      </trkpt>
      <trkpt lat="45.89525" lon="4.8214">
        <ele>172</ele>
        <time>2017-08-15T09:07:48Z</time>
      </trkpt>
      <trkpt lat="45.89531" lon="4.82139">
        <ele>172</ele>
        <time>2017-08-15T09:07:49Z</time>
      </trkpt>
      <trkpt lat="45.89536" lon="4.82139">
        <ele>172</ele>
        <time>2017-08-15T09:07:50Z</time>
      </trkpt>
      <trkpt lat="45.89542" lon="4.82138">
        <ele>173</ele>
        <time>2017-08-15T09:07:51Z</time>
      </trkpt>
      <trkpt lat="45.89547" lon="4.82134">
        <ele>173</ele>
        <time>2017-08-15T09:07:52Z</time>
      </trkpt>
      <trkpt lat="45.89551" lon="4.82126">
        <ele>173</ele>
        <time>2017-08-15T09:07:53Z</time>
      </trkpt>
      <trkpt lat="45.89555" lon="4.82119">
        <ele>173</ele>
        <time>2017-08-15T09:07:54Z</time>
      </trkpt>
      <trkpt lat="45.89558" lon="4.8211">
        <ele>173</ele>
        <time>2017-08-15T09:07:55Z</time>
      </trkpt>
      <trkpt lat="45.89562" lon="4.82101">
        <ele>173</ele>
        <time>2017-08-15T09:07:56Z</time>
      </trkpt>
      <trkpt lat="45.89566" lon="4.82092">
        <ele>173</ele>
        <time>2017-08-15T09:07:57Z</time>
      </trkpt>
      <trkpt lat="45.89571" lon="4.82084">
        <ele>173</ele>
        <time>2017-08-15T09:07:58Z</time>
      </trkpt>
      <trkpt lat="45.89577" lon="4.82079">
        <ele>173</ele>
        <time>2017-08-15T09:07:59Z</time>
      </trkpt>
      <trkpt lat="45.89583" lon="4.82073">
        <ele>173</ele>
        <time>2017-08-15T09:08:00Z</time>
      </trkpt>
      <trkpt lat="45.89589" lon="4.82068">
        <ele>173</ele>
        <time>2017-08-15T09:08:01Z</time>
      </trkpt>
      <trkpt lat="45.89595" lon="4.82062">
        <ele>173</ele>
        <time>2017-08-15T09:08:02Z</time>
      </trkpt>
      <trkpt lat="45.89601" lon="4.82056">
        <ele>173</ele>
        <time>2017-08-15T09:08:03Z</time>
      </trkpt>
      <trkpt lat="45.89606" lon="4.82052">
        <ele>173</ele>
        <time>2017-08-15T09:08:04Z</time>
      </trkpt>
      <trkpt lat="45.89612" lon="4.82047">
        <ele>173</ele>
        <time>2017-08-15T09:08:05Z</time>
      </trkpt>
      <trkpt lat="45.89617" lon="4.82042">
        <ele>173</ele>
        <time>2017-08-15T09:08:06Z</time>
      </trkpt>
      <trkpt lat="45.89622" lon="4.82038">
        <ele>173</ele>
        <time>2017-08-15T09:08:07Z</time>
      </trkpt>
      <trkpt lat="45.89627" lon="4.82034">
        <ele>173</ele>
        <time>2017-08-15T09:08:08Z</time>
      </trkpt>
      <trkpt lat="45.89632" lon="4.82029">
        <ele>173</ele>
        <time>2017-08-15T09:08:09Z</time>
      </trkpt>
      <trkpt lat="45.89637" lon="4.82025">
        <ele>173</ele>
        <time>2017-08-15T09:08:10Z</time>
      </trkpt>
      <trkpt lat="45.89642" lon="4.82019">
        <ele>173</ele>
        <time>2017-08-15T09:08:11Z</time>
      </trkpt>
      <trkpt lat="45.89648" lon="4.82013">
        <ele>173</ele>
        <time>2017-08-15T09:08:12Z</time>
      </trkpt>
      <trkpt lat="45.89654" lon="4.82007">
        <ele>174</ele>
        <time>2017-08-15T09:08:13Z</time>
      </trkpt>
      <trkpt lat="45.8966" lon="4.82002">
        <ele>174</ele>
        <time>2017-08-15T09:08:14Z</time>
      </trkpt>
      <trkpt lat="45.89666" lon="4.81997">
        <ele>174</ele>
        <time>2017-08-15T09:08:15Z</time>
      </trkpt>
      <trkpt lat="45.89672" lon="4.81992">
        <ele>174</ele>
        <time>2017-08-15T09:08:16Z</time>
      </trkpt>
      <trkpt lat="45.89678" lon="4.81987">
        <ele>174</ele>
        <time>2017-08-15T09:08:17Z</time>
      </trkpt>
      <trkpt lat="45.89683" lon="4.81982">
        <ele>173</ele>
        <time>2017-08-15T09:08:18Z</time>
      </trkpt>
      <trkpt lat="45.89689" lon="4.81977">
        <ele>173</ele>
        <time>2017-08-15T09:08:19Z</time>
      </trkpt>
      <trkpt lat="45.89694" lon="4.81973">
        <ele>173</ele>
        <time>2017-08-15T09:08:20Z</time>
      </trkpt>
      <trkpt lat="45.897" lon="4.81969">
        <ele>173</ele>
        <time>2017-08-15T09:08:21Z</time>
      </trkpt>
      <trkpt lat="45.89705" lon="4.81965">
        <ele>173</ele>
        <time>2017-08-15T09:08:22Z</time>
      </trkpt>
      <trkpt lat="45.89709" lon="4.8196">
        <ele>173</ele>
        <time>2017-08-15T09:08:23Z</time>
      </trkpt>
      <trkpt lat="45.89714" lon="4.81956">
        <ele>173</ele>
        <time>2017-08-15T09:08:24Z</time>
      </trkpt>
      <trkpt lat="45.89718" lon="4.81952">
        <ele>173</ele>
        <time>2017-08-15T09:08:25Z</time>
      </trkpt>
      <trkpt lat="45.89723" lon="4.81948">
        <ele>173</ele>
        <time>2017-08-15T09:08:26Z</time>
      </trkpt>
      <trkpt lat="45.89728" lon="4.81945">
        <ele>173</ele>
        <time>2017-08-15T09:08:27Z</time>
      </trkpt>
      <trkpt lat="45.89734" lon="4.81941">
        <ele>173</ele>
        <time>2017-08-15T09:08:28Z</time>
      </trkpt>
      <trkpt lat="45.89739" lon="4.81936">
        <ele>174</ele>
        <time>2017-08-15T09:08:29Z</time>
      </trkpt>
      <trkpt lat="45.89744" lon="4.81932">
        <ele>174</ele>
        <time>2017-08-15T09:08:30Z</time>
      </trkpt>
      <trkpt lat="45.8975" lon="4.81927">
        <ele>174</ele>
        <time>2017-08-15T09:08:31Z</time>
      </trkpt>
      <trkpt lat="45.89755" lon="4.81923">
        <ele>174</ele>
        <time>2017-08-15T09:08:32Z</time>
      </trkpt>
      <trkpt lat="45.89761" lon="4.81919">
        <ele>174</ele>
        <time>2017-08-15T09:08:33Z</time>
      </trkpt>
      <trkpt lat="45.89767" lon="4.81915">
        <ele>174</ele>
        <time>2017-08-15T09:08:34Z</time>
      </trkpt>
      <trkpt lat="45.89773" lon="4.81911">
        <ele>174</ele>
        <time>2017-08-15T09:08:35Z</time>
      </trkpt>
      <trkpt lat="45.89778" lon="4.81907">
        <ele>174</ele>
        <time>2017-08-15T09:08:36Z</time>
      </trkpt>
      <trkpt lat="45.89784" lon="4.81903">
        <ele>174</ele>
        <time>2017-08-15T09:08:37Z</time>
      </trkpt>
      <trkpt lat="45.89789" lon="4.81899">
        <ele>174</ele>
        <time>2017-08-15T09:08:38Z</time>
      </trkpt>
      <trkpt lat="45.89794" lon="4.81894">
        <ele>174</ele>
        <time>2017-08-15T09:08:39Z</time>
      </trkpt>
      <trkpt lat="45.89798" lon="4.8189">
        <ele>174</ele>
        <time>2017-08-15T09:08:40Z</time>
      </trkpt>
      <trkpt lat="45.89803" lon="4.81886">
        <ele>174</ele>
        <time>2017-08-15T09:08:41Z</time>
      </trkpt>
      <trkpt lat="45.89807" lon="4.81882">
        <ele>174</ele>
        <time>2017-08-15T09:08:42Z</time>
      </trkpt>
      <trkpt lat="45.89812" lon="4.81878">
        <ele>174</ele>
        <time>2017-08-15T09:08:43Z</time>
      </trkpt>
      <trkpt lat="45.89817" lon="4.81873">
        <ele>174</ele>
        <time>2017-08-15T09:08:44Z</time>
      </trkpt>
      <trkpt lat="45.89822" lon="4.81868">
        <ele>174</ele>
        <time>2017-08-15T09:08:45Z</time>
      </trkpt>
      <trkpt lat="45.89827" lon="4.81863">
        <ele>174</ele>
        <time>2017-08-15T09:08:46Z</time>
      </trkpt>
      <trkpt lat="45.89832" lon="4.81858">
        <ele>174</ele>
        <time>2017-08-15T09:08:47Z</time>
      </trkpt>
      <trkpt lat="45.89837" lon="4.81853">
        <ele>175</ele>
        <time>2017-08-15T09:08:48Z</time>
      </trkpt>
      <trkpt lat="45.89842" lon="4.81847">
        <ele>175</ele>
        <time>2017-08-15T09:08:49Z</time>
      </trkpt>
      <trkpt lat="45.89847" lon="4.81842">
        <ele>175</ele>
        <time>2017-08-15T09:08:50Z</time>
      </trkpt>
      <trkpt lat="45.89852" lon="4.81837">
        <ele>175</ele>
        <time>2017-08-15T09:08:51Z</time>
      </trkpt>
      <trkpt lat="45.89857" lon="4.81831">
        <ele>175</ele>
        <time>2017-08-15T09:08:52Z</time>
      </trkpt>
      <trkpt lat="45.89862" lon="4.81826">
        <ele>175</ele>
        <time>2017-08-15T09:08:53Z</time>
      </trkpt>
      <trkpt lat="45.89866" lon="4.81821">
        <ele>175</ele>
        <time>2017-08-15T09:08:54Z</time>
      </trkpt>
      <trkpt lat="45.89871" lon="4.81816">
        <ele>175</ele>
        <time>2017-08-15T09:08:55Z</time>
      </trkpt>
      <trkpt lat="45.89875" lon="4.81811">
        <ele>175</ele>
        <time>2017-08-15T09:08:56Z</time>
      </trkpt>
      <trkpt lat="45.89879" lon="4.81806">
        <ele>176</ele>
        <time>2017-08-15T09:08:57Z</time>
      </trkpt>
      <trkpt lat="45.89883" lon="4.81801">
        <ele>176</ele>
        <time>2017-08-15T09:08:58Z</time>
      </trkpt>
      <trkpt lat="45.89887" lon="4.81796">
        <ele>176</ele>
        <time>2017-08-15T09:08:59Z</time>
      </trkpt>
      <trkpt lat="45.8989" lon="4.81792">
        <ele>176</ele>
        <time>2017-08-15T09:09:00Z</time>
      </trkpt>
      <trkpt lat="45.89894" lon="4.81788">
        <ele>176</ele>
        <time>2017-08-15T09:09:01Z</time>
      </trkpt>
      <trkpt lat="45.89898" lon="4.81784">
        <ele>176</ele>
        <time>2017-08-15T09:09:02Z</time>
      </trkpt>
      <trkpt lat="45.89903" lon="4.8178">
        <ele>176</ele>
        <time>2017-08-15T09:09:03Z</time>
      </trkpt>
      <trkpt lat="45.89907" lon="4.81776">
        <ele>176</ele>
        <time>2017-08-15T09:09:04Z</time>
      </trkpt>
      <trkpt lat="45.89912" lon="4.81772">
        <ele>176</ele>
        <time>2017-08-15T09:09:05Z</time>
      </trkpt>
      <trkpt lat="45.89917" lon="4.8177">
        <ele>177</ele>
        <time>2017-08-15T09:09:06Z</time>
      </trkpt>
      <trkpt lat="45.89923" lon="4.8177">
        <ele>177</ele>
        <time>2017-08-15T09:09:07Z</time>
      </trkpt>
      <trkpt lat="45.89928" lon="4.81771">
        <ele>177</ele>
        <time>2017-08-15T09:09:08Z</time>
      </trkpt>
      <trkpt lat="45.89934" lon="4.81772">
        <ele>177</ele>
        <time>2017-08-15T09:09:09Z</time>
      </trkpt>
      <trkpt lat="45.8994" lon="4.81771">
        <ele>177</ele>
        <time>2017-08-15T09:09:10Z</time>
      </trkpt>
      <trkpt lat="45.89946" lon="4.81768">
        <ele>177</ele>
        <time>2017-08-15T09:09:11Z</time>
      </trkpt>
      <trkpt lat="45.8995" lon="4.81763">
        <ele>177</ele>
        <time>2017-08-15T09:09:12Z</time>
      </trkpt>
      <trkpt lat="45.89954" lon="4.81756">
        <ele>177</ele>
        <time>2017-08-15T09:09:13Z</time>
      </trkpt>
      <trkpt lat="45.89958" lon="4.81747">
        <ele>177</ele>
        <time>2017-08-15T09:09:14Z</time>
      </trkpt>
      <trkpt lat="45.89961" lon="4.8174">
        <ele>176</ele>
        <time>2017-08-15T09:09:15Z</time>
      </trkpt>
      <trkpt lat="45.89965" lon="4.81733">
        <ele>176</ele>
        <time>2017-08-15T09:09:16Z</time>
      </trkpt>
      <trkpt lat="45.8997" lon="4.81727">
        <ele>176</ele>
        <time>2017-08-15T09:09:17Z</time>
      </trkpt>
      <trkpt lat="45.89975" lon="4.81722">
        <ele>176</ele>
        <time>2017-08-15T09:09:18Z</time>
      </trkpt>
      <trkpt lat="45.8998" lon="4.81717">
        <ele>176</ele>
        <time>2017-08-15T09:09:19Z</time>
      </trkpt>
      <trkpt lat="45.89985" lon="4.81712">
        <ele>176</ele>
        <time>2017-08-15T09:09:20Z</time>
      </trkpt>
      <trkpt lat="45.89991" lon="4.81708">
        <ele>176</ele>
        <time>2017-08-15T09:09:21Z</time>
      </trkpt>
      <trkpt lat="45.89996" lon="4.81705">
        <ele>176</ele>
        <time>2017-08-15T09:09:22Z</time>
      </trkpt>
      <trkpt lat="45.90001" lon="4.81702">
        <ele>177</ele>
        <time>2017-08-15T09:09:23Z</time>
      </trkpt>
      <trkpt lat="45.90006" lon="4.81699">
        <ele>177</ele>
        <time>2017-08-15T09:09:24Z</time>
      </trkpt>
      <trkpt lat="45.90011" lon="4.81696">
        <ele>177</ele>
        <time>2017-08-15T09:09:25Z</time>
      </trkpt>
      <trkpt lat="45.90015" lon="4.81694">
        <ele>177</ele>
        <time>2017-08-15T09:09:26Z</time>
      </trkpt>
      <trkpt lat="45.9002" lon="4.81691">
        <ele>177</ele>
        <time>2017-08-15T09:09:27Z</time>
      </trkpt>
      <trkpt lat="45.90026" lon="4.81689">
        <ele>178</ele>
        <time>2017-08-15T09:09:28Z</time>
      </trkpt>
      <trkpt lat="45.90031" lon="4.81687">
        <ele>178</ele>
        <time>2017-08-15T09:09:29Z</time>
      </trkpt>
      <trkpt lat="45.90037" lon="4.81685">
        <ele>178</ele>
        <time>2017-08-15T09:09:30Z</time>
      </trkpt>
      <trkpt lat="45.90042" lon="4.81682">
        <ele>178</ele>
        <time>2017-08-15T09:09:31Z</time>
      </trkpt>
      <trkpt lat="45.90048" lon="4.8168">
        <ele>178</ele>
        <time>2017-08-15T09:09:32Z</time>
      </trkpt>
      <trkpt lat="45.90054" lon="4.81677">
        <ele>178</ele>
        <time>2017-08-15T09:09:33Z</time>
      </trkpt>
      <trkpt lat="45.9006" lon="4.81675">
        <ele>178</ele>
        <time>2017-08-15T09:09:34Z</time>
      </trkpt>
      <trkpt lat="45.90066" lon="4.81673">
        <ele>178</ele>
        <time>2017-08-15T09:09:35Z</time>
      </trkpt>
      <trkpt lat="45.90072" lon="4.81671">
        <ele>179</ele>
        <time>2017-08-15T09:09:36Z</time>
      </trkpt>
      <trkpt lat="45.90078" lon="4.81669">
        <ele>179</ele>
        <time>2017-08-15T09:09:37Z</time>
      </trkpt>
      <trkpt lat="45.90083" lon="4.81668">
        <ele>179</ele>
        <time>2017-08-15T09:09:38Z</time>
      </trkpt>
      <trkpt lat="45.90089" lon="4.81666">
        <ele>179</ele>
        <time>2017-08-15T09:09:39Z</time>
      </trkpt>
      <trkpt lat="45.90095" lon="4.81665">
        <ele>179</ele>
        <time>2017-08-15T09:09:40Z</time>
      </trkpt>
      <trkpt lat="45.901" lon="4.81663">
        <ele>179</ele>
        <time>2017-08-15T09:09:41Z</time>
      </trkpt>
      <trkpt lat="45.90106" lon="4.81662">
        <ele>179</ele>
        <time>2017-08-15T09:09:42Z</time>
      </trkpt>
      <trkpt lat="45.90111" lon="4.81661">
        <ele>179</ele>
        <time>2017-08-15T09:09:43Z</time>
      </trkpt>
      <trkpt lat="45.90115" lon="4.8166">
        <ele>179</ele>
        <time>2017-08-15T09:09:44Z</time>
      </trkpt>
      <trkpt lat="45.90121" lon="4.81659">
        <ele>179</ele>
        <time>2017-08-15T09:09:45Z</time>
      </trkpt>
      <trkpt lat="45.90126" lon="4.81659">
        <ele>179</ele>
        <time>2017-08-15T09:09:46Z</time>
      </trkpt>
      <trkpt lat="45.90131" lon="4.81658">
        <ele>179</ele>
        <time>2017-08-15T09:09:47Z</time>
      </trkpt>
      <trkpt lat="45.90136" lon="4.81657">
        <ele>179</ele>
        <time>2017-08-15T09:09:48Z</time>
      </trkpt>
      <trkpt lat="45.90141" lon="4.81656">
        <ele>179</ele>
        <time>2017-08-15T09:09:49Z</time>
      </trkpt>
      <trkpt lat="45.90145" lon="4.81655">
        <ele>179</ele>
        <time>2017-08-15T09:09:50Z</time>
      </trkpt>
      <trkpt lat="45.9015" lon="4.81654">
        <ele>179</ele>
        <time>2017-08-15T09:09:51Z</time>
      </trkpt>
      <trkpt lat="45.90155" lon="4.81654">
        <ele>179</ele>
        <time>2017-08-15T09:09:52Z</time>
      </trkpt>
      <trkpt lat="45.9016" lon="4.81654">
        <ele>179</ele>
        <time>2017-08-15T09:09:53Z</time>
      </trkpt>
      <trkpt lat="45.90164" lon="4.81653">
        <ele>179</ele>
        <time>2017-08-15T09:09:54Z</time>
      </trkpt>
      <trkpt lat="45.90169" lon="4.81653">
        <ele>180</ele>
        <time>2017-08-15T09:09:55Z</time>
      </trkpt>
      <trkpt lat="45.90174" lon="4.81653">
        <ele>180</ele>
        <time>2017-08-15T09:09:56Z</time>
      </trkpt>
      <trkpt lat="45.90179" lon="4.81653">
        <ele>180</ele>
        <time>2017-08-15T09:09:57Z</time>
      </trkpt>
      <trkpt lat="45.90185" lon="4.81652">
        <ele>180</ele>
        <time>2017-08-15T09:09:58Z</time>
      </trkpt>
      <trkpt lat="45.90191" lon="4.81651">
        <ele>180</ele>
        <time>2017-08-15T09:09:59Z</time>
      </trkpt>
      <trkpt lat="45.90196" lon="4.8165">
        <ele>180</ele>
        <time>2017-08-15T09:10:00Z</time>
      </trkpt>
      <trkpt lat="45.90202" lon="4.81648">
        <ele>180</ele>
        <time>2017-08-15T09:10:01Z</time>
      </trkpt>
      <trkpt lat="45.90207" lon="4.81647">
        <ele>180</ele>
        <time>2017-08-15T09:10:02Z</time>
      </trkpt>
      <trkpt lat="45.90212" lon="4.81645">
        <ele>180</ele>
        <time>2017-08-15T09:10:03Z</time>
      </trkpt>
      <trkpt lat="45.90219" lon="4.81648">
        <ele>180</ele>
        <time>2017-08-15T09:10:04Z</time>
      </trkpt>
      <trkpt lat="45.90227" lon="4.8165">
        <ele>181</ele>
        <time>2017-08-15T09:10:05Z</time>
      </trkpt>
      <trkpt lat="45.90233" lon="4.81651">
        <ele>181</ele>
        <time>2017-08-15T09:10:06Z</time>
      </trkpt>
      <trkpt lat="45.90239" lon="4.81649">
        <ele>181</ele>
        <time>2017-08-15T09:10:07Z</time>
      </trkpt>
      <trkpt lat="45.90244" lon="4.81647">
        <ele>181</ele>
        <time>2017-08-15T09:10:08Z</time>
      </trkpt>
      <trkpt lat="45.9025" lon="4.81646">
        <ele>181</ele>
        <time>2017-08-15T09:10:09Z</time>
      </trkpt>
      <trkpt lat="45.90255" lon="4.81645">
        <ele>182</ele>
        <time>2017-08-15T09:10:10Z</time>
      </trkpt>
      <trkpt lat="45.9026" lon="4.81645">
        <ele>182</ele>
        <time>2017-08-15T09:10:11Z</time>
      </trkpt>
      <trkpt lat="45.90268" lon="4.81647">
        <ele>182</ele>
        <time>2017-08-15T09:10:13Z</time>
      </trkpt>
      <trkpt lat="45.90271" lon="4.8165">
        <ele>182</ele>
        <time>2017-08-15T09:10:14Z</time>
      </trkpt>
      <trkpt lat="45.90278" lon="4.81657">
        <ele>182</ele>
        <time>2017-08-15T09:10:16Z</time>
      </trkpt>
      <trkpt lat="45.90282" lon="4.81661">
        <ele>182</ele>
        <time>2017-08-15T09:10:17Z</time>
      </trkpt>
      <trkpt lat="45.90287" lon="4.81663">
        <ele>182</ele>
        <time>2017-08-15T09:10:18Z</time>
      </trkpt>
      <trkpt lat="45.90293" lon="4.81663">
        <ele>182</ele>
        <time>2017-08-15T09:10:19Z</time>
      </trkpt>
      <trkpt lat="45.90299" lon="4.81659">
        <ele>182</ele>
        <time>2017-08-15T09:10:20Z</time>
      </trkpt>
      <trkpt lat="45.90303" lon="4.81654">
        <ele>182</ele>
        <time>2017-08-15T09:10:21Z</time>
      </trkpt>
      <trkpt lat="45.90307" lon="4.81649">
        <ele>182</ele>
        <time>2017-08-15T09:10:22Z</time>
      </trkpt>
      <trkpt lat="45.90311" lon="4.81643">
        <ele>182</ele>
        <time>2017-08-15T09:10:23Z</time>
      </trkpt>
      <trkpt lat="45.90315" lon="4.81639">
        <ele>182</ele>
        <time>2017-08-15T09:10:24Z</time>
      </trkpt>
      <trkpt lat="45.90319" lon="4.81635">
        <ele>182</ele>
        <time>2017-08-15T09:10:25Z</time>
      </trkpt>
      <trkpt lat="45.90324" lon="4.81632">
        <ele>182</ele>
        <time>2017-08-15T09:10:26Z</time>
      </trkpt>
      <trkpt lat="45.90328" lon="4.81631">
        <ele>182</ele>
        <time>2017-08-15T09:10:27Z</time>
      </trkpt>
      <trkpt lat="45.90333" lon="4.8163">
        <ele>182</ele>
        <time>2017-08-15T09:10:28Z</time>
      </trkpt>
      <trkpt lat="45.90339" lon="4.8163">
        <ele>183</ele>
        <time>2017-08-15T09:10:29Z</time>
      </trkpt>
      <trkpt lat="45.90344" lon="4.81628">
        <ele>183</ele>
        <time>2017-08-15T09:10:30Z</time>
      </trkpt>
      <trkpt lat="45.90349" lon="4.81627">
        <ele>183</ele>
        <time>2017-08-15T09:10:31Z</time>
      </trkpt>
      <trkpt lat="45.90355" lon="4.81625">
        <ele>183</ele>
        <time>2017-08-15T09:10:32Z</time>
      </trkpt>
      <trkpt lat="45.90361" lon="4.81624">
        <ele>182</ele>
        <time>2017-08-15T09:10:33Z</time>
      </trkpt>
      <trkpt lat="45.90366" lon="4.81622">
        <ele>182</ele>
        <time>2017-08-15T09:10:34Z</time>
      </trkpt>
      <trkpt lat="45.90371" lon="4.81621">
        <ele>182</ele>
        <time>2017-08-15T09:10:35Z</time>
      </trkpt>
      <trkpt lat="45.90377" lon="4.81619">
        <ele>182</ele>
        <time>2017-08-15T09:10:36Z</time>
      </trkpt>
      <trkpt lat="45.90383" lon="4.81617">
        <ele>182</ele>
        <time>2017-08-15T09:10:37Z</time>
      </trkpt>
      <trkpt lat="45.90388" lon="4.81615">
        <ele>182</ele>
        <time>2017-08-15T09:10:38Z</time>
      </trkpt>
      <trkpt lat="45.90394" lon="4.81613">
        <ele>182</ele>
        <time>2017-08-15T09:10:39Z</time>
      </trkpt>
      <trkpt lat="45.904" lon="4.81611">
        <ele>182</ele>
        <time>2017-08-15T09:10:40Z</time>
      </trkpt>
      <trkpt lat="45.90407" lon="4.8161">
        <ele>182</ele>
        <time>2017-08-15T09:10:41Z</time>
      </trkpt>
      <trkpt lat="45.90414" lon="4.81609">
        <ele>182</ele>
        <time>2017-08-15T09:10:42Z</time>
      </trkpt>
      <trkpt lat="45.90421" lon="4.81609">
        <ele>182</ele>
        <time>2017-08-15T09:10:43Z</time>
      </trkpt>
      <trkpt lat="45.90428" lon="4.81608">
        <ele>182</ele>
        <time>2017-08-15T09:10:44Z</time>
      </trkpt>
      <trkpt lat="45.90435" lon="4.81608">
        <ele>182</ele>
        <time>2017-08-15T09:10:45Z</time>
      </trkpt>
      <trkpt lat="45.90442" lon="4.81609">
        <ele>182</ele>
        <time>2017-08-15T09:10:46Z</time>
      </trkpt>
      <trkpt lat="45.90448" lon="4.81609">
        <ele>182</ele>
        <time>2017-08-15T09:10:47Z</time>
      </trkpt>
      <trkpt lat="45.90454" lon="4.8161">
        <ele>182</ele>
        <time>2017-08-15T09:10:48Z</time>
      </trkpt>
      <trkpt lat="45.9046" lon="4.8161">
        <ele>182</ele>
        <time>2017-08-15T09:10:49Z</time>
      </trkpt>
      <trkpt lat="45.90466" lon="4.8161">
        <ele>182</ele>
        <time>2017-08-15T09:10:50Z</time>
      </trkpt>
      <trkpt lat="45.90471" lon="4.8161">
        <ele>182</ele>
        <time>2017-08-15T09:10:51Z</time>
      </trkpt>
      <trkpt lat="45.90477" lon="4.8161">
        <ele>182</ele>
        <time>2017-08-15T09:10:52Z</time>
      </trkpt>
      <trkpt lat="45.90483" lon="4.8161">
        <ele>182</ele>
        <time>2017-08-15T09:10:53Z</time>
      </trkpt>
      <trkpt lat="45.90489" lon="4.81609">
        <ele>182</ele>
        <time>2017-08-15T09:10:54Z</time>
      </trkpt>
      <trkpt lat="45.90495" lon="4.81609">
        <ele>182</ele>
        <time>2017-08-15T09:10:55Z</time>
      </trkpt>
      <trkpt lat="45.90502" lon="4.81608">
        <ele>182</ele>
        <time>2017-08-15T09:10:56Z</time>
      </trkpt>
      <trkpt lat="45.90508" lon="4.81608">
        <ele>182</ele>
        <time>2017-08-15T09:10:57Z</time>
      </trkpt>
      <trkpt lat="45.90515" lon="4.81607">
        <ele>182</ele>
        <time>2017-08-15T09:10:58Z</time>
      </trkpt>
      <trkpt lat="45.90521" lon="4.81607">
        <ele>182</ele>
        <time>2017-08-15T09:10:59Z</time>
      </trkpt>
      <trkpt lat="45.90528" lon="4.81606">
        <ele>182</ele>
        <time>2017-08-15T09:11:00Z</time>
      </trkpt>
      <trkpt lat="45.90534" lon="4.81606">
        <ele>182</ele>
        <time>2017-08-15T09:11:01Z</time>
      </trkpt>
      <trkpt lat="45.9054" lon="4.81605">
        <ele>182</ele>
        <time>2017-08-15T09:11:02Z</time>
      </trkpt>
      <trkpt lat="45.90547" lon="4.81605">
        <ele>182</ele>
        <time>2017-08-15T09:11:03Z</time>
      </trkpt>
      <trkpt lat="45.90553" lon="4.81603">
        <ele>182</ele>
        <time>2017-08-15T09:11:04Z</time>
      </trkpt>
      <trkpt lat="45.90558" lon="4.81602">
        <ele>182</ele>
        <time>2017-08-15T09:11:05Z</time>
      </trkpt>
      <trkpt lat="45.90564" lon="4.816">
        <ele>182</ele>
        <time>2017-08-15T09:11:06Z</time>
      </trkpt>
      <trkpt lat="45.9057" lon="4.81599">
        <ele>182</ele>
        <time>2017-08-15T09:11:07Z</time>
      </trkpt>
      <trkpt lat="45.90576" lon="4.81598">
        <ele>182</ele>
        <time>2017-08-15T09:11:08Z</time>
      </trkpt>
      <trkpt lat="45.90582" lon="4.81597">
        <ele>182</ele>
        <time>2017-08-15T09:11:09Z</time>
      </trkpt>
      <trkpt lat="45.90587" lon="4.81596">
        <ele>182</ele>
        <time>2017-08-15T09:11:10Z</time>
      </trkpt>
      <trkpt lat="45.90593" lon="4.81596">
        <ele>182</ele>
        <time>2017-08-15T09:11:11Z</time>
      </trkpt>
      <trkpt lat="45.906" lon="4.81596">
        <ele>182</ele>
        <time>2017-08-15T09:11:12Z</time>
      </trkpt>
      <trkpt lat="45.90606" lon="4.81596">
        <ele>182</ele>
        <time>2017-08-15T09:11:13Z</time>
      </trkpt>
      <trkpt lat="45.90614" lon="4.81595">
        <ele>182</ele>
        <time>2017-08-15T09:11:14Z</time>
      </trkpt>
      <trkpt lat="45.90621" lon="4.81595">
        <ele>181</ele>
        <time>2017-08-15T09:11:15Z</time>
      </trkpt>
      <trkpt lat="45.90629" lon="4.81595">
        <ele>181</ele>
        <time>2017-08-15T09:11:16Z</time>
      </trkpt>
      <trkpt lat="45.90637" lon="4.81595">
        <ele>181</ele>
        <time>2017-08-15T09:11:17Z</time>
      </trkpt>
      <trkpt lat="45.90645" lon="4.81595">
        <ele>181</ele>
        <time>2017-08-15T09:11:18Z</time>
      </trkpt>
      <trkpt lat="45.90653" lon="4.81595">
        <ele>180</ele>
        <time>2017-08-15T09:11:19Z</time>
      </trkpt>
      <trkpt lat="45.90662" lon="4.81595">
        <ele>180</ele>
        <time>2017-08-15T09:11:20Z</time>
      </trkpt>
      <trkpt lat="45.9067" lon="4.81595">
        <ele>179</ele>
        <time>2017-08-15T09:11:21Z</time>
      </trkpt>
      <trkpt lat="45.90679" lon="4.81594">
        <ele>179</ele>
        <time>2017-08-15T09:11:22Z</time>
      </trkpt>
      <trkpt lat="45.90689" lon="4.81594">
        <ele>178</ele>
        <time>2017-08-15T09:11:23Z</time>
      </trkpt>
      <trkpt lat="45.90698" lon="4.81593">
        <ele>178</ele>
        <time>2017-08-15T09:11:24Z</time>
      </trkpt>
      <trkpt lat="45.90708" lon="4.81593">
        <ele>178</ele>
        <time>2017-08-15T09:11:25Z</time>
      </trkpt>
      <trkpt lat="45.90718" lon="4.81592">
        <ele>177</ele>
        <time>2017-08-15T09:11:26Z</time>
      </trkpt>
      <trkpt lat="45.90728" lon="4.81592">
        <ele>177</ele>
        <time>2017-08-15T09:11:27Z</time>
      </trkpt>
      <trkpt lat="45.90738" lon="4.81591">
        <ele>176</ele>
        <time>2017-08-15T09:11:28Z</time>
      </trkpt>
      <trkpt lat="45.90748" lon="4.81591">
        <ele>175</ele>
        <time>2017-08-15T09:11:29Z</time>
      </trkpt>
      <trkpt lat="45.90759" lon="4.81591">
        <ele>175</ele>
        <time>2017-08-15T09:11:30Z</time>
      </trkpt>
      <trkpt lat="45.9077" lon="4.81591">
        <ele>175</ele>
        <time>2017-08-15T09:11:31Z</time>
      </trkpt>
      <trkpt lat="45.9078" lon="4.81591">
        <ele>175</ele>
        <time>2017-08-15T09:11:32Z</time>
      </trkpt>
      <trkpt lat="45.9079" lon="4.81591">
        <ele>175</ele>
        <time>2017-08-15T09:11:33Z</time>
      </trkpt>
      <trkpt lat="45.908" lon="4.81591">
        <ele>175</ele>
        <time>2017-08-15T09:11:34Z</time>
      </trkpt>
      <trkpt lat="45.90808" lon="4.81591">
        <ele>174</ele>
        <time>2017-08-15T09:11:35Z</time>
      </trkpt>
      <trkpt lat="45.90814" lon="4.81591">
        <ele>174</ele>
        <time>2017-08-15T09:11:36Z</time>
      </trkpt>
      <trkpt lat="45.9082" lon="4.81591">
        <ele>174</ele>
        <time>2017-08-15T09:11:37Z</time>
      </trkpt>
      <trkpt lat="45.90824" lon="4.8159">
        <ele>174</ele>
        <time>2017-08-15T09:11:38Z</time>
      </trkpt>
      <trkpt lat="45.90832" lon="4.81588">
        <ele>173</ele>
        <time>2017-08-15T09:11:40Z</time>
      </trkpt>
      <trkpt lat="45.90835" lon="4.81589">
        <ele>173</ele>
        <time>2017-08-15T09:11:41Z</time>
      </trkpt>
      <trkpt lat="45.90844" lon="4.81588">
        <ele>173</ele>
        <time>2017-08-15T09:11:45Z</time>
      </trkpt>
      <trkpt lat="45.90845" lon="4.81588">
        <ele>173</ele>
        <time>2017-08-15T09:11:46Z</time>
      </trkpt>
      <trkpt lat="45.90846" lon="4.81589">
        <ele>173</ele>
        <time>2017-08-15T09:11:47Z</time>
      </trkpt>
      <trkpt lat="45.90849" lon="4.81589">
        <ele>173</ele>
        <time>2017-08-15T09:11:50Z</time>
      </trkpt>
      <trkpt lat="45.90851" lon="4.81589">
        <ele>172</ele>
        <time>2017-08-15T09:11:51Z</time>
      </trkpt>
      <trkpt lat="45.90856" lon="4.81588">
        <ele>172</ele>
        <time>2017-08-15T09:11:53Z</time>
      </trkpt>
      <trkpt lat="45.9086" lon="4.81588">
        <ele>172</ele>
        <time>2017-08-15T09:11:54Z</time>
      </trkpt>
      <trkpt lat="45.90865" lon="4.81587">
        <ele>172</ele>
        <time>2017-08-15T09:11:55Z</time>
      </trkpt>
      <trkpt lat="45.9087" lon="4.81587">
        <ele>172</ele>
        <time>2017-08-15T09:11:56Z</time>
      </trkpt>
      <trkpt lat="45.90875" lon="4.81586">
        <ele>172</ele>
        <time>2017-08-15T09:11:57Z</time>
      </trkpt>
      <trkpt lat="45.90881" lon="4.81586">
        <ele>172</ele>
        <time>2017-08-15T09:11:58Z</time>
      </trkpt>
      <trkpt lat="45.90887" lon="4.81587">
        <ele>171</ele>
        <time>2017-08-15T09:11:59Z</time>
      </trkpt>
      <trkpt lat="45.90893" lon="4.81587">
        <ele>171</ele>
        <time>2017-08-15T09:12:00Z</time>
      </trkpt>
      <trkpt lat="45.90899" lon="4.81587">
        <ele>171</ele>
        <time>2017-08-15T09:12:01Z</time>
      </trkpt>
      <trkpt lat="45.90904" lon="4.81588">
        <ele>171</ele>
        <time>2017-08-15T09:12:02Z</time>
      </trkpt>
      <trkpt lat="45.90909" lon="4.81589">
        <ele>171</ele>
        <time>2017-08-15T09:12:03Z</time>
      </trkpt>
      <trkpt lat="45.90915" lon="4.8159">
        <ele>170</ele>
        <time>2017-08-15T09:12:04Z</time>
      </trkpt>
      <trkpt lat="45.9092" lon="4.8159">
        <ele>170</ele>
        <time>2017-08-15T09:12:05Z</time>
      </trkpt>
      <trkpt lat="45.90926" lon="4.81591">
        <ele>170</ele>
        <time>2017-08-15T09:12:06Z</time>
      </trkpt>
      <trkpt lat="45.90931" lon="4.81592">
        <ele>170</ele>
        <time>2017-08-15T09:12:07Z</time>
      </trkpt>
      <trkpt lat="45.90936" lon="4.81593">
        <ele>170</ele>
        <time>2017-08-15T09:12:08Z</time>
      </trkpt>
      <trkpt lat="45.90942" lon="4.81594">
        <ele>170</ele>
        <time>2017-08-15T09:12:09Z</time>
      </trkpt>
      <trkpt lat="45.90947" lon="4.81595">
        <ele>169</ele>
        <time>2017-08-15T09:12:10Z</time>
      </trkpt>
      <trkpt lat="45.90952" lon="4.81596">
        <ele>169</ele>
        <time>2017-08-15T09:12:11Z</time>
      </trkpt>
      <trkpt lat="45.90957" lon="4.81597">
        <ele>169</ele>
        <time>2017-08-15T09:12:12Z</time>
      </trkpt>
      <trkpt lat="45.90962" lon="4.81597">
        <ele>169</ele>
        <time>2017-08-15T09:12:13Z</time>
      </trkpt>
      <trkpt lat="45.90967" lon="4.81598">
        <ele>169</ele>
        <time>2017-08-15T09:12:14Z</time>
      </trkpt>
      <trkpt lat="45.90972" lon="4.81598">
        <ele>169</ele>
        <time>2017-08-15T09:12:15Z</time>
      </trkpt>
      <trkpt lat="45.90978" lon="4.816">
        <ele>169</ele>
        <time>2017-08-15T09:12:16Z</time>
      </trkpt>
      <trkpt lat="45.90983" lon="4.816">
        <ele>169</ele>
        <time>2017-08-15T09:12:17Z</time>
      </trkpt>
      <trkpt lat="45.90989" lon="4.81601">
        <ele>169</ele>
        <time>2017-08-15T09:12:18Z</time>
      </trkpt>
      <trkpt lat="45.90994" lon="4.81602">
        <ele>169</ele>
        <time>2017-08-15T09:12:19Z</time>
      </trkpt>
      <trkpt lat="45.90999" lon="4.81602">
        <ele>169</ele>
        <time>2017-08-15T09:12:20Z</time>
      </trkpt>
      <trkpt lat="45.91005" lon="4.81604">
        <ele>169</ele>
        <time>2017-08-15T09:12:21Z</time>
      </trkpt>
      <trkpt lat="45.9101" lon="4.81605">
        <ele>169</ele>
        <time>2017-08-15T09:12:22Z</time>
      </trkpt>
      <trkpt lat="45.91016" lon="4.81605">
        <ele>169</ele>
        <time>2017-08-15T09:12:23Z</time>
      </trkpt>
      <trkpt lat="45.91022" lon="4.81606">
        <ele>169</ele>
        <time>2017-08-15T09:12:24Z</time>
      </trkpt>
      <trkpt lat="45.91028" lon="4.81607">
        <ele>169</ele>
        <time>2017-08-15T09:12:25Z</time>
      </trkpt>
      <trkpt lat="45.91034" lon="4.81607">
        <ele>169</ele>
        <time>2017-08-15T09:12:26Z</time>
      </trkpt>
      <trkpt lat="45.91039" lon="4.81608">
        <ele>169</ele>
        <time>2017-08-15T09:12:27Z</time>
      </trkpt>
      <trkpt lat="45.91045" lon="4.81609">
        <ele>169</ele>
        <time>2017-08-15T09:12:28Z</time>
      </trkpt>
      <trkpt lat="45.91051" lon="4.8161">
        <ele>169</ele>
        <time>2017-08-15T09:12:29Z</time>
      </trkpt>
      <trkpt lat="45.91057" lon="4.81611">
        <ele>169</ele>
        <time>2017-08-15T09:12:30Z</time>
      </trkpt>
      <trkpt lat="45.91062" lon="4.81612">
        <ele>169</ele>
        <time>2017-08-15T09:12:31Z</time>
      </trkpt>
      <trkpt lat="45.91068" lon="4.81612">
        <ele>169</ele>
        <time>2017-08-15T09:12:32Z</time>
      </trkpt>
      <trkpt lat="45.91073" lon="4.81611">
        <ele>169</ele>
        <time>2017-08-15T09:12:33Z</time>
      </trkpt>
      <trkpt lat="45.91078" lon="4.81612">
        <ele>169</ele>
        <time>2017-08-15T09:12:34Z</time>
      </trkpt>
      <trkpt lat="45.91084" lon="4.81612">
        <ele>169</ele>
        <time>2017-08-15T09:12:35Z</time>
      </trkpt>
      <trkpt lat="45.91089" lon="4.81612">
        <ele>169</ele>
        <time>2017-08-15T09:12:36Z</time>
      </trkpt>
      <trkpt lat="45.91095" lon="4.81612">
        <ele>169</ele>
        <time>2017-08-15T09:12:37Z</time>
      </trkpt>
      <trkpt lat="45.91101" lon="4.81612">
        <ele>170</ele>
        <time>2017-08-15T09:12:38Z</time>
      </trkpt>
      <trkpt lat="45.91108" lon="4.81612">
        <ele>170</ele>
        <time>2017-08-15T09:12:39Z</time>
      </trkpt>
      <trkpt lat="45.91114" lon="4.81613">
        <ele>170</ele>
        <time>2017-08-15T09:12:40Z</time>
      </trkpt>
      <trkpt lat="45.91121" lon="4.81613">
        <ele>170</ele>
        <time>2017-08-15T09:12:41Z</time>
      </trkpt>
      <trkpt lat="45.91128" lon="4.81613">
        <ele>170</ele>
        <time>2017-08-15T09:12:42Z</time>
      </trkpt>
      <trkpt lat="45.91135" lon="4.81614">
        <ele>170</ele>
        <time>2017-08-15T09:12:43Z</time>
      </trkpt>
      <trkpt lat="45.91141" lon="4.81615">
        <ele>170</ele>
        <time>2017-08-15T09:12:44Z</time>
      </trkpt>
      <trkpt lat="45.91148" lon="4.81615">
        <ele>170</ele>
        <time>2017-08-15T09:12:45Z</time>
      </trkpt>
      <trkpt lat="45.91155" lon="4.81615">
        <ele>170</ele>
        <time>2017-08-15T09:12:46Z</time>
      </trkpt>
      <trkpt lat="45.9116" lon="4.81615">
        <ele>170</ele>
        <time>2017-08-15T09:12:47Z</time>
      </trkpt>
      <trkpt lat="45.91166" lon="4.81615">
        <ele>170</ele>
        <time>2017-08-15T09:12:48Z</time>
      </trkpt>
      <trkpt lat="45.91171" lon="4.81616">
        <ele>170</ele>
        <time>2017-08-15T09:12:49Z</time>
      </trkpt>
      <trkpt lat="45.91177" lon="4.81616">
        <ele>170</ele>
        <time>2017-08-15T09:12:50Z</time>
      </trkpt>
      <trkpt lat="45.91182" lon="4.81616">
        <ele>170</ele>
        <time>2017-08-15T09:12:51Z</time>
      </trkpt>
      <trkpt lat="45.91188" lon="4.81616">
        <ele>170</ele>
        <time>2017-08-15T09:12:52Z</time>
      </trkpt>
      <trkpt lat="45.91193" lon="4.81616">
        <ele>170</ele>
        <time>2017-08-15T09:12:53Z</time>
      </trkpt>
      <trkpt lat="45.91198" lon="4.81616">
        <ele>170</ele>
        <time>2017-08-15T09:12:54Z</time>
      </trkpt>
      <trkpt lat="45.91204" lon="4.81617">
        <ele>170</ele>
        <time>2017-08-15T09:12:55Z</time>
      </trkpt>
      <trkpt lat="45.91209" lon="4.81617">
        <ele>170</ele>
        <time>2017-08-15T09:12:56Z</time>
      </trkpt>
      <trkpt lat="45.91215" lon="4.81618">
        <ele>170</ele>
        <time>2017-08-15T09:12:57Z</time>
      </trkpt>
      <trkpt lat="45.91221" lon="4.81618">
        <ele>170</ele>
        <time>2017-08-15T09:12:58Z</time>
      </trkpt>
      <trkpt lat="45.91227" lon="4.81618">
        <ele>170</ele>
        <time>2017-08-15T09:12:59Z</time>
      </trkpt>
      <trkpt lat="45.91233" lon="4.81618">
        <ele>170</ele>
        <time>2017-08-15T09:13:00Z</time>
      </trkpt>
      <trkpt lat="45.91239" lon="4.81618">
        <ele>170</ele>
        <time>2017-08-15T09:13:01Z</time>
      </trkpt>
      <trkpt lat="45.91246" lon="4.81618">
        <ele>170</ele>
        <time>2017-08-15T09:13:02Z</time>
      </trkpt>
      <trkpt lat="45.91253" lon="4.81618">
        <ele>170</ele>
        <time>2017-08-15T09:13:03Z</time>
      </trkpt>
      <trkpt lat="45.9126" lon="4.81618">
        <ele>170</ele>
        <time>2017-08-15T09:13:04Z</time>
      </trkpt>
      <trkpt lat="45.91266" lon="4.81618">
        <ele>170</ele>
        <time>2017-08-15T09:13:05Z</time>
      </trkpt>
      <trkpt lat="45.91272" lon="4.81618">
        <ele>170</ele>
        <time>2017-08-15T09:13:06Z</time>
      </trkpt>
      <trkpt lat="45.91279" lon="4.81618">
        <ele>170</ele>
        <time>2017-08-15T09:13:07Z</time>
      </trkpt>
      <trkpt lat="45.91285" lon="4.81618">
        <ele>170</ele>
        <time>2017-08-15T09:13:08Z</time>
      </trkpt>
      <trkpt lat="45.9129" lon="4.81618">
        <ele>170</ele>
        <time>2017-08-15T09:13:09Z</time>
      </trkpt>
      <trkpt lat="45.91296" lon="4.81617">
        <ele>170</ele>
        <time>2017-08-15T09:13:10Z</time>
      </trkpt>
      <trkpt lat="45.91302" lon="4.81616">
        <ele>170</ele>
        <time>2017-08-15T09:13:11Z</time>
      </trkpt>
      <trkpt lat="45.91307" lon="4.81616">
        <ele>170</ele>
        <time>2017-08-15T09:13:12Z</time>
      </trkpt>
      <trkpt lat="45.91313" lon="4.81616">
        <ele>170</ele>
        <time>2017-08-15T09:13:13Z</time>
      </trkpt>
      <trkpt lat="45.91318" lon="4.81615">
        <ele>170</ele>
        <time>2017-08-15T09:13:14Z</time>
      </trkpt>
      <trkpt lat="45.91323" lon="4.81615">
        <ele>170</ele>
        <time>2017-08-15T09:13:15Z</time>
      </trkpt>
      <trkpt lat="45.91329" lon="4.81615">
        <ele>170</ele>
        <time>2017-08-15T09:13:16Z</time>
      </trkpt>
      <trkpt lat="45.91334" lon="4.81614">
        <ele>170</ele>
        <time>2017-08-15T09:13:17Z</time>
      </trkpt>
      <trkpt lat="45.91339" lon="4.81614">
        <ele>170</ele>
        <time>2017-08-15T09:13:18Z</time>
      </trkpt>
      <trkpt lat="45.91344" lon="4.81614">
        <ele>170</ele>
        <time>2017-08-15T09:13:19Z</time>
      </trkpt>
      <trkpt lat="45.91349" lon="4.81614">
        <ele>170</ele>
        <time>2017-08-15T09:13:20Z</time>
      </trkpt>
      <trkpt lat="45.91355" lon="4.81614">
        <ele>170</ele>
        <time>2017-08-15T09:13:21Z</time>
      </trkpt>
      <trkpt lat="45.9136" lon="4.81613">
        <ele>170</ele>
        <time>2017-08-15T09:13:22Z</time>
      </trkpt>
      <trkpt lat="45.91366" lon="4.81613">
        <ele>170</ele>
        <time>2017-08-15T09:13:23Z</time>
      </trkpt>
      <trkpt lat="45.91371" lon="4.81614">
        <ele>170</ele>
        <time>2017-08-15T09:13:24Z</time>
      </trkpt>
      <trkpt lat="45.91377" lon="4.81614">
        <ele>170</ele>
        <time>2017-08-15T09:13:25Z</time>
      </trkpt>
      <trkpt lat="45.91383" lon="4.81614">
        <ele>170</ele>
        <time>2017-08-15T09:13:26Z</time>
      </trkpt>
      <trkpt lat="45.9139" lon="4.81614">
        <ele>170</ele>
        <time>2017-08-15T09:13:27Z</time>
      </trkpt>
      <trkpt lat="45.91396" lon="4.81613">
        <ele>170</ele>
        <time>2017-08-15T09:13:28Z</time>
      </trkpt>
      <trkpt lat="45.91401" lon="4.81612">
        <ele>170</ele>
        <time>2017-08-15T09:13:29Z</time>
      </trkpt>
      <trkpt lat="45.91407" lon="4.81612">
        <ele>170</ele>
        <time>2017-08-15T09:13:30Z</time>
      </trkpt>
      <trkpt lat="45.91413" lon="4.81612">
        <ele>170</ele>
        <time>2017-08-15T09:13:31Z</time>
      </trkpt>
      <trkpt lat="45.91418" lon="4.81611">
        <ele>170</ele>
        <time>2017-08-15T09:13:32Z</time>
      </trkpt>
      <trkpt lat="45.91423" lon="4.81611">
        <ele>170</ele>
        <time>2017-08-15T09:13:33Z</time>
      </trkpt>
      <trkpt lat="45.91429" lon="4.8161">
        <ele>170</ele>
        <time>2017-08-15T09:13:34Z</time>
      </trkpt>
      <trkpt lat="45.91435" lon="4.8161">
        <ele>170</ele>
        <time>2017-08-15T09:13:35Z</time>
      </trkpt>
      <trkpt lat="45.9144" lon="4.81609">
        <ele>170</ele>
        <time>2017-08-15T09:13:36Z</time>
      </trkpt>
      <trkpt lat="45.91446" lon="4.81608">
        <ele>170</ele>
        <time>2017-08-15T09:13:37Z</time>
      </trkpt>
      <trkpt lat="45.91453" lon="4.81608">
        <ele>170</ele>
        <time>2017-08-15T09:13:38Z</time>
      </trkpt>
      <trkpt lat="45.91459" lon="4.81607">
        <ele>170</ele>
        <time>2017-08-15T09:13:39Z</time>
      </trkpt>
      <trkpt lat="45.91465" lon="4.81607">
        <ele>170</ele>
        <time>2017-08-15T09:13:40Z</time>
      </trkpt>
      <trkpt lat="45.91472" lon="4.81607">
        <ele>170</ele>
        <time>2017-08-15T09:13:41Z</time>
      </trkpt>
      <trkpt lat="45.91479" lon="4.81606">
        <ele>170</ele>
        <time>2017-08-15T09:13:42Z</time>
      </trkpt>
      <trkpt lat="45.91485" lon="4.81606">
        <ele>170</ele>
        <time>2017-08-15T09:13:43Z</time>
      </trkpt>
      <trkpt lat="45.91492" lon="4.81605">
        <ele>170</ele>
        <time>2017-08-15T09:13:44Z</time>
      </trkpt>
      <trkpt lat="45.91499" lon="4.81604">
        <ele>169</ele>
        <time>2017-08-15T09:13:45Z</time>
      </trkpt>
      <trkpt lat="45.91505" lon="4.81603">
        <ele>170</ele>
        <time>2017-08-15T09:13:46Z</time>
      </trkpt>
      <trkpt lat="45.91511" lon="4.81602">
        <ele>170</ele>
        <time>2017-08-15T09:13:47Z</time>
      </trkpt>
      <trkpt lat="45.91517" lon="4.81601">
        <ele>170</ele>
        <time>2017-08-15T09:13:48Z</time>
      </trkpt>
      <trkpt lat="45.91523" lon="4.816">
        <ele>170</ele>
        <time>2017-08-15T09:13:49Z</time>
      </trkpt>
      <trkpt lat="45.91529" lon="4.81599">
        <ele>170</ele>
        <time>2017-08-15T09:13:50Z</time>
      </trkpt>
      <trkpt lat="45.91535" lon="4.81598">
        <ele>170</ele>
        <time>2017-08-15T09:13:51Z</time>
      </trkpt>
      <trkpt lat="45.9154" lon="4.81596">
        <ele>170</ele>
        <time>2017-08-15T09:13:52Z</time>
      </trkpt>
      <trkpt lat="45.91546" lon="4.81594">
        <ele>170</ele>
        <time>2017-08-15T09:13:53Z</time>
      </trkpt>
      <trkpt lat="45.91552" lon="4.81593">
        <ele>170</ele>
        <time>2017-08-15T09:13:54Z</time>
      </trkpt>
      <trkpt lat="45.91558" lon="4.81593">
        <ele>170</ele>
        <time>2017-08-15T09:13:55Z</time>
      </trkpt>
      <trkpt lat="45.91564" lon="4.81591">
        <ele>170</ele>
        <time>2017-08-15T09:13:56Z</time>
      </trkpt>
      <trkpt lat="45.91571" lon="4.81589">
        <ele>170</ele>
        <time>2017-08-15T09:13:57Z</time>
      </trkpt>
      <trkpt lat="45.91577" lon="4.81588">
        <ele>170</ele>
        <time>2017-08-15T09:13:58Z</time>
      </trkpt>
      <trkpt lat="45.91584" lon="4.81586">
        <ele>170</ele>
        <time>2017-08-15T09:13:59Z</time>
      </trkpt>
      <trkpt lat="45.9159" lon="4.81585">
        <ele>170</ele>
        <time>2017-08-15T09:14:00Z</time>
      </trkpt>
      <trkpt lat="45.91598" lon="4.81583">
        <ele>170</ele>
        <time>2017-08-15T09:14:01Z</time>
      </trkpt>
      <trkpt lat="45.91604" lon="4.81581">
        <ele>170</ele>
        <time>2017-08-15T09:14:02Z</time>
      </trkpt>
      <trkpt lat="45.91611" lon="4.8158">
        <ele>170</ele>
        <time>2017-08-15T09:14:03Z</time>
      </trkpt>
      <trkpt lat="45.91618" lon="4.81578">
        <ele>170</ele>
        <time>2017-08-15T09:14:04Z</time>
      </trkpt>
      <trkpt lat="45.91625" lon="4.81577">
        <ele>170</ele>
        <time>2017-08-15T09:14:05Z</time>
      </trkpt>
      <trkpt lat="45.91632" lon="4.81575">
        <ele>170</ele>
        <time>2017-08-15T09:14:06Z</time>
      </trkpt>
      <trkpt lat="45.91638" lon="4.81574">
        <ele>170</ele>
        <time>2017-08-15T09:14:07Z</time>
      </trkpt>
      <trkpt lat="45.91645" lon="4.81573">
        <ele>170</ele>
        <time>2017-08-15T09:14:08Z</time>
      </trkpt>
      <trkpt lat="45.91651" lon="4.81572">
        <ele>170</ele>
        <time>2017-08-15T09:14:09Z</time>
      </trkpt>
      <trkpt lat="45.91657" lon="4.81571">
        <ele>170</ele>
        <time>2017-08-15T09:14:10Z</time>
      </trkpt>
      <trkpt lat="45.91664" lon="4.81569">
        <ele>170</ele>
        <time>2017-08-15T09:14:11Z</time>
      </trkpt>
      <trkpt lat="45.9167" lon="4.81568">
        <ele>170</ele>
        <time>2017-08-15T09:14:12Z</time>
      </trkpt>
      <trkpt lat="45.91676" lon="4.81566">
        <ele>170</ele>
        <time>2017-08-15T09:14:13Z</time>
      </trkpt>
      <trkpt lat="45.91682" lon="4.81565">
        <ele>170</ele>
        <time>2017-08-15T09:14:14Z</time>
      </trkpt>
      <trkpt lat="45.91689" lon="4.81563">
        <ele>169</ele>
        <time>2017-08-15T09:14:15Z</time>
      </trkpt>
      <trkpt lat="45.91696" lon="4.81562">
        <ele>169</ele>
        <time>2017-08-15T09:14:16Z</time>
      </trkpt>
      <trkpt lat="45.91703" lon="4.8156">
        <ele>169</ele>
        <time>2017-08-15T09:14:17Z</time>
      </trkpt>
      <trkpt lat="45.91709" lon="4.81558">
        <ele>169</ele>
        <time>2017-08-15T09:14:18Z</time>
      </trkpt>
      <trkpt lat="45.91715" lon="4.81556">
        <ele>169</ele>
        <time>2017-08-15T09:14:19Z</time>
      </trkpt>
      <trkpt lat="45.91722" lon="4.81555">
        <ele>169</ele>
        <time>2017-08-15T09:14:20Z</time>
      </trkpt>
      <trkpt lat="45.91728" lon="4.81553">
        <ele>169</ele>
        <time>2017-08-15T09:14:21Z</time>
      </trkpt>
      <trkpt lat="45.91734" lon="4.81551">
        <ele>169</ele>
        <time>2017-08-15T09:14:22Z</time>
      </trkpt>
      <trkpt lat="45.9174" lon="4.81549">
        <ele>169</ele>
        <time>2017-08-15T09:14:23Z</time>
      </trkpt>
      <trkpt lat="45.91746" lon="4.81546">
        <ele>169</ele>
        <time>2017-08-15T09:14:24Z</time>
      </trkpt>
      <trkpt lat="45.91751" lon="4.81544">
        <ele>168</ele>
        <time>2017-08-15T09:14:25Z</time>
      </trkpt>
      <trkpt lat="45.91757" lon="4.81543">
        <ele>168</ele>
        <time>2017-08-15T09:14:26Z</time>
      </trkpt>
      <trkpt lat="45.91762" lon="4.81541">
        <ele>169</ele>
        <time>2017-08-15T09:14:27Z</time>
      </trkpt>
      <trkpt lat="45.91768" lon="4.8154">
        <ele>169</ele>
        <time>2017-08-15T09:14:28Z</time>
      </trkpt>
      <trkpt lat="45.91774" lon="4.81537">
        <ele>169</ele>
        <time>2017-08-15T09:14:29Z</time>
      </trkpt>
      <trkpt lat="45.9178" lon="4.81535">
        <ele>169</ele>
        <time>2017-08-15T09:14:30Z</time>
      </trkpt>
      <trkpt lat="45.91787" lon="4.81533">
        <ele>169</ele>
        <time>2017-08-15T09:14:31Z</time>
      </trkpt>
      <trkpt lat="45.91793" lon="4.81531">
        <ele>168</ele>
        <time>2017-08-15T09:14:32Z</time>
      </trkpt>
      <trkpt lat="45.918" lon="4.81529">
        <ele>168</ele>
        <time>2017-08-15T09:14:33Z</time>
      </trkpt>
      <trkpt lat="45.91806" lon="4.81526">
        <ele>168</ele>
        <time>2017-08-15T09:14:34Z</time>
      </trkpt>
      <trkpt lat="45.91813" lon="4.81524">
        <ele>168</ele>
        <time>2017-08-15T09:14:35Z</time>
      </trkpt>
      <trkpt lat="45.9182" lon="4.81522">
        <ele>168</ele>
        <time>2017-08-15T09:14:36Z</time>
      </trkpt>
      <trkpt lat="45.91827" lon="4.8152">
        <ele>168</ele>
        <time>2017-08-15T09:14:37Z</time>
      </trkpt>
      <trkpt lat="45.91833" lon="4.81518">
        <ele>168</ele>
        <time>2017-08-15T09:14:38Z</time>
      </trkpt>
      <trkpt lat="45.9184" lon="4.81516">
        <ele>169</ele>
        <time>2017-08-15T09:14:39Z</time>
      </trkpt>
      <trkpt lat="45.91847" lon="4.81513">
        <ele>169</ele>
        <time>2017-08-15T09:14:40Z</time>
      </trkpt>
      <trkpt lat="45.91854" lon="4.81511">
        <ele>169</ele>
        <time>2017-08-15T09:14:41Z</time>
      </trkpt>
      <trkpt lat="45.91861" lon="4.81509">
        <ele>169</ele>
        <time>2017-08-15T09:14:42Z</time>
      </trkpt>
      <trkpt lat="45.91867" lon="4.81508">
        <ele>169</ele>
        <time>2017-08-15T09:14:43Z</time>
      </trkpt>
      <trkpt lat="45.91874" lon="4.81505">
        <ele>169</ele>
        <time>2017-08-15T09:14:44Z</time>
      </trkpt>
      <trkpt lat="45.91882" lon="4.81503">
        <ele>169</ele>
        <time>2017-08-15T09:14:45Z</time>
      </trkpt>
      <trkpt lat="45.91889" lon="4.815">
        <ele>169</ele>
        <time>2017-08-15T09:14:46Z</time>
      </trkpt>
      <trkpt lat="45.91897" lon="4.81497">
        <ele>169</ele>
        <time>2017-08-15T09:14:47Z</time>
      </trkpt>
      <trkpt lat="45.91904" lon="4.81494">
        <ele>169</ele>
        <time>2017-08-15T09:14:48Z</time>
      </trkpt>
      <trkpt lat="45.91912" lon="4.81491">
        <ele>170</ele>
        <time>2017-08-15T09:14:49Z</time>
      </trkpt>
      <trkpt lat="45.91919" lon="4.81488">
        <ele>170</ele>
        <time>2017-08-15T09:14:50Z</time>
      </trkpt>
      <trkpt lat="45.91927" lon="4.81485">
        <ele>170</ele>
        <time>2017-08-15T09:14:51Z</time>
      </trkpt>
      <trkpt lat="45.91934" lon="4.81483">
        <ele>170</ele>
        <time>2017-08-15T09:14:52Z</time>
      </trkpt>
      <trkpt lat="45.91941" lon="4.8148">
        <ele>170</ele>
        <time>2017-08-15T09:14:53Z</time>
      </trkpt>
      <trkpt lat="45.91947" lon="4.81477">
        <ele>170</ele>
        <time>2017-08-15T09:14:54Z</time>
      </trkpt>
      <trkpt lat="45.91954" lon="4.81474">
        <ele>170</ele>
        <time>2017-08-15T09:14:55Z</time>
      </trkpt>
      <trkpt lat="45.9196" lon="4.81471">
        <ele>170</ele>
        <time>2017-08-15T09:14:56Z</time>
      </trkpt>
      <trkpt lat="45.91967" lon="4.81469">
        <ele>170</ele>
        <time>2017-08-15T09:14:57Z</time>
      </trkpt>
      <trkpt lat="45.91973" lon="4.81467">
        <ele>170</ele>
        <time>2017-08-15T09:14:58Z</time>
      </trkpt>
      <trkpt lat="45.91979" lon="4.81464">
        <ele>170</ele>
        <time>2017-08-15T09:14:59Z</time>
      </trkpt>
      <trkpt lat="45.91985" lon="4.81461">
        <ele>170</ele>
        <time>2017-08-15T09:15:00Z</time>
      </trkpt>
      <trkpt lat="45.9199" lon="4.81458">
        <ele>170</ele>
        <time>2017-08-15T09:15:01Z</time>
      </trkpt>
      <trkpt lat="45.91996" lon="4.81454">
        <ele>170</ele>
        <time>2017-08-15T09:15:02Z</time>
      </trkpt>
      <trkpt lat="45.92001" lon="4.81452">
        <ele>170</ele>
        <time>2017-08-15T09:15:03Z</time>
      </trkpt>
      <trkpt lat="45.92006" lon="4.81449">
        <ele>170</ele>
        <time>2017-08-15T09:15:04Z</time>
      </trkpt>
      <trkpt lat="45.92011" lon="4.81447">
        <ele>170</ele>
        <time>2017-08-15T09:15:05Z</time>
      </trkpt>
      <trkpt lat="45.92016" lon="4.81445">
        <ele>170</ele>
        <time>2017-08-15T09:15:06Z</time>
      </trkpt>
      <trkpt lat="45.92022" lon="4.81442">
        <ele>170</ele>
        <time>2017-08-15T09:15:07Z</time>
      </trkpt>
      <trkpt lat="45.92028" lon="4.81439">
        <ele>170</ele>
        <time>2017-08-15T09:15:08Z</time>
      </trkpt>
      <trkpt lat="45.92034" lon="4.81435">
        <ele>170</ele>
        <time>2017-08-15T09:15:09Z</time>
      </trkpt>
      <trkpt lat="45.9204" lon="4.81432">
        <ele>170</ele>
        <time>2017-08-15T09:15:10Z</time>
      </trkpt>
      <trkpt lat="45.92046" lon="4.81428">
        <ele>170</ele>
        <time>2017-08-15T09:15:11Z</time>
      </trkpt>
      <trkpt lat="45.92052" lon="4.81425">
        <ele>170</ele>
        <time>2017-08-15T09:15:12Z</time>
      </trkpt>
      <trkpt lat="45.92058" lon="4.81421">
        <ele>170</ele>
        <time>2017-08-15T09:15:13Z</time>
      </trkpt>
      <trkpt lat="45.92064" lon="4.81417">
        <ele>169</ele>
        <time>2017-08-15T09:15:14Z</time>
      </trkpt>
      <trkpt lat="45.92069" lon="4.81413">
        <ele>170</ele>
        <time>2017-08-15T09:15:15Z</time>
      </trkpt>
      <trkpt lat="45.92075" lon="4.81411">
        <ele>170</ele>
        <time>2017-08-15T09:15:16Z</time>
      </trkpt>
      <trkpt lat="45.9208" lon="4.81407">
        <ele>170</ele>
        <time>2017-08-15T09:15:17Z</time>
      </trkpt>
      <trkpt lat="45.92086" lon="4.81404">
        <ele>170</ele>
        <time>2017-08-15T09:15:18Z</time>
      </trkpt>
      <trkpt lat="45.92092" lon="4.81401">
        <ele>170</ele>
        <time>2017-08-15T09:15:19Z</time>
      </trkpt>
      <trkpt lat="45.92097" lon="4.81398">
        <ele>170</ele>
        <time>2017-08-15T09:15:20Z</time>
      </trkpt>
      <trkpt lat="45.92103" lon="4.81396">
        <ele>170</ele>
        <time>2017-08-15T09:15:21Z</time>
      </trkpt>
      <trkpt lat="45.92108" lon="4.81393">
        <ele>170</ele>
        <time>2017-08-15T09:15:22Z</time>
      </trkpt>
      <trkpt lat="45.92113" lon="4.81391">
        <ele>170</ele>
        <time>2017-08-15T09:15:23Z</time>
      </trkpt>
      <trkpt lat="45.92119" lon="4.81389">
        <ele>170</ele>
        <time>2017-08-15T09:15:24Z</time>
      </trkpt>
      <trkpt lat="45.92125" lon="4.81388">
        <ele>170</ele>
        <time>2017-08-15T09:15:25Z</time>
      </trkpt>
      <trkpt lat="45.9213" lon="4.81387">
        <ele>170</ele>
        <time>2017-08-15T09:15:26Z</time>
      </trkpt>
      <trkpt lat="45.92135" lon="4.81386">
        <ele>170</ele>
        <time>2017-08-15T09:15:27Z</time>
      </trkpt>
      <trkpt lat="45.9214" lon="4.81385">
        <ele>170</ele>
        <time>2017-08-15T09:15:28Z</time>
      </trkpt>
      <trkpt lat="45.92146" lon="4.81384">
        <ele>170</ele>
        <time>2017-08-15T09:15:29Z</time>
      </trkpt>
      <trkpt lat="45.92151" lon="4.81385">
        <ele>170</ele>
        <time>2017-08-15T09:15:30Z</time>
      </trkpt>
      <trkpt lat="45.92159" lon="4.81385">
        <ele>170</ele>
        <time>2017-08-15T09:15:32Z</time>
      </trkpt>
      <trkpt lat="45.92162" lon="4.81386">
        <ele>170</ele>
        <time>2017-08-15T09:15:33Z</time>
      </trkpt>
      <trkpt lat="45.92169" lon="4.81393">
        <ele>170</ele>
        <time>2017-08-15T09:15:36Z</time>
      </trkpt>
      <trkpt lat="45.92172" lon="4.81396">
        <ele>170</ele>
        <time>2017-08-15T09:15:37Z</time>
      </trkpt>
      <trkpt lat="45.92176" lon="4.81398">
        <ele>170</ele>
        <time>2017-08-15T09:15:38Z</time>
      </trkpt>
      <trkpt lat="45.9218" lon="4.81399">
        <ele>170</ele>
        <time>2017-08-15T09:15:39Z</time>
      </trkpt>
      <trkpt lat="45.92185" lon="4.81399">
        <ele>170</ele>
        <time>2017-08-15T09:15:40Z</time>
      </trkpt>
      <trkpt lat="45.9219" lon="4.81397">
        <ele>170</ele>
        <time>2017-08-15T09:15:41Z</time>
      </trkpt>
      <trkpt lat="45.92195" lon="4.81393">
        <ele>170</ele>
        <time>2017-08-15T09:15:42Z</time>
      </trkpt>
      <trkpt lat="45.92198" lon="4.81388">
        <ele>170</ele>
        <time>2017-08-15T09:15:43Z</time>
      </trkpt>
      <trkpt lat="45.922" lon="4.81382">
        <ele>170</ele>
        <time>2017-08-15T09:15:44Z</time>
      </trkpt>
      <trkpt lat="45.92202" lon="4.81375">
        <ele>170</ele>
        <time>2017-08-15T09:15:45Z</time>
      </trkpt>
      <trkpt lat="45.92204" lon="4.81367">
        <ele>170</ele>
        <time>2017-08-15T09:15:46Z</time>
      </trkpt>
      <trkpt lat="45.92207" lon="4.81359">
        <ele>170</ele>
        <time>2017-08-15T09:15:47Z</time>
      </trkpt>
      <trkpt lat="45.92211" lon="4.81352">
        <ele>171</ele>
        <time>2017-08-15T09:15:48Z</time>
      </trkpt>
      <trkpt lat="45.92216" lon="4.81346">
        <ele>171</ele>
        <time>2017-08-15T09:15:49Z</time>
      </trkpt>
      <trkpt lat="45.92222" lon="4.8134">
        <ele>171</ele>
        <time>2017-08-15T09:15:50Z</time>
      </trkpt>
      <trkpt lat="45.92227" lon="4.81334">
        <ele>171</ele>
        <time>2017-08-15T09:15:51Z</time>
      </trkpt>
      <trkpt lat="45.92233" lon="4.81328">
        <ele>171</ele>
        <time>2017-08-15T09:15:52Z</time>
      </trkpt>
      <trkpt lat="45.92239" lon="4.81321">
        <ele>171</ele>
        <time>2017-08-15T09:15:53Z</time>
      </trkpt>
      <trkpt lat="45.92246" lon="4.81315">
        <ele>171</ele>
        <time>2017-08-15T09:15:54Z</time>
      </trkpt>
      <trkpt lat="45.92252" lon="4.81309">
        <ele>171</ele>
        <time>2017-08-15T09:15:55Z</time>
      </trkpt>
      <trkpt lat="45.92259" lon="4.81305">
        <ele>171</ele>
        <time>2017-08-15T09:15:56Z</time>
      </trkpt>
      <trkpt lat="45.92266" lon="4.813">
        <ele>170</ele>
        <time>2017-08-15T09:15:57Z</time>
      </trkpt>
      <trkpt lat="45.92272" lon="4.81296">
        <ele>170</ele>
        <time>2017-08-15T09:15:58Z</time>
      </trkpt>
      <trkpt lat="45.92279" lon="4.81292">
        <ele>170</ele>
        <time>2017-08-15T09:15:59Z</time>
      </trkpt>
      <trkpt lat="45.92285" lon="4.81287">
        <ele>170</ele>
        <time>2017-08-15T09:16:00Z</time>
      </trkpt>
      <trkpt lat="45.92291" lon="4.81283">
        <ele>170</ele>
        <time>2017-08-15T09:16:01Z</time>
      </trkpt>
      <trkpt lat="45.92297" lon="4.81279">
        <ele>170</ele>
        <time>2017-08-15T09:16:02Z</time>
      </trkpt>
      <trkpt lat="45.92303" lon="4.81275">
        <ele>170</ele>
        <time>2017-08-15T09:16:03Z</time>
      </trkpt>
      <trkpt lat="45.92309" lon="4.81271">
        <ele>170</ele>
        <time>2017-08-15T09:16:04Z</time>
      </trkpt>
      <trkpt lat="45.92315" lon="4.81266">
        <ele>170</ele>
        <time>2017-08-15T09:16:05Z</time>
      </trkpt>
      <trkpt lat="45.92322" lon="4.81262">
        <ele>170</ele>
        <time>2017-08-15T09:16:06Z</time>
      </trkpt>
      <trkpt lat="45.92328" lon="4.81258">
        <ele>169</ele>
        <time>2017-08-15T09:16:07Z</time>
      </trkpt>
      <trkpt lat="45.92335" lon="4.81253">
        <ele>169</ele>
        <time>2017-08-15T09:16:08Z</time>
      </trkpt>
      <trkpt lat="45.92342" lon="4.81249">
        <ele>169</ele>
        <time>2017-08-15T09:16:09Z</time>
      </trkpt>
      <trkpt lat="45.92348" lon="4.81244">
        <ele>169</ele>
        <time>2017-08-15T09:16:10Z</time>
      </trkpt>
      <trkpt lat="45.92355" lon="4.8124">
        <ele>169</ele>
        <time>2017-08-15T09:16:11Z</time>
      </trkpt>
      <trkpt lat="45.92361" lon="4.81236">
        <ele>170</ele>
        <time>2017-08-15T09:16:12Z</time>
      </trkpt>
      <trkpt lat="45.92368" lon="4.81233">
        <ele>170</ele>
        <time>2017-08-15T09:16:13Z</time>
      </trkpt>
      <trkpt lat="45.92374" lon="4.81229">
        <ele>170</ele>
        <time>2017-08-15T09:16:14Z</time>
      </trkpt>
      <trkpt lat="45.9238" lon="4.81225">
        <ele>170</ele>
        <time>2017-08-15T09:16:15Z</time>
      </trkpt>
      <trkpt lat="45.92386" lon="4.81223">
        <ele>170</ele>
        <time>2017-08-15T09:16:16Z</time>
      </trkpt>
      <trkpt lat="45.92392" lon="4.81219">
        <ele>170</ele>
        <time>2017-08-15T09:16:17Z</time>
      </trkpt>
      <trkpt lat="45.92398" lon="4.81216">
        <ele>170</ele>
        <time>2017-08-15T09:16:18Z</time>
      </trkpt>
      <trkpt lat="45.92403" lon="4.81213">
        <ele>170</ele>
        <time>2017-08-15T09:16:19Z</time>
      </trkpt>
      <trkpt lat="45.92409" lon="4.81211">
        <ele>170</ele>
        <time>2017-08-15T09:16:20Z</time>
      </trkpt>
      <trkpt lat="45.92415" lon="4.81208">
        <ele>170</ele>
        <time>2017-08-15T09:16:21Z</time>
      </trkpt>
      <trkpt lat="45.92421" lon="4.81206">
        <ele>171</ele>
        <time>2017-08-15T09:16:22Z</time>
      </trkpt>
      <trkpt lat="45.92427" lon="4.81204">
        <ele>171</ele>
        <time>2017-08-15T09:16:23Z</time>
      </trkpt>
      <trkpt lat="45.92433" lon="4.81202">
        <ele>171</ele>
        <time>2017-08-15T09:16:24Z</time>
      </trkpt>
      <trkpt lat="45.92439" lon="4.81201">
        <ele>171</ele>
        <time>2017-08-15T09:16:25Z</time>
      </trkpt>
      <trkpt lat="45.92446" lon="4.81199">
        <ele>171</ele>
        <time>2017-08-15T09:16:26Z</time>
      </trkpt>
      <trkpt lat="45.92453" lon="4.81198">
        <ele>171</ele>
        <time>2017-08-15T09:16:27Z</time>
      </trkpt>
      <trkpt lat="45.9246" lon="4.81198">
        <ele>171</ele>
        <time>2017-08-15T09:16:28Z</time>
      </trkpt>
      <trkpt lat="45.92467" lon="4.81198">
        <ele>171</ele>
        <time>2017-08-15T09:16:29Z</time>
      </trkpt>
      <trkpt lat="45.92475" lon="4.81198">
        <ele>171</ele>
        <time>2017-08-15T09:16:30Z</time>
      </trkpt>
      <trkpt lat="45.92482" lon="4.81198">
        <ele>171</ele>
        <time>2017-08-15T09:16:31Z</time>
      </trkpt>
      <trkpt lat="45.92489" lon="4.81198">
        <ele>171</ele>
        <time>2017-08-15T09:16:32Z</time>
      </trkpt>
      <trkpt lat="45.92496" lon="4.81197">
        <ele>171</ele>
        <time>2017-08-15T09:16:33Z</time>
      </trkpt>
      <trkpt lat="45.92502" lon="4.81197">
        <ele>171</ele>
        <time>2017-08-15T09:16:34Z</time>
      </trkpt>
      <trkpt lat="45.92509" lon="4.81196">
        <ele>171</ele>
        <time>2017-08-15T09:16:35Z</time>
      </trkpt>
      <trkpt lat="45.92516" lon="4.81196">
        <ele>171</ele>
        <time>2017-08-15T09:16:36Z</time>
      </trkpt>
      <trkpt lat="45.92522" lon="4.81195">
        <ele>171</ele>
        <time>2017-08-15T09:16:37Z</time>
      </trkpt>
      <trkpt lat="45.92528" lon="4.81194">
        <ele>171</ele>
        <time>2017-08-15T09:16:38Z</time>
      </trkpt>
      <trkpt lat="45.92534" lon="4.81194">
        <ele>171</ele>
        <time>2017-08-15T09:16:39Z</time>
      </trkpt>
      <trkpt lat="45.9254" lon="4.81193">
        <ele>171</ele>
        <time>2017-08-15T09:16:40Z</time>
      </trkpt>
      <trkpt lat="45.92546" lon="4.81193">
        <ele>170</ele>
        <time>2017-08-15T09:16:41Z</time>
      </trkpt>
      <trkpt lat="45.92552" lon="4.81193">
        <ele>170</ele>
        <time>2017-08-15T09:16:42Z</time>
      </trkpt>
      <trkpt lat="45.92557" lon="4.81193">
        <ele>170</ele>
        <time>2017-08-15T09:16:43Z</time>
      </trkpt>
      <trkpt lat="45.92563" lon="4.81193">
        <ele>170</ele>
        <time>2017-08-15T09:16:44Z</time>
      </trkpt>
      <trkpt lat="45.92569" lon="4.81193">
        <ele>170</ele>
        <time>2017-08-15T09:16:45Z</time>
      </trkpt>
      <trkpt lat="45.92575" lon="4.81192">
        <ele>170</ele>
        <time>2017-08-15T09:16:46Z</time>
      </trkpt>
      <trkpt lat="45.92582" lon="4.81192">
        <ele>170</ele>
        <time>2017-08-15T09:16:47Z</time>
      </trkpt>
      <trkpt lat="45.92588" lon="4.81192">
        <ele>170</ele>
        <time>2017-08-15T09:16:48Z</time>
      </trkpt>
      <trkpt lat="45.92595" lon="4.81191">
        <ele>170</ele>
        <time>2017-08-15T09:16:49Z</time>
      </trkpt>
      <trkpt lat="45.92602" lon="4.8119">
        <ele>170</ele>
        <time>2017-08-15T09:16:50Z</time>
      </trkpt>
      <trkpt lat="45.92609" lon="4.8119">
        <ele>170</ele>
        <time>2017-08-15T09:16:51Z</time>
      </trkpt>
      <trkpt lat="45.92615" lon="4.8119">
        <ele>170</ele>
        <time>2017-08-15T09:16:52Z</time>
      </trkpt>
      <trkpt lat="45.92621" lon="4.81189">
        <ele>170</ele>
        <time>2017-08-15T09:16:53Z</time>
      </trkpt>
      <trkpt lat="45.92628" lon="4.81189">
        <ele>171</ele>
        <time>2017-08-15T09:16:54Z</time>
      </trkpt>
      <trkpt lat="45.92634" lon="4.81188">
        <ele>171</ele>
        <time>2017-08-15T09:16:55Z</time>
      </trkpt>
      <trkpt lat="45.9264" lon="4.81187">
        <ele>171</ele>
        <time>2017-08-15T09:16:56Z</time>
      </trkpt>
      <trkpt lat="45.92646" lon="4.81186">
        <ele>171</ele>
        <time>2017-08-15T09:16:57Z</time>
      </trkpt>
      <trkpt lat="45.92651" lon="4.81186">
        <ele>171</ele>
        <time>2017-08-15T09:16:58Z</time>
      </trkpt>
      <trkpt lat="45.92657" lon="4.81185">
        <ele>171</ele>
        <time>2017-08-15T09:16:59Z</time>
      </trkpt>
      <trkpt lat="45.92662" lon="4.81184">
        <ele>171</ele>
        <time>2017-08-15T09:17:00Z</time>
      </trkpt>
      <trkpt lat="45.92668" lon="4.81184">
        <ele>171</ele>
        <time>2017-08-15T09:17:01Z</time>
      </trkpt>
      <trkpt lat="45.92674" lon="4.81183">
        <ele>171</ele>
        <time>2017-08-15T09:17:02Z</time>
      </trkpt>
      <trkpt lat="45.92679" lon="4.81181">
        <ele>171</ele>
        <time>2017-08-15T09:17:03Z</time>
      </trkpt>
      <trkpt lat="45.92685" lon="4.81179">
        <ele>171</ele>
        <time>2017-08-15T09:17:04Z</time>
      </trkpt>
      <trkpt lat="45.92691" lon="4.81178">
        <ele>170</ele>
        <time>2017-08-15T09:17:05Z</time>
      </trkpt>
      <trkpt lat="45.92697" lon="4.81177">
        <ele>170</ele>
        <time>2017-08-15T09:17:06Z</time>
      </trkpt>
      <trkpt lat="45.92703" lon="4.81176">
        <ele>170</ele>
        <time>2017-08-15T09:17:07Z</time>
      </trkpt>
      <trkpt lat="45.92708" lon="4.81175">
        <ele>170</ele>
        <time>2017-08-15T09:17:08Z</time>
      </trkpt>
      <trkpt lat="45.92714" lon="4.81173">
        <ele>170</ele>
        <time>2017-08-15T09:17:09Z</time>
      </trkpt>
      <trkpt lat="45.9272" lon="4.81173">
        <ele>170</ele>
        <time>2017-08-15T09:17:10Z</time>
      </trkpt>
      <trkpt lat="45.92726" lon="4.81172">
        <ele>170</ele>
        <time>2017-08-15T09:17:11Z</time>
      </trkpt>
      <trkpt lat="45.92731" lon="4.81172">
        <ele>170</ele>
        <time>2017-08-15T09:17:12Z</time>
      </trkpt>
      <trkpt lat="45.92737" lon="4.81171">
        <ele>170</ele>
        <time>2017-08-15T09:17:13Z</time>
      </trkpt>
      <trkpt lat="45.92742" lon="4.81172">
        <ele>170</ele>
        <time>2017-08-15T09:17:14Z</time>
      </trkpt>
      <trkpt lat="45.92748" lon="4.81173">
        <ele>170</ele>
        <time>2017-08-15T09:17:15Z</time>
      </trkpt>
      <trkpt lat="45.92752" lon="4.81175">
        <ele>170</ele>
        <time>2017-08-15T09:17:16Z</time>
      </trkpt>
      <trkpt lat="45.92757" lon="4.8118">
        <ele>170</ele>
        <time>2017-08-15T09:17:17Z</time>
      </trkpt>
      <trkpt lat="45.92762" lon="4.81184">
        <ele>170</ele>
        <time>2017-08-15T09:17:18Z</time>
      </trkpt>
      <trkpt lat="45.92768" lon="4.81187">
        <ele>170</ele>
        <time>2017-08-15T09:17:19Z</time>
      </trkpt>
      <trkpt lat="45.92774" lon="4.81186">
        <ele>170</ele>
        <time>2017-08-15T09:17:20Z</time>
      </trkpt>
      <trkpt lat="45.92779" lon="4.81182">
        <ele>170</ele>
        <time>2017-08-15T09:17:21Z</time>
      </trkpt>
      <trkpt lat="45.92783" lon="4.81175">
        <ele>170</ele>
        <time>2017-08-15T09:17:22Z</time>
      </trkpt>
      <trkpt lat="45.92785" lon="4.81168">
        <ele>170</ele>
        <time>2017-08-15T09:17:23Z</time>
      </trkpt>
      <trkpt lat="45.92787" lon="4.8116">
        <ele>170</ele>
        <time>2017-08-15T09:17:24Z</time>
      </trkpt>
      <trkpt lat="45.92788" lon="4.81153">
        <ele>170</ele>
        <time>2017-08-15T09:17:25Z</time>
      </trkpt>
      <trkpt lat="45.9279" lon="4.81145">
        <ele>170</ele>
        <time>2017-08-15T09:17:26Z</time>
      </trkpt>
      <trkpt lat="45.92793" lon="4.81138">
        <ele>170</ele>
        <time>2017-08-15T09:17:27Z</time>
      </trkpt>
      <trkpt lat="45.92796" lon="4.81131">
        <ele>170</ele>
        <time>2017-08-15T09:17:28Z</time>
      </trkpt>
      <trkpt lat="45.928" lon="4.81125">
        <ele>170</ele>
        <time>2017-08-15T09:17:29Z</time>
      </trkpt>
      <trkpt lat="45.92804" lon="4.81118">
        <ele>170</ele>
        <time>2017-08-15T09:17:30Z</time>
      </trkpt>
      <trkpt lat="45.92808" lon="4.81112">
        <ele>170</ele>
        <time>2017-08-15T09:17:31Z</time>
      </trkpt>
      <trkpt lat="45.92811" lon="4.81106">
        <ele>170</ele>
        <time>2017-08-15T09:17:32Z</time>
      </trkpt>
      <trkpt lat="45.92815" lon="4.811">
        <ele>170</ele>
        <time>2017-08-15T09:17:33Z</time>
      </trkpt>
      <trkpt lat="45.92818" lon="4.81093">
        <ele>170</ele>
        <time>2017-08-15T09:17:34Z</time>
      </trkpt>
      <trkpt lat="45.92822" lon="4.81087">
        <ele>170</ele>
        <time>2017-08-15T09:17:35Z</time>
      </trkpt>
      <trkpt lat="45.92826" lon="4.81081">
        <ele>170</ele>
        <time>2017-08-15T09:17:36Z</time>
      </trkpt>
      <trkpt lat="45.9283" lon="4.81074">
        <ele>170</ele>
        <time>2017-08-15T09:17:37Z</time>
      </trkpt>
      <trkpt lat="45.92834" lon="4.81067">
        <ele>170</ele>
        <time>2017-08-15T09:17:38Z</time>
      </trkpt>
      <trkpt lat="45.92838" lon="4.8106">
        <ele>169</ele>
        <time>2017-08-15T09:17:39Z</time>
      </trkpt>
      <trkpt lat="45.92842" lon="4.81053">
        <ele>169</ele>
        <time>2017-08-15T09:17:40Z</time>
      </trkpt>
      <trkpt lat="45.92846" lon="4.81045">
        <ele>169</ele>
        <time>2017-08-15T09:17:41Z</time>
      </trkpt>
      <trkpt lat="45.9285" lon="4.81037">
        <ele>169</ele>
        <time>2017-08-15T09:17:42Z</time>
      </trkpt>
      <trkpt lat="45.92854" lon="4.81028">
        <ele>169</ele>
        <time>2017-08-15T09:17:43Z</time>
      </trkpt>
      <trkpt lat="45.92858" lon="4.81019">
        <ele>169</ele>
        <time>2017-08-15T09:17:44Z</time>
      </trkpt>
      <trkpt lat="45.92862" lon="4.81009">
        <ele>169</ele>
        <time>2017-08-15T09:17:45Z</time>
      </trkpt>
      <trkpt lat="45.92866" lon="4.81">
        <ele>169</ele>
        <time>2017-08-15T09:17:46Z</time>
      </trkpt>
      <trkpt lat="45.92869" lon="4.8099">
        <ele>169</ele>
        <time>2017-08-15T09:17:47Z</time>
      </trkpt>
      <trkpt lat="45.92873" lon="4.8098">
        <ele>169</ele>
        <time>2017-08-15T09:17:48Z</time>
      </trkpt>
      <trkpt lat="45.92876" lon="4.8097">
        <ele>169</ele>
        <time>2017-08-15T09:17:49Z</time>
      </trkpt>
      <trkpt lat="45.92879" lon="4.8096">
        <ele>170</ele>
        <time>2017-08-15T09:17:50Z</time>
      </trkpt>
      <trkpt lat="45.92882" lon="4.80951">
        <ele>170</ele>
        <time>2017-08-15T09:17:51Z</time>
      </trkpt>
      <trkpt lat="45.92886" lon="4.80942">
        <ele>170</ele>
        <time>2017-08-15T09:17:52Z</time>
      </trkpt>
      <trkpt lat="45.92888" lon="4.80933">
        <ele>170</ele>
        <time>2017-08-15T09:17:53Z</time>
      </trkpt>
      <trkpt lat="45.92891" lon="4.80924">
        <ele>170</ele>
        <time>2017-08-15T09:17:54Z</time>
      </trkpt>
      <trkpt lat="45.92894" lon="4.80916">
        <ele>170</ele>
        <time>2017-08-15T09:17:55Z</time>
      </trkpt>
      <trkpt lat="45.92897" lon="4.80907">
        <ele>170</ele>
        <time>2017-08-15T09:17:56Z</time>
      </trkpt>
      <trkpt lat="45.929" lon="4.80899">
        <ele>170</ele>
        <time>2017-08-15T09:17:57Z</time>
      </trkpt>
      <trkpt lat="45.92902" lon="4.80891">
        <ele>170</ele>
        <time>2017-08-15T09:17:58Z</time>
      </trkpt>
      <trkpt lat="45.92905" lon="4.80883">
        <ele>171</ele>
        <time>2017-08-15T09:17:59Z</time>
      </trkpt>
      <trkpt lat="45.92908" lon="4.80876">
        <ele>171</ele>
        <time>2017-08-15T09:18:00Z</time>
      </trkpt>
      <trkpt lat="45.92911" lon="4.80868">
        <ele>171</ele>
        <time>2017-08-15T09:18:01Z</time>
      </trkpt>
      <trkpt lat="45.92914" lon="4.80861">
        <ele>171</ele>
        <time>2017-08-15T09:18:02Z</time>
      </trkpt>
      <trkpt lat="45.92917" lon="4.80853">
        <ele>171</ele>
        <time>2017-08-15T09:18:03Z</time>
      </trkpt>
      <trkpt lat="45.92919" lon="4.80845">
        <ele>171</ele>
        <time>2017-08-15T09:18:04Z</time>
      </trkpt>
      <trkpt lat="45.92922" lon="4.80836">
        <ele>172</ele>
        <time>2017-08-15T09:18:05Z</time>
      </trkpt>
      <trkpt lat="45.92925" lon="4.80828">
        <ele>172</ele>
        <time>2017-08-15T09:18:06Z</time>
      </trkpt>
      <trkpt lat="45.92928" lon="4.80818">
        <ele>172</ele>
        <time>2017-08-15T09:18:07Z</time>
      </trkpt>
      <trkpt lat="45.9293" lon="4.80809">
        <ele>172</ele>
        <time>2017-08-15T09:18:08Z</time>
      </trkpt>
      <trkpt lat="45.92933" lon="4.808">
        <ele>172</ele>
        <time>2017-08-15T09:18:09Z</time>
      </trkpt>
      <trkpt lat="45.92936" lon="4.80791">
        <ele>172</ele>
        <time>2017-08-15T09:18:10Z</time>
      </trkpt>
      <trkpt lat="45.92938" lon="4.80782">
        <ele>172</ele>
        <time>2017-08-15T09:18:11Z</time>
      </trkpt>
      <trkpt lat="45.92941" lon="4.80774">
        <ele>172</ele>
        <time>2017-08-15T09:18:12Z</time>
      </trkpt>
      <trkpt lat="45.92944" lon="4.80766">
        <ele>172</ele>
        <time>2017-08-15T09:18:13Z</time>
      </trkpt>
      <trkpt lat="45.92947" lon="4.80758">
        <ele>172</ele>
        <time>2017-08-15T09:18:14Z</time>
      </trkpt>
      <trkpt lat="45.9295" lon="4.8075">
        <ele>172</ele>
        <time>2017-08-15T09:18:15Z</time>
      </trkpt>
      <trkpt lat="45.92953" lon="4.80742">
        <ele>172</ele>
        <time>2017-08-15T09:18:16Z</time>
      </trkpt>
      <trkpt lat="45.92956" lon="4.80734">
        <ele>172</ele>
        <time>2017-08-15T09:18:17Z</time>
      </trkpt>
      <trkpt lat="45.92959" lon="4.80727">
        <ele>172</ele>
        <time>2017-08-15T09:18:18Z</time>
      </trkpt>
      <trkpt lat="45.92962" lon="4.8072">
        <ele>172</ele>
        <time>2017-08-15T09:18:19Z</time>
      </trkpt>
      <trkpt lat="45.92965" lon="4.80712">
        <ele>172</ele>
        <time>2017-08-15T09:18:20Z</time>
      </trkpt>
      <trkpt lat="45.92967" lon="4.80704">
        <ele>172</ele>
        <time>2017-08-15T09:18:21Z</time>
      </trkpt>
      <trkpt lat="45.92969" lon="4.80697">
        <ele>172</ele>
        <time>2017-08-15T09:18:22Z</time>
      </trkpt>
      <trkpt lat="45.92972" lon="4.80689">
        <ele>172</ele>
        <time>2017-08-15T09:18:23Z</time>
      </trkpt>
      <trkpt lat="45.92974" lon="4.8068">
        <ele>172</ele>
        <time>2017-08-15T09:18:24Z</time>
      </trkpt>
      <trkpt lat="45.92976" lon="4.80671">
        <ele>172</ele>
        <time>2017-08-15T09:18:25Z</time>
      </trkpt>
      <trkpt lat="45.92979" lon="4.80663">
        <ele>172</ele>
        <time>2017-08-15T09:18:26Z</time>
      </trkpt>
      <trkpt lat="45.92982" lon="4.80654">
        <ele>172</ele>
        <time>2017-08-15T09:18:27Z</time>
      </trkpt>
      <trkpt lat="45.92985" lon="4.80645">
        <ele>172</ele>
        <time>2017-08-15T09:18:28Z</time>
      </trkpt>
      <trkpt lat="45.92988" lon="4.80636">
        <ele>172</ele>
        <time>2017-08-15T09:18:29Z</time>
      </trkpt>
      <trkpt lat="45.92991" lon="4.80626">
        <ele>172</ele>
        <time>2017-08-15T09:18:30Z</time>
      </trkpt>
      <trkpt lat="45.92994" lon="4.80617">
        <ele>172</ele>
        <time>2017-08-15T09:18:31Z</time>
      </trkpt>
      <trkpt lat="45.92996" lon="4.80607">
        <ele>172</ele>
        <time>2017-08-15T09:18:32Z</time>
      </trkpt>
      <trkpt lat="45.92999" lon="4.80598">
        <ele>172</ele>
        <time>2017-08-15T09:18:33Z</time>
      </trkpt>
      <trkpt lat="45.93003" lon="4.8059">
        <ele>172</ele>
        <time>2017-08-15T09:18:34Z</time>
      </trkpt>
      <trkpt lat="45.93006" lon="4.80581">
        <ele>172</ele>
        <time>2017-08-15T09:18:35Z</time>
      </trkpt>
      <trkpt lat="45.93009" lon="4.80572">
        <ele>172</ele>
        <time>2017-08-15T09:18:36Z</time>
      </trkpt>
      <trkpt lat="45.93012" lon="4.80564">
        <ele>172</ele>
        <time>2017-08-15T09:18:37Z</time>
      </trkpt>
      <trkpt lat="45.93015" lon="4.80556">
        <ele>172</ele>
        <time>2017-08-15T09:18:38Z</time>
      </trkpt>
      <trkpt lat="45.93017" lon="4.80548">
        <ele>172</ele>
        <time>2017-08-15T09:18:39Z</time>
      </trkpt>
      <trkpt lat="45.9302" lon="4.8054">
        <ele>172</ele>
        <time>2017-08-15T09:18:40Z</time>
      </trkpt>
      <trkpt lat="45.93022" lon="4.80532">
        <ele>172</ele>
        <time>2017-08-15T09:18:41Z</time>
      </trkpt>
      <trkpt lat="45.93024" lon="4.80525">
        <ele>172</ele>
        <time>2017-08-15T09:18:42Z</time>
      </trkpt>
      <trkpt lat="45.93027" lon="4.80518">
        <ele>172</ele>
        <time>2017-08-15T09:18:43Z</time>
      </trkpt>
      <trkpt lat="45.9303" lon="4.80511">
        <ele>172</ele>
        <time>2017-08-15T09:18:44Z</time>
      </trkpt>
      <trkpt lat="45.93032" lon="4.80504">
        <ele>172</ele>
        <time>2017-08-15T09:18:45Z</time>
      </trkpt>
      <trkpt lat="45.93034" lon="4.80496">
        <ele>171</ele>
        <time>2017-08-15T09:18:46Z</time>
      </trkpt>
      <trkpt lat="45.93037" lon="4.80489">
        <ele>171</ele>
        <time>2017-08-15T09:18:47Z</time>
      </trkpt>
      <trkpt lat="45.93039" lon="4.80481">
        <ele>171</ele>
        <time>2017-08-15T09:18:48Z</time>
      </trkpt>
      <trkpt lat="45.93042" lon="4.80473">
        <ele>171</ele>
        <time>2017-08-15T09:18:49Z</time>
      </trkpt>
      <trkpt lat="45.93045" lon="4.80465">
        <ele>171</ele>
        <time>2017-08-15T09:18:50Z</time>
      </trkpt>
      <trkpt lat="45.93047" lon="4.80456">
        <ele>171</ele>
        <time>2017-08-15T09:18:51Z</time>
      </trkpt>
      <trkpt lat="45.93049" lon="4.80446">
        <ele>171</ele>
        <time>2017-08-15T09:18:52Z</time>
      </trkpt>
      <trkpt lat="45.93052" lon="4.80437">
        <ele>171</ele>
        <time>2017-08-15T09:18:53Z</time>
      </trkpt>
      <trkpt lat="45.93055" lon="4.80428">
        <ele>171</ele>
        <time>2017-08-15T09:18:54Z</time>
      </trkpt>
      <trkpt lat="45.93057" lon="4.80418">
        <ele>171</ele>
        <time>2017-08-15T09:18:55Z</time>
      </trkpt>
      <trkpt lat="45.9306" lon="4.8041">
        <ele>170</ele>
        <time>2017-08-15T09:18:56Z</time>
      </trkpt>
      <trkpt lat="45.93063" lon="4.80401">
        <ele>170</ele>
        <time>2017-08-15T09:18:57Z</time>
      </trkpt>
      <trkpt lat="45.93067" lon="4.80392">
        <ele>170</ele>
        <time>2017-08-15T09:18:58Z</time>
      </trkpt>
      <trkpt lat="45.9307" lon="4.80384">
        <ele>170</ele>
        <time>2017-08-15T09:18:59Z</time>
      </trkpt>
      <trkpt lat="45.93073" lon="4.80376">
        <ele>170</ele>
        <time>2017-08-15T09:19:00Z</time>
      </trkpt>
      <trkpt lat="45.93076" lon="4.80367">
        <ele>170</ele>
        <time>2017-08-15T09:19:01Z</time>
      </trkpt>
      <trkpt lat="45.93079" lon="4.80359">
        <ele>170</ele>
        <time>2017-08-15T09:19:02Z</time>
      </trkpt>
      <trkpt lat="45.93081" lon="4.80351">
        <ele>169</ele>
        <time>2017-08-15T09:19:03Z</time>
      </trkpt>
      <trkpt lat="45.93084" lon="4.80343">
        <ele>169</ele>
        <time>2017-08-15T09:19:04Z</time>
      </trkpt>
      <trkpt lat="45.93087" lon="4.80335">
        <ele>169</ele>
        <time>2017-08-15T09:19:05Z</time>
      </trkpt>
      <trkpt lat="45.93089" lon="4.80327">
        <ele>169</ele>
        <time>2017-08-15T09:19:06Z</time>
      </trkpt>
      <trkpt lat="45.93092" lon="4.80319">
        <ele>169</ele>
        <time>2017-08-15T09:19:07Z</time>
      </trkpt>
      <trkpt lat="45.93094" lon="4.80312">
        <ele>169</ele>
        <time>2017-08-15T09:19:08Z</time>
      </trkpt>
      <trkpt lat="45.93097" lon="4.80304">
        <ele>169</ele>
        <time>2017-08-15T09:19:09Z</time>
      </trkpt>
      <trkpt lat="45.93099" lon="4.80297">
        <ele>169</ele>
        <time>2017-08-15T09:19:10Z</time>
      </trkpt>
      <trkpt lat="45.93102" lon="4.80289">
        <ele>169</ele>
        <time>2017-08-15T09:19:11Z</time>
      </trkpt>
      <trkpt lat="45.93104" lon="4.80281">
        <ele>169</ele>
        <time>2017-08-15T09:19:12Z</time>
      </trkpt>
      <trkpt lat="45.93107" lon="4.80273">
        <ele>169</ele>
        <time>2017-08-15T09:19:13Z</time>
      </trkpt>
      <trkpt lat="45.9311" lon="4.80265">
        <ele>169</ele>
        <time>2017-08-15T09:19:14Z</time>
      </trkpt>
      <trkpt lat="45.93113" lon="4.80256">
        <ele>169</ele>
        <time>2017-08-15T09:19:15Z</time>
      </trkpt>
      <trkpt lat="45.93116" lon="4.80246">
        <ele>169</ele>
        <time>2017-08-15T09:19:16Z</time>
      </trkpt>
      <trkpt lat="45.93119" lon="4.80237">
        <ele>169</ele>
        <time>2017-08-15T09:19:17Z</time>
      </trkpt>
      <trkpt lat="45.93121" lon="4.80228">
        <ele>169</ele>
        <time>2017-08-15T09:19:18Z</time>
      </trkpt>
      <trkpt lat="45.93124" lon="4.80218">
        <ele>169</ele>
        <time>2017-08-15T09:19:19Z</time>
      </trkpt>
      <trkpt lat="45.93126" lon="4.80209">
        <ele>169</ele>
        <time>2017-08-15T09:19:20Z</time>
      </trkpt>
      <trkpt lat="45.93129" lon="4.80201">
        <ele>169</ele>
        <time>2017-08-15T09:19:21Z</time>
      </trkpt>
      <trkpt lat="45.93132" lon="4.80193">
        <ele>169</ele>
        <time>2017-08-15T09:19:22Z</time>
      </trkpt>
      <trkpt lat="45.93135" lon="4.80185">
        <ele>169</ele>
        <time>2017-08-15T09:19:23Z</time>
      </trkpt>
      <trkpt lat="45.93137" lon="4.80177">
        <ele>169</ele>
        <time>2017-08-15T09:19:24Z</time>
      </trkpt>
      <trkpt lat="45.9314" lon="4.80169">
        <ele>169</ele>
        <time>2017-08-15T09:19:25Z</time>
      </trkpt>
      <trkpt lat="45.93142" lon="4.80162">
        <ele>169</ele>
        <time>2017-08-15T09:19:26Z</time>
      </trkpt>
      <trkpt lat="45.93145" lon="4.80154">
        <ele>169</ele>
        <time>2017-08-15T09:19:27Z</time>
      </trkpt>
      <trkpt lat="45.93147" lon="4.80146">
        <ele>169</ele>
        <time>2017-08-15T09:19:28Z</time>
      </trkpt>
      <trkpt lat="45.9315" lon="4.80139">
        <ele>169</ele>
        <time>2017-08-15T09:19:29Z</time>
      </trkpt>
      <trkpt lat="45.93152" lon="4.80133">
        <ele>169</ele>
        <time>2017-08-15T09:19:30Z</time>
      </trkpt>
      <trkpt lat="45.93155" lon="4.80126">
        <ele>169</ele>
        <time>2017-08-15T09:19:31Z</time>
      </trkpt>
      <trkpt lat="45.93157" lon="4.80119">
        <ele>169</ele>
        <time>2017-08-15T09:19:32Z</time>
      </trkpt>
      <trkpt lat="45.9316" lon="4.80112">
        <ele>169</ele>
        <time>2017-08-15T09:19:33Z</time>
      </trkpt>
      <trkpt lat="45.93162" lon="4.80105">
        <ele>170</ele>
        <time>2017-08-15T09:19:34Z</time>
      </trkpt>
      <trkpt lat="45.93165" lon="4.80099">
        <ele>170</ele>
        <time>2017-08-15T09:19:35Z</time>
      </trkpt>
      <trkpt lat="45.93168" lon="4.80092">
        <ele>170</ele>
        <time>2017-08-15T09:19:36Z</time>
      </trkpt>
      <trkpt lat="45.93171" lon="4.80085">
        <ele>170</ele>
        <time>2017-08-15T09:19:37Z</time>
      </trkpt>
      <trkpt lat="45.93175" lon="4.80081">
        <ele>170</ele>
        <time>2017-08-15T09:19:38Z</time>
      </trkpt>
      <trkpt lat="45.9318" lon="4.80078">
        <ele>170</ele>
        <time>2017-08-15T09:19:39Z</time>
      </trkpt>
      <trkpt lat="45.93185" lon="4.80077">
        <ele>170</ele>
        <time>2017-08-15T09:19:40Z</time>
      </trkpt>
      <trkpt lat="45.9319" lon="4.80076">
        <ele>170</ele>
        <time>2017-08-15T09:19:41Z</time>
      </trkpt>
      <trkpt lat="45.93195" lon="4.80073">
        <ele>170</ele>
        <time>2017-08-15T09:19:42Z</time>
      </trkpt>
      <trkpt lat="45.932" lon="4.80068">
        <ele>170</ele>
        <time>2017-08-15T09:19:43Z</time>
      </trkpt>
      <trkpt lat="45.93204" lon="4.80061">
        <ele>170</ele>
        <time>2017-08-15T09:19:44Z</time>
      </trkpt>
      <trkpt lat="45.93205" lon="4.80052">
        <ele>170</ele>
        <time>2017-08-15T09:19:45Z</time>
      </trkpt>
      <trkpt lat="45.93205" lon="4.80043">
        <ele>170</ele>
        <time>2017-08-15T09:19:46Z</time>
      </trkpt>
      <trkpt lat="45.93204" lon="4.80034">
        <ele>170</ele>
        <time>2017-08-15T09:19:47Z</time>
      </trkpt>
      <trkpt lat="45.93201" lon="4.80026">
        <ele>170</ele>
        <time>2017-08-15T09:19:48Z</time>
      </trkpt>
      <trkpt lat="45.93197" lon="4.80018">
        <ele>170</ele>
        <time>2017-08-15T09:19:49Z</time>
      </trkpt>
      <trkpt lat="45.93193" lon="4.80011">
        <ele>170</ele>
        <time>2017-08-15T09:19:50Z</time>
      </trkpt>
      <trkpt lat="45.9319" lon="4.80003">
        <ele>170</ele>
        <time>2017-08-15T09:19:51Z</time>
      </trkpt>
      <trkpt lat="45.93189" lon="4.79995">
        <ele>170</ele>
        <time>2017-08-15T09:19:52Z</time>
      </trkpt>
      <trkpt lat="45.93189" lon="4.79985">
        <ele>170</ele>
        <time>2017-08-15T09:19:53Z</time>
      </trkpt>
      <trkpt lat="45.9319" lon="4.79976">
        <ele>170</ele>
        <time>2017-08-15T09:19:54Z</time>
      </trkpt>
      <trkpt lat="45.93193" lon="4.79968">
        <ele>170</ele>
        <time>2017-08-15T09:19:55Z</time>
      </trkpt>
      <trkpt lat="45.93195" lon="4.79961">
        <ele>170</ele>
        <time>2017-08-15T09:19:56Z</time>
      </trkpt>
      <trkpt lat="45.93198" lon="4.79953">
        <ele>171</ele>
        <time>2017-08-15T09:19:57Z</time>
      </trkpt>
      <trkpt lat="45.93201" lon="4.79946">
        <ele>171</ele>
        <time>2017-08-15T09:19:58Z</time>
      </trkpt>
      <trkpt lat="45.93204" lon="4.7994">
        <ele>171</ele>
        <time>2017-08-15T09:19:59Z</time>
      </trkpt>
      <trkpt lat="45.93207" lon="4.79933">
        <ele>171</ele>
        <time>2017-08-15T09:20:00Z</time>
      </trkpt>
      <trkpt lat="45.9321" lon="4.79928">
        <ele>171</ele>
        <time>2017-08-15T09:20:01Z</time>
      </trkpt>
      <trkpt lat="45.93213" lon="4.79922">
        <ele>171</ele>
        <time>2017-08-15T09:20:02Z</time>
      </trkpt>
      <trkpt lat="45.93216" lon="4.79916">
        <ele>172</ele>
        <time>2017-08-15T09:20:03Z</time>
      </trkpt>
      <trkpt lat="45.93219" lon="4.79909">
        <ele>172</ele>
        <time>2017-08-15T09:20:04Z</time>
      </trkpt>
      <trkpt lat="45.93222" lon="4.79903">
        <ele>172</ele>
        <time>2017-08-15T09:20:05Z</time>
      </trkpt>
      <trkpt lat="45.93225" lon="4.79896">
        <ele>172</ele>
        <time>2017-08-15T09:20:06Z</time>
      </trkpt>
      <trkpt lat="45.93228" lon="4.79889">
        <ele>172</ele>
        <time>2017-08-15T09:20:07Z</time>
      </trkpt>
      <trkpt lat="45.93231" lon="4.79883">
        <ele>172</ele>
        <time>2017-08-15T09:20:08Z</time>
      </trkpt>
      <trkpt lat="45.93235" lon="4.79876">
        <ele>172</ele>
        <time>2017-08-15T09:20:09Z</time>
      </trkpt>
      <trkpt lat="45.93238" lon="4.79869">
        <ele>172</ele>
        <time>2017-08-15T09:20:10Z</time>
      </trkpt>
      <trkpt lat="45.93241" lon="4.79862">
        <ele>173</ele>
        <time>2017-08-15T09:20:11Z</time>
      </trkpt>
      <trkpt lat="45.93244" lon="4.79855">
        <ele>173</ele>
        <time>2017-08-15T09:20:12Z</time>
      </trkpt>
      <trkpt lat="45.93247" lon="4.79848">
        <ele>173</ele>
        <time>2017-08-15T09:20:13Z</time>
      </trkpt>
      <trkpt lat="45.93249" lon="4.79842">
        <ele>173</ele>
        <time>2017-08-15T09:20:14Z</time>
      </trkpt>
      <trkpt lat="45.93251" lon="4.79835">
        <ele>174</ele>
        <time>2017-08-15T09:20:15Z</time>
      </trkpt>
      <trkpt lat="45.93254" lon="4.79829">
        <ele>174</ele>
        <time>2017-08-15T09:20:16Z</time>
      </trkpt>
      <trkpt lat="45.93256" lon="4.79823">
        <ele>174</ele>
        <time>2017-08-15T09:20:17Z</time>
      </trkpt>
      <trkpt lat="45.93258" lon="4.79816">
        <ele>174</ele>
        <time>2017-08-15T09:20:18Z</time>
      </trkpt>
      <trkpt lat="45.9326" lon="4.79809">
        <ele>174</ele>
        <time>2017-08-15T09:20:19Z</time>
      </trkpt>
      <trkpt lat="45.93262" lon="4.79802">
        <ele>175</ele>
        <time>2017-08-15T09:20:20Z</time>
      </trkpt>
      <trkpt lat="45.93265" lon="4.79795">
        <ele>175</ele>
        <time>2017-08-15T09:20:21Z</time>
      </trkpt>
      <trkpt lat="45.93267" lon="4.79788">
        <ele>175</ele>
        <time>2017-08-15T09:20:22Z</time>
      </trkpt>
      <trkpt lat="45.93269" lon="4.7978">
        <ele>175</ele>
        <time>2017-08-15T09:20:23Z</time>
      </trkpt>
      <trkpt lat="45.93272" lon="4.79774">
        <ele>175</ele>
        <time>2017-08-15T09:20:24Z</time>
      </trkpt>
      <trkpt lat="45.93275" lon="4.79767">
        <ele>175</ele>
        <time>2017-08-15T09:20:25Z</time>
      </trkpt>
      <trkpt lat="45.93277" lon="4.79759">
        <ele>175</ele>
        <time>2017-08-15T09:20:26Z</time>
      </trkpt>
      <trkpt lat="45.9328" lon="4.79751">
        <ele>175</ele>
        <time>2017-08-15T09:20:27Z</time>
      </trkpt>
      <trkpt lat="45.93282" lon="4.79743">
        <ele>177</ele>
        <time>2017-08-15T09:20:28Z</time>
      </trkpt>
      <trkpt lat="45.93285" lon="4.79736">
        <ele>177</ele>
        <time>2017-08-15T09:20:29Z</time>
      </trkpt>
      <trkpt lat="45.93288" lon="4.79729">
        <ele>177</ele>
        <time>2017-08-15T09:20:30Z</time>
      </trkpt>
      <trkpt lat="45.9329" lon="4.79722">
        <ele>177</ele>
        <time>2017-08-15T09:20:31Z</time>
      </trkpt>
      <trkpt lat="45.93291" lon="4.79715">
        <ele>177</ele>
        <time>2017-08-15T09:20:32Z</time>
      </trkpt>
      <trkpt lat="45.93293" lon="4.79709">
        <ele>177</ele>
        <time>2017-08-15T09:20:33Z</time>
      </trkpt>
      <trkpt lat="45.93295" lon="4.79702">
        <ele>177</ele>
        <time>2017-08-15T09:20:34Z</time>
      </trkpt>
      <trkpt lat="45.93297" lon="4.79695">
        <ele>177</ele>
        <time>2017-08-15T09:20:35Z</time>
      </trkpt>
      <trkpt lat="45.933" lon="4.79689">
        <ele>177</ele>
        <time>2017-08-15T09:20:36Z</time>
      </trkpt>
      <trkpt lat="45.93302" lon="4.79683">
        <ele>177</ele>
        <time>2017-08-15T09:20:37Z</time>
      </trkpt>
      <trkpt lat="45.93304" lon="4.79676">
        <ele>177</ele>
        <time>2017-08-15T09:20:38Z</time>
      </trkpt>
      <trkpt lat="45.93307" lon="4.79668">
        <ele>177</ele>
        <time>2017-08-15T09:20:39Z</time>
      </trkpt>
      <trkpt lat="45.93309" lon="4.79661">
        <ele>177</ele>
        <time>2017-08-15T09:20:40Z</time>
      </trkpt>
      <trkpt lat="45.93311" lon="4.79654">
        <ele>177</ele>
        <time>2017-08-15T09:20:41Z</time>
      </trkpt>
      <trkpt lat="45.93313" lon="4.79646">
        <ele>177</ele>
        <time>2017-08-15T09:20:42Z</time>
      </trkpt>
      <trkpt lat="45.93316" lon="4.79638">
        <ele>177</ele>
        <time>2017-08-15T09:20:43Z</time>
      </trkpt>
      <trkpt lat="45.93319" lon="4.79631">
        <ele>177</ele>
        <time>2017-08-15T09:20:44Z</time>
      </trkpt>
      <trkpt lat="45.93321" lon="4.79624">
        <ele>177</ele>
        <time>2017-08-15T09:20:45Z</time>
      </trkpt>
      <trkpt lat="45.93323" lon="4.79617">
        <ele>177</ele>
        <time>2017-08-15T09:20:46Z</time>
      </trkpt>
      <trkpt lat="45.93326" lon="4.79611">
        <ele>177</ele>
        <time>2017-08-15T09:20:47Z</time>
      </trkpt>
      <trkpt lat="45.93329" lon="4.79605">
        <ele>177</ele>
        <time>2017-08-15T09:20:48Z</time>
      </trkpt>
      <trkpt lat="45.93331" lon="4.79599">
        <ele>177</ele>
        <time>2017-08-15T09:20:49Z</time>
      </trkpt>
      <trkpt lat="45.93334" lon="4.79592">
        <ele>177</ele>
        <time>2017-08-15T09:20:50Z</time>
      </trkpt>
      <trkpt lat="45.93336" lon="4.79585">
        <ele>177</ele>
        <time>2017-08-15T09:20:51Z</time>
      </trkpt>
      <trkpt lat="45.93338" lon="4.79578">
        <ele>177</ele>
        <time>2017-08-15T09:20:52Z</time>
      </trkpt>
      <trkpt lat="45.9334" lon="4.7957">
        <ele>177</ele>
        <time>2017-08-15T09:20:53Z</time>
      </trkpt>
      <trkpt lat="45.93342" lon="4.79563">
        <ele>177</ele>
        <time>2017-08-15T09:20:54Z</time>
      </trkpt>
      <trkpt lat="45.93344" lon="4.79555">
        <ele>177</ele>
        <time>2017-08-15T09:20:55Z</time>
      </trkpt>
      <trkpt lat="45.93347" lon="4.79547">
        <ele>177</ele>
        <time>2017-08-15T09:20:56Z</time>
      </trkpt>
      <trkpt lat="45.9335" lon="4.79539">
        <ele>177</ele>
        <time>2017-08-15T09:20:57Z</time>
      </trkpt>
      <trkpt lat="45.93352" lon="4.79532">
        <ele>177</ele>
        <time>2017-08-15T09:20:58Z</time>
      </trkpt>
      <trkpt lat="45.93355" lon="4.79525">
        <ele>177</ele>
        <time>2017-08-15T09:20:59Z</time>
      </trkpt>
      <trkpt lat="45.93357" lon="4.79517">
        <ele>177</ele>
        <time>2017-08-15T09:21:00Z</time>
      </trkpt>
      <trkpt lat="45.93359" lon="4.79509">
        <ele>177</ele>
        <time>2017-08-15T09:21:01Z</time>
      </trkpt>
      <trkpt lat="45.93362" lon="4.79501">
        <ele>177</ele>
        <time>2017-08-15T09:21:02Z</time>
      </trkpt>
      <trkpt lat="45.93364" lon="4.79493">
        <ele>176</ele>
        <time>2017-08-15T09:21:03Z</time>
      </trkpt>
      <trkpt lat="45.93367" lon="4.79485">
        <ele>175</ele>
        <time>2017-08-15T09:21:04Z</time>
      </trkpt>
      <trkpt lat="45.9337" lon="4.79477">
        <ele>175</ele>
        <time>2017-08-15T09:21:05Z</time>
      </trkpt>
      <trkpt lat="45.93373" lon="4.79469">
        <ele>175</ele>
        <time>2017-08-15T09:21:06Z</time>
      </trkpt>
      <trkpt lat="45.93376" lon="4.79461">
        <ele>175</ele>
        <time>2017-08-15T09:21:07Z</time>
      </trkpt>
      <trkpt lat="45.93379" lon="4.79452">
        <ele>175</ele>
        <time>2017-08-15T09:21:08Z</time>
      </trkpt>
      <trkpt lat="45.93381" lon="4.79443">
        <ele>175</ele>
        <time>2017-08-15T09:21:09Z</time>
      </trkpt>
      <trkpt lat="45.93384" lon="4.79435">
        <ele>175</ele>
        <time>2017-08-15T09:21:10Z</time>
      </trkpt>
      <trkpt lat="45.93387" lon="4.79426">
        <ele>174</ele>
        <time>2017-08-15T09:21:11Z</time>
      </trkpt>
      <trkpt lat="45.9339" lon="4.79418">
        <ele>174</ele>
        <time>2017-08-15T09:21:12Z</time>
      </trkpt>
      <trkpt lat="45.93393" lon="4.7941">
        <ele>173</ele>
        <time>2017-08-15T09:21:13Z</time>
      </trkpt>
      <trkpt lat="45.93396" lon="4.79401">
        <ele>173</ele>
        <time>2017-08-15T09:21:14Z</time>
      </trkpt>
      <trkpt lat="45.93399" lon="4.79392">
        <ele>172</ele>
        <time>2017-08-15T09:21:15Z</time>
      </trkpt>
      <trkpt lat="45.93403" lon="4.79383">
        <ele>172</ele>
        <time>2017-08-15T09:21:16Z</time>
      </trkpt>
      <trkpt lat="45.93406" lon="4.79374">
        <ele>172</ele>
        <time>2017-08-15T09:21:17Z</time>
      </trkpt>
      <trkpt lat="45.93409" lon="4.79366">
        <ele>172</ele>
        <time>2017-08-15T09:21:18Z</time>
      </trkpt>
      <trkpt lat="45.93413" lon="4.79357">
        <ele>172</ele>
        <time>2017-08-15T09:21:19Z</time>
      </trkpt>
      <trkpt lat="45.93417" lon="4.79348">
        <ele>173</ele>
        <time>2017-08-15T09:21:20Z</time>
      </trkpt>
      <trkpt lat="45.9342" lon="4.79339">
        <ele>173</ele>
        <time>2017-08-15T09:21:21Z</time>
      </trkpt>
      <trkpt lat="45.93423" lon="4.79331">
        <ele>172</ele>
        <time>2017-08-15T09:21:22Z</time>
      </trkpt>
      <trkpt lat="45.93426" lon="4.79322">
        <ele>172</ele>
        <time>2017-08-15T09:21:23Z</time>
      </trkpt>
      <trkpt lat="45.93429" lon="4.79314">
        <ele>172</ele>
        <time>2017-08-15T09:21:24Z</time>
      </trkpt>
      <trkpt lat="45.93432" lon="4.79306">
        <ele>173</ele>
        <time>2017-08-15T09:21:25Z</time>
      </trkpt>
      <trkpt lat="45.93435" lon="4.79298">
        <ele>173</ele>
        <time>2017-08-15T09:21:26Z</time>
      </trkpt>
      <trkpt lat="45.93438" lon="4.7929">
        <ele>173</ele>
        <time>2017-08-15T09:21:27Z</time>
      </trkpt>
      <trkpt lat="45.93441" lon="4.79282">
        <ele>173</ele>
        <time>2017-08-15T09:21:28Z</time>
      </trkpt>
      <trkpt lat="45.93444" lon="4.79274">
        <ele>173</ele>
        <time>2017-08-15T09:21:29Z</time>
      </trkpt>
      <trkpt lat="45.93446" lon="4.79266">
        <ele>172</ele>
        <time>2017-08-15T09:21:30Z</time>
      </trkpt>
      <trkpt lat="45.93449" lon="4.79258">
        <ele>172</ele>
        <time>2017-08-15T09:21:31Z</time>
      </trkpt>
      <trkpt lat="45.9345" lon="4.79249">
        <ele>172</ele>
        <time>2017-08-15T09:21:32Z</time>
      </trkpt>
      <trkpt lat="45.93452" lon="4.79241">
        <ele>172</ele>
        <time>2017-08-15T09:21:33Z</time>
      </trkpt>
      <trkpt lat="45.93455" lon="4.79232">
        <ele>172</ele>
        <time>2017-08-15T09:21:34Z</time>
      </trkpt>
      <trkpt lat="45.93458" lon="4.79224">
        <ele>172</ele>
        <time>2017-08-15T09:21:35Z</time>
      </trkpt>
      <trkpt lat="45.93462" lon="4.79216">
        <ele>172</ele>
        <time>2017-08-15T09:21:36Z</time>
      </trkpt>
      <trkpt lat="45.93465" lon="4.79208">
        <ele>172</ele>
        <time>2017-08-15T09:21:37Z</time>
      </trkpt>
      <trkpt lat="45.93468" lon="4.79201">
        <ele>172</ele>
        <time>2017-08-15T09:21:38Z</time>
      </trkpt>
      <trkpt lat="45.93471" lon="4.79193">
        <ele>172</ele>
        <time>2017-08-15T09:21:39Z</time>
      </trkpt>
      <trkpt lat="45.93474" lon="4.79185">
        <ele>172</ele>
        <time>2017-08-15T09:21:40Z</time>
      </trkpt>
      <trkpt lat="45.93477" lon="4.79178">
        <ele>172</ele>
        <time>2017-08-15T09:21:41Z</time>
      </trkpt>
      <trkpt lat="45.9348" lon="4.7917">
        <ele>172</ele>
        <time>2017-08-15T09:21:42Z</time>
      </trkpt>
      <trkpt lat="45.93482" lon="4.79163">
        <ele>172</ele>
        <time>2017-08-15T09:21:43Z</time>
      </trkpt>
      <trkpt lat="45.93484" lon="4.79156">
        <ele>172</ele>
        <time>2017-08-15T09:21:44Z</time>
      </trkpt>
      <trkpt lat="45.93487" lon="4.79149">
        <ele>172</ele>
        <time>2017-08-15T09:21:45Z</time>
      </trkpt>
      <trkpt lat="45.9349" lon="4.79142">
        <ele>172</ele>
        <time>2017-08-15T09:21:46Z</time>
      </trkpt>
      <trkpt lat="45.93492" lon="4.79136">
        <ele>172</ele>
        <time>2017-08-15T09:21:47Z</time>
      </trkpt>
      <trkpt lat="45.93495" lon="4.79129">
        <ele>172</ele>
        <time>2017-08-15T09:21:48Z</time>
      </trkpt>
      <trkpt lat="45.93498" lon="4.79122">
        <ele>172</ele>
        <time>2017-08-15T09:21:49Z</time>
      </trkpt>
      <trkpt lat="45.93501" lon="4.79114">
        <ele>173</ele>
        <time>2017-08-15T09:21:50Z</time>
      </trkpt>
      <trkpt lat="45.93504" lon="4.79106">
        <ele>173</ele>
        <time>2017-08-15T09:21:51Z</time>
      </trkpt>
      <trkpt lat="45.93507" lon="4.79099">
        <ele>173</ele>
        <time>2017-08-15T09:21:52Z</time>
      </trkpt>
      <trkpt lat="45.9351" lon="4.7909">
        <ele>173</ele>
        <time>2017-08-15T09:21:53Z</time>
      </trkpt>
      <trkpt lat="45.93512" lon="4.79082">
        <ele>173</ele>
        <time>2017-08-15T09:21:54Z</time>
      </trkpt>
      <trkpt lat="45.93515" lon="4.79073">
        <ele>173</ele>
        <time>2017-08-15T09:21:55Z</time>
      </trkpt>
      <trkpt lat="45.93518" lon="4.79065">
        <ele>173</ele>
        <time>2017-08-15T09:21:56Z</time>
      </trkpt>
      <trkpt lat="45.93521" lon="4.79058">
        <ele>173</ele>
        <time>2017-08-15T09:21:57Z</time>
      </trkpt>
      <trkpt lat="45.93524" lon="4.79051">
        <ele>173</ele>
        <time>2017-08-15T09:21:58Z</time>
      </trkpt>
      <trkpt lat="45.93527" lon="4.79043">
        <ele>173</ele>
        <time>2017-08-15T09:21:59Z</time>
      </trkpt>
      <trkpt lat="45.9353" lon="4.79036">
        <ele>173</ele>
        <time>2017-08-15T09:22:00Z</time>
      </trkpt>
      <trkpt lat="45.93534" lon="4.79028">
        <ele>173</ele>
        <time>2017-08-15T09:22:01Z</time>
      </trkpt>
      <trkpt lat="45.93536" lon="4.79021">
        <ele>173</ele>
        <time>2017-08-15T09:22:02Z</time>
      </trkpt>
      <trkpt lat="45.93539" lon="4.79014">
        <ele>173</ele>
        <time>2017-08-15T09:22:03Z</time>
      </trkpt>
      <trkpt lat="45.93543" lon="4.79008">
        <ele>173</ele>
        <time>2017-08-15T09:22:04Z</time>
      </trkpt>
      <trkpt lat="45.93547" lon="4.79003">
        <ele>173</ele>
        <time>2017-08-15T09:22:05Z</time>
      </trkpt>
      <trkpt lat="45.9355" lon="4.78998">
        <ele>172</ele>
        <time>2017-08-15T09:22:06Z</time>
      </trkpt>
      <trkpt lat="45.93554" lon="4.78992">
        <ele>172</ele>
        <time>2017-08-15T09:22:07Z</time>
      </trkpt>
      <trkpt lat="45.93557" lon="4.78985">
        <ele>172</ele>
        <time>2017-08-15T09:22:08Z</time>
      </trkpt>
      <trkpt lat="45.9356" lon="4.78977">
        <ele>172</ele>
        <time>2017-08-15T09:22:09Z</time>
      </trkpt>
      <trkpt lat="45.93563" lon="4.78969">
        <ele>172</ele>
        <time>2017-08-15T09:22:10Z</time>
      </trkpt>
      <trkpt lat="45.93566" lon="4.7896">
        <ele>172</ele>
        <time>2017-08-15T09:22:11Z</time>
      </trkpt>
      <trkpt lat="45.93569" lon="4.78952">
        <ele>172</ele>
        <time>2017-08-15T09:22:12Z</time>
      </trkpt>
      <trkpt lat="45.93573" lon="4.78944">
        <ele>172</ele>
        <time>2017-08-15T09:22:13Z</time>
      </trkpt>
      <trkpt lat="45.93576" lon="4.78936">
        <ele>172</ele>
        <time>2017-08-15T09:22:14Z</time>
      </trkpt>
      <trkpt lat="45.93579" lon="4.78928">
        <ele>172</ele>
        <time>2017-08-15T09:22:15Z</time>
      </trkpt>
      <trkpt lat="45.93582" lon="4.78921">
        <ele>172</ele>
        <time>2017-08-15T09:22:16Z</time>
      </trkpt>
      <trkpt lat="45.93586" lon="4.78914">
        <ele>172</ele>
        <time>2017-08-15T09:22:17Z</time>
      </trkpt>
      <trkpt lat="45.93589" lon="4.78907">
        <ele>173</ele>
        <time>2017-08-15T09:22:18Z</time>
      </trkpt>
      <trkpt lat="45.93592" lon="4.789">
        <ele>173</ele>
        <time>2017-08-15T09:22:19Z</time>
      </trkpt>
      <trkpt lat="45.93595" lon="4.78893">
        <ele>173</ele>
        <time>2017-08-15T09:22:20Z</time>
      </trkpt>
      <trkpt lat="45.93597" lon="4.78886">
        <ele>173</ele>
        <time>2017-08-15T09:22:21Z</time>
      </trkpt>
      <trkpt lat="45.936" lon="4.78879">
        <ele>174</ele>
        <time>2017-08-15T09:22:22Z</time>
      </trkpt>
      <trkpt lat="45.93602" lon="4.78872">
        <ele>174</ele>
        <time>2017-08-15T09:22:23Z</time>
      </trkpt>
      <trkpt lat="45.93605" lon="4.78866">
        <ele>174</ele>
        <time>2017-08-15T09:22:24Z</time>
      </trkpt>
      <trkpt lat="45.93608" lon="4.7886">
        <ele>174</ele>
        <time>2017-08-15T09:22:25Z</time>
      </trkpt>
      <trkpt lat="45.93611" lon="4.78854">
        <ele>174</ele>
        <time>2017-08-15T09:22:26Z</time>
      </trkpt>
      <trkpt lat="45.93614" lon="4.78847">
        <ele>174</ele>
        <time>2017-08-15T09:22:27Z</time>
      </trkpt>
      <trkpt lat="45.93617" lon="4.78839">
        <ele>174</ele>
        <time>2017-08-15T09:22:28Z</time>
      </trkpt>
      <trkpt lat="45.9362" lon="4.78832">
        <ele>174</ele>
        <time>2017-08-15T09:22:29Z</time>
      </trkpt>
      <trkpt lat="45.93623" lon="4.78824">
        <ele>174</ele>
        <time>2017-08-15T09:22:30Z</time>
      </trkpt>
      <trkpt lat="45.93626" lon="4.78817">
        <ele>174</ele>
        <time>2017-08-15T09:22:31Z</time>
      </trkpt>
      <trkpt lat="45.93629" lon="4.7881">
        <ele>174</ele>
        <time>2017-08-15T09:22:32Z</time>
      </trkpt>
      <trkpt lat="45.93633" lon="4.78803">
        <ele>174</ele>
        <time>2017-08-15T09:22:33Z</time>
      </trkpt>
      <trkpt lat="45.93636" lon="4.78796">
        <ele>174</ele>
        <time>2017-08-15T09:22:34Z</time>
      </trkpt>
      <trkpt lat="45.93639" lon="4.78789">
        <ele>174</ele>
        <time>2017-08-15T09:22:35Z</time>
      </trkpt>
      <trkpt lat="45.93642" lon="4.78781">
        <ele>174</ele>
        <time>2017-08-15T09:22:36Z</time>
      </trkpt>
      <trkpt lat="45.93646" lon="4.78775">
        <ele>174</ele>
        <time>2017-08-15T09:22:37Z</time>
      </trkpt>
      <trkpt lat="45.93649" lon="4.78769">
        <ele>174</ele>
        <time>2017-08-15T09:22:38Z</time>
      </trkpt>
      <trkpt lat="45.93652" lon="4.78763">
        <ele>174</ele>
        <time>2017-08-15T09:22:39Z</time>
      </trkpt>
      <trkpt lat="45.93655" lon="4.78757">
        <ele>174</ele>
        <time>2017-08-15T09:22:40Z</time>
      </trkpt>
      <trkpt lat="45.93658" lon="4.78752">
        <ele>175</ele>
        <time>2017-08-15T09:22:41Z</time>
      </trkpt>
      <trkpt lat="45.93662" lon="4.78746">
        <ele>174</ele>
        <time>2017-08-15T09:22:42Z</time>
      </trkpt>
      <trkpt lat="45.93666" lon="4.78739">
        <ele>174</ele>
        <time>2017-08-15T09:22:43Z</time>
      </trkpt>
      <trkpt lat="45.9367" lon="4.78733">
        <ele>175</ele>
        <time>2017-08-15T09:22:44Z</time>
      </trkpt>
      <trkpt lat="45.93673" lon="4.78726">
        <ele>175</ele>
        <time>2017-08-15T09:22:45Z</time>
      </trkpt>
      <trkpt lat="45.93677" lon="4.7872">
        <ele>175</ele>
        <time>2017-08-15T09:22:46Z</time>
      </trkpt>
      <trkpt lat="45.9368" lon="4.78712">
        <ele>175</ele>
        <time>2017-08-15T09:22:47Z</time>
      </trkpt>
      <trkpt lat="45.93683" lon="4.78704">
        <ele>175</ele>
        <time>2017-08-15T09:22:48Z</time>
      </trkpt>
      <trkpt lat="45.93686" lon="4.78696">
        <ele>175</ele>
        <time>2017-08-15T09:22:49Z</time>
      </trkpt>
      <trkpt lat="45.93689" lon="4.78689">
        <ele>175</ele>
        <time>2017-08-15T09:22:50Z</time>
      </trkpt>
      <trkpt lat="45.93692" lon="4.78681">
        <ele>175</ele>
        <time>2017-08-15T09:22:51Z</time>
      </trkpt>
      <trkpt lat="45.93695" lon="4.78674">
        <ele>175</ele>
        <time>2017-08-15T09:22:52Z</time>
      </trkpt>
      <trkpt lat="45.93697" lon="4.78667">
        <ele>175</ele>
        <time>2017-08-15T09:22:53Z</time>
      </trkpt>
      <trkpt lat="45.937" lon="4.7866">
        <ele>176</ele>
        <time>2017-08-15T09:22:54Z</time>
      </trkpt>
      <trkpt lat="45.93702" lon="4.78654">
        <ele>176</ele>
        <time>2017-08-15T09:22:55Z</time>
      </trkpt>
      <trkpt lat="45.93704" lon="4.78648">
        <ele>176</ele>
        <time>2017-08-15T09:22:56Z</time>
      </trkpt>
      <trkpt lat="45.93706" lon="4.78642">
        <ele>176</ele>
        <time>2017-08-15T09:22:57Z</time>
      </trkpt>
      <trkpt lat="45.93711" lon="4.78632">
        <ele>176</ele>
        <time>2017-08-15T09:22:59Z</time>
      </trkpt>
      <trkpt lat="45.93713" lon="4.78626">
        <ele>176</ele>
        <time>2017-08-15T09:23:00Z</time>
      </trkpt>
      <trkpt lat="45.93714" lon="4.78619">
        <ele>176</ele>
        <time>2017-08-15T09:23:01Z</time>
      </trkpt>
      <trkpt lat="45.93714" lon="4.78613">
        <ele>176</ele>
        <time>2017-08-15T09:23:02Z</time>
      </trkpt>
      <trkpt lat="45.93715" lon="4.78601">
        <ele>177</ele>
        <time>2017-08-15T09:23:04Z</time>
      </trkpt>
      <trkpt lat="45.93717" lon="4.78594">
        <ele>177</ele>
        <time>2017-08-15T09:23:05Z</time>
      </trkpt>
      <trkpt lat="45.93718" lon="4.78587">
        <ele>177</ele>
        <time>2017-08-15T09:23:06Z</time>
      </trkpt>
      <trkpt lat="45.93721" lon="4.7858">
        <ele>178</ele>
        <time>2017-08-15T09:23:07Z</time>
      </trkpt>
      <trkpt lat="45.93723" lon="4.78572">
        <ele>178</ele>
        <time>2017-08-15T09:23:08Z</time>
      </trkpt>
      <trkpt lat="45.93725" lon="4.78565">
        <ele>178</ele>
        <time>2017-08-15T09:23:09Z</time>
      </trkpt>
      <trkpt lat="45.93727" lon="4.78557">
        <ele>178</ele>
        <time>2017-08-15T09:23:10Z</time>
      </trkpt>
      <trkpt lat="45.93729" lon="4.7855">
        <ele>178</ele>
        <time>2017-08-15T09:23:11Z</time>
      </trkpt>
      <trkpt lat="45.93731" lon="4.78543">
        <ele>178</ele>
        <time>2017-08-15T09:23:12Z</time>
      </trkpt>
      <trkpt lat="45.93733" lon="4.78536">
        <ele>178</ele>
        <time>2017-08-15T09:23:13Z</time>
      </trkpt>
      <trkpt lat="45.93735" lon="4.7853">
        <ele>179</ele>
        <time>2017-08-15T09:23:14Z</time>
      </trkpt>
      <trkpt lat="45.93737" lon="4.78523">
        <ele>179</ele>
        <time>2017-08-15T09:23:15Z</time>
      </trkpt>
      <trkpt lat="45.93738" lon="4.78517">
        <ele>179</ele>
        <time>2017-08-15T09:23:16Z</time>
      </trkpt>
      <trkpt lat="45.9374" lon="4.7851">
        <ele>180</ele>
        <time>2017-08-15T09:23:17Z</time>
      </trkpt>
      <trkpt lat="45.93742" lon="4.78503">
        <ele>180</ele>
        <time>2017-08-15T09:23:18Z</time>
      </trkpt>
      <trkpt lat="45.93744" lon="4.78497">
        <ele>181</ele>
        <time>2017-08-15T09:23:19Z</time>
      </trkpt>
      <trkpt lat="45.93746" lon="4.7849">
        <ele>180</ele>
        <time>2017-08-15T09:23:20Z</time>
      </trkpt>
      <trkpt lat="45.93748" lon="4.78483">
        <ele>180</ele>
        <time>2017-08-15T09:23:21Z</time>
      </trkpt>
      <trkpt lat="45.93749" lon="4.78475">
        <ele>180</ele>
        <time>2017-08-15T09:23:22Z</time>
      </trkpt>
      <trkpt lat="45.93751" lon="4.78468">
        <ele>184</ele>
        <time>2017-08-15T09:23:23Z</time>
      </trkpt>
      <trkpt lat="45.93753" lon="4.7846">
        <ele>184</ele>
        <time>2017-08-15T09:23:24Z</time>
      </trkpt>
      <trkpt lat="45.93754" lon="4.78453">
        <ele>184</ele>
        <time>2017-08-15T09:23:25Z</time>
      </trkpt>
      <trkpt lat="45.93756" lon="4.78446">
        <ele>184</ele>
        <time>2017-08-15T09:23:26Z</time>
      </trkpt>
      <trkpt lat="45.93758" lon="4.78439">
        <ele>183</ele>
        <time>2017-08-15T09:23:27Z</time>
      </trkpt>
      <trkpt lat="45.93759" lon="4.78431">
        <ele>183</ele>
        <time>2017-08-15T09:23:28Z</time>
      </trkpt>
      <trkpt lat="45.93761" lon="4.78425">
        <ele>183</ele>
        <time>2017-08-15T09:23:29Z</time>
      </trkpt>
      <trkpt lat="45.93761" lon="4.78419">
        <ele>183</ele>
        <time>2017-08-15T09:23:30Z</time>
      </trkpt>
      <trkpt lat="45.93761" lon="4.78411">
        <ele>182</ele>
        <time>2017-08-15T09:23:31Z</time>
      </trkpt>
      <trkpt lat="45.93763" lon="4.784">
        <ele>183</ele>
        <time>2017-08-15T09:23:33Z</time>
      </trkpt>
      <trkpt lat="45.93765" lon="4.78394">
        <ele>183</ele>
        <time>2017-08-15T09:23:34Z</time>
      </trkpt>
      <trkpt lat="45.93768" lon="4.78383">
        <ele>183</ele>
        <time>2017-08-15T09:23:36Z</time>
      </trkpt>
      <trkpt lat="45.9377" lon="4.78376">
        <ele>183</ele>
        <time>2017-08-15T09:23:37Z</time>
      </trkpt>
      <trkpt lat="45.93773" lon="4.78364">
        <ele>183</ele>
        <time>2017-08-15T09:23:39Z</time>
      </trkpt>
      <trkpt lat="45.93775" lon="4.78358">
        <ele>183</ele>
        <time>2017-08-15T09:23:40Z</time>
      </trkpt>
      <trkpt lat="45.93776" lon="4.78351">
        <ele>183</ele>
        <time>2017-08-15T09:23:41Z</time>
      </trkpt>
      <trkpt lat="45.93778" lon="4.78344">
        <ele>183</ele>
        <time>2017-08-15T09:23:42Z</time>
      </trkpt>
      <trkpt lat="45.9378" lon="4.78337">
        <ele>183</ele>
        <time>2017-08-15T09:23:43Z</time>
      </trkpt>
      <trkpt lat="45.93782" lon="4.78329">
        <ele>183</ele>
        <time>2017-08-15T09:23:44Z</time>
      </trkpt>
      <trkpt lat="45.93784" lon="4.78322">
        <ele>183</ele>
        <time>2017-08-15T09:23:45Z</time>
      </trkpt>
      <trkpt lat="45.93786" lon="4.78315">
        <ele>183</ele>
        <time>2017-08-15T09:23:46Z</time>
      </trkpt>
      <trkpt lat="45.93788" lon="4.78309">
        <ele>183</ele>
        <time>2017-08-15T09:23:47Z</time>
      </trkpt>
      <trkpt lat="45.9379" lon="4.78302">
        <ele>183</ele>
        <time>2017-08-15T09:23:48Z</time>
      </trkpt>
      <trkpt lat="45.93793" lon="4.78291">
        <ele>183</ele>
        <time>2017-08-15T09:23:50Z</time>
      </trkpt>
      <trkpt lat="45.93795" lon="4.78286">
        <ele>183</ele>
        <time>2017-08-15T09:23:51Z</time>
      </trkpt>
      <trkpt lat="45.938" lon="4.78283">
        <ele>183</ele>
        <time>2017-08-15T09:23:52Z</time>
      </trkpt>
      <trkpt lat="45.93804" lon="4.78279">
        <ele>183</ele>
        <time>2017-08-15T09:23:53Z</time>
      </trkpt>
      <trkpt lat="45.93809" lon="4.78274">
        <ele>183</ele>
        <time>2017-08-15T09:23:54Z</time>
      </trkpt>
      <trkpt lat="45.93811" lon="4.78268">
        <ele>183</ele>
        <time>2017-08-15T09:23:55Z</time>
      </trkpt>
      <trkpt lat="45.93814" lon="4.78261">
        <ele>184</ele>
        <time>2017-08-15T09:23:56Z</time>
      </trkpt>
      <trkpt lat="45.93817" lon="4.78254">
        <ele>184</ele>
        <time>2017-08-15T09:23:57Z</time>
      </trkpt>
      <trkpt lat="45.93819" lon="4.78248">
        <ele>183</ele>
        <time>2017-08-15T09:23:58Z</time>
      </trkpt>
      <trkpt lat="45.93821" lon="4.78241">
        <ele>183</ele>
        <time>2017-08-15T09:23:59Z</time>
      </trkpt>
      <trkpt lat="45.93822" lon="4.78233">
        <ele>183</ele>
        <time>2017-08-15T09:24:00Z</time>
      </trkpt>
      <trkpt lat="45.93823" lon="4.78223">
        <ele>182</ele>
        <time>2017-08-15T09:24:01Z</time>
      </trkpt>
      <trkpt lat="45.93824" lon="4.78216">
        <ele>182</ele>
        <time>2017-08-15T09:24:02Z</time>
      </trkpt>
      <trkpt lat="45.93826" lon="4.7821">
        <ele>182</ele>
        <time>2017-08-15T09:24:03Z</time>
      </trkpt>
      <trkpt lat="45.93829" lon="4.78204">
        <ele>182</ele>
        <time>2017-08-15T09:24:04Z</time>
      </trkpt>
      <trkpt lat="45.93831" lon="4.78198">
        <ele>182</ele>
        <time>2017-08-15T09:24:05Z</time>
      </trkpt>
      <trkpt lat="45.93832" lon="4.78191">
        <ele>182</ele>
        <time>2017-08-15T09:24:06Z</time>
      </trkpt>
      <trkpt lat="45.93834" lon="4.78184">
        <ele>185</ele>
        <time>2017-08-15T09:24:07Z</time>
      </trkpt>
      <trkpt lat="45.93835" lon="4.78177">
        <ele>184</ele>
        <time>2017-08-15T09:24:08Z</time>
      </trkpt>
      <trkpt lat="45.93837" lon="4.7817">
        <ele>183</ele>
        <time>2017-08-15T09:24:09Z</time>
      </trkpt>
      <trkpt lat="45.93838" lon="4.78163">
        <ele>183</ele>
        <time>2017-08-15T09:24:10Z</time>
      </trkpt>
      <trkpt lat="45.93839" lon="4.78155">
        <ele>184</ele>
        <time>2017-08-15T09:24:11Z</time>
      </trkpt>
      <trkpt lat="45.93841" lon="4.78148">
        <ele>184</ele>
        <time>2017-08-15T09:24:12Z</time>
      </trkpt>
      <trkpt lat="45.93843" lon="4.78141">
        <ele>185</ele>
        <time>2017-08-15T09:24:13Z</time>
      </trkpt>
      <trkpt lat="45.93845" lon="4.78135">
        <ele>185</ele>
        <time>2017-08-15T09:24:14Z</time>
      </trkpt>
      <trkpt lat="45.93847" lon="4.78128">
        <ele>185</ele>
        <time>2017-08-15T09:24:15Z</time>
      </trkpt>
      <trkpt lat="45.93848" lon="4.78121">
        <ele>185</ele>
        <time>2017-08-15T09:24:16Z</time>
      </trkpt>
      <trkpt lat="45.9385" lon="4.78115">
        <ele>185</ele>
        <time>2017-08-15T09:24:17Z</time>
      </trkpt>
      <trkpt lat="45.93852" lon="4.78108">
        <ele>184</ele>
        <time>2017-08-15T09:24:18Z</time>
      </trkpt>
      <trkpt lat="45.93854" lon="4.78101">
        <ele>184</ele>
        <time>2017-08-15T09:24:19Z</time>
      </trkpt>
      <trkpt lat="45.93855" lon="4.78094">
        <ele>184</ele>
        <time>2017-08-15T09:24:20Z</time>
      </trkpt>
      <trkpt lat="45.93857" lon="4.78086">
        <ele>184</ele>
        <time>2017-08-15T09:24:21Z</time>
      </trkpt>
      <trkpt lat="45.93859" lon="4.78079">
        <ele>183</ele>
        <time>2017-08-15T09:24:22Z</time>
      </trkpt>
      <trkpt lat="45.9386" lon="4.78071">
        <ele>183</ele>
        <time>2017-08-15T09:24:23Z</time>
      </trkpt>
      <trkpt lat="45.9386" lon="4.78064">
        <ele>183</ele>
        <time>2017-08-15T09:24:24Z</time>
      </trkpt>
      <trkpt lat="45.93862" lon="4.78057">
        <ele>183</ele>
        <time>2017-08-15T09:24:25Z</time>
      </trkpt>
      <trkpt lat="45.93863" lon="4.7805">
        <ele>183</ele>
        <time>2017-08-15T09:24:26Z</time>
      </trkpt>
      <trkpt lat="45.93865" lon="4.78043">
        <ele>183</ele>
        <time>2017-08-15T09:24:27Z</time>
      </trkpt>
      <trkpt lat="45.93868" lon="4.78037">
        <ele>183</ele>
        <time>2017-08-15T09:24:28Z</time>
      </trkpt>
      <trkpt lat="45.9387" lon="4.78031">
        <ele>183</ele>
        <time>2017-08-15T09:24:29Z</time>
      </trkpt>
      <trkpt lat="45.93872" lon="4.78025">
        <ele>183</ele>
        <time>2017-08-15T09:24:30Z</time>
      </trkpt>
      <trkpt lat="45.93872" lon="4.78018">
        <ele>183</ele>
        <time>2017-08-15T09:24:31Z</time>
      </trkpt>
      <trkpt lat="45.93872" lon="4.7801">
        <ele>183</ele>
        <time>2017-08-15T09:24:32Z</time>
      </trkpt>
      <trkpt lat="45.93871" lon="4.78003">
        <ele>183</ele>
        <time>2017-08-15T09:24:33Z</time>
      </trkpt>
      <trkpt lat="45.93872" lon="4.77995">
        <ele>180</ele>
        <time>2017-08-15T09:24:34Z</time>
      </trkpt>
      <trkpt lat="45.93874" lon="4.77987">
        <ele>180</ele>
        <time>2017-08-15T09:24:35Z</time>
      </trkpt>
      <trkpt lat="45.93876" lon="4.77979">
        <ele>180</ele>
        <time>2017-08-15T09:24:36Z</time>
      </trkpt>
      <trkpt lat="45.93878" lon="4.7797">
        <ele>179</ele>
        <time>2017-08-15T09:24:37Z</time>
      </trkpt>
      <trkpt lat="45.93881" lon="4.77962">
        <ele>179</ele>
        <time>2017-08-15T09:24:38Z</time>
      </trkpt>
      <trkpt lat="45.93884" lon="4.77953">
        <ele>179</ele>
        <time>2017-08-15T09:24:39Z</time>
      </trkpt>
      <trkpt lat="45.93886" lon="4.77944">
        <ele>179</ele>
        <time>2017-08-15T09:24:40Z</time>
      </trkpt>
      <trkpt lat="45.93888" lon="4.77934">
        <ele>179</ele>
        <time>2017-08-15T09:24:41Z</time>
      </trkpt>
      <trkpt lat="45.9389" lon="4.77925">
        <ele>179</ele>
        <time>2017-08-15T09:24:42Z</time>
      </trkpt>
      <trkpt lat="45.93892" lon="4.77916">
        <ele>177</ele>
        <time>2017-08-15T09:24:43Z</time>
      </trkpt>
      <trkpt lat="45.93895" lon="4.77907">
        <ele>177</ele>
        <time>2017-08-15T09:24:44Z</time>
      </trkpt>
      <trkpt lat="45.93899" lon="4.77897">
        <ele>177</ele>
        <time>2017-08-15T09:24:45Z</time>
      </trkpt>
      <trkpt lat="45.93902" lon="4.77888">
        <ele>176</ele>
        <time>2017-08-15T09:24:46Z</time>
      </trkpt>
      <trkpt lat="45.93906" lon="4.77878">
        <ele>176</ele>
        <time>2017-08-15T09:24:47Z</time>
      </trkpt>
      <trkpt lat="45.93909" lon="4.77868">
        <ele>176</ele>
        <time>2017-08-15T09:24:48Z</time>
      </trkpt>
      <trkpt lat="45.93912" lon="4.77859">
        <ele>176</ele>
        <time>2017-08-15T09:24:49Z</time>
      </trkpt>
      <trkpt lat="45.93916" lon="4.77849">
        <ele>176</ele>
        <time>2017-08-15T09:24:50Z</time>
      </trkpt>
      <trkpt lat="45.93919" lon="4.77839">
        <ele>180</ele>
        <time>2017-08-15T09:24:51Z</time>
      </trkpt>
      <trkpt lat="45.93921" lon="4.77828">
        <ele>179</ele>
        <time>2017-08-15T09:24:52Z</time>
      </trkpt>
      <trkpt lat="45.93924" lon="4.77817">
        <ele>180</ele>
        <time>2017-08-15T09:24:53Z</time>
      </trkpt>
      <trkpt lat="45.93926" lon="4.77807">
        <ele>180</ele>
        <time>2017-08-15T09:24:54Z</time>
      </trkpt>
      <trkpt lat="45.93929" lon="4.77796">
        <ele>180</ele>
        <time>2017-08-15T09:24:55Z</time>
      </trkpt>
      <trkpt lat="45.93932" lon="4.77787">
        <ele>179</ele>
        <time>2017-08-15T09:24:56Z</time>
      </trkpt>
      <trkpt lat="45.93934" lon="4.77776">
        <ele>178</ele>
        <time>2017-08-15T09:24:57Z</time>
      </trkpt>
      <trkpt lat="45.93938" lon="4.77766">
        <ele>177</ele>
        <time>2017-08-15T09:24:58Z</time>
      </trkpt>
      <trkpt lat="45.9394" lon="4.77756">
        <ele>177</ele>
        <time>2017-08-15T09:24:59Z</time>
      </trkpt>
      <trkpt lat="45.93943" lon="4.77746">
        <ele>175</ele>
        <time>2017-08-15T09:25:00Z</time>
      </trkpt>
      <trkpt lat="45.93947" lon="4.77736">
        <ele>176</ele>
        <time>2017-08-15T09:25:01Z</time>
      </trkpt>
      <trkpt lat="45.9395" lon="4.77728">
        <ele>177</ele>
        <time>2017-08-15T09:25:02Z</time>
      </trkpt>
      <trkpt lat="45.93953" lon="4.77718">
        <ele>177</ele>
        <time>2017-08-15T09:25:03Z</time>
      </trkpt>
      <trkpt lat="45.93956" lon="4.77708">
        <ele>178</ele>
        <time>2017-08-15T09:25:04Z</time>
      </trkpt>
      <trkpt lat="45.93959" lon="4.777">
        <ele>178</ele>
        <time>2017-08-15T09:25:05Z</time>
      </trkpt>
      <trkpt lat="45.93962" lon="4.77691">
        <ele>178</ele>
        <time>2017-08-15T09:25:06Z</time>
      </trkpt>
      <trkpt lat="45.93965" lon="4.77682">
        <ele>179</ele>
        <time>2017-08-15T09:25:07Z</time>
      </trkpt>
      <trkpt lat="45.93967" lon="4.77675">
        <ele>180</ele>
        <time>2017-08-15T09:25:08Z</time>
      </trkpt>
      <trkpt lat="45.9397" lon="4.77667">
        <ele>180</ele>
        <time>2017-08-15T09:25:09Z</time>
      </trkpt>
      <trkpt lat="45.93972" lon="4.77659">
        <ele>180</ele>
        <time>2017-08-15T09:25:10Z</time>
      </trkpt>
      <trkpt lat="45.93975" lon="4.77651">
        <ele>180</ele>
        <time>2017-08-15T09:25:11Z</time>
      </trkpt>
      <trkpt lat="45.93976" lon="4.77643">
        <ele>180</ele>
        <time>2017-08-15T09:25:12Z</time>
      </trkpt>
      <trkpt lat="45.93978" lon="4.77636">
        <ele>180</ele>
        <time>2017-08-15T09:25:13Z</time>
      </trkpt>
      <trkpt lat="45.9398" lon="4.77628">
        <ele>180</ele>
        <time>2017-08-15T09:25:14Z</time>
      </trkpt>
      <trkpt lat="45.93982" lon="4.7762">
        <ele>180</ele>
        <time>2017-08-15T09:25:15Z</time>
      </trkpt>
      <trkpt lat="45.93984" lon="4.77612">
        <ele>180</ele>
        <time>2017-08-15T09:25:16Z</time>
      </trkpt>
      <trkpt lat="45.93986" lon="4.77603">
        <ele>181</ele>
        <time>2017-08-15T09:25:17Z</time>
      </trkpt>
      <trkpt lat="45.93987" lon="4.77593">
        <ele>182</ele>
        <time>2017-08-15T09:25:18Z</time>
      </trkpt>
      <trkpt lat="45.9399" lon="4.77584">
        <ele>183</ele>
        <time>2017-08-15T09:25:19Z</time>
      </trkpt>
      <trkpt lat="45.93992" lon="4.77575">
        <ele>183</ele>
        <time>2017-08-15T09:25:20Z</time>
      </trkpt>
      <trkpt lat="45.93993" lon="4.77566">
        <ele>181</ele>
        <time>2017-08-15T09:25:21Z</time>
      </trkpt>
      <trkpt lat="45.93995" lon="4.77557">
        <ele>180</ele>
        <time>2017-08-15T09:25:22Z</time>
      </trkpt>
      <trkpt lat="45.93997" lon="4.77549">
        <ele>179</ele>
        <time>2017-08-15T09:25:23Z</time>
      </trkpt>
      <trkpt lat="45.93999" lon="4.77541">
        <ele>179</ele>
        <time>2017-08-15T09:25:24Z</time>
      </trkpt>
      <trkpt lat="45.94001" lon="4.77533">
        <ele>190</ele>
        <time>2017-08-15T09:25:25Z</time>
      </trkpt>
      <trkpt lat="45.94003" lon="4.77526">
        <ele>189</ele>
        <time>2017-08-15T09:25:26Z</time>
      </trkpt>
      <trkpt lat="45.94004" lon="4.77518">
        <ele>188</ele>
        <time>2017-08-15T09:25:27Z</time>
      </trkpt>
      <trkpt lat="45.94006" lon="4.77512">
        <ele>187</ele>
        <time>2017-08-15T09:25:28Z</time>
      </trkpt>
      <trkpt lat="45.94008" lon="4.77505">
        <ele>186</ele>
        <time>2017-08-15T09:25:29Z</time>
      </trkpt>
      <trkpt lat="45.94009" lon="4.77497">
        <ele>185</ele>
        <time>2017-08-15T09:25:30Z</time>
      </trkpt>
      <trkpt lat="45.9401" lon="4.77489">
        <ele>185</ele>
        <time>2017-08-15T09:25:31Z</time>
      </trkpt>
      <trkpt lat="45.94011" lon="4.7748">
        <ele>186</ele>
        <time>2017-08-15T09:25:32Z</time>
      </trkpt>
      <trkpt lat="45.94011" lon="4.7747">
        <ele>186</ele>
        <time>2017-08-15T09:25:33Z</time>
      </trkpt>
      <trkpt lat="45.9401" lon="4.77461">
        <ele>185</ele>
        <time>2017-08-15T09:25:34Z</time>
      </trkpt>
      <trkpt lat="45.9401" lon="4.77452">
        <ele>185</ele>
        <time>2017-08-15T09:25:35Z</time>
      </trkpt>
      <trkpt lat="45.9401" lon="4.77443">
        <ele>184</ele>
        <time>2017-08-15T09:25:36Z</time>
      </trkpt>
      <trkpt lat="45.9401" lon="4.77435">
        <ele>182</ele>
        <time>2017-08-15T09:25:37Z</time>
      </trkpt>
      <trkpt lat="45.94011" lon="4.77427">
        <ele>181</ele>
        <time>2017-08-15T09:25:38Z</time>
      </trkpt>
      <trkpt lat="45.94012" lon="4.77419">
        <ele>180</ele>
        <time>2017-08-15T09:25:39Z</time>
      </trkpt>
      <trkpt lat="45.94012" lon="4.77411">
        <ele>178</ele>
        <time>2017-08-15T09:25:40Z</time>
      </trkpt>
      <trkpt lat="45.94012" lon="4.77403">
        <ele>179</ele>
        <time>2017-08-15T09:25:41Z</time>
      </trkpt>
      <trkpt lat="45.94013" lon="4.77396">
        <ele>179</ele>
        <time>2017-08-15T09:25:42Z</time>
      </trkpt>
      <trkpt lat="45.94013" lon="4.77388">
        <ele>179</ele>
        <time>2017-08-15T09:25:43Z</time>
      </trkpt>
      <trkpt lat="45.94013" lon="4.77381">
        <ele>179</ele>
        <time>2017-08-15T09:25:44Z</time>
      </trkpt>
      <trkpt lat="45.94014" lon="4.77374">
        <ele>179</ele>
        <time>2017-08-15T09:25:45Z</time>
      </trkpt>
      <trkpt lat="45.94013" lon="4.77367">
        <ele>179</ele>
        <time>2017-08-15T09:25:46Z</time>
      </trkpt>
      <trkpt lat="45.94014" lon="4.7736">
        <ele>178</ele>
        <time>2017-08-15T09:25:47Z</time>
      </trkpt>
      <trkpt lat="45.94014" lon="4.77354">
        <ele>178</ele>
        <time>2017-08-15T09:25:48Z</time>
      </trkpt>
      <trkpt lat="45.94015" lon="4.77346">
        <ele>177</ele>
        <time>2017-08-15T09:25:49Z</time>
      </trkpt>
      <trkpt lat="45.94015" lon="4.77338">
        <ele>176</ele>
        <time>2017-08-15T09:25:50Z</time>
      </trkpt>
      <trkpt lat="45.94016" lon="4.7733">
        <ele>175</ele>
        <time>2017-08-15T09:25:51Z</time>
      </trkpt>
      <trkpt lat="45.94018" lon="4.77323">
        <ele>175</ele>
        <time>2017-08-15T09:25:52Z</time>
      </trkpt>
      <trkpt lat="45.94019" lon="4.77315">
        <ele>176</ele>
        <time>2017-08-15T09:25:53Z</time>
      </trkpt>
      <trkpt lat="45.94019" lon="4.77306">
        <ele>176</ele>
        <time>2017-08-15T09:25:54Z</time>
      </trkpt>
      <trkpt lat="45.9402" lon="4.77299">
        <ele>176</ele>
        <time>2017-08-15T09:25:55Z</time>
      </trkpt>
      <trkpt lat="45.94021" lon="4.77291">
        <ele>176</ele>
        <time>2017-08-15T09:25:56Z</time>
      </trkpt>
      <trkpt lat="45.94023" lon="4.77284">
        <ele>176</ele>
        <time>2017-08-15T09:25:57Z</time>
      </trkpt>
      <trkpt lat="45.94024" lon="4.77277">
        <ele>176</ele>
        <time>2017-08-15T09:25:58Z</time>
      </trkpt>
      <trkpt lat="45.94024" lon="4.77271">
        <ele>175</ele>
        <time>2017-08-15T09:25:59Z</time>
      </trkpt>
      <trkpt lat="45.94025" lon="4.77264">
        <ele>175</ele>
        <time>2017-08-15T09:26:00Z</time>
      </trkpt>
      <trkpt lat="45.94025" lon="4.77258">
        <ele>175</ele>
        <time>2017-08-15T09:26:01Z</time>
      </trkpt>
      <trkpt lat="45.94026" lon="4.77251">
        <ele>175</ele>
        <time>2017-08-15T09:26:02Z</time>
      </trkpt>
      <trkpt lat="45.94027" lon="4.77244">
        <ele>174</ele>
        <time>2017-08-15T09:26:03Z</time>
      </trkpt>
      <trkpt lat="45.94028" lon="4.77237">
        <ele>174</ele>
        <time>2017-08-15T09:26:04Z</time>
      </trkpt>
      <trkpt lat="45.94028" lon="4.7723">
        <ele>174</ele>
        <time>2017-08-15T09:26:05Z</time>
      </trkpt>
      <trkpt lat="45.94029" lon="4.77223">
        <ele>174</ele>
        <time>2017-08-15T09:26:06Z</time>
      </trkpt>
      <trkpt lat="45.9403" lon="4.77215">
        <ele>175</ele>
        <time>2017-08-15T09:26:07Z</time>
      </trkpt>
      <trkpt lat="45.94031" lon="4.77208">
        <ele>175</ele>
        <time>2017-08-15T09:26:08Z</time>
      </trkpt>
      <trkpt lat="45.94032" lon="4.772">
        <ele>175</ele>
        <time>2017-08-15T09:26:09Z</time>
      </trkpt>
      <trkpt lat="45.94032" lon="4.77193">
        <ele>175</ele>
        <time>2017-08-15T09:26:10Z</time>
      </trkpt>
      <trkpt lat="45.94034" lon="4.77184">
        <ele>175</ele>
        <time>2017-08-15T09:26:11Z</time>
      </trkpt>
      <trkpt lat="45.94034" lon="4.77176">
        <ele>175</ele>
        <time>2017-08-15T09:26:12Z</time>
      </trkpt>
      <trkpt lat="45.94035" lon="4.77168">
        <ele>175</ele>
        <time>2017-08-15T09:26:13Z</time>
      </trkpt>
      <trkpt lat="45.94036" lon="4.7716">
        <ele>175</ele>
        <time>2017-08-15T09:26:14Z</time>
      </trkpt>
      <trkpt lat="45.94036" lon="4.77153">
        <ele>175</ele>
        <time>2017-08-15T09:26:15Z</time>
      </trkpt>
      <trkpt lat="45.94035" lon="4.77145">
        <ele>175</ele>
        <time>2017-08-15T09:26:16Z</time>
      </trkpt>
      <trkpt lat="45.94036" lon="4.77138">
        <ele>175</ele>
        <time>2017-08-15T09:26:17Z</time>
      </trkpt>
      <trkpt lat="45.94037" lon="4.7713">
        <ele>175</ele>
        <time>2017-08-15T09:26:18Z</time>
      </trkpt>
      <trkpt lat="45.94038" lon="4.77123">
        <ele>175</ele>
        <time>2017-08-15T09:26:19Z</time>
      </trkpt>
      <trkpt lat="45.9404" lon="4.77116">
        <ele>175</ele>
        <time>2017-08-15T09:26:20Z</time>
      </trkpt>
      <trkpt lat="45.94041" lon="4.77109">
        <ele>175</ele>
        <time>2017-08-15T09:26:21Z</time>
      </trkpt>
      <trkpt lat="45.94042" lon="4.77103">
        <ele>175</ele>
        <time>2017-08-15T09:26:22Z</time>
      </trkpt>
      <trkpt lat="45.94043" lon="4.77097">
        <ele>175</ele>
        <time>2017-08-15T09:26:23Z</time>
      </trkpt>
      <trkpt lat="45.94043" lon="4.7709">
        <ele>175</ele>
        <time>2017-08-15T09:26:24Z</time>
      </trkpt>
      <trkpt lat="45.94044" lon="4.77083">
        <ele>174</ele>
        <time>2017-08-15T09:26:25Z</time>
      </trkpt>
      <trkpt lat="45.94045" lon="4.77076">
        <ele>174</ele>
        <time>2017-08-15T09:26:26Z</time>
      </trkpt>
      <trkpt lat="45.94046" lon="4.77069">
        <ele>174</ele>
        <time>2017-08-15T09:26:27Z</time>
      </trkpt>
      <trkpt lat="45.94047" lon="4.77061">
        <ele>175</ele>
        <time>2017-08-15T09:26:28Z</time>
      </trkpt>
      <trkpt lat="45.94048" lon="4.77053">
        <ele>175</ele>
        <time>2017-08-15T09:26:29Z</time>
      </trkpt>
      <trkpt lat="45.94049" lon="4.77044">
        <ele>175</ele>
        <time>2017-08-15T09:26:30Z</time>
      </trkpt>
      <trkpt lat="45.9405" lon="4.77037">
        <ele>175</ele>
        <time>2017-08-15T09:26:31Z</time>
      </trkpt>
      <trkpt lat="45.94051" lon="4.77029">
        <ele>175</ele>
        <time>2017-08-15T09:26:32Z</time>
      </trkpt>
      <trkpt lat="45.94053" lon="4.77022">
        <ele>175</ele>
        <time>2017-08-15T09:26:33Z</time>
      </trkpt>
      <trkpt lat="45.94054" lon="4.77014">
        <ele>175</ele>
        <time>2017-08-15T09:26:34Z</time>
      </trkpt>
      <trkpt lat="45.94055" lon="4.77008">
        <ele>175</ele>
        <time>2017-08-15T09:26:35Z</time>
      </trkpt>
      <trkpt lat="45.94058" lon="4.76997">
        <ele>175</ele>
        <time>2017-08-15T09:26:37Z</time>
      </trkpt>
      <trkpt lat="45.94061" lon="4.76992">
        <ele>175</ele>
        <time>2017-08-15T09:26:38Z</time>
      </trkpt>
      <trkpt lat="45.94065" lon="4.76987">
        <ele>175</ele>
        <time>2017-08-15T09:26:39Z</time>
      </trkpt>
      <trkpt lat="45.94066" lon="4.7698">
        <ele>175</ele>
        <time>2017-08-15T09:26:40Z</time>
      </trkpt>
      <trkpt lat="45.94069" lon="4.76974">
        <ele>175</ele>
        <time>2017-08-15T09:26:41Z</time>
      </trkpt>
      <trkpt lat="45.94069" lon="4.76967">
        <ele>175</ele>
        <time>2017-08-15T09:26:42Z</time>
      </trkpt>
      <trkpt lat="45.94068" lon="4.7696">
        <ele>174</ele>
        <time>2017-08-15T09:26:43Z</time>
      </trkpt>
      <trkpt lat="45.94064" lon="4.76955">
        <ele>174</ele>
        <time>2017-08-15T09:26:44Z</time>
      </trkpt>
      <trkpt lat="45.94059" lon="4.76952">
        <ele>174</ele>
        <time>2017-08-15T09:26:45Z</time>
      </trkpt>
      <trkpt lat="45.94053" lon="4.76951">
        <ele>174</ele>
        <time>2017-08-15T09:26:46Z</time>
      </trkpt>
      <trkpt lat="45.94048" lon="4.76949">
        <ele>174</ele>
        <time>2017-08-15T09:26:47Z</time>
      </trkpt>
      <trkpt lat="45.94043" lon="4.76946">
        <ele>174</ele>
        <time>2017-08-15T09:26:48Z</time>
      </trkpt>
      <trkpt lat="45.94041" lon="4.7694">
        <ele>174</ele>
        <time>2017-08-15T09:26:49Z</time>
      </trkpt>
      <trkpt lat="45.94038" lon="4.76933">
        <ele>174</ele>
        <time>2017-08-15T09:26:50Z</time>
      </trkpt>
      <trkpt lat="45.94037" lon="4.76926">
        <ele>174</ele>
        <time>2017-08-15T09:26:51Z</time>
      </trkpt>
      <trkpt lat="45.94035" lon="4.76919">
        <ele>173</ele>
        <time>2017-08-15T09:26:52Z</time>
      </trkpt>
      <trkpt lat="45.94034" lon="4.76912">
        <ele>173</ele>
        <time>2017-08-15T09:26:53Z</time>
      </trkpt>
      <trkpt lat="45.94032" lon="4.76906">
        <ele>173</ele>
        <time>2017-08-15T09:26:54Z</time>
      </trkpt>
      <trkpt lat="45.9403" lon="4.769">
        <ele>173</ele>
        <time>2017-08-15T09:26:55Z</time>
      </trkpt>
      <trkpt lat="45.94027" lon="4.76893">
        <ele>173</ele>
        <time>2017-08-15T09:26:56Z</time>
      </trkpt>
      <trkpt lat="45.94024" lon="4.76886">
        <ele>173</ele>
        <time>2017-08-15T09:26:57Z</time>
      </trkpt>
      <trkpt lat="45.9402" lon="4.76879">
        <ele>173</ele>
        <time>2017-08-15T09:26:58Z</time>
      </trkpt>
      <trkpt lat="45.94017" lon="4.76872">
        <ele>173</ele>
        <time>2017-08-15T09:26:59Z</time>
      </trkpt>
      <trkpt lat="45.94014" lon="4.76865">
        <ele>172</ele>
        <time>2017-08-15T09:27:00Z</time>
      </trkpt>
      <trkpt lat="45.94011" lon="4.76857">
        <ele>172</ele>
        <time>2017-08-15T09:27:01Z</time>
      </trkpt>
      <trkpt lat="45.94008" lon="4.76851">
        <ele>172</ele>
        <time>2017-08-15T09:27:02Z</time>
      </trkpt>
      <trkpt lat="45.94006" lon="4.76844">
        <ele>172</ele>
        <time>2017-08-15T09:27:03Z</time>
      </trkpt>
      <trkpt lat="45.94003" lon="4.76837">
        <ele>171</ele>
        <time>2017-08-15T09:27:04Z</time>
      </trkpt>
      <trkpt lat="45.94002" lon="4.76829">
        <ele>171</ele>
        <time>2017-08-15T09:27:05Z</time>
      </trkpt>
      <trkpt lat="45.94001" lon="4.76821">
        <ele>172</ele>
        <time>2017-08-15T09:27:06Z</time>
      </trkpt>
      <trkpt lat="45.93999" lon="4.76813">
        <ele>172</ele>
        <time>2017-08-15T09:27:07Z</time>
      </trkpt>
      <trkpt lat="45.93999" lon="4.76805">
        <ele>172</ele>
        <time>2017-08-15T09:27:08Z</time>
      </trkpt>
      <trkpt lat="45.93998" lon="4.76798">
        <ele>172</ele>
        <time>2017-08-15T09:27:09Z</time>
      </trkpt>
      <trkpt lat="45.93998" lon="4.76791">
        <ele>172</ele>
        <time>2017-08-15T09:27:10Z</time>
      </trkpt>
      <trkpt lat="45.93998" lon="4.76784">
        <ele>172</ele>
        <time>2017-08-15T09:27:11Z</time>
      </trkpt>
      <trkpt lat="45.93999" lon="4.76776">
        <ele>172</ele>
        <time>2017-08-15T09:27:12Z</time>
      </trkpt>
      <trkpt lat="45.94001" lon="4.76769">
        <ele>173</ele>
        <time>2017-08-15T09:27:13Z</time>
      </trkpt>
      <trkpt lat="45.94002" lon="4.76761">
        <ele>173</ele>
        <time>2017-08-15T09:27:14Z</time>
      </trkpt>
      <trkpt lat="45.94003" lon="4.76753">
        <ele>173</ele>
        <time>2017-08-15T09:27:15Z</time>
      </trkpt>
      <trkpt lat="45.94005" lon="4.76745">
        <ele>173</ele>
        <time>2017-08-15T09:27:16Z</time>
      </trkpt>
      <trkpt lat="45.94007" lon="4.76738">
        <ele>173</ele>
        <time>2017-08-15T09:27:17Z</time>
      </trkpt>
      <trkpt lat="45.94009" lon="4.7673">
        <ele>173</ele>
        <time>2017-08-15T09:27:18Z</time>
      </trkpt>
      <trkpt lat="45.94012" lon="4.76722">
        <ele>173</ele>
        <time>2017-08-15T09:27:19Z</time>
      </trkpt>
      <trkpt lat="45.94015" lon="4.76714">
        <ele>173</ele>
        <time>2017-08-15T09:27:20Z</time>
      </trkpt>
      <trkpt lat="45.94017" lon="4.76707">
        <ele>173</ele>
        <time>2017-08-15T09:27:21Z</time>
      </trkpt>
      <trkpt lat="45.94019" lon="4.76699">
        <ele>173</ele>
        <time>2017-08-15T09:27:22Z</time>
      </trkpt>
      <trkpt lat="45.9402" lon="4.76692">
        <ele>173</ele>
        <time>2017-08-15T09:27:23Z</time>
      </trkpt>
      <trkpt lat="45.94021" lon="4.76684">
        <ele>173</ele>
        <time>2017-08-15T09:27:24Z</time>
      </trkpt>
      <trkpt lat="45.94022" lon="4.76677">
        <ele>173</ele>
        <time>2017-08-15T09:27:25Z</time>
      </trkpt>
      <trkpt lat="45.94023" lon="4.76669">
        <ele>173</ele>
        <time>2017-08-15T09:27:26Z</time>
      </trkpt>
      <trkpt lat="45.94022" lon="4.76661">
        <ele>172</ele>
        <time>2017-08-15T09:27:27Z</time>
      </trkpt>
      <trkpt lat="45.94021" lon="4.76652">
        <ele>172</ele>
        <time>2017-08-15T09:27:28Z</time>
      </trkpt>
      <trkpt lat="45.94019" lon="4.76643">
        <ele>172</ele>
        <time>2017-08-15T09:27:29Z</time>
      </trkpt>
      <trkpt lat="45.94016" lon="4.76634">
        <ele>172</ele>
        <time>2017-08-15T09:27:30Z</time>
      </trkpt>
      <trkpt lat="45.94014" lon="4.76626">
        <ele>172</ele>
        <time>2017-08-15T09:27:31Z</time>
      </trkpt>
      <trkpt lat="45.94011" lon="4.76618">
        <ele>172</ele>
        <time>2017-08-15T09:27:32Z</time>
      </trkpt>
      <trkpt lat="45.94007" lon="4.76609">
        <ele>172</ele>
        <time>2017-08-15T09:27:33Z</time>
      </trkpt>
      <trkpt lat="45.94004" lon="4.76601">
        <ele>172</ele>
        <time>2017-08-15T09:27:34Z</time>
      </trkpt>
      <trkpt lat="45.94002" lon="4.76593">
        <ele>172</ele>
        <time>2017-08-15T09:27:35Z</time>
      </trkpt>
      <trkpt lat="45.94" lon="4.76585">
        <ele>172</ele>
        <time>2017-08-15T09:27:36Z</time>
      </trkpt>
      <trkpt lat="45.93999" lon="4.76576">
        <ele>172</ele>
        <time>2017-08-15T09:27:37Z</time>
      </trkpt>
      <trkpt lat="45.93997" lon="4.76567">
        <ele>172</ele>
        <time>2017-08-15T09:27:38Z</time>
      </trkpt>
      <trkpt lat="45.93996" lon="4.76558">
        <ele>172</ele>
        <time>2017-08-15T09:27:39Z</time>
      </trkpt>
      <trkpt lat="45.93996" lon="4.76549">
        <ele>172</ele>
        <time>2017-08-15T09:27:40Z</time>
      </trkpt>
      <trkpt lat="45.93995" lon="4.76539">
        <ele>171</ele>
        <time>2017-08-15T09:27:41Z</time>
      </trkpt>
      <trkpt lat="45.93995" lon="4.76531">
        <ele>171</ele>
        <time>2017-08-15T09:27:42Z</time>
      </trkpt>
      <trkpt lat="45.93995" lon="4.76522">
        <ele>171</ele>
        <time>2017-08-15T09:27:43Z</time>
      </trkpt>
      <trkpt lat="45.93995" lon="4.76514">
        <ele>171</ele>
        <time>2017-08-15T09:27:44Z</time>
      </trkpt>
      <trkpt lat="45.93995" lon="4.76506">
        <ele>171</ele>
        <time>2017-08-15T09:27:45Z</time>
      </trkpt>
      <trkpt lat="45.93995" lon="4.76498">
        <ele>171</ele>
        <time>2017-08-15T09:27:46Z</time>
      </trkpt>
      <trkpt lat="45.93995" lon="4.7649">
        <ele>171</ele>
        <time>2017-08-15T09:27:47Z</time>
      </trkpt>
      <trkpt lat="45.93995" lon="4.76482">
        <ele>170</ele>
        <time>2017-08-15T09:27:48Z</time>
      </trkpt>
      <trkpt lat="45.93994" lon="4.76474">
        <ele>170</ele>
        <time>2017-08-15T09:27:49Z</time>
      </trkpt>
      <trkpt lat="45.93994" lon="4.76467">
        <ele>170</ele>
        <time>2017-08-15T09:27:50Z</time>
      </trkpt>
      <trkpt lat="45.93993" lon="4.7646">
        <ele>170</ele>
        <time>2017-08-15T09:27:51Z</time>
      </trkpt>
      <trkpt lat="45.93993" lon="4.76452">
        <ele>170</ele>
        <time>2017-08-15T09:27:52Z</time>
      </trkpt>
      <trkpt lat="45.93994" lon="4.76445">
        <ele>169</ele>
        <time>2017-08-15T09:27:53Z</time>
      </trkpt>
      <trkpt lat="45.93995" lon="4.76438">
        <ele>169</ele>
        <time>2017-08-15T09:27:54Z</time>
      </trkpt>
      <trkpt lat="45.93996" lon="4.76432">
        <ele>169</ele>
        <time>2017-08-15T09:27:55Z</time>
      </trkpt>
      <trkpt lat="45.93997" lon="4.76425">
        <ele>169</ele>
        <time>2017-08-15T09:27:56Z</time>
      </trkpt>
      <trkpt lat="45.94" lon="4.76413">
        <ele>168</ele>
        <time>2017-08-15T09:27:58Z</time>
      </trkpt>
      <trkpt lat="45.94002" lon="4.76407">
        <ele>169</ele>
        <time>2017-08-15T09:27:59Z</time>
      </trkpt>
      <trkpt lat="45.94006" lon="4.76403">
        <ele>169</ele>
        <time>2017-08-15T09:28:00Z</time>
      </trkpt>
      <trkpt lat="45.9401" lon="4.76398">
        <ele>169</ele>
        <time>2017-08-15T09:28:01Z</time>
      </trkpt>
      <trkpt lat="45.94014" lon="4.76394">
        <ele>169</ele>
        <time>2017-08-15T09:28:02Z</time>
      </trkpt>
      <trkpt lat="45.94018" lon="4.76389">
        <ele>169</ele>
        <time>2017-08-15T09:28:03Z</time>
      </trkpt>
      <trkpt lat="45.94022" lon="4.76384">
        <ele>170</ele>
        <time>2017-08-15T09:28:04Z</time>
      </trkpt>
      <trkpt lat="45.94027" lon="4.76379">
        <ele>170</ele>
        <time>2017-08-15T09:28:05Z</time>
      </trkpt>
      <trkpt lat="45.9403" lon="4.76374">
        <ele>170</ele>
        <time>2017-08-15T09:28:06Z</time>
      </trkpt>
      <trkpt lat="45.94034" lon="4.76369">
        <ele>170</ele>
        <time>2017-08-15T09:28:07Z</time>
      </trkpt>
      <trkpt lat="45.94039" lon="4.76358">
        <ele>170</ele>
        <time>2017-08-15T09:28:09Z</time>
      </trkpt>
      <trkpt lat="45.9404" lon="4.76353">
        <ele>170</ele>
        <time>2017-08-15T09:28:10Z</time>
      </trkpt>
      <trkpt lat="45.94043" lon="4.76344">
        <ele>170</ele>
        <time>2017-08-15T09:28:12Z</time>
      </trkpt>
      <trkpt lat="45.94045" lon="4.7634">
        <ele>170</ele>
        <time>2017-08-15T09:28:13Z</time>
      </trkpt>
      <trkpt lat="45.94048" lon="4.76331">
        <ele>170</ele>
        <time>2017-08-15T09:28:15Z</time>
      </trkpt>
      <trkpt lat="45.94049" lon="4.76327">
        <ele>171</ele>
        <time>2017-08-15T09:28:16Z</time>
      </trkpt>
      <trkpt lat="45.94053" lon="4.76318">
        <ele>171</ele>
        <time>2017-08-15T09:28:18Z</time>
      </trkpt>
      <trkpt lat="45.94055" lon="4.76315">
        <ele>171</ele>
        <time>2017-08-15T09:28:19Z</time>
      </trkpt>
      <trkpt lat="45.94061" lon="4.76307">
        <ele>171</ele>
        <time>2017-08-15T09:28:21Z</time>
      </trkpt>
      <trkpt lat="45.94064" lon="4.76304">
        <ele>171</ele>
        <time>2017-08-15T09:28:22Z</time>
      </trkpt>
      <trkpt lat="45.94068" lon="4.763">
        <ele>171</ele>
        <time>2017-08-15T09:28:23Z</time>
      </trkpt>
      <trkpt lat="45.94073" lon="4.76296">
        <ele>171</ele>
        <time>2017-08-15T09:28:24Z</time>
      </trkpt>
      <trkpt lat="45.94076" lon="4.76291">
        <ele>172</ele>
        <time>2017-08-15T09:28:25Z</time>
      </trkpt>
      <trkpt lat="45.94079" lon="4.76287">
        <ele>172</ele>
        <time>2017-08-15T09:28:26Z</time>
      </trkpt>
      <trkpt lat="45.94083" lon="4.76282">
        <ele>172</ele>
        <time>2017-08-15T09:28:27Z</time>
      </trkpt>
      <trkpt lat="45.94087" lon="4.76278">
        <ele>176</ele>
        <time>2017-08-15T09:28:28Z</time>
      </trkpt>
      <trkpt lat="45.94091" lon="4.76274">
        <ele>176</ele>
        <time>2017-08-15T09:28:29Z</time>
      </trkpt>
      <trkpt lat="45.94095" lon="4.76271">
        <ele>176</ele>
        <time>2017-08-15T09:28:30Z</time>
      </trkpt>
      <trkpt lat="45.94103" lon="4.76268">
        <ele>176</ele>
        <time>2017-08-15T09:28:32Z</time>
      </trkpt>
      <trkpt lat="45.94108" lon="4.76267">
        <ele>176</ele>
        <time>2017-08-15T09:28:33Z</time>
      </trkpt>
      <trkpt lat="45.94112" lon="4.76267">
        <ele>177</ele>
        <time>2017-08-15T09:28:34Z</time>
      </trkpt>
      <trkpt lat="45.94117" lon="4.76267">
        <ele>177</ele>
        <time>2017-08-15T09:28:35Z</time>
      </trkpt>
      <trkpt lat="45.94125" lon="4.76265">
        <ele>177</ele>
        <time>2017-08-15T09:28:37Z</time>
      </trkpt>
      <trkpt lat="45.9413" lon="4.76265">
        <ele>178</ele>
        <time>2017-08-15T09:28:38Z</time>
      </trkpt>
      <trkpt lat="45.94134" lon="4.76265">
        <ele>178</ele>
        <time>2017-08-15T09:28:39Z</time>
      </trkpt>
      <trkpt lat="45.94139" lon="4.76262">
        <ele>178</ele>
        <time>2017-08-15T09:28:40Z</time>
      </trkpt>
      <trkpt lat="45.94143" lon="4.7626">
        <ele>178</ele>
        <time>2017-08-15T09:28:41Z</time>
      </trkpt>
      <trkpt lat="45.94148" lon="4.76259">
        <ele>179</ele>
        <time>2017-08-15T09:28:42Z</time>
      </trkpt>
      <trkpt lat="45.94153" lon="4.76259">
        <ele>179</ele>
        <time>2017-08-15T09:28:43Z</time>
      </trkpt>
      <trkpt lat="45.94158" lon="4.7626">
        <ele>179</ele>
        <time>2017-08-15T09:28:44Z</time>
      </trkpt>
      <trkpt lat="45.94166" lon="4.7626">
        <ele>180</ele>
        <time>2017-08-15T09:28:46Z</time>
      </trkpt>
      <trkpt lat="45.9417" lon="4.76258">
        <ele>182</ele>
        <time>2017-08-15T09:28:47Z</time>
      </trkpt>
      <trkpt lat="45.94173" lon="4.76248">
        <ele>182</ele>
        <time>2017-08-15T09:28:49Z</time>
      </trkpt>
      <trkpt lat="45.94174" lon="4.76243">
        <ele>182</ele>
        <time>2017-08-15T09:28:50Z</time>
      </trkpt>
      <trkpt lat="45.94175" lon="4.76234">
        <ele>182</ele>
        <time>2017-08-15T09:28:52Z</time>
      </trkpt>
      <trkpt lat="45.94177" lon="4.76228">
        <ele>182</ele>
        <time>2017-08-15T09:28:53Z</time>
      </trkpt>
      <trkpt lat="45.94179" lon="4.76217">
        <ele>182</ele>
        <time>2017-08-15T09:28:55Z</time>
      </trkpt>
      <trkpt lat="45.9418" lon="4.76212">
        <ele>182</ele>
        <time>2017-08-15T09:28:56Z</time>
      </trkpt>
      <trkpt lat="45.94181" lon="4.76201">
        <ele>182</ele>
        <time>2017-08-15T09:28:58Z</time>
      </trkpt>
      <trkpt lat="45.94182" lon="4.76196">
        <ele>182</ele>
        <time>2017-08-15T09:28:59Z</time>
      </trkpt>
      <trkpt lat="45.94184" lon="4.76185">
        <ele>182</ele>
        <time>2017-08-15T09:29:01Z</time>
      </trkpt>
      <trkpt lat="45.94186" lon="4.7618">
        <ele>182</ele>
        <time>2017-08-15T09:29:02Z</time>
      </trkpt>
      <trkpt lat="45.94187" lon="4.76173">
        <ele>182</ele>
        <time>2017-08-15T09:29:03Z</time>
      </trkpt>
      <trkpt lat="45.94188" lon="4.76166">
        <ele>181</ele>
        <time>2017-08-15T09:29:04Z</time>
      </trkpt>
      <trkpt lat="45.94189" lon="4.76159">
        <ele>181</ele>
        <time>2017-08-15T09:29:05Z</time>
      </trkpt>
      <trkpt lat="45.94189" lon="4.76152">
        <ele>181</ele>
        <time>2017-08-15T09:29:06Z</time>
      </trkpt>
      <trkpt lat="45.94189" lon="4.76145">
        <ele>181</ele>
        <time>2017-08-15T09:29:07Z</time>
      </trkpt>
      <trkpt lat="45.94189" lon="4.76138">
        <ele>181</ele>
        <time>2017-08-15T09:29:08Z</time>
      </trkpt>
      <trkpt lat="45.94188" lon="4.76131">
        <ele>181</ele>
        <time>2017-08-15T09:29:09Z</time>
      </trkpt>
      <trkpt lat="45.94188" lon="4.76124">
        <ele>181</ele>
        <time>2017-08-15T09:29:10Z</time>
      </trkpt>
      <trkpt lat="45.94188" lon="4.76117">
        <ele>180</ele>
        <time>2017-08-15T09:29:11Z</time>
      </trkpt>
      <trkpt lat="45.94188" lon="4.7611">
        <ele>180</ele>
        <time>2017-08-15T09:29:12Z</time>
      </trkpt>
      <trkpt lat="45.94188" lon="4.76104">
        <ele>180</ele>
        <time>2017-08-15T09:29:13Z</time>
      </trkpt>
      <trkpt lat="45.94187" lon="4.76097">
        <ele>180</ele>
        <time>2017-08-15T09:29:14Z</time>
      </trkpt>
      <trkpt lat="45.94187" lon="4.76089">
        <ele>180</ele>
        <time>2017-08-15T09:29:15Z</time>
      </trkpt>
      <trkpt lat="45.94187" lon="4.76082">
        <ele>179</ele>
        <time>2017-08-15T09:29:16Z</time>
      </trkpt>
      <trkpt lat="45.94187" lon="4.76075">
        <ele>179</ele>
        <time>2017-08-15T09:29:17Z</time>
      </trkpt>
      <trkpt lat="45.94187" lon="4.76067">
        <ele>179</ele>
        <time>2017-08-15T09:29:18Z</time>
      </trkpt>
      <trkpt lat="45.94187" lon="4.76059">
        <ele>179</ele>
        <time>2017-08-15T09:29:19Z</time>
      </trkpt>
      <trkpt lat="45.94186" lon="4.76051">
        <ele>179</ele>
        <time>2017-08-15T09:29:20Z</time>
      </trkpt>
      <trkpt lat="45.94186" lon="4.76043">
        <ele>179</ele>
        <time>2017-08-15T09:29:21Z</time>
      </trkpt>
      <trkpt lat="45.94186" lon="4.76036">
        <ele>179</ele>
        <time>2017-08-15T09:29:22Z</time>
      </trkpt>
      <trkpt lat="45.94186" lon="4.76027">
        <ele>179</ele>
        <time>2017-08-15T09:29:23Z</time>
      </trkpt>
      <trkpt lat="45.94186" lon="4.76019">
        <ele>179</ele>
        <time>2017-08-15T09:29:24Z</time>
      </trkpt>
      <trkpt lat="45.94186" lon="4.76012">
        <ele>179</ele>
        <time>2017-08-15T09:29:25Z</time>
      </trkpt>
      <trkpt lat="45.94187" lon="4.76004">
        <ele>179</ele>
        <time>2017-08-15T09:29:26Z</time>
      </trkpt>
      <trkpt lat="45.94186" lon="4.75996">
        <ele>178</ele>
        <time>2017-08-15T09:29:27Z</time>
      </trkpt>
      <trkpt lat="45.94186" lon="4.75987">
        <ele>178</ele>
        <time>2017-08-15T09:29:28Z</time>
      </trkpt>
      <trkpt lat="45.94185" lon="4.75979">
        <ele>177</ele>
        <time>2017-08-15T09:29:29Z</time>
      </trkpt>
      <trkpt lat="45.94185" lon="4.7597">
        <ele>177</ele>
        <time>2017-08-15T09:29:30Z</time>
      </trkpt>
      <trkpt lat="45.94185" lon="4.75961">
        <ele>177</ele>
        <time>2017-08-15T09:29:31Z</time>
      </trkpt>
      <trkpt lat="45.94184" lon="4.75952">
        <ele>177</ele>
        <time>2017-08-15T09:29:32Z</time>
      </trkpt>
      <trkpt lat="45.94184" lon="4.75943">
        <ele>177</ele>
        <time>2017-08-15T09:29:33Z</time>
      </trkpt>
      <trkpt lat="45.94183" lon="4.75934">
        <ele>176</ele>
        <time>2017-08-15T09:29:34Z</time>
      </trkpt>
      <trkpt lat="45.94183" lon="4.75926">
        <ele>176</ele>
        <time>2017-08-15T09:29:35Z</time>
      </trkpt>
      <trkpt lat="45.94182" lon="4.75917">
        <ele>176</ele>
        <time>2017-08-15T09:29:36Z</time>
      </trkpt>
      <trkpt lat="45.94182" lon="4.75909">
        <ele>175</ele>
        <time>2017-08-15T09:29:37Z</time>
      </trkpt>
      <trkpt lat="45.94181" lon="4.75902">
        <ele>175</ele>
        <time>2017-08-15T09:29:38Z</time>
      </trkpt>
      <trkpt lat="45.9418" lon="4.75895">
        <ele>175</ele>
        <time>2017-08-15T09:29:39Z</time>
      </trkpt>
      <trkpt lat="45.94179" lon="4.75887">
        <ele>175</ele>
        <time>2017-08-15T09:29:40Z</time>
      </trkpt>
      <trkpt lat="45.94179" lon="4.7588">
        <ele>175</ele>
        <time>2017-08-15T09:29:41Z</time>
      </trkpt>
      <trkpt lat="45.94178" lon="4.75874">
        <ele>175</ele>
        <time>2017-08-15T09:29:42Z</time>
      </trkpt>
      <trkpt lat="45.94178" lon="4.75865">
        <ele>175</ele>
        <time>2017-08-15T09:29:43Z</time>
      </trkpt>
      <trkpt lat="45.94177" lon="4.75857">
        <ele>174</ele>
        <time>2017-08-15T09:29:44Z</time>
      </trkpt>
      <trkpt lat="45.94176" lon="4.75849">
        <ele>174</ele>
        <time>2017-08-15T09:29:45Z</time>
      </trkpt>
      <trkpt lat="45.94176" lon="4.7584">
        <ele>174</ele>
        <time>2017-08-15T09:29:46Z</time>
      </trkpt>
      <trkpt lat="45.94176" lon="4.75831">
        <ele>174</ele>
        <time>2017-08-15T09:29:47Z</time>
      </trkpt>
      <trkpt lat="45.94175" lon="4.75823">
        <ele>174</ele>
        <time>2017-08-15T09:29:48Z</time>
      </trkpt>
      <trkpt lat="45.94175" lon="4.75814">
        <ele>174</ele>
        <time>2017-08-15T09:29:49Z</time>
      </trkpt>
      <trkpt lat="45.94175" lon="4.75806">
        <ele>174</ele>
        <time>2017-08-15T09:29:50Z</time>
      </trkpt>
      <trkpt lat="45.94174" lon="4.75798">
        <ele>174</ele>
        <time>2017-08-15T09:29:51Z</time>
      </trkpt>
      <trkpt lat="45.94174" lon="4.7579">
        <ele>174</ele>
        <time>2017-08-15T09:29:52Z</time>
      </trkpt>
      <trkpt lat="45.94173" lon="4.75782">
        <ele>174</ele>
        <time>2017-08-15T09:29:53Z</time>
      </trkpt>
      <trkpt lat="45.94173" lon="4.75774">
        <ele>174</ele>
        <time>2017-08-15T09:29:54Z</time>
      </trkpt>
      <trkpt lat="45.94173" lon="4.75766">
        <ele>174</ele>
        <time>2017-08-15T09:29:55Z</time>
      </trkpt>
      <trkpt lat="45.94172" lon="4.75758">
        <ele>174</ele>
        <time>2017-08-15T09:29:56Z</time>
      </trkpt>
      <trkpt lat="45.94172" lon="4.7575">
        <ele>174</ele>
        <time>2017-08-15T09:29:57Z</time>
      </trkpt>
      <trkpt lat="45.94172" lon="4.75742">
        <ele>174</ele>
        <time>2017-08-15T09:29:58Z</time>
      </trkpt>
      <trkpt lat="45.94171" lon="4.75735">
        <ele>174</ele>
        <time>2017-08-15T09:29:59Z</time>
      </trkpt>
      <trkpt lat="45.94171" lon="4.75727">
        <ele>173</ele>
        <time>2017-08-15T09:30:00Z</time>
      </trkpt>
      <trkpt lat="45.9417" lon="4.7572">
        <ele>173</ele>
        <time>2017-08-15T09:30:01Z</time>
      </trkpt>
      <trkpt lat="45.9417" lon="4.75713">
        <ele>173</ele>
        <time>2017-08-15T09:30:02Z</time>
      </trkpt>
      <trkpt lat="45.9417" lon="4.75705">
        <ele>173</ele>
        <time>2017-08-15T09:30:03Z</time>
      </trkpt>
      <trkpt lat="45.94171" lon="4.75697">
        <ele>173</ele>
        <time>2017-08-15T09:30:04Z</time>
      </trkpt>
      <trkpt lat="45.94171" lon="4.75689">
        <ele>173</ele>
        <time>2017-08-15T09:30:05Z</time>
      </trkpt>
      <trkpt lat="45.94171" lon="4.75681">
        <ele>173</ele>
        <time>2017-08-15T09:30:06Z</time>
      </trkpt>
      <trkpt lat="45.94171" lon="4.75673">
        <ele>173</ele>
        <time>2017-08-15T09:30:07Z</time>
      </trkpt>
      <trkpt lat="45.94171" lon="4.75665">
        <ele>173</ele>
        <time>2017-08-15T09:30:08Z</time>
      </trkpt>
      <trkpt lat="45.94171" lon="4.75656">
        <ele>173</ele>
        <time>2017-08-15T09:30:09Z</time>
      </trkpt>
      <trkpt lat="45.94171" lon="4.75649">
        <ele>173</ele>
        <time>2017-08-15T09:30:10Z</time>
      </trkpt>
      <trkpt lat="45.94171" lon="4.75641">
        <ele>173</ele>
        <time>2017-08-15T09:30:11Z</time>
      </trkpt>
      <trkpt lat="45.94172" lon="4.75633">
        <ele>173</ele>
        <time>2017-08-15T09:30:12Z</time>
      </trkpt>
      <trkpt lat="45.94172" lon="4.75625">
        <ele>173</ele>
        <time>2017-08-15T09:30:13Z</time>
      </trkpt>
      <trkpt lat="45.94173" lon="4.75618">
        <ele>173</ele>
        <time>2017-08-15T09:30:14Z</time>
      </trkpt>
      <trkpt lat="45.94173" lon="4.75611">
        <ele>173</ele>
        <time>2017-08-15T09:30:15Z</time>
      </trkpt>
      <trkpt lat="45.94174" lon="4.75603">
        <ele>173</ele>
        <time>2017-08-15T09:30:16Z</time>
      </trkpt>
      <trkpt lat="45.94175" lon="4.75596">
        <ele>173</ele>
        <time>2017-08-15T09:30:17Z</time>
      </trkpt>
      <trkpt lat="45.94176" lon="4.75589">
        <ele>173</ele>
        <time>2017-08-15T09:30:18Z</time>
      </trkpt>
      <trkpt lat="45.94177" lon="4.75582">
        <ele>173</ele>
        <time>2017-08-15T09:30:19Z</time>
      </trkpt>
      <trkpt lat="45.94178" lon="4.75575">
        <ele>173</ele>
        <time>2017-08-15T09:30:20Z</time>
      </trkpt>
      <trkpt lat="45.94178" lon="4.75568">
        <ele>173</ele>
        <time>2017-08-15T09:30:21Z</time>
      </trkpt>
      <trkpt lat="45.94179" lon="4.7556">
        <ele>173</ele>
        <time>2017-08-15T09:30:22Z</time>
      </trkpt>
      <trkpt lat="45.94179" lon="4.75553">
        <ele>173</ele>
        <time>2017-08-15T09:30:23Z</time>
      </trkpt>
      <trkpt lat="45.94179" lon="4.75545">
        <ele>173</ele>
        <time>2017-08-15T09:30:24Z</time>
      </trkpt>
      <trkpt lat="45.94179" lon="4.75538">
        <ele>173</ele>
        <time>2017-08-15T09:30:25Z</time>
      </trkpt>
      <trkpt lat="45.9418" lon="4.75529">
        <ele>173</ele>
        <time>2017-08-15T09:30:26Z</time>
      </trkpt>
      <trkpt lat="45.9418" lon="4.7552">
        <ele>173</ele>
        <time>2017-08-15T09:30:27Z</time>
      </trkpt>
      <trkpt lat="45.94181" lon="4.75512">
        <ele>173</ele>
        <time>2017-08-15T09:30:28Z</time>
      </trkpt>
      <trkpt lat="45.94181" lon="4.75503">
        <ele>173</ele>
        <time>2017-08-15T09:30:29Z</time>
      </trkpt>
      <trkpt lat="45.94184" lon="4.75496">
        <ele>172</ele>
        <time>2017-08-15T09:30:30Z</time>
      </trkpt>
      <trkpt lat="45.94185" lon="4.75489">
        <ele>172</ele>
        <time>2017-08-15T09:30:31Z</time>
      </trkpt>
      <trkpt lat="45.94187" lon="4.75481">
        <ele>172</ele>
        <time>2017-08-15T09:30:32Z</time>
      </trkpt>
      <trkpt lat="45.94189" lon="4.75474">
        <ele>172</ele>
        <time>2017-08-15T09:30:33Z</time>
      </trkpt>
      <trkpt lat="45.9419" lon="4.75467">
        <ele>172</ele>
        <time>2017-08-15T09:30:34Z</time>
      </trkpt>
      <trkpt lat="45.94192" lon="4.75459">
        <ele>172</ele>
        <time>2017-08-15T09:30:35Z</time>
      </trkpt>
      <trkpt lat="45.94194" lon="4.75453">
        <ele>172</ele>
        <time>2017-08-15T09:30:36Z</time>
      </trkpt>
      <trkpt lat="45.94195" lon="4.75446">
        <ele>171</ele>
        <time>2017-08-15T09:30:37Z</time>
      </trkpt>
      <trkpt lat="45.94194" lon="4.75438">
        <ele>171</ele>
        <time>2017-08-15T09:30:38Z</time>
      </trkpt>
      <trkpt lat="45.94194" lon="4.75431">
        <ele>171</ele>
        <time>2017-08-15T09:30:39Z</time>
      </trkpt>
      <trkpt lat="45.94193" lon="4.75423">
        <ele>171</ele>
        <time>2017-08-15T09:30:40Z</time>
      </trkpt>
      <trkpt lat="45.94192" lon="4.75414">
        <ele>171</ele>
        <time>2017-08-15T09:30:41Z</time>
      </trkpt>
      <trkpt lat="45.94192" lon="4.75406">
        <ele>171</ele>
        <time>2017-08-15T09:30:42Z</time>
      </trkpt>
      <trkpt lat="45.94193" lon="4.75397">
        <ele>171</ele>
        <time>2017-08-15T09:30:43Z</time>
      </trkpt>
      <trkpt lat="45.94194" lon="4.75389">
        <ele>171</ele>
        <time>2017-08-15T09:30:44Z</time>
      </trkpt>
      <trkpt lat="45.94196" lon="4.7538">
        <ele>171</ele>
        <time>2017-08-15T09:30:45Z</time>
      </trkpt>
      <trkpt lat="45.94197" lon="4.75372">
        <ele>171</ele>
        <time>2017-08-15T09:30:46Z</time>
      </trkpt>
      <trkpt lat="45.94198" lon="4.75364">
        <ele>171</ele>
        <time>2017-08-15T09:30:47Z</time>
      </trkpt>
      <trkpt lat="45.94199" lon="4.75357">
        <ele>171</ele>
        <time>2017-08-15T09:30:48Z</time>
      </trkpt>
      <trkpt lat="45.942" lon="4.75349">
        <ele>171</ele>
        <time>2017-08-15T09:30:49Z</time>
      </trkpt>
      <trkpt lat="45.94201" lon="4.75342">
        <ele>171</ele>
        <time>2017-08-15T09:30:50Z</time>
      </trkpt>
      <trkpt lat="45.94202" lon="4.75335">
        <ele>171</ele>
        <time>2017-08-15T09:30:51Z</time>
      </trkpt>
      <trkpt lat="45.94203" lon="4.75329">
        <ele>171</ele>
        <time>2017-08-15T09:30:52Z</time>
      </trkpt>
      <trkpt lat="45.94204" lon="4.75322">
        <ele>171</ele>
        <time>2017-08-15T09:30:53Z</time>
      </trkpt>
      <trkpt lat="45.94205" lon="4.75316">
        <ele>171</ele>
        <time>2017-08-15T09:30:54Z</time>
      </trkpt>
      <trkpt lat="45.94207" lon="4.75309">
        <ele>171</ele>
        <time>2017-08-15T09:30:55Z</time>
      </trkpt>
      <trkpt lat="45.94208" lon="4.75302">
        <ele>171</ele>
        <time>2017-08-15T09:30:56Z</time>
      </trkpt>
      <trkpt lat="45.94209" lon="4.75294">
        <ele>172</ele>
        <time>2017-08-15T09:30:57Z</time>
      </trkpt>
      <trkpt lat="45.94211" lon="4.75287">
        <ele>172</ele>
        <time>2017-08-15T09:30:58Z</time>
      </trkpt>
      <trkpt lat="45.94212" lon="4.75279">
        <ele>172</ele>
        <time>2017-08-15T09:30:59Z</time>
      </trkpt>
      <trkpt lat="45.94214" lon="4.75271">
        <ele>172</ele>
        <time>2017-08-15T09:31:00Z</time>
      </trkpt>
      <trkpt lat="45.94216" lon="4.75262">
        <ele>172</ele>
        <time>2017-08-15T09:31:01Z</time>
      </trkpt>
      <trkpt lat="45.94217" lon="4.75254">
        <ele>172</ele>
        <time>2017-08-15T09:31:02Z</time>
      </trkpt>
      <trkpt lat="45.94219" lon="4.75245">
        <ele>171</ele>
        <time>2017-08-15T09:31:03Z</time>
      </trkpt>
      <trkpt lat="45.94221" lon="4.75236">
        <ele>171</ele>
        <time>2017-08-15T09:31:04Z</time>
      </trkpt>
      <trkpt lat="45.94222" lon="4.75228">
        <ele>171</ele>
        <time>2017-08-15T09:31:05Z</time>
      </trkpt>
      <trkpt lat="45.94224" lon="4.7522">
        <ele>171</ele>
        <time>2017-08-15T09:31:06Z</time>
      </trkpt>
      <trkpt lat="45.94225" lon="4.75212">
        <ele>171</ele>
        <time>2017-08-15T09:31:07Z</time>
      </trkpt>
      <trkpt lat="45.94227" lon="4.75204">
        <ele>171</ele>
        <time>2017-08-15T09:31:08Z</time>
      </trkpt>
      <trkpt lat="45.94228" lon="4.75196">
        <ele>171</ele>
        <time>2017-08-15T09:31:09Z</time>
      </trkpt>
      <trkpt lat="45.9423" lon="4.75188">
        <ele>171</ele>
        <time>2017-08-15T09:31:10Z</time>
      </trkpt>
      <trkpt lat="45.94232" lon="4.7518">
        <ele>171</ele>
        <time>2017-08-15T09:31:11Z</time>
      </trkpt>
      <trkpt lat="45.94234" lon="4.75172">
        <ele>171</ele>
        <time>2017-08-15T09:31:12Z</time>
      </trkpt>
      <trkpt lat="45.94236" lon="4.75163">
        <ele>172</ele>
        <time>2017-08-15T09:31:13Z</time>
      </trkpt>
      <trkpt lat="45.94238" lon="4.75155">
        <ele>172</ele>
        <time>2017-08-15T09:31:14Z</time>
      </trkpt>
      <trkpt lat="45.9424" lon="4.75146">
        <ele>171</ele>
        <time>2017-08-15T09:31:15Z</time>
      </trkpt>
      <trkpt lat="45.94242" lon="4.75137">
        <ele>171</ele>
        <time>2017-08-15T09:31:16Z</time>
      </trkpt>
      <trkpt lat="45.94244" lon="4.75128">
        <ele>172</ele>
        <time>2017-08-15T09:31:17Z</time>
      </trkpt>
      <trkpt lat="45.94246" lon="4.7512">
        <ele>172</ele>
        <time>2017-08-15T09:31:18Z</time>
      </trkpt>
      <trkpt lat="45.94248" lon="4.75112">
        <ele>172</ele>
        <time>2017-08-15T09:31:19Z</time>
      </trkpt>
      <trkpt lat="45.9425" lon="4.75104">
        <ele>173</ele>
        <time>2017-08-15T09:31:20Z</time>
      </trkpt>
      <trkpt lat="45.94252" lon="4.75096">
        <ele>173</ele>
        <time>2017-08-15T09:31:21Z</time>
      </trkpt>
      <trkpt lat="45.94254" lon="4.75088">
        <ele>173</ele>
        <time>2017-08-15T09:31:22Z</time>
      </trkpt>
      <trkpt lat="45.94256" lon="4.75081">
        <ele>173</ele>
        <time>2017-08-15T09:31:23Z</time>
      </trkpt>
      <trkpt lat="45.94258" lon="4.75073">
        <ele>174</ele>
        <time>2017-08-15T09:31:24Z</time>
      </trkpt>
      <trkpt lat="45.9426" lon="4.75065">
        <ele>174</ele>
        <time>2017-08-15T09:31:25Z</time>
      </trkpt>
      <trkpt lat="45.94262" lon="4.75057">
        <ele>174</ele>
        <time>2017-08-15T09:31:26Z</time>
      </trkpt>
      <trkpt lat="45.94264" lon="4.7505">
        <ele>174</ele>
        <time>2017-08-15T09:31:27Z</time>
      </trkpt>
      <trkpt lat="45.94267" lon="4.75043">
        <ele>174</ele>
        <time>2017-08-15T09:31:28Z</time>
      </trkpt>
      <trkpt lat="45.94269" lon="4.75035">
        <ele>174</ele>
        <time>2017-08-15T09:31:29Z</time>
      </trkpt>
      <trkpt lat="45.94271" lon="4.75027">
        <ele>175</ele>
        <time>2017-08-15T09:31:30Z</time>
      </trkpt>
      <trkpt lat="45.94274" lon="4.75019">
        <ele>175</ele>
        <time>2017-08-15T09:31:31Z</time>
      </trkpt>
      <trkpt lat="45.94276" lon="4.7501">
        <ele>175</ele>
        <time>2017-08-15T09:31:32Z</time>
      </trkpt>
      <trkpt lat="45.94279" lon="4.75001">
        <ele>175</ele>
        <time>2017-08-15T09:31:33Z</time>
      </trkpt>
      <trkpt lat="45.94281" lon="4.7499">
        <ele>175</ele>
        <time>2017-08-15T09:31:34Z</time>
      </trkpt>
      <trkpt lat="45.94283" lon="4.7498">
        <ele>175</ele>
        <time>2017-08-15T09:31:35Z</time>
      </trkpt>
      <trkpt lat="45.94285" lon="4.74971">
        <ele>175</ele>
        <time>2017-08-15T09:31:36Z</time>
      </trkpt>
      <trkpt lat="45.94287" lon="4.74962">
        <ele>175</ele>
        <time>2017-08-15T09:31:37Z</time>
      </trkpt>
      <trkpt lat="45.94289" lon="4.74953">
        <ele>175</ele>
        <time>2017-08-15T09:31:38Z</time>
      </trkpt>
      <trkpt lat="45.94291" lon="4.74945">
        <ele>175</ele>
        <time>2017-08-15T09:31:39Z</time>
      </trkpt>
      <trkpt lat="45.94294" lon="4.74936">
        <ele>175</ele>
        <time>2017-08-15T09:31:40Z</time>
      </trkpt>
      <trkpt lat="45.94296" lon="4.74929">
        <ele>175</ele>
        <time>2017-08-15T09:31:41Z</time>
      </trkpt>
      <trkpt lat="45.94299" lon="4.74921">
        <ele>175</ele>
        <time>2017-08-15T09:31:42Z</time>
      </trkpt>
      <trkpt lat="45.94301" lon="4.74913">
        <ele>174</ele>
        <time>2017-08-15T09:31:43Z</time>
      </trkpt>
      <trkpt lat="45.94303" lon="4.74906">
        <ele>174</ele>
        <time>2017-08-15T09:31:44Z</time>
      </trkpt>
      <trkpt lat="45.94306" lon="4.74898">
        <ele>174</ele>
        <time>2017-08-15T09:31:45Z</time>
      </trkpt>
      <trkpt lat="45.94308" lon="4.7489">
        <ele>174</ele>
        <time>2017-08-15T09:31:46Z</time>
      </trkpt>
      <trkpt lat="45.9431" lon="4.74881">
        <ele>174</ele>
        <time>2017-08-15T09:31:47Z</time>
      </trkpt>
      <trkpt lat="45.94312" lon="4.74873">
        <ele>174</ele>
        <time>2017-08-15T09:31:48Z</time>
      </trkpt>
      <trkpt lat="45.94314" lon="4.74865">
        <ele>174</ele>
        <time>2017-08-15T09:31:49Z</time>
      </trkpt>
      <trkpt lat="45.94315" lon="4.74857">
        <ele>174</ele>
        <time>2017-08-15T09:31:50Z</time>
      </trkpt>
      <trkpt lat="45.94318" lon="4.74849">
        <ele>174</ele>
        <time>2017-08-15T09:31:51Z</time>
      </trkpt>
      <trkpt lat="45.9432" lon="4.74842">
        <ele>174</ele>
        <time>2017-08-15T09:31:52Z</time>
      </trkpt>
      <trkpt lat="45.94322" lon="4.74836">
        <ele>174</ele>
        <time>2017-08-15T09:31:53Z</time>
      </trkpt>
      <trkpt lat="45.94323" lon="4.74829">
        <ele>173</ele>
        <time>2017-08-15T09:31:54Z</time>
      </trkpt>
      <trkpt lat="45.94325" lon="4.74823">
        <ele>173</ele>
        <time>2017-08-15T09:31:55Z</time>
      </trkpt>
      <trkpt lat="45.94326" lon="4.74816">
        <ele>172</ele>
        <time>2017-08-15T09:31:56Z</time>
      </trkpt>
      <trkpt lat="45.94328" lon="4.74809">
        <ele>172</ele>
        <time>2017-08-15T09:31:57Z</time>
      </trkpt>
      <trkpt lat="45.94331" lon="4.74803">
        <ele>172</ele>
        <time>2017-08-15T09:31:58Z</time>
      </trkpt>
      <trkpt lat="45.94333" lon="4.74795">
        <ele>172</ele>
        <time>2017-08-15T09:31:59Z</time>
      </trkpt>
      <trkpt lat="45.94334" lon="4.74788">
        <ele>173</ele>
        <time>2017-08-15T09:32:00Z</time>
      </trkpt>
      <trkpt lat="45.94336" lon="4.7478">
        <ele>173</ele>
        <time>2017-08-15T09:32:01Z</time>
      </trkpt>
      <trkpt lat="45.94338" lon="4.74773">
        <ele>173</ele>
        <time>2017-08-15T09:32:02Z</time>
      </trkpt>
      <trkpt lat="45.94339" lon="4.74765">
        <ele>172</ele>
        <time>2017-08-15T09:32:03Z</time>
      </trkpt>
      <trkpt lat="45.94341" lon="4.74757">
        <ele>172</ele>
        <time>2017-08-15T09:32:04Z</time>
      </trkpt>
      <trkpt lat="45.94343" lon="4.74748">
        <ele>171</ele>
        <time>2017-08-15T09:32:05Z</time>
      </trkpt>
      <trkpt lat="45.94345" lon="4.74739">
        <ele>171</ele>
        <time>2017-08-15T09:32:06Z</time>
      </trkpt>
      <trkpt lat="45.94346" lon="4.74731">
        <ele>171</ele>
        <time>2017-08-15T09:32:07Z</time>
      </trkpt>
      <trkpt lat="45.94347" lon="4.74723">
        <ele>171</ele>
        <time>2017-08-15T09:32:08Z</time>
      </trkpt>
      <trkpt lat="45.94348" lon="4.74715">
        <ele>171</ele>
        <time>2017-08-15T09:32:09Z</time>
      </trkpt>
      <trkpt lat="45.94349" lon="4.74708">
        <ele>172</ele>
        <time>2017-08-15T09:32:10Z</time>
      </trkpt>
      <trkpt lat="45.9435" lon="4.74701">
        <ele>172</ele>
        <time>2017-08-15T09:32:11Z</time>
      </trkpt>
      <trkpt lat="45.94351" lon="4.74694">
        <ele>172</ele>
        <time>2017-08-15T09:32:12Z</time>
      </trkpt>
      <trkpt lat="45.94352" lon="4.74687">
        <ele>172</ele>
        <time>2017-08-15T09:32:13Z</time>
      </trkpt>
      <trkpt lat="45.94353" lon="4.7468">
        <ele>172</ele>
        <time>2017-08-15T09:32:14Z</time>
      </trkpt>
      <trkpt lat="45.94354" lon="4.74673">
        <ele>172</ele>
        <time>2017-08-15T09:32:15Z</time>
      </trkpt>
      <trkpt lat="45.94354" lon="4.74665">
        <ele>171</ele>
        <time>2017-08-15T09:32:16Z</time>
      </trkpt>
      <trkpt lat="45.94354" lon="4.74656">
        <ele>171</ele>
        <time>2017-08-15T09:32:17Z</time>
      </trkpt>
      <trkpt lat="45.94354" lon="4.74648">
        <ele>171</ele>
        <time>2017-08-15T09:32:18Z</time>
      </trkpt>
      <trkpt lat="45.94354" lon="4.74641">
        <ele>171</ele>
        <time>2017-08-15T09:32:19Z</time>
      </trkpt>
      <trkpt lat="45.94355" lon="4.74633">
        <ele>171</ele>
        <time>2017-08-15T09:32:20Z</time>
      </trkpt>
      <trkpt lat="45.94355" lon="4.74625">
        <ele>171</ele>
        <time>2017-08-15T09:32:21Z</time>
      </trkpt>
      <trkpt lat="45.94356" lon="4.74618">
        <ele>171</ele>
        <time>2017-08-15T09:32:22Z</time>
      </trkpt>
      <trkpt lat="45.94357" lon="4.74611">
        <ele>171</ele>
        <time>2017-08-15T09:32:23Z</time>
      </trkpt>
      <trkpt lat="45.94358" lon="4.74605">
        <ele>171</ele>
        <time>2017-08-15T09:32:24Z</time>
      </trkpt>
      <trkpt lat="45.94358" lon="4.74599">
        <ele>171</ele>
        <time>2017-08-15T09:32:25Z</time>
      </trkpt>
      <trkpt lat="45.94359" lon="4.74592">
        <ele>171</ele>
        <time>2017-08-15T09:32:26Z</time>
      </trkpt>
      <trkpt lat="45.9436" lon="4.74585">
        <ele>171</ele>
        <time>2017-08-15T09:32:27Z</time>
      </trkpt>
      <trkpt lat="45.94361" lon="4.74578">
        <ele>171</ele>
        <time>2017-08-15T09:32:28Z</time>
      </trkpt>
      <trkpt lat="45.94362" lon="4.7457">
        <ele>171</ele>
        <time>2017-08-15T09:32:29Z</time>
      </trkpt>
      <trkpt lat="45.94362" lon="4.74562">
        <ele>171</ele>
        <time>2017-08-15T09:32:30Z</time>
      </trkpt>
      <trkpt lat="45.94363" lon="4.74554">
        <ele>171</ele>
        <time>2017-08-15T09:32:31Z</time>
      </trkpt>
      <trkpt lat="45.94363" lon="4.74546">
        <ele>171</ele>
        <time>2017-08-15T09:32:32Z</time>
      </trkpt>
      <trkpt lat="45.94364" lon="4.74538">
        <ele>171</ele>
        <time>2017-08-15T09:32:33Z</time>
      </trkpt>
      <trkpt lat="45.94364" lon="4.7453">
        <ele>171</ele>
        <time>2017-08-15T09:32:34Z</time>
      </trkpt>
      <trkpt lat="45.94365" lon="4.74523">
        <ele>171</ele>
        <time>2017-08-15T09:32:35Z</time>
      </trkpt>
      <trkpt lat="45.94366" lon="4.74515">
        <ele>171</ele>
        <time>2017-08-15T09:32:36Z</time>
      </trkpt>
      <trkpt lat="45.94366" lon="4.74508">
        <ele>171</ele>
        <time>2017-08-15T09:32:37Z</time>
      </trkpt>
      <trkpt lat="45.94367" lon="4.74501">
        <ele>171</ele>
        <time>2017-08-15T09:32:38Z</time>
      </trkpt>
      <trkpt lat="45.94368" lon="4.74493">
        <ele>171</ele>
        <time>2017-08-15T09:32:39Z</time>
      </trkpt>
      <trkpt lat="45.94368" lon="4.74485">
        <ele>171</ele>
        <time>2017-08-15T09:32:40Z</time>
      </trkpt>
      <trkpt lat="45.94369" lon="4.74477">
        <ele>171</ele>
        <time>2017-08-15T09:32:41Z</time>
      </trkpt>
      <trkpt lat="45.9437" lon="4.7447">
        <ele>171</ele>
        <time>2017-08-15T09:32:42Z</time>
      </trkpt>
      <trkpt lat="45.94371" lon="4.74462">
        <ele>171</ele>
        <time>2017-08-15T09:32:43Z</time>
      </trkpt>
      <trkpt lat="45.94371" lon="4.74454">
        <ele>171</ele>
        <time>2017-08-15T09:32:44Z</time>
      </trkpt>
      <trkpt lat="45.94372" lon="4.74446">
        <ele>171</ele>
        <time>2017-08-15T09:32:45Z</time>
      </trkpt>
      <trkpt lat="45.94373" lon="4.74439">
        <ele>171</ele>
        <time>2017-08-15T09:32:46Z</time>
      </trkpt>
      <trkpt lat="45.94374" lon="4.74432">
        <ele>171</ele>
        <time>2017-08-15T09:32:47Z</time>
      </trkpt>
      <trkpt lat="45.94375" lon="4.74425">
        <ele>171</ele>
        <time>2017-08-15T09:32:48Z</time>
      </trkpt>
      <trkpt lat="45.94376" lon="4.74418">
        <ele>171</ele>
        <time>2017-08-15T09:32:49Z</time>
      </trkpt>
      <trkpt lat="45.94377" lon="4.74411">
        <ele>171</ele>
        <time>2017-08-15T09:32:50Z</time>
      </trkpt>
      <trkpt lat="45.94377" lon="4.74403">
        <ele>171</ele>
        <time>2017-08-15T09:32:51Z</time>
      </trkpt>
      <trkpt lat="45.94378" lon="4.74395">
        <ele>171</ele>
        <time>2017-08-15T09:32:52Z</time>
      </trkpt>
      <trkpt lat="45.94379" lon="4.74386">
        <ele>171</ele>
        <time>2017-08-15T09:32:53Z</time>
      </trkpt>
      <trkpt lat="45.94379" lon="4.74378">
        <ele>171</ele>
        <time>2017-08-15T09:32:54Z</time>
      </trkpt>
      <trkpt lat="45.9438" lon="4.74369">
        <ele>171</ele>
        <time>2017-08-15T09:32:55Z</time>
      </trkpt>
      <trkpt lat="45.94381" lon="4.7436">
        <ele>171</ele>
        <time>2017-08-15T09:32:56Z</time>
      </trkpt>
      <trkpt lat="45.94382" lon="4.74352">
        <ele>171</ele>
        <time>2017-08-15T09:32:57Z</time>
      </trkpt>
      <trkpt lat="45.94383" lon="4.74343">
        <ele>171</ele>
        <time>2017-08-15T09:32:58Z</time>
      </trkpt>
      <trkpt lat="45.94384" lon="4.74335">
        <ele>171</ele>
        <time>2017-08-15T09:32:59Z</time>
      </trkpt>
      <trkpt lat="45.94385" lon="4.74327">
        <ele>170</ele>
        <time>2017-08-15T09:33:00Z</time>
      </trkpt>
      <trkpt lat="45.94386" lon="4.74319">
        <ele>170</ele>
        <time>2017-08-15T09:33:01Z</time>
      </trkpt>
      <trkpt lat="45.94387" lon="4.74312">
        <ele>170</ele>
        <time>2017-08-15T09:33:02Z</time>
      </trkpt>
      <trkpt lat="45.94388" lon="4.74305">
        <ele>170</ele>
        <time>2017-08-15T09:33:03Z</time>
      </trkpt>
      <trkpt lat="45.94389" lon="4.74297">
        <ele>170</ele>
        <time>2017-08-15T09:33:04Z</time>
      </trkpt>
      <trkpt lat="45.9439" lon="4.7429">
        <ele>170</ele>
        <time>2017-08-15T09:33:05Z</time>
      </trkpt>
      <trkpt lat="45.94391" lon="4.74284">
        <ele>170</ele>
        <time>2017-08-15T09:33:06Z</time>
      </trkpt>
      <trkpt lat="45.94393" lon="4.74278">
        <ele>170</ele>
        <time>2017-08-15T09:33:07Z</time>
      </trkpt>
      <trkpt lat="45.94396" lon="4.74271">
        <ele>170</ele>
        <time>2017-08-15T09:33:08Z</time>
      </trkpt>
      <trkpt lat="45.94398" lon="4.74264">
        <ele>170</ele>
        <time>2017-08-15T09:33:09Z</time>
      </trkpt>
      <trkpt lat="45.94399" lon="4.74257">
        <ele>171</ele>
        <time>2017-08-15T09:33:10Z</time>
      </trkpt>
      <trkpt lat="45.94401" lon="4.7425">
        <ele>171</ele>
        <time>2017-08-15T09:33:11Z</time>
      </trkpt>
      <trkpt lat="45.94403" lon="4.74242">
        <ele>171</ele>
        <time>2017-08-15T09:33:12Z</time>
      </trkpt>
      <trkpt lat="45.94405" lon="4.74234">
        <ele>171</ele>
        <time>2017-08-15T09:33:13Z</time>
      </trkpt>
      <trkpt lat="45.94406" lon="4.74225">
        <ele>171</ele>
        <time>2017-08-15T09:33:14Z</time>
      </trkpt>
      <trkpt lat="45.94408" lon="4.74217">
        <ele>171</ele>
        <time>2017-08-15T09:33:15Z</time>
      </trkpt>
      <trkpt lat="45.94409" lon="4.74209">
        <ele>171</ele>
        <time>2017-08-15T09:33:16Z</time>
      </trkpt>
      <trkpt lat="45.9441" lon="4.74201">
        <ele>172</ele>
        <time>2017-08-15T09:33:17Z</time>
      </trkpt>
      <trkpt lat="45.9441" lon="4.74192">
        <ele>172</ele>
        <time>2017-08-15T09:33:18Z</time>
      </trkpt>
      <trkpt lat="45.9441" lon="4.74184">
        <ele>172</ele>
        <time>2017-08-15T09:33:19Z</time>
      </trkpt>
      <trkpt lat="45.94411" lon="4.74175">
        <ele>173</ele>
        <time>2017-08-15T09:33:20Z</time>
      </trkpt>
      <trkpt lat="45.94411" lon="4.74167">
        <ele>174</ele>
        <time>2017-08-15T09:33:21Z</time>
      </trkpt>
      <trkpt lat="45.94412" lon="4.74159">
        <ele>174</ele>
        <time>2017-08-15T09:33:22Z</time>
      </trkpt>
      <trkpt lat="45.94412" lon="4.74151">
        <ele>174</ele>
        <time>2017-08-15T09:33:23Z</time>
      </trkpt>
      <trkpt lat="45.94412" lon="4.74144">
        <ele>174</ele>
        <time>2017-08-15T09:33:24Z</time>
      </trkpt>
      <trkpt lat="45.94413" lon="4.74136">
        <ele>174</ele>
        <time>2017-08-15T09:33:25Z</time>
      </trkpt>
      <trkpt lat="45.94414" lon="4.74129">
        <ele>174</ele>
        <time>2017-08-15T09:33:26Z</time>
      </trkpt>
      <trkpt lat="45.94415" lon="4.74122">
        <ele>174</ele>
        <time>2017-08-15T09:33:27Z</time>
      </trkpt>
      <trkpt lat="45.94417" lon="4.74115">
        <ele>174</ele>
        <time>2017-08-15T09:33:28Z</time>
      </trkpt>
      <trkpt lat="45.94418" lon="4.74108">
        <ele>177</ele>
        <time>2017-08-15T09:33:29Z</time>
      </trkpt>
      <trkpt lat="45.94419" lon="4.74101">
        <ele>177</ele>
        <time>2017-08-15T09:33:30Z</time>
      </trkpt>
      <trkpt lat="45.9442" lon="4.74094">
        <ele>177</ele>
        <time>2017-08-15T09:33:31Z</time>
      </trkpt>
      <trkpt lat="45.94421" lon="4.74087">
        <ele>177</ele>
        <time>2017-08-15T09:33:32Z</time>
      </trkpt>
      <trkpt lat="45.94422" lon="4.7408">
        <ele>178</ele>
        <time>2017-08-15T09:33:33Z</time>
      </trkpt>
      <trkpt lat="45.94423" lon="4.74073">
        <ele>178</ele>
        <time>2017-08-15T09:33:34Z</time>
      </trkpt>
      <trkpt lat="45.94424" lon="4.74067">
        <ele>178</ele>
        <time>2017-08-15T09:33:35Z</time>
      </trkpt>
      <trkpt lat="45.94425" lon="4.74061">
        <ele>178</ele>
        <time>2017-08-15T09:33:36Z</time>
      </trkpt>
      <trkpt lat="45.94426" lon="4.74054">
        <ele>179</ele>
        <time>2017-08-15T09:33:37Z</time>
      </trkpt>
      <trkpt lat="45.94428" lon="4.74048">
        <ele>179</ele>
        <time>2017-08-15T09:33:38Z</time>
      </trkpt>
      <trkpt lat="45.9443" lon="4.74041">
        <ele>179</ele>
        <time>2017-08-15T09:33:39Z</time>
      </trkpt>
      <trkpt lat="45.94431" lon="4.74035">
        <ele>179</ele>
        <time>2017-08-15T09:33:40Z</time>
      </trkpt>
      <trkpt lat="45.94434" lon="4.74023">
        <ele>179</ele>
        <time>2017-08-15T09:33:42Z</time>
      </trkpt>
      <trkpt lat="45.94435" lon="4.74018">
        <ele>179</ele>
        <time>2017-08-15T09:33:43Z</time>
      </trkpt>
      <trkpt lat="45.94437" lon="4.74007">
        <ele>179</ele>
        <time>2017-08-15T09:33:45Z</time>
      </trkpt>
      <trkpt lat="45.94439" lon="4.74002">
        <ele>179</ele>
        <time>2017-08-15T09:33:46Z</time>
      </trkpt>
      <trkpt lat="45.9444" lon="4.73991">
        <ele>180</ele>
        <time>2017-08-15T09:33:48Z</time>
      </trkpt>
      <trkpt lat="45.94441" lon="4.73986">
        <ele>180</ele>
        <time>2017-08-15T09:33:49Z</time>
      </trkpt>
      <trkpt lat="45.94442" lon="4.73974">
        <ele>180</ele>
        <time>2017-08-15T09:33:51Z</time>
      </trkpt>
      <trkpt lat="45.94443" lon="4.73969">
        <ele>181</ele>
        <time>2017-08-15T09:33:52Z</time>
      </trkpt>
      <trkpt lat="45.94445" lon="4.73959">
        <ele>181</ele>
        <time>2017-08-15T09:33:54Z</time>
      </trkpt>
      <trkpt lat="45.94446" lon="4.73954">
        <ele>181</ele>
        <time>2017-08-15T09:33:55Z</time>
      </trkpt>
      <trkpt lat="45.94448" lon="4.73943">
        <ele>181</ele>
        <time>2017-08-15T09:33:57Z</time>
      </trkpt>
      <trkpt lat="45.94449" lon="4.73937">
        <ele>181</ele>
        <time>2017-08-15T09:33:58Z</time>
      </trkpt>
      <trkpt lat="45.94452" lon="4.73927">
        <ele>181</ele>
        <time>2017-08-15T09:34:00Z</time>
      </trkpt>
      <trkpt lat="45.94453" lon="4.73922">
        <ele>181</ele>
        <time>2017-08-15T09:34:01Z</time>
      </trkpt>
      <trkpt lat="45.94455" lon="4.73911">
        <ele>183</ele>
        <time>2017-08-15T09:34:03Z</time>
      </trkpt>
      <trkpt lat="45.94456" lon="4.73906">
        <ele>183</ele>
        <time>2017-08-15T09:34:04Z</time>
      </trkpt>
      <trkpt lat="45.94458" lon="4.73896">
        <ele>183</ele>
        <time>2017-08-15T09:34:06Z</time>
      </trkpt>
      <trkpt lat="45.94458" lon="4.73891">
        <ele>183</ele>
        <time>2017-08-15T09:34:07Z</time>
      </trkpt>
      <trkpt lat="45.94459" lon="4.73882">
        <ele>183</ele>
        <time>2017-08-15T09:34:09Z</time>
      </trkpt>
      <trkpt lat="45.9446" lon="4.73877">
        <ele>183</ele>
        <time>2017-08-15T09:34:10Z</time>
      </trkpt>
      <trkpt lat="45.94462" lon="4.73868">
        <ele>184</ele>
        <time>2017-08-15T09:34:12Z</time>
      </trkpt>
      <trkpt lat="45.94464" lon="4.73863">
        <ele>184</ele>
        <time>2017-08-15T09:34:13Z</time>
      </trkpt>
      <trkpt lat="45.94465" lon="4.73853">
        <ele>184</ele>
        <time>2017-08-15T09:34:15Z</time>
      </trkpt>
      <trkpt lat="45.94466" lon="4.73848">
        <ele>184</ele>
        <time>2017-08-15T09:34:16Z</time>
      </trkpt>
      <trkpt lat="45.94468" lon="4.73839">
        <ele>184</ele>
        <time>2017-08-15T09:34:18Z</time>
      </trkpt>
      <trkpt lat="45.94469" lon="4.73834">
        <ele>184</ele>
        <time>2017-08-15T09:34:19Z</time>
      </trkpt>
      <trkpt lat="45.94472" lon="4.73822">
        <ele>185</ele>
        <time>2017-08-15T09:34:21Z</time>
      </trkpt>
      <trkpt lat="45.94473" lon="4.73816">
        <ele>185</ele>
        <time>2017-08-15T09:34:22Z</time>
      </trkpt>
      <trkpt lat="45.94475" lon="4.73805">
        <ele>185</ele>
        <time>2017-08-15T09:34:24Z</time>
      </trkpt>
      <trkpt lat="45.94475" lon="4.73799">
        <ele>185</ele>
        <time>2017-08-15T09:34:25Z</time>
      </trkpt>
      <trkpt lat="45.94473" lon="4.73791">
        <ele>186</ele>
        <time>2017-08-15T09:34:27Z</time>
      </trkpt>
      <trkpt lat="45.94475" lon="4.73786">
        <ele>186</ele>
        <time>2017-08-15T09:34:28Z</time>
      </trkpt>
      <trkpt lat="45.94479" lon="4.73781">
        <ele>186</ele>
        <time>2017-08-15T09:34:30Z</time>
      </trkpt>
      <trkpt lat="45.94482" lon="4.73779">
        <ele>186</ele>
        <time>2017-08-15T09:34:31Z</time>
      </trkpt>
      <trkpt lat="45.94489" lon="4.73774">
        <ele>186</ele>
        <time>2017-08-15T09:34:33Z</time>
      </trkpt>
      <trkpt lat="45.94491" lon="4.73769">
        <ele>186</ele>
        <time>2017-08-15T09:34:34Z</time>
      </trkpt>
      <trkpt lat="45.94493" lon="4.73763">
        <ele>186</ele>
        <time>2017-08-15T09:34:35Z</time>
      </trkpt>
      <trkpt lat="45.94493" lon="4.73756">
        <ele>186</ele>
        <time>2017-08-15T09:34:36Z</time>
      </trkpt>
      <trkpt lat="45.94492" lon="4.7375">
        <ele>186</ele>
        <time>2017-08-15T09:34:37Z</time>
      </trkpt>
      <trkpt lat="45.94491" lon="4.73744">
        <ele>186</ele>
        <time>2017-08-15T09:34:38Z</time>
      </trkpt>
      <trkpt lat="45.94492" lon="4.73732">
        <ele>186</ele>
        <time>2017-08-15T09:34:40Z</time>
      </trkpt>
      <trkpt lat="45.94493" lon="4.73726">
        <ele>186</ele>
        <time>2017-08-15T09:34:41Z</time>
      </trkpt>
      <trkpt lat="45.94494" lon="4.7372">
        <ele>186</ele>
        <time>2017-08-15T09:34:42Z</time>
      </trkpt>
      <trkpt lat="45.94495" lon="4.73713">
        <ele>186</ele>
        <time>2017-08-15T09:34:43Z</time>
      </trkpt>
      <trkpt lat="45.94496" lon="4.73706">
        <ele>186</ele>
        <time>2017-08-15T09:34:44Z</time>
      </trkpt>
      <trkpt lat="45.94498" lon="4.73699">
        <ele>186</ele>
        <time>2017-08-15T09:34:45Z</time>
      </trkpt>
      <trkpt lat="45.94499" lon="4.73691">
        <ele>186</ele>
        <time>2017-08-15T09:34:46Z</time>
      </trkpt>
      <trkpt lat="45.94499" lon="4.73683">
        <ele>185</ele>
        <time>2017-08-15T09:34:47Z</time>
      </trkpt>
      <trkpt lat="45.945" lon="4.73675">
        <ele>185</ele>
        <time>2017-08-15T09:34:48Z</time>
      </trkpt>
      <trkpt lat="45.94501" lon="4.73668">
        <ele>185</ele>
        <time>2017-08-15T09:34:49Z</time>
      </trkpt>
      <trkpt lat="45.94503" lon="4.73661">
        <ele>185</ele>
        <time>2017-08-15T09:34:50Z</time>
      </trkpt>
      <trkpt lat="45.94504" lon="4.73653">
        <ele>184</ele>
        <time>2017-08-15T09:34:51Z</time>
      </trkpt>
      <trkpt lat="45.94505" lon="4.73646">
        <ele>184</ele>
        <time>2017-08-15T09:34:52Z</time>
      </trkpt>
      <trkpt lat="45.94506" lon="4.73639">
        <ele>184</ele>
        <time>2017-08-15T09:34:53Z</time>
      </trkpt>
      <trkpt lat="45.94507" lon="4.73632">
        <ele>184</ele>
        <time>2017-08-15T09:34:54Z</time>
      </trkpt>
      <trkpt lat="45.94508" lon="4.73624">
        <ele>184</ele>
        <time>2017-08-15T09:34:55Z</time>
      </trkpt>
      <trkpt lat="45.94509" lon="4.73616">
        <ele>184</ele>
        <time>2017-08-15T09:34:56Z</time>
      </trkpt>
      <trkpt lat="45.94509" lon="4.73608">
        <ele>184</ele>
        <time>2017-08-15T09:34:57Z</time>
      </trkpt>
      <trkpt lat="45.9451" lon="4.73599">
        <ele>184</ele>
        <time>2017-08-15T09:34:58Z</time>
      </trkpt>
      <trkpt lat="45.9451" lon="4.73591">
        <ele>184</ele>
        <time>2017-08-15T09:34:59Z</time>
      </trkpt>
      <trkpt lat="45.94512" lon="4.73583">
        <ele>184</ele>
        <time>2017-08-15T09:35:00Z</time>
      </trkpt>
      <trkpt lat="45.94512" lon="4.73575">
        <ele>184</ele>
        <time>2017-08-15T09:35:01Z</time>
      </trkpt>
      <trkpt lat="45.94513" lon="4.73566">
        <ele>184</ele>
        <time>2017-08-15T09:35:02Z</time>
      </trkpt>
      <trkpt lat="45.94513" lon="4.73558">
        <ele>183</ele>
        <time>2017-08-15T09:35:03Z</time>
      </trkpt>
      <trkpt lat="45.94513" lon="4.73549">
        <ele>183</ele>
        <time>2017-08-15T09:35:04Z</time>
      </trkpt>
      <trkpt lat="45.94513" lon="4.7354">
        <ele>183</ele>
        <time>2017-08-15T09:35:05Z</time>
      </trkpt>
      <trkpt lat="45.94514" lon="4.73531">
        <ele>183</ele>
        <time>2017-08-15T09:35:06Z</time>
      </trkpt>
      <trkpt lat="45.94514" lon="4.73522">
        <ele>183</ele>
        <time>2017-08-15T09:35:07Z</time>
      </trkpt>
      <trkpt lat="45.94514" lon="4.73513">
        <ele>183</ele>
        <time>2017-08-15T09:35:08Z</time>
      </trkpt>
      <trkpt lat="45.94514" lon="4.73503">
        <ele>183</ele>
        <time>2017-08-15T09:35:09Z</time>
      </trkpt>
      <trkpt lat="45.94515" lon="4.73494">
        <ele>182</ele>
        <time>2017-08-15T09:35:10Z</time>
      </trkpt>
      <trkpt lat="45.94516" lon="4.73484">
        <ele>182</ele>
        <time>2017-08-15T09:35:11Z</time>
      </trkpt>
      <trkpt lat="45.94516" lon="4.73475">
        <ele>182</ele>
        <time>2017-08-15T09:35:12Z</time>
      </trkpt>
      <trkpt lat="45.94516" lon="4.73466">
        <ele>181</ele>
        <time>2017-08-15T09:35:13Z</time>
      </trkpt>
      <trkpt lat="45.94516" lon="4.73456">
        <ele>181</ele>
        <time>2017-08-15T09:35:14Z</time>
      </trkpt>
      <trkpt lat="45.94516" lon="4.73446">
        <ele>181</ele>
        <time>2017-08-15T09:35:15Z</time>
      </trkpt>
      <trkpt lat="45.94516" lon="4.73437">
        <ele>181</ele>
        <time>2017-08-15T09:35:16Z</time>
      </trkpt>
      <trkpt lat="45.94517" lon="4.73427">
        <ele>181</ele>
        <time>2017-08-15T09:35:17Z</time>
      </trkpt>
      <trkpt lat="45.94517" lon="4.73416">
        <ele>179</ele>
        <time>2017-08-15T09:35:18Z</time>
      </trkpt>
      <trkpt lat="45.94516" lon="4.73406">
        <ele>179</ele>
        <time>2017-08-15T09:35:19Z</time>
      </trkpt>
      <trkpt lat="45.94515" lon="4.73395">
        <ele>179</ele>
        <time>2017-08-15T09:35:20Z</time>
      </trkpt>
      <trkpt lat="45.94513" lon="4.73384">
        <ele>179</ele>
        <time>2017-08-15T09:35:21Z</time>
      </trkpt>
      <trkpt lat="45.94511" lon="4.73373">
        <ele>178</ele>
        <time>2017-08-15T09:35:22Z</time>
      </trkpt>
      <trkpt lat="45.9451" lon="4.73361">
        <ele>178</ele>
        <time>2017-08-15T09:35:23Z</time>
      </trkpt>
      <trkpt lat="45.94508" lon="4.7335">
        <ele>178</ele>
        <time>2017-08-15T09:35:24Z</time>
      </trkpt>
      <trkpt lat="45.94506" lon="4.73339">
        <ele>177</ele>
        <time>2017-08-15T09:35:25Z</time>
      </trkpt>
      <trkpt lat="45.94504" lon="4.73327">
        <ele>177</ele>
        <time>2017-08-15T09:35:26Z</time>
      </trkpt>
      <trkpt lat="45.94502" lon="4.73316">
        <ele>177</ele>
        <time>2017-08-15T09:35:27Z</time>
      </trkpt>
      <trkpt lat="45.94501" lon="4.73304">
        <ele>176</ele>
        <time>2017-08-15T09:35:28Z</time>
      </trkpt>
      <trkpt lat="45.94499" lon="4.73293">
        <ele>177</ele>
        <time>2017-08-15T09:35:29Z</time>
      </trkpt>
      <trkpt lat="45.94497" lon="4.73282">
        <ele>177</ele>
        <time>2017-08-15T09:35:30Z</time>
      </trkpt>
      <trkpt lat="45.94496" lon="4.73271">
        <ele>177</ele>
        <time>2017-08-15T09:35:31Z</time>
      </trkpt>
      <trkpt lat="45.94495" lon="4.73259">
        <ele>176</ele>
        <time>2017-08-15T09:35:32Z</time>
      </trkpt>
      <trkpt lat="45.94493" lon="4.73249">
        <ele>176</ele>
        <time>2017-08-15T09:35:33Z</time>
      </trkpt>
      <trkpt lat="45.94493" lon="4.73238">
        <ele>175</ele>
        <time>2017-08-15T09:35:34Z</time>
      </trkpt>
      <trkpt lat="45.94492" lon="4.73226">
        <ele>175</ele>
        <time>2017-08-15T09:35:35Z</time>
      </trkpt>
      <trkpt lat="45.9449" lon="4.73215">
        <ele>175</ele>
        <time>2017-08-15T09:35:36Z</time>
      </trkpt>
      <trkpt lat="45.94489" lon="4.73203">
        <ele>175</ele>
        <time>2017-08-15T09:35:37Z</time>
      </trkpt>
      <trkpt lat="45.94487" lon="4.73191">
        <ele>174</ele>
        <time>2017-08-15T09:35:38Z</time>
      </trkpt>
      <trkpt lat="45.94485" lon="4.73179">
        <ele>174</ele>
        <time>2017-08-15T09:35:39Z</time>
      </trkpt>
      <trkpt lat="45.94483" lon="4.73168">
        <ele>174</ele>
        <time>2017-08-15T09:35:40Z</time>
      </trkpt>
      <trkpt lat="45.94481" lon="4.73157">
        <ele>173</ele>
        <time>2017-08-15T09:35:41Z</time>
      </trkpt>
      <trkpt lat="45.94479" lon="4.73146">
        <ele>172</ele>
        <time>2017-08-15T09:35:42Z</time>
      </trkpt>
      <trkpt lat="45.94477" lon="4.73136">
        <ele>172</ele>
        <time>2017-08-15T09:35:43Z</time>
      </trkpt>
      <trkpt lat="45.94476" lon="4.73125">
        <ele>172</ele>
        <time>2017-08-15T09:35:44Z</time>
      </trkpt>
      <trkpt lat="45.94475" lon="4.73115">
        <ele>172</ele>
        <time>2017-08-15T09:35:45Z</time>
      </trkpt>
      <trkpt lat="45.94473" lon="4.73105">
        <ele>172</ele>
        <time>2017-08-15T09:35:46Z</time>
      </trkpt>
      <trkpt lat="45.94472" lon="4.73095">
        <ele>172</ele>
        <time>2017-08-15T09:35:47Z</time>
      </trkpt>
      <trkpt lat="45.94471" lon="4.73085">
        <ele>172</ele>
        <time>2017-08-15T09:35:48Z</time>
      </trkpt>
      <trkpt lat="45.94469" lon="4.73076">
        <ele>170</ele>
        <time>2017-08-15T09:35:49Z</time>
      </trkpt>
      <trkpt lat="45.94468" lon="4.73067">
        <ele>170</ele>
        <time>2017-08-15T09:35:50Z</time>
      </trkpt>
      <trkpt lat="45.94467" lon="4.73059">
        <ele>170</ele>
        <time>2017-08-15T09:35:51Z</time>
      </trkpt>
      <trkpt lat="45.94465" lon="4.7305">
        <ele>170</ele>
        <time>2017-08-15T09:35:52Z</time>
      </trkpt>
      <trkpt lat="45.94464" lon="4.73043">
        <ele>170</ele>
        <time>2017-08-15T09:35:53Z</time>
      </trkpt>
      <trkpt lat="45.94462" lon="4.73034">
        <ele>170</ele>
        <time>2017-08-15T09:35:54Z</time>
      </trkpt>
      <trkpt lat="45.94461" lon="4.73027">
        <ele>169</ele>
        <time>2017-08-15T09:35:55Z</time>
      </trkpt>
      <trkpt lat="45.9446" lon="4.7302">
        <ele>169</ele>
        <time>2017-08-15T09:35:56Z</time>
      </trkpt>
      <trkpt lat="45.94459" lon="4.73013">
        <ele>169</ele>
        <time>2017-08-15T09:35:57Z</time>
      </trkpt>
      <trkpt lat="45.94458" lon="4.73005">
        <ele>169</ele>
        <time>2017-08-15T09:35:58Z</time>
      </trkpt>
      <trkpt lat="45.94456" lon="4.72998">
        <ele>168</ele>
        <time>2017-08-15T09:35:59Z</time>
      </trkpt>
      <trkpt lat="45.94455" lon="4.72991">
        <ele>168</ele>
        <time>2017-08-15T09:36:00Z</time>
      </trkpt>
      <trkpt lat="45.94455" lon="4.72983">
        <ele>167</ele>
        <time>2017-08-15T09:36:01Z</time>
      </trkpt>
      <trkpt lat="45.94454" lon="4.72976">
        <ele>167</ele>
        <time>2017-08-15T09:36:02Z</time>
      </trkpt>
      <trkpt lat="45.94453" lon="4.72968">
        <ele>167</ele>
        <time>2017-08-15T09:36:03Z</time>
      </trkpt>
      <trkpt lat="45.94452" lon="4.72961">
        <ele>167</ele>
        <time>2017-08-15T09:36:04Z</time>
      </trkpt>
      <trkpt lat="45.94451" lon="4.72953">
        <ele>167</ele>
        <time>2017-08-15T09:36:05Z</time>
      </trkpt>
      <trkpt lat="45.94449" lon="4.72946">
        <ele>167</ele>
        <time>2017-08-15T09:36:06Z</time>
      </trkpt>
      <trkpt lat="45.94449" lon="4.72939">
        <ele>167</ele>
        <time>2017-08-15T09:36:07Z</time>
      </trkpt>
      <trkpt lat="45.94448" lon="4.72931">
        <ele>167</ele>
        <time>2017-08-15T09:36:08Z</time>
      </trkpt>
      <trkpt lat="45.94446" lon="4.72923">
        <ele>167</ele>
        <time>2017-08-15T09:36:09Z</time>
      </trkpt>
      <trkpt lat="45.94445" lon="4.72916">
        <ele>166</ele>
        <time>2017-08-15T09:36:10Z</time>
      </trkpt>
      <trkpt lat="45.94444" lon="4.72908">
        <ele>166</ele>
        <time>2017-08-15T09:36:11Z</time>
      </trkpt>
      <trkpt lat="45.94443" lon="4.72899">
        <ele>166</ele>
        <time>2017-08-15T09:36:12Z</time>
      </trkpt>
      <trkpt lat="45.94442" lon="4.72891">
        <ele>166</ele>
        <time>2017-08-15T09:36:13Z</time>
      </trkpt>
      <trkpt lat="45.94441" lon="4.72883">
        <ele>166</ele>
        <time>2017-08-15T09:36:14Z</time>
      </trkpt>
      <trkpt lat="45.94439" lon="4.72875">
        <ele>166</ele>
        <time>2017-08-15T09:36:15Z</time>
      </trkpt>
      <trkpt lat="45.94438" lon="4.72867">
        <ele>166</ele>
        <time>2017-08-15T09:36:16Z</time>
      </trkpt>
      <trkpt lat="45.94437" lon="4.72859">
        <ele>166</ele>
        <time>2017-08-15T09:36:17Z</time>
      </trkpt>
      <trkpt lat="45.94436" lon="4.7285">
        <ele>166</ele>
        <time>2017-08-15T09:36:18Z</time>
      </trkpt>
      <trkpt lat="45.94435" lon="4.72841">
        <ele>166</ele>
        <time>2017-08-15T09:36:19Z</time>
      </trkpt>
      <trkpt lat="45.94433" lon="4.72831">
        <ele>167</ele>
        <time>2017-08-15T09:36:20Z</time>
      </trkpt>
      <trkpt lat="45.94432" lon="4.72822">
        <ele>167</ele>
        <time>2017-08-15T09:36:21Z</time>
      </trkpt>
      <trkpt lat="45.94431" lon="4.72812">
        <ele>167</ele>
        <time>2017-08-15T09:36:22Z</time>
      </trkpt>
      <trkpt lat="45.9443" lon="4.72801">
        <ele>167</ele>
        <time>2017-08-15T09:36:23Z</time>
      </trkpt>
      <trkpt lat="45.94429" lon="4.72791">
        <ele>168</ele>
        <time>2017-08-15T09:36:24Z</time>
      </trkpt>
      <trkpt lat="45.94428" lon="4.7278">
        <ele>168</ele>
        <time>2017-08-15T09:36:25Z</time>
      </trkpt>
      <trkpt lat="45.94426" lon="4.7277">
        <ele>169</ele>
        <time>2017-08-15T09:36:26Z</time>
      </trkpt>
      <trkpt lat="45.94425" lon="4.72759">
        <ele>170</ele>
        <time>2017-08-15T09:36:27Z</time>
      </trkpt>
      <trkpt lat="45.94423" lon="4.72748">
        <ele>171</ele>
        <time>2017-08-15T09:36:28Z</time>
      </trkpt>
      <trkpt lat="45.94422" lon="4.72738">
        <ele>171</ele>
        <time>2017-08-15T09:36:29Z</time>
      </trkpt>
      <trkpt lat="45.94421" lon="4.72728">
        <ele>171</ele>
        <time>2017-08-15T09:36:30Z</time>
      </trkpt>
      <trkpt lat="45.94419" lon="4.72717">
        <ele>171</ele>
        <time>2017-08-15T09:36:31Z</time>
      </trkpt>
      <trkpt lat="45.94419" lon="4.72707">
        <ele>172</ele>
        <time>2017-08-15T09:36:32Z</time>
      </trkpt>
      <trkpt lat="45.94418" lon="4.72697">
        <ele>172</ele>
        <time>2017-08-15T09:36:33Z</time>
      </trkpt>
      <trkpt lat="45.94417" lon="4.72687">
        <ele>173</ele>
        <time>2017-08-15T09:36:34Z</time>
      </trkpt>
      <trkpt lat="45.94416" lon="4.72676">
        <ele>173</ele>
        <time>2017-08-15T09:36:35Z</time>
      </trkpt>
      <trkpt lat="45.94415" lon="4.72666">
        <ele>174</ele>
        <time>2017-08-15T09:36:36Z</time>
      </trkpt>
      <trkpt lat="45.94414" lon="4.72656">
        <ele>174</ele>
        <time>2017-08-15T09:36:37Z</time>
      </trkpt>
      <trkpt lat="45.94413" lon="4.72646">
        <ele>174</ele>
        <time>2017-08-15T09:36:38Z</time>
      </trkpt>
      <trkpt lat="45.94412" lon="4.72636">
        <ele>174</ele>
        <time>2017-08-15T09:36:39Z</time>
      </trkpt>
      <trkpt lat="45.94411" lon="4.72626">
        <ele>174</ele>
        <time>2017-08-15T09:36:40Z</time>
      </trkpt>
      <trkpt lat="45.9441" lon="4.72616">
        <ele>173</ele>
        <time>2017-08-15T09:36:41Z</time>
      </trkpt>
      <trkpt lat="45.94409" lon="4.72606">
        <ele>173</ele>
        <time>2017-08-15T09:36:42Z</time>
      </trkpt>
      <trkpt lat="45.94407" lon="4.72597">
        <ele>173</ele>
        <time>2017-08-15T09:36:43Z</time>
      </trkpt>
      <trkpt lat="45.94405" lon="4.72588">
        <ele>173</ele>
        <time>2017-08-15T09:36:44Z</time>
      </trkpt>
      <trkpt lat="45.94403" lon="4.72579">
        <ele>173</ele>
        <time>2017-08-15T09:36:45Z</time>
      </trkpt>
      <trkpt lat="45.94402" lon="4.72571">
        <ele>173</ele>
        <time>2017-08-15T09:36:46Z</time>
      </trkpt>
      <trkpt lat="45.944" lon="4.72562">
        <ele>173</ele>
        <time>2017-08-15T09:36:47Z</time>
      </trkpt>
      <trkpt lat="45.94398" lon="4.72553">
        <ele>173</ele>
        <time>2017-08-15T09:36:48Z</time>
      </trkpt>
      <trkpt lat="45.94395" lon="4.72544">
        <ele>173</ele>
        <time>2017-08-15T09:36:49Z</time>
      </trkpt>
      <trkpt lat="45.94393" lon="4.72535">
        <ele>174</ele>
        <time>2017-08-15T09:36:50Z</time>
      </trkpt>
      <trkpt lat="45.94391" lon="4.72527">
        <ele>174</ele>
        <time>2017-08-15T09:36:51Z</time>
      </trkpt>
      <trkpt lat="45.94389" lon="4.72518">
        <ele>174</ele>
        <time>2017-08-15T09:36:52Z</time>
      </trkpt>
      <trkpt lat="45.94387" lon="4.72509">
        <ele>174</ele>
        <time>2017-08-15T09:36:53Z</time>
      </trkpt>
      <trkpt lat="45.94384" lon="4.72501">
        <ele>174</ele>
        <time>2017-08-15T09:36:54Z</time>
      </trkpt>
      <trkpt lat="45.94381" lon="4.72494">
        <ele>173</ele>
        <time>2017-08-15T09:36:55Z</time>
      </trkpt>
      <trkpt lat="45.94377" lon="4.72486">
        <ele>173</ele>
        <time>2017-08-15T09:36:56Z</time>
      </trkpt>
      <trkpt lat="45.94373" lon="4.7248">
        <ele>173</ele>
        <time>2017-08-15T09:36:57Z</time>
      </trkpt>
      <trkpt lat="45.9437" lon="4.72473">
        <ele>173</ele>
        <time>2017-08-15T09:36:58Z</time>
      </trkpt>
      <trkpt lat="45.94368" lon="4.72467">
        <ele>173</ele>
        <time>2017-08-15T09:36:59Z</time>
      </trkpt>
      <trkpt lat="45.94366" lon="4.72461">
        <ele>173</ele>
        <time>2017-08-15T09:37:00Z</time>
      </trkpt>
      <trkpt lat="45.94363" lon="4.72455">
        <ele>173</ele>
        <time>2017-08-15T09:37:01Z</time>
      </trkpt>
      <trkpt lat="45.9436" lon="4.72449">
        <ele>173</ele>
        <time>2017-08-15T09:37:02Z</time>
      </trkpt>
      <trkpt lat="45.94357" lon="4.72443">
        <ele>173</ele>
        <time>2017-08-15T09:37:03Z</time>
      </trkpt>
      <trkpt lat="45.94353" lon="4.72435">
        <ele>173</ele>
        <time>2017-08-15T09:37:04Z</time>
      </trkpt>
      <trkpt lat="45.9435" lon="4.72428">
        <ele>173</ele>
        <time>2017-08-15T09:37:05Z</time>
      </trkpt>
      <trkpt lat="45.94346" lon="4.72421">
        <ele>173</ele>
        <time>2017-08-15T09:37:06Z</time>
      </trkpt>
      <trkpt lat="45.94343" lon="4.72413">
        <ele>173</ele>
        <time>2017-08-15T09:37:07Z</time>
      </trkpt>
      <trkpt lat="45.9434" lon="4.72405">
        <ele>173</ele>
        <time>2017-08-15T09:37:08Z</time>
      </trkpt>
      <trkpt lat="45.94338" lon="4.72398">
        <ele>172</ele>
        <time>2017-08-15T09:37:09Z</time>
      </trkpt>
      <trkpt lat="45.94335" lon="4.72391">
        <ele>172</ele>
        <time>2017-08-15T09:37:10Z</time>
      </trkpt>
      <trkpt lat="45.94332" lon="4.72384">
        <ele>172</ele>
        <time>2017-08-15T09:37:11Z</time>
      </trkpt>
      <trkpt lat="45.94329" lon="4.72378">
        <ele>172</ele>
        <time>2017-08-15T09:37:12Z</time>
      </trkpt>
      <trkpt lat="45.94326" lon="4.72371">
        <ele>172</ele>
        <time>2017-08-15T09:37:13Z</time>
      </trkpt>
      <trkpt lat="45.94323" lon="4.72365">
        <ele>172</ele>
        <time>2017-08-15T09:37:14Z</time>
      </trkpt>
      <trkpt lat="45.94321" lon="4.72358">
        <ele>172</ele>
        <time>2017-08-15T09:37:15Z</time>
      </trkpt>
      <trkpt lat="45.94317" lon="4.72352">
        <ele>172</ele>
        <time>2017-08-15T09:37:16Z</time>
      </trkpt>
      <trkpt lat="45.94314" lon="4.72346">
        <ele>172</ele>
        <time>2017-08-15T09:37:17Z</time>
      </trkpt>
      <trkpt lat="45.94312" lon="4.7234">
        <ele>172</ele>
        <time>2017-08-15T09:37:18Z</time>
      </trkpt>
      <trkpt lat="45.94309" lon="4.72334">
        <ele>172</ele>
        <time>2017-08-15T09:37:19Z</time>
      </trkpt>
      <trkpt lat="45.94306" lon="4.72328">
        <ele>171</ele>
        <time>2017-08-15T09:37:20Z</time>
      </trkpt>
      <trkpt lat="45.94303" lon="4.72322">
        <ele>171</ele>
        <time>2017-08-15T09:37:21Z</time>
      </trkpt>
      <trkpt lat="45.94301" lon="4.72316">
        <ele>171</ele>
        <time>2017-08-15T09:37:22Z</time>
      </trkpt>
      <trkpt lat="45.94298" lon="4.7231">
        <ele>171</ele>
        <time>2017-08-15T09:37:23Z</time>
      </trkpt>
      <trkpt lat="45.94295" lon="4.72303">
        <ele>171</ele>
        <time>2017-08-15T09:37:24Z</time>
      </trkpt>
      <trkpt lat="45.94292" lon="4.72297">
        <ele>171</ele>
        <time>2017-08-15T09:37:25Z</time>
      </trkpt>
      <trkpt lat="45.94289" lon="4.72291">
        <ele>171</ele>
        <time>2017-08-15T09:37:26Z</time>
      </trkpt>
      <trkpt lat="45.94286" lon="4.72285">
        <ele>171</ele>
        <time>2017-08-15T09:37:27Z</time>
      </trkpt>
      <trkpt lat="45.94284" lon="4.72279">
        <ele>171</ele>
        <time>2017-08-15T09:37:28Z</time>
      </trkpt>
      <trkpt lat="45.9428" lon="4.72272">
        <ele>171</ele>
        <time>2017-08-15T09:37:29Z</time>
      </trkpt>
      <trkpt lat="45.94276" lon="4.72268">
        <ele>171</ele>
        <time>2017-08-15T09:37:30Z</time>
      </trkpt>
      <trkpt lat="45.94271" lon="4.72266">
        <ele>171</ele>
        <time>2017-08-15T09:37:31Z</time>
      </trkpt>
      <trkpt lat="45.94266" lon="4.72266">
        <ele>171</ele>
        <time>2017-08-15T09:37:32Z</time>
      </trkpt>
      <trkpt lat="45.94262" lon="4.72268">
        <ele>171</ele>
        <time>2017-08-15T09:37:33Z</time>
      </trkpt>
      <trkpt lat="45.94257" lon="4.72271">
        <ele>171</ele>
        <time>2017-08-15T09:37:34Z</time>
      </trkpt>
      <trkpt lat="45.94251" lon="4.72273">
        <ele>171</ele>
        <time>2017-08-15T09:37:35Z</time>
      </trkpt>
      <trkpt lat="45.94246" lon="4.72276">
        <ele>171</ele>
        <time>2017-08-15T09:37:36Z</time>
      </trkpt>
      <trkpt lat="45.94241" lon="4.72278">
        <ele>171</ele>
        <time>2017-08-15T09:37:37Z</time>
      </trkpt>
      <trkpt lat="45.94235" lon="4.7228">
        <ele>171</ele>
        <time>2017-08-15T09:37:38Z</time>
      </trkpt>
      <trkpt lat="45.94229" lon="4.72282">
        <ele>171</ele>
        <time>2017-08-15T09:37:39Z</time>
      </trkpt>
      <trkpt lat="45.94223" lon="4.72283">
        <ele>171</ele>
        <time>2017-08-15T09:37:40Z</time>
      </trkpt>
      <trkpt lat="45.94218" lon="4.72283">
        <ele>171</ele>
        <time>2017-08-15T09:37:41Z</time>
      </trkpt>
      <trkpt lat="45.94212" lon="4.72283">
        <ele>171</ele>
        <time>2017-08-15T09:37:42Z</time>
      </trkpt>
      <trkpt lat="45.94207" lon="4.72283">
        <ele>171</ele>
        <time>2017-08-15T09:37:43Z</time>
      </trkpt>
      <trkpt lat="45.94202" lon="4.72283">
        <ele>171</ele>
        <time>2017-08-15T09:37:44Z</time>
      </trkpt>
      <trkpt lat="45.94197" lon="4.72283">
        <ele>171</ele>
        <time>2017-08-15T09:37:45Z</time>
      </trkpt>
      <trkpt lat="45.94192" lon="4.72284">
        <ele>171</ele>
        <time>2017-08-15T09:37:46Z</time>
      </trkpt>
      <trkpt lat="45.94187" lon="4.72284">
        <ele>171</ele>
        <time>2017-08-15T09:37:47Z</time>
      </trkpt>
      <trkpt lat="45.94182" lon="4.72284">
        <ele>171</ele>
        <time>2017-08-15T09:37:48Z</time>
      </trkpt>
      <trkpt lat="45.94178" lon="4.72284">
        <ele>171</ele>
        <time>2017-08-15T09:37:49Z</time>
      </trkpt>
      <trkpt lat="45.94173" lon="4.72282">
        <ele>171</ele>
        <time>2017-08-15T09:37:50Z</time>
      </trkpt>
      <trkpt lat="45.94168" lon="4.72282">
        <ele>171</ele>
        <time>2017-08-15T09:37:51Z</time>
      </trkpt>
      <trkpt lat="45.94163" lon="4.72281">
        <ele>171</ele>
        <time>2017-08-15T09:37:52Z</time>
      </trkpt>
      <trkpt lat="45.94157" lon="4.7228">
        <ele>171</ele>
        <time>2017-08-15T09:37:53Z</time>
      </trkpt>
      <trkpt lat="45.94151" lon="4.72279">
        <ele>171</ele>
        <time>2017-08-15T09:37:54Z</time>
      </trkpt>
      <trkpt lat="45.94144" lon="4.72277">
        <ele>171</ele>
        <time>2017-08-15T09:37:55Z</time>
      </trkpt>
      <trkpt lat="45.94138" lon="4.72275">
        <ele>171</ele>
        <time>2017-08-15T09:37:56Z</time>
      </trkpt>
      <trkpt lat="45.94132" lon="4.72273">
        <ele>171</ele>
        <time>2017-08-15T09:37:57Z</time>
      </trkpt>
      <trkpt lat="45.94125" lon="4.7227">
        <ele>171</ele>
        <time>2017-08-15T09:37:58Z</time>
      </trkpt>
      <trkpt lat="45.9412" lon="4.72267">
        <ele>171</ele>
        <time>2017-08-15T09:37:59Z</time>
      </trkpt>
      <trkpt lat="45.94115" lon="4.72263">
        <ele>171</ele>
        <time>2017-08-15T09:38:00Z</time>
      </trkpt>
      <trkpt lat="45.94109" lon="4.72261">
        <ele>171</ele>
        <time>2017-08-15T09:38:01Z</time>
      </trkpt>
      <trkpt lat="45.94104" lon="4.7226">
        <ele>171</ele>
        <time>2017-08-15T09:38:02Z</time>
      </trkpt>
      <trkpt lat="45.94099" lon="4.7226">
        <ele>171</ele>
        <time>2017-08-15T09:38:03Z</time>
      </trkpt>
      <trkpt lat="45.94093" lon="4.7226">
        <ele>171</ele>
        <time>2017-08-15T09:38:04Z</time>
      </trkpt>
      <trkpt lat="45.94088" lon="4.72261">
        <ele>171</ele>
        <time>2017-08-15T09:38:05Z</time>
      </trkpt>
      <trkpt lat="45.94084" lon="4.72262">
        <ele>171</ele>
        <time>2017-08-15T09:38:06Z</time>
      </trkpt>
      <trkpt lat="45.94078" lon="4.72264">
        <ele>171</ele>
        <time>2017-08-15T09:38:07Z</time>
      </trkpt>
      <trkpt lat="45.94073" lon="4.72267">
        <ele>171</ele>
        <time>2017-08-15T09:38:08Z</time>
      </trkpt>
      <trkpt lat="45.94068" lon="4.7227">
        <ele>171</ele>
        <time>2017-08-15T09:38:09Z</time>
      </trkpt>
      <trkpt lat="45.94062" lon="4.72275">
        <ele>171</ele>
        <time>2017-08-15T09:38:10Z</time>
      </trkpt>
      <trkpt lat="45.94058" lon="4.7228">
        <ele>171</ele>
        <time>2017-08-15T09:38:11Z</time>
      </trkpt>
      <trkpt lat="45.94053" lon="4.72286">
        <ele>171</ele>
        <time>2017-08-15T09:38:12Z</time>
      </trkpt>
      <trkpt lat="45.94048" lon="4.72291">
        <ele>171</ele>
        <time>2017-08-15T09:38:13Z</time>
      </trkpt>
      <trkpt lat="45.94044" lon="4.72297">
        <ele>171</ele>
        <time>2017-08-15T09:38:14Z</time>
      </trkpt>
      <trkpt lat="45.9404" lon="4.72302">
        <ele>171</ele>
        <time>2017-08-15T09:38:15Z</time>
      </trkpt>
      <trkpt lat="45.94036" lon="4.72307">
        <ele>171</ele>
        <time>2017-08-15T09:38:16Z</time>
      </trkpt>
      <trkpt lat="45.94031" lon="4.72311">
        <ele>171</ele>
        <time>2017-08-15T09:38:17Z</time>
      </trkpt>
      <trkpt lat="45.94027" lon="4.72316">
        <ele>171</ele>
        <time>2017-08-15T09:38:18Z</time>
      </trkpt>
      <trkpt lat="45.94023" lon="4.72321">
        <ele>171</ele>
        <time>2017-08-15T09:38:19Z</time>
      </trkpt>
      <trkpt lat="45.94019" lon="4.72327">
        <ele>171</ele>
        <time>2017-08-15T09:38:20Z</time>
      </trkpt>
      <trkpt lat="45.94015" lon="4.72332">
        <ele>170</ele>
        <time>2017-08-15T09:38:21Z</time>
      </trkpt>
      <trkpt lat="45.94011" lon="4.72337">
        <ele>170</ele>
        <time>2017-08-15T09:38:22Z</time>
      </trkpt>
      <trkpt lat="45.94006" lon="4.72342">
        <ele>170</ele>
        <time>2017-08-15T09:38:23Z</time>
      </trkpt>
      <trkpt lat="45.94002" lon="4.72346">
        <ele>171</ele>
        <time>2017-08-15T09:38:24Z</time>
      </trkpt>
      <trkpt lat="45.93998" lon="4.72351">
        <ele>171</ele>
        <time>2017-08-15T09:38:25Z</time>
      </trkpt>
      <trkpt lat="45.93994" lon="4.72355">
        <ele>171</ele>
        <time>2017-08-15T09:38:26Z</time>
      </trkpt>
      <trkpt lat="45.93991" lon="4.72359">
        <ele>171</ele>
        <time>2017-08-15T09:38:27Z</time>
      </trkpt>
      <trkpt lat="45.93987" lon="4.72363">
        <ele>171</ele>
        <time>2017-08-15T09:38:28Z</time>
      </trkpt>
      <trkpt lat="45.93984" lon="4.72368">
        <ele>171</ele>
        <time>2017-08-15T09:38:29Z</time>
      </trkpt>
      <trkpt lat="45.9398" lon="4.72372">
        <ele>171</ele>
        <time>2017-08-15T09:38:30Z</time>
      </trkpt>
      <trkpt lat="45.93976" lon="4.72376">
        <ele>171</ele>
        <time>2017-08-15T09:38:31Z</time>
      </trkpt>
      <trkpt lat="45.93972" lon="4.7238">
        <ele>171</ele>
        <time>2017-08-15T09:38:32Z</time>
      </trkpt>
      <trkpt lat="45.93968" lon="4.72385">
        <ele>171</ele>
        <time>2017-08-15T09:38:33Z</time>
      </trkpt>
      <trkpt lat="45.93964" lon="4.7239">
        <ele>171</ele>
        <time>2017-08-15T09:38:34Z</time>
      </trkpt>
      <trkpt lat="45.9396" lon="4.72395">
        <ele>171</ele>
        <time>2017-08-15T09:38:35Z</time>
      </trkpt>
      <trkpt lat="45.93956" lon="4.72399">
        <ele>171</ele>
        <time>2017-08-15T09:38:36Z</time>
      </trkpt>
      <trkpt lat="45.93952" lon="4.72404">
        <ele>171</ele>
        <time>2017-08-15T09:38:37Z</time>
      </trkpt>
      <trkpt lat="45.93948" lon="4.72409">
        <ele>171</ele>
        <time>2017-08-15T09:38:38Z</time>
      </trkpt>
      <trkpt lat="45.93944" lon="4.72414">
        <ele>171</ele>
        <time>2017-08-15T09:38:39Z</time>
      </trkpt>
      <trkpt lat="45.9394" lon="4.7242">
        <ele>172</ele>
        <time>2017-08-15T09:38:40Z</time>
      </trkpt>
      <trkpt lat="45.93935" lon="4.72426">
        <ele>172</ele>
        <time>2017-08-15T09:38:41Z</time>
      </trkpt>
      <trkpt lat="45.93931" lon="4.72431">
        <ele>172</ele>
        <time>2017-08-15T09:38:42Z</time>
      </trkpt>
      <trkpt lat="45.93926" lon="4.72437">
        <ele>172</ele>
        <time>2017-08-15T09:38:43Z</time>
      </trkpt>
      <trkpt lat="45.93921" lon="4.72442">
        <ele>171</ele>
        <time>2017-08-15T09:38:44Z</time>
      </trkpt>
      <trkpt lat="45.93917" lon="4.72448">
        <ele>172</ele>
        <time>2017-08-15T09:38:45Z</time>
      </trkpt>
      <trkpt lat="45.93912" lon="4.72453">
        <ele>172</ele>
        <time>2017-08-15T09:38:46Z</time>
      </trkpt>
      <trkpt lat="45.93907" lon="4.7246">
        <ele>172</ele>
        <time>2017-08-15T09:38:47Z</time>
      </trkpt>
      <trkpt lat="45.93903" lon="4.72466">
        <ele>172</ele>
        <time>2017-08-15T09:38:48Z</time>
      </trkpt>
      <trkpt lat="45.93899" lon="4.72471">
        <ele>172</ele>
        <time>2017-08-15T09:38:49Z</time>
      </trkpt>
      <trkpt lat="45.93894" lon="4.72477">
        <ele>172</ele>
        <time>2017-08-15T09:38:50Z</time>
      </trkpt>
      <trkpt lat="45.93891" lon="4.72482">
        <ele>172</ele>
        <time>2017-08-15T09:38:51Z</time>
      </trkpt>
      <trkpt lat="45.93887" lon="4.72488">
        <ele>172</ele>
        <time>2017-08-15T09:38:52Z</time>
      </trkpt>
      <trkpt lat="45.93884" lon="4.72493">
        <ele>172</ele>
        <time>2017-08-15T09:38:53Z</time>
      </trkpt>
      <trkpt lat="45.93878" lon="4.72501">
        <ele>173</ele>
        <time>2017-08-15T09:38:55Z</time>
      </trkpt>
      <trkpt lat="45.93874" lon="4.72504">
        <ele>173</ele>
        <time>2017-08-15T09:38:56Z</time>
      </trkpt>
      <trkpt lat="45.93866" lon="4.72507">
        <ele>173</ele>
        <time>2017-08-15T09:38:58Z</time>
      </trkpt>
      <trkpt lat="45.93862" lon="4.72506">
        <ele>173</ele>
        <time>2017-08-15T09:38:59Z</time>
      </trkpt>
      <trkpt lat="45.93855" lon="4.72502">
        <ele>173</ele>
        <time>2017-08-15T09:39:01Z</time>
      </trkpt>
      <trkpt lat="45.93851" lon="4.725">
        <ele>173</ele>
        <time>2017-08-15T09:39:02Z</time>
      </trkpt>
      <trkpt lat="45.93846" lon="4.72497">
        <ele>173</ele>
        <time>2017-08-15T09:39:03Z</time>
      </trkpt>
      <trkpt lat="45.93842" lon="4.72495">
        <ele>173</ele>
        <time>2017-08-15T09:39:04Z</time>
      </trkpt>
      <trkpt lat="45.93834" lon="4.7249">
        <ele>173</ele>
        <time>2017-08-15T09:39:06Z</time>
      </trkpt>
      <trkpt lat="45.9383" lon="4.72488">
        <ele>173</ele>
        <time>2017-08-15T09:39:07Z</time>
      </trkpt>
      <trkpt lat="45.93829" lon="4.72479">
        <ele>173</ele>
        <time>2017-08-15T09:39:08Z</time>
      </trkpt>
      <trkpt lat="45.93826" lon="4.72473">
        <ele>172</ele>
        <time>2017-08-15T09:39:09Z</time>
      </trkpt>
      <trkpt lat="45.9382" lon="4.72466">
        <ele>172</ele>
        <time>2017-08-15T09:39:11Z</time>
      </trkpt>
      <trkpt lat="45.93817" lon="4.72463">
        <ele>172</ele>
        <time>2017-08-15T09:39:12Z</time>
      </trkpt>
      <trkpt lat="45.9381" lon="4.72457">
        <ele>172</ele>
        <time>2017-08-15T09:39:14Z</time>
      </trkpt>
      <trkpt lat="45.93806" lon="4.7245">
        <ele>172</ele>
        <time>2017-08-15T09:39:15Z</time>
      </trkpt>
      <trkpt lat="45.93802" lon="4.72446">
        <ele>172</ele>
        <time>2017-08-15T09:39:16Z</time>
      </trkpt>
      <trkpt lat="45.93798" lon="4.72442">
        <ele>172</ele>
        <time>2017-08-15T09:39:17Z</time>
      </trkpt>
      <trkpt lat="45.93795" lon="4.72437">
        <ele>172</ele>
        <time>2017-08-15T09:39:18Z</time>
      </trkpt>
      <trkpt lat="45.93791" lon="4.72433">
        <ele>172</ele>
        <time>2017-08-15T09:39:19Z</time>
      </trkpt>
      <trkpt lat="45.93786" lon="4.72428">
        <ele>172</ele>
        <time>2017-08-15T09:39:20Z</time>
      </trkpt>
      <trkpt lat="45.93781" lon="4.72424">
        <ele>172</ele>
        <time>2017-08-15T09:39:21Z</time>
      </trkpt>
      <trkpt lat="45.93777" lon="4.7242">
        <ele>171</ele>
        <time>2017-08-15T09:39:22Z</time>
      </trkpt>
      <trkpt lat="45.93773" lon="4.72415">
        <ele>171</ele>
        <time>2017-08-15T09:39:23Z</time>
      </trkpt>
      <trkpt lat="45.93768" lon="4.7241">
        <ele>171</ele>
        <time>2017-08-15T09:39:24Z</time>
      </trkpt>
      <trkpt lat="45.93763" lon="4.72406">
        <ele>171</ele>
        <time>2017-08-15T09:39:25Z</time>
      </trkpt>
      <trkpt lat="45.93758" lon="4.72401">
        <ele>171</ele>
        <time>2017-08-15T09:39:26Z</time>
      </trkpt>
      <trkpt lat="45.93754" lon="4.72397">
        <ele>171</ele>
        <time>2017-08-15T09:39:27Z</time>
      </trkpt>
      <trkpt lat="45.93746" lon="4.7239">
        <ele>171</ele>
        <time>2017-08-15T09:39:29Z</time>
      </trkpt>
      <trkpt lat="45.93742" lon="4.72388">
        <ele>171</ele>
        <time>2017-08-15T09:39:30Z</time>
      </trkpt>
      <trkpt lat="45.93738" lon="4.72385">
        <ele>171</ele>
        <time>2017-08-15T09:39:31Z</time>
      </trkpt>
      <trkpt lat="45.93733" lon="4.72381">
        <ele>171</ele>
        <time>2017-08-15T09:39:32Z</time>
      </trkpt>
      <trkpt lat="45.93728" lon="4.72377">
        <ele>171</ele>
        <time>2017-08-15T09:39:33Z</time>
      </trkpt>
      <trkpt lat="45.93725" lon="4.72373">
        <ele>172</ele>
        <time>2017-08-15T09:39:34Z</time>
      </trkpt>
      <trkpt lat="45.9372" lon="4.72368">
        <ele>172</ele>
        <time>2017-08-15T09:39:35Z</time>
      </trkpt>
      <trkpt lat="45.93716" lon="4.72364">
        <ele>172</ele>
        <time>2017-08-15T09:39:36Z</time>
      </trkpt>
      <trkpt lat="45.93712" lon="4.7236">
        <ele>172</ele>
        <time>2017-08-15T09:39:37Z</time>
      </trkpt>
      <trkpt lat="45.93707" lon="4.72356">
        <ele>171</ele>
        <time>2017-08-15T09:39:38Z</time>
      </trkpt>
      <trkpt lat="45.93703" lon="4.72352">
        <ele>171</ele>
        <time>2017-08-15T09:39:39Z</time>
      </trkpt>
      <trkpt lat="45.937" lon="4.72348">
        <ele>171</ele>
        <time>2017-08-15T09:39:40Z</time>
      </trkpt>
      <trkpt lat="45.93696" lon="4.72343">
        <ele>171</ele>
        <time>2017-08-15T09:39:41Z</time>
      </trkpt>
      <trkpt lat="45.93692" lon="4.7234">
        <ele>171</ele>
        <time>2017-08-15T09:39:42Z</time>
      </trkpt>
      <trkpt lat="45.93685" lon="4.72334">
        <ele>171</ele>
        <time>2017-08-15T09:39:44Z</time>
      </trkpt>
      <trkpt lat="45.93681" lon="4.72331">
        <ele>171</ele>
        <time>2017-08-15T09:39:45Z</time>
      </trkpt>
      <trkpt lat="45.93677" lon="4.72328">
        <ele>171</ele>
        <time>2017-08-15T09:39:46Z</time>
      </trkpt>
      <trkpt lat="45.93673" lon="4.72324">
        <ele>171</ele>
        <time>2017-08-15T09:39:47Z</time>
      </trkpt>
      <trkpt lat="45.93669" lon="4.7232">
        <ele>171</ele>
        <time>2017-08-15T09:39:48Z</time>
      </trkpt>
      <trkpt lat="45.93663" lon="4.72315">
        <ele>172</ele>
        <time>2017-08-15T09:39:49Z</time>
      </trkpt>
      <trkpt lat="45.93658" lon="4.72311">
        <ele>172</ele>
        <time>2017-08-15T09:39:50Z</time>
      </trkpt>
      <trkpt lat="45.93653" lon="4.72306">
        <ele>172</ele>
        <time>2017-08-15T09:39:51Z</time>
      </trkpt>
      <trkpt lat="45.93649" lon="4.72302">
        <ele>172</ele>
        <time>2017-08-15T09:39:52Z</time>
      </trkpt>
      <trkpt lat="45.93645" lon="4.72299">
        <ele>172</ele>
        <time>2017-08-15T09:39:53Z</time>
      </trkpt>
      <trkpt lat="45.9364" lon="4.72295">
        <ele>172</ele>
        <time>2017-08-15T09:39:54Z</time>
      </trkpt>
      <trkpt lat="45.93637" lon="4.72292">
        <ele>172</ele>
        <time>2017-08-15T09:39:55Z</time>
      </trkpt>
      <trkpt lat="45.9363" lon="4.72284">
        <ele>172</ele>
        <time>2017-08-15T09:39:57Z</time>
      </trkpt>
      <trkpt lat="45.93626" lon="4.72281">
        <ele>172</ele>
        <time>2017-08-15T09:39:58Z</time>
      </trkpt>
      <trkpt lat="45.93622" lon="4.72277">
        <ele>172</ele>
        <time>2017-08-15T09:39:59Z</time>
      </trkpt>
      <trkpt lat="45.93618" lon="4.72274">
        <ele>172</ele>
        <time>2017-08-15T09:40:00Z</time>
      </trkpt>
      <trkpt lat="45.93614" lon="4.7227">
        <ele>172</ele>
        <time>2017-08-15T09:40:01Z</time>
      </trkpt>
      <trkpt lat="45.93611" lon="4.72265">
        <ele>172</ele>
        <time>2017-08-15T09:40:02Z</time>
      </trkpt>
      <trkpt lat="45.93606" lon="4.72261">
        <ele>173</ele>
        <time>2017-08-15T09:40:03Z</time>
      </trkpt>
      <trkpt lat="45.93603" lon="4.72257">
        <ele>173</ele>
        <time>2017-08-15T09:40:04Z</time>
      </trkpt>
      <trkpt lat="45.93596" lon="4.7225">
        <ele>173</ele>
        <time>2017-08-15T09:40:06Z</time>
      </trkpt>
      <trkpt lat="45.93592" lon="4.72246">
        <ele>173</ele>
        <time>2017-08-15T09:40:07Z</time>
      </trkpt>
      <trkpt lat="45.93585" lon="4.7224">
        <ele>173</ele>
        <time>2017-08-15T09:40:09Z</time>
      </trkpt>
      <trkpt lat="45.93582" lon="4.72237">
        <ele>173</ele>
        <time>2017-08-15T09:40:10Z</time>
      </trkpt>
      <trkpt lat="45.93577" lon="4.7223">
        <ele>173</ele>
        <time>2017-08-15T09:40:12Z</time>
      </trkpt>
      <trkpt lat="45.93574" lon="4.72227">
        <ele>173</ele>
        <time>2017-08-15T09:40:13Z</time>
      </trkpt>
      <trkpt lat="45.93568" lon="4.72224">
        <ele>173</ele>
        <time>2017-08-15T09:40:15Z</time>
      </trkpt>
      <trkpt lat="45.93566" lon="4.72221">
        <ele>173</ele>
        <time>2017-08-15T09:40:16Z</time>
      </trkpt>
      <trkpt lat="45.93561" lon="4.72216">
        <ele>173</ele>
        <time>2017-08-15T09:40:18Z</time>
      </trkpt>
      <trkpt lat="45.93557" lon="4.72215">
        <ele>173</ele>
        <time>2017-08-15T09:40:19Z</time>
      </trkpt>
      <trkpt lat="45.93551" lon="4.7222">
        <ele>173</ele>
        <time>2017-08-15T09:40:21Z</time>
      </trkpt>
      <trkpt lat="45.93548" lon="4.72224">
        <ele>172</ele>
        <time>2017-08-15T09:40:22Z</time>
      </trkpt>
      <trkpt lat="45.93543" lon="4.72234">
        <ele>172</ele>
        <time>2017-08-15T09:40:24Z</time>
      </trkpt>
      <trkpt lat="45.93541" lon="4.72239">
        <ele>172</ele>
        <time>2017-08-15T09:40:25Z</time>
      </trkpt>
      <trkpt lat="45.93538" lon="4.72245">
        <ele>172</ele>
        <time>2017-08-15T09:40:26Z</time>
      </trkpt>
      <trkpt lat="45.93535" lon="4.72252">
        <ele>172</ele>
        <time>2017-08-15T09:40:27Z</time>
      </trkpt>
      <trkpt lat="45.93532" lon="4.72258">
        <ele>172</ele>
        <time>2017-08-15T09:40:28Z</time>
      </trkpt>
      <trkpt lat="45.93529" lon="4.72265">
        <ele>172</ele>
        <time>2017-08-15T09:40:29Z</time>
      </trkpt>
      <trkpt lat="45.93526" lon="4.72273">
        <ele>172</ele>
        <time>2017-08-15T09:40:30Z</time>
      </trkpt>
      <trkpt lat="45.93522" lon="4.72281">
        <ele>172</ele>
        <time>2017-08-15T09:40:31Z</time>
      </trkpt>
      <trkpt lat="45.93518" lon="4.72289">
        <ele>172</ele>
        <time>2017-08-15T09:40:32Z</time>
      </trkpt>
      <trkpt lat="45.93512" lon="4.72298">
        <ele>172</ele>
        <time>2017-08-15T09:40:33Z</time>
      </trkpt>
      <trkpt lat="45.93508" lon="4.72306">
        <ele>173</ele>
        <time>2017-08-15T09:40:34Z</time>
      </trkpt>
      <trkpt lat="45.93503" lon="4.72314">
        <ele>173</ele>
        <time>2017-08-15T09:40:35Z</time>
      </trkpt>
      <trkpt lat="45.93497" lon="4.72322">
        <ele>173</ele>
        <time>2017-08-15T09:40:36Z</time>
      </trkpt>
      <trkpt lat="45.93492" lon="4.72331">
        <ele>173</ele>
        <time>2017-08-15T09:40:37Z</time>
      </trkpt>
      <trkpt lat="45.93488" lon="4.72339">
        <ele>173</ele>
        <time>2017-08-15T09:40:38Z</time>
      </trkpt>
      <trkpt lat="45.93483" lon="4.72345">
        <ele>173</ele>
        <time>2017-08-15T09:40:39Z</time>
      </trkpt>
      <trkpt lat="45.93477" lon="4.72352">
        <ele>173</ele>
        <time>2017-08-15T09:40:40Z</time>
      </trkpt>
      <trkpt lat="45.93472" lon="4.72358">
        <ele>173</ele>
        <time>2017-08-15T09:40:41Z</time>
      </trkpt>
      <trkpt lat="45.93467" lon="4.72364">
        <ele>173</ele>
        <time>2017-08-15T09:40:42Z</time>
      </trkpt>
      <trkpt lat="45.93462" lon="4.72369">
        <ele>173</ele>
        <time>2017-08-15T09:40:43Z</time>
      </trkpt>
      <trkpt lat="45.93458" lon="4.72375">
        <ele>173</ele>
        <time>2017-08-15T09:40:44Z</time>
      </trkpt>
      <trkpt lat="45.93453" lon="4.72379">
        <ele>173</ele>
        <time>2017-08-15T09:40:45Z</time>
      </trkpt>
      <trkpt lat="45.93448" lon="4.72384">
        <ele>173</ele>
        <time>2017-08-15T09:40:46Z</time>
      </trkpt>
      <trkpt lat="45.93443" lon="4.72388">
        <ele>173</ele>
        <time>2017-08-15T09:40:47Z</time>
      </trkpt>
      <trkpt lat="45.93439" lon="4.72392">
        <ele>173</ele>
        <time>2017-08-15T09:40:48Z</time>
      </trkpt>
      <trkpt lat="45.93434" lon="4.72396">
        <ele>173</ele>
        <time>2017-08-15T09:40:49Z</time>
      </trkpt>
      <trkpt lat="45.9343" lon="4.72399">
        <ele>174</ele>
        <time>2017-08-15T09:40:50Z</time>
      </trkpt>
      <trkpt lat="45.93425" lon="4.72401">
        <ele>174</ele>
        <time>2017-08-15T09:40:51Z</time>
      </trkpt>
      <trkpt lat="45.93419" lon="4.72403">
        <ele>174</ele>
        <time>2017-08-15T09:40:52Z</time>
      </trkpt>
      <trkpt lat="45.93414" lon="4.72405">
        <ele>174</ele>
        <time>2017-08-15T09:40:53Z</time>
      </trkpt>
      <trkpt lat="45.93408" lon="4.72406">
        <ele>174</ele>
        <time>2017-08-15T09:40:54Z</time>
      </trkpt>
      <trkpt lat="45.93403" lon="4.72407">
        <ele>174</ele>
        <time>2017-08-15T09:40:55Z</time>
      </trkpt>
      <trkpt lat="45.93398" lon="4.72406">
        <ele>174</ele>
        <time>2017-08-15T09:40:56Z</time>
      </trkpt>
      <trkpt lat="45.93393" lon="4.72405">
        <ele>174</ele>
        <time>2017-08-15T09:40:57Z</time>
      </trkpt>
      <trkpt lat="45.93385" lon="4.72409">
        <ele>174</ele>
        <time>2017-08-15T09:40:59Z</time>
      </trkpt>
      <trkpt lat="45.93383" lon="4.72414">
        <ele>174</ele>
        <time>2017-08-15T09:41:00Z</time>
      </trkpt>
      <trkpt lat="45.93384" lon="4.72426">
        <ele>173</ele>
        <time>2017-08-15T09:41:02Z</time>
      </trkpt>
      <trkpt lat="45.93386" lon="4.72433">
        <ele>173</ele>
        <time>2017-08-15T09:41:03Z</time>
      </trkpt>
      <trkpt lat="45.93389" lon="4.72441">
        <ele>173</ele>
        <time>2017-08-15T09:41:04Z</time>
      </trkpt>
      <trkpt lat="45.9339" lon="4.72448">
        <ele>173</ele>
        <time>2017-08-15T09:41:05Z</time>
      </trkpt>
      <trkpt lat="45.93389" lon="4.72456">
        <ele>173</ele>
        <time>2017-08-15T09:41:06Z</time>
      </trkpt>
      <trkpt lat="45.93387" lon="4.72463">
        <ele>173</ele>
        <time>2017-08-15T09:41:07Z</time>
      </trkpt>
      <trkpt lat="45.93384" lon="4.72468">
        <ele>173</ele>
        <time>2017-08-15T09:41:08Z</time>
      </trkpt>
      <trkpt lat="45.9338" lon="4.72472">
        <ele>173</ele>
        <time>2017-08-15T09:41:09Z</time>
      </trkpt>
      <trkpt lat="45.93376" lon="4.72476">
        <ele>173</ele>
        <time>2017-08-15T09:41:10Z</time>
      </trkpt>
      <trkpt lat="45.93372" lon="4.7248">
        <ele>173</ele>
        <time>2017-08-15T09:41:11Z</time>
      </trkpt>
      <trkpt lat="45.93368" lon="4.72484">
        <ele>173</ele>
        <time>2017-08-15T09:41:12Z</time>
      </trkpt>
      <trkpt lat="45.93364" lon="4.72488">
        <ele>173</ele>
        <time>2017-08-15T09:41:13Z</time>
      </trkpt>
      <trkpt lat="45.93359" lon="4.72492">
        <ele>173</ele>
        <time>2017-08-15T09:41:14Z</time>
      </trkpt>
      <trkpt lat="45.93355" lon="4.72497">
        <ele>173</ele>
        <time>2017-08-15T09:41:15Z</time>
      </trkpt>
      <trkpt lat="45.9335" lon="4.72502">
        <ele>172</ele>
        <time>2017-08-15T09:41:16Z</time>
      </trkpt>
      <trkpt lat="45.93346" lon="4.72507">
        <ele>172</ele>
        <time>2017-08-15T09:41:17Z</time>
      </trkpt>
      <trkpt lat="45.93341" lon="4.72512">
        <ele>172</ele>
        <time>2017-08-15T09:41:18Z</time>
      </trkpt>
      <trkpt lat="45.93337" lon="4.72516">
        <ele>172</ele>
        <time>2017-08-15T09:41:19Z</time>
      </trkpt>
      <trkpt lat="45.93332" lon="4.72521">
        <ele>172</ele>
        <time>2017-08-15T09:41:20Z</time>
      </trkpt>
      <trkpt lat="45.93328" lon="4.72526">
        <ele>172</ele>
        <time>2017-08-15T09:41:21Z</time>
      </trkpt>
      <trkpt lat="45.93324" lon="4.72532">
        <ele>172</ele>
        <time>2017-08-15T09:41:22Z</time>
      </trkpt>
      <trkpt lat="45.93319" lon="4.72537">
        <ele>172</ele>
        <time>2017-08-15T09:41:23Z</time>
      </trkpt>
      <trkpt lat="45.93315" lon="4.72542">
        <ele>172</ele>
        <time>2017-08-15T09:41:24Z</time>
      </trkpt>
      <trkpt lat="45.93312" lon="4.72548">
        <ele>172</ele>
        <time>2017-08-15T09:41:25Z</time>
      </trkpt>
      <trkpt lat="45.93308" lon="4.72554">
        <ele>172</ele>
        <time>2017-08-15T09:41:26Z</time>
      </trkpt>
      <trkpt lat="45.93304" lon="4.72559">
        <ele>172</ele>
        <time>2017-08-15T09:41:27Z</time>
      </trkpt>
      <trkpt lat="45.93299" lon="4.72564">
        <ele>172</ele>
        <time>2017-08-15T09:41:28Z</time>
      </trkpt>
      <trkpt lat="45.93295" lon="4.72569">
        <ele>172</ele>
        <time>2017-08-15T09:41:29Z</time>
      </trkpt>
      <trkpt lat="45.9329" lon="4.72574">
        <ele>172</ele>
        <time>2017-08-15T09:41:30Z</time>
      </trkpt>
      <trkpt lat="45.93285" lon="4.72579">
        <ele>172</ele>
        <time>2017-08-15T09:41:31Z</time>
      </trkpt>
      <trkpt lat="45.93281" lon="4.72584">
        <ele>170</ele>
        <time>2017-08-15T09:41:32Z</time>
      </trkpt>
      <trkpt lat="45.93277" lon="4.72589">
        <ele>170</ele>
        <time>2017-08-15T09:41:33Z</time>
      </trkpt>
      <trkpt lat="45.93273" lon="4.72593">
        <ele>170</ele>
        <time>2017-08-15T09:41:34Z</time>
      </trkpt>
      <trkpt lat="45.93269" lon="4.72597">
        <ele>170</ele>
        <time>2017-08-15T09:41:35Z</time>
      </trkpt>
      <trkpt lat="45.93262" lon="4.72605">
        <ele>170</ele>
        <time>2017-08-15T09:41:37Z</time>
      </trkpt>
      <trkpt lat="45.93258" lon="4.72609">
        <ele>170</ele>
        <time>2017-08-15T09:41:38Z</time>
      </trkpt>
      <trkpt lat="45.93255" lon="4.72614">
        <ele>170</ele>
        <time>2017-08-15T09:41:39Z</time>
      </trkpt>
      <trkpt lat="45.9325" lon="4.72618">
        <ele>170</ele>
        <time>2017-08-15T09:41:40Z</time>
      </trkpt>
      <trkpt lat="45.93246" lon="4.72622">
        <ele>170</ele>
        <time>2017-08-15T09:41:41Z</time>
      </trkpt>
      <trkpt lat="45.93241" lon="4.72627">
        <ele>170</ele>
        <time>2017-08-15T09:41:42Z</time>
      </trkpt>
      <trkpt lat="45.93237" lon="4.72633">
        <ele>170</ele>
        <time>2017-08-15T09:41:43Z</time>
      </trkpt>
      <trkpt lat="45.93233" lon="4.72639">
        <ele>170</ele>
        <time>2017-08-15T09:41:44Z</time>
      </trkpt>
      <trkpt lat="45.9323" lon="4.72644">
        <ele>170</ele>
        <time>2017-08-15T09:41:45Z</time>
      </trkpt>
      <trkpt lat="45.93226" lon="4.72649">
        <ele>170</ele>
        <time>2017-08-15T09:41:46Z</time>
      </trkpt>
      <trkpt lat="45.93222" lon="4.72654">
        <ele>170</ele>
        <time>2017-08-15T09:41:47Z</time>
      </trkpt>
      <trkpt lat="45.93219" lon="4.72658">
        <ele>170</ele>
        <time>2017-08-15T09:41:48Z</time>
      </trkpt>
      <trkpt lat="45.93215" lon="4.72663">
        <ele>170</ele>
        <time>2017-08-15T09:41:49Z</time>
      </trkpt>
      <trkpt lat="45.93211" lon="4.72668">
        <ele>169</ele>
        <time>2017-08-15T09:41:50Z</time>
      </trkpt>
      <trkpt lat="45.93206" lon="4.72673">
        <ele>169</ele>
        <time>2017-08-15T09:41:51Z</time>
      </trkpt>
      <trkpt lat="45.93201" lon="4.72678">
        <ele>169</ele>
        <time>2017-08-15T09:41:52Z</time>
      </trkpt>
      <trkpt lat="45.93197" lon="4.72683">
        <ele>169</ele>
        <time>2017-08-15T09:41:53Z</time>
      </trkpt>
      <trkpt lat="45.93193" lon="4.72688">
        <ele>169</ele>
        <time>2017-08-15T09:41:54Z</time>
      </trkpt>
      <trkpt lat="45.93188" lon="4.72693">
        <ele>169</ele>
        <time>2017-08-15T09:41:55Z</time>
      </trkpt>
      <trkpt lat="45.93184" lon="4.72698">
        <ele>169</ele>
        <time>2017-08-15T09:41:56Z</time>
      </trkpt>
      <trkpt lat="45.93179" lon="4.72704">
        <ele>169</ele>
        <time>2017-08-15T09:41:57Z</time>
      </trkpt>
      <trkpt lat="45.93174" lon="4.7271">
        <ele>170</ele>
        <time>2017-08-15T09:41:58Z</time>
      </trkpt>
      <trkpt lat="45.93169" lon="4.72715">
        <ele>170</ele>
        <time>2017-08-15T09:41:59Z</time>
      </trkpt>
      <trkpt lat="45.93164" lon="4.7272">
        <ele>170</ele>
        <time>2017-08-15T09:42:00Z</time>
      </trkpt>
      <trkpt lat="45.93159" lon="4.72726">
        <ele>170</ele>
        <time>2017-08-15T09:42:01Z</time>
      </trkpt>
      <trkpt lat="45.93154" lon="4.72731">
        <ele>170</ele>
        <time>2017-08-15T09:42:02Z</time>
      </trkpt>
      <trkpt lat="45.93149" lon="4.72737">
        <ele>170</ele>
        <time>2017-08-15T09:42:03Z</time>
      </trkpt>
      <trkpt lat="45.93144" lon="4.72743">
        <ele>170</ele>
        <time>2017-08-15T09:42:04Z</time>
      </trkpt>
      <trkpt lat="45.9314" lon="4.72749">
        <ele>170</ele>
        <time>2017-08-15T09:42:05Z</time>
      </trkpt>
      <trkpt lat="45.93135" lon="4.72755">
        <ele>171</ele>
        <time>2017-08-15T09:42:06Z</time>
      </trkpt>
      <trkpt lat="45.93129" lon="4.72761">
        <ele>171</ele>
        <time>2017-08-15T09:42:07Z</time>
      </trkpt>
      <trkpt lat="45.93124" lon="4.72767">
        <ele>171</ele>
        <time>2017-08-15T09:42:08Z</time>
      </trkpt>
      <trkpt lat="45.9312" lon="4.72773">
        <ele>171</ele>
        <time>2017-08-15T09:42:09Z</time>
      </trkpt>
      <trkpt lat="45.93115" lon="4.72778">
        <ele>171</ele>
        <time>2017-08-15T09:42:10Z</time>
      </trkpt>
      <trkpt lat="45.9311" lon="4.72784">
        <ele>171</ele>
        <time>2017-08-15T09:42:11Z</time>
      </trkpt>
      <trkpt lat="45.93107" lon="4.7279">
        <ele>171</ele>
        <time>2017-08-15T09:42:12Z</time>
      </trkpt>
      <trkpt lat="45.93103" lon="4.72795">
        <ele>171</ele>
        <time>2017-08-15T09:42:13Z</time>
      </trkpt>
      <trkpt lat="45.93099" lon="4.72801">
        <ele>171</ele>
        <time>2017-08-15T09:42:14Z</time>
      </trkpt>
      <trkpt lat="45.93095" lon="4.72806">
        <ele>172</ele>
        <time>2017-08-15T09:42:15Z</time>
      </trkpt>
      <trkpt lat="45.93091" lon="4.7281">
        <ele>172</ele>
        <time>2017-08-15T09:42:16Z</time>
      </trkpt>
      <trkpt lat="45.93087" lon="4.72814">
        <ele>172</ele>
        <time>2017-08-15T09:42:17Z</time>
      </trkpt>
      <trkpt lat="45.93083" lon="4.72818">
        <ele>172</ele>
        <time>2017-08-15T09:42:18Z</time>
      </trkpt>
      <trkpt lat="45.93075" lon="4.72823">
        <ele>173</ele>
        <time>2017-08-15T09:42:20Z</time>
      </trkpt>
      <trkpt lat="45.93071" lon="4.72826">
        <ele>173</ele>
        <time>2017-08-15T09:42:21Z</time>
      </trkpt>
      <trkpt lat="45.93067" lon="4.72829">
        <ele>173</ele>
        <time>2017-08-15T09:42:22Z</time>
      </trkpt>
      <trkpt lat="45.93061" lon="4.72833">
        <ele>173</ele>
        <time>2017-08-15T09:42:23Z</time>
      </trkpt>
      <trkpt lat="45.93058" lon="4.72837">
        <ele>173</ele>
        <time>2017-08-15T09:42:24Z</time>
      </trkpt>
      <trkpt lat="45.93054" lon="4.72844">
        <ele>172</ele>
        <time>2017-08-15T09:42:25Z</time>
      </trkpt>
      <trkpt lat="45.93048" lon="4.7285">
        <ele>172</ele>
        <time>2017-08-15T09:42:26Z</time>
      </trkpt>
      <trkpt lat="45.93044" lon="4.72856">
        <ele>172</ele>
        <time>2017-08-15T09:42:27Z</time>
      </trkpt>
      <trkpt lat="45.93038" lon="4.72864">
        <ele>172</ele>
        <time>2017-08-15T09:42:28Z</time>
      </trkpt>
      <trkpt lat="45.93032" lon="4.7287">
        <ele>172</ele>
        <time>2017-08-15T09:42:29Z</time>
      </trkpt>
      <trkpt lat="45.93027" lon="4.72876">
        <ele>172</ele>
        <time>2017-08-15T09:42:30Z</time>
      </trkpt>
      <trkpt lat="45.93023" lon="4.72881">
        <ele>172</ele>
        <time>2017-08-15T09:42:31Z</time>
      </trkpt>
      <trkpt lat="45.93018" lon="4.72886">
        <ele>172</ele>
        <time>2017-08-15T09:42:32Z</time>
      </trkpt>
      <trkpt lat="45.93014" lon="4.72892">
        <ele>172</ele>
        <time>2017-08-15T09:42:33Z</time>
      </trkpt>
      <trkpt lat="45.9301" lon="4.72897">
        <ele>172</ele>
        <time>2017-08-15T09:42:34Z</time>
      </trkpt>
      <trkpt lat="45.93006" lon="4.72902">
        <ele>172</ele>
        <time>2017-08-15T09:42:35Z</time>
      </trkpt>
      <trkpt lat="45.93003" lon="4.72907">
        <ele>171</ele>
        <time>2017-08-15T09:42:36Z</time>
      </trkpt>
      <trkpt lat="45.93" lon="4.72913">
        <ele>171</ele>
        <time>2017-08-15T09:42:37Z</time>
      </trkpt>
      <trkpt lat="45.92996" lon="4.72918">
        <ele>171</ele>
        <time>2017-08-15T09:42:38Z</time>
      </trkpt>
      <trkpt lat="45.92992" lon="4.72923">
        <ele>171</ele>
        <time>2017-08-15T09:42:39Z</time>
      </trkpt>
      <trkpt lat="45.92989" lon="4.72927">
        <ele>171</ele>
        <time>2017-08-15T09:42:40Z</time>
      </trkpt>
      <trkpt lat="45.92985" lon="4.72933">
        <ele>171</ele>
        <time>2017-08-15T09:42:41Z</time>
      </trkpt>
      <trkpt lat="45.92981" lon="4.72938">
        <ele>171</ele>
        <time>2017-08-15T09:42:42Z</time>
      </trkpt>
      <trkpt lat="45.92977" lon="4.72943">
        <ele>171</ele>
        <time>2017-08-15T09:42:43Z</time>
      </trkpt>
      <trkpt lat="45.92973" lon="4.72948">
        <ele>171</ele>
        <time>2017-08-15T09:42:44Z</time>
      </trkpt>
      <trkpt lat="45.92968" lon="4.72953">
        <ele>171</ele>
        <time>2017-08-15T09:42:45Z</time>
      </trkpt>
      <trkpt lat="45.92964" lon="4.72957">
        <ele>171</ele>
        <time>2017-08-15T09:42:46Z</time>
      </trkpt>
      <trkpt lat="45.9296" lon="4.72962">
        <ele>171</ele>
        <time>2017-08-15T09:42:47Z</time>
      </trkpt>
      <trkpt lat="45.92956" lon="4.72966">
        <ele>171</ele>
        <time>2017-08-15T09:42:48Z</time>
      </trkpt>
      <trkpt lat="45.92952" lon="4.72971">
        <ele>171</ele>
        <time>2017-08-15T09:42:49Z</time>
      </trkpt>
      <trkpt lat="45.92949" lon="4.72975">
        <ele>171</ele>
        <time>2017-08-15T09:42:50Z</time>
      </trkpt>
      <trkpt lat="45.92945" lon="4.72978">
        <ele>171</ele>
        <time>2017-08-15T09:42:51Z</time>
      </trkpt>
      <trkpt lat="45.92938" lon="4.72985">
        <ele>171</ele>
        <time>2017-08-15T09:42:53Z</time>
      </trkpt>
      <trkpt lat="45.92934" lon="4.72988">
        <ele>172</ele>
        <time>2017-08-15T09:42:54Z</time>
      </trkpt>
      <trkpt lat="45.92928" lon="4.72994">
        <ele>172</ele>
        <time>2017-08-15T09:42:56Z</time>
      </trkpt>
      <trkpt lat="45.92924" lon="4.72998">
        <ele>172</ele>
        <time>2017-08-15T09:42:57Z</time>
      </trkpt>
      <trkpt lat="45.92921" lon="4.73004">
        <ele>172</ele>
        <time>2017-08-15T09:42:58Z</time>
      </trkpt>
      <trkpt lat="45.92917" lon="4.73009">
        <ele>172</ele>
        <time>2017-08-15T09:42:59Z</time>
      </trkpt>
      <trkpt lat="45.92913" lon="4.73014">
        <ele>172</ele>
        <time>2017-08-15T09:43:00Z</time>
      </trkpt>
      <trkpt lat="45.92909" lon="4.73019">
        <ele>172</ele>
        <time>2017-08-15T09:43:01Z</time>
      </trkpt>
      <trkpt lat="45.92905" lon="4.73024">
        <ele>172</ele>
        <time>2017-08-15T09:43:02Z</time>
      </trkpt>
      <trkpt lat="45.92901" lon="4.7303">
        <ele>172</ele>
        <time>2017-08-15T09:43:03Z</time>
      </trkpt>
      <trkpt lat="45.92897" lon="4.73036">
        <ele>172</ele>
        <time>2017-08-15T09:43:04Z</time>
      </trkpt>
      <trkpt lat="45.92894" lon="4.73042">
        <ele>172</ele>
        <time>2017-08-15T09:43:05Z</time>
      </trkpt>
      <trkpt lat="45.9289" lon="4.73048">
        <ele>172</ele>
        <time>2017-08-15T09:43:06Z</time>
      </trkpt>
      <trkpt lat="45.92887" lon="4.73054">
        <ele>172</ele>
        <time>2017-08-15T09:43:07Z</time>
      </trkpt>
      <trkpt lat="45.92883" lon="4.73059">
        <ele>172</ele>
        <time>2017-08-15T09:43:08Z</time>
      </trkpt>
      <trkpt lat="45.9288" lon="4.73064">
        <ele>172</ele>
        <time>2017-08-15T09:43:09Z</time>
      </trkpt>
      <trkpt lat="45.92874" lon="4.73074">
        <ele>172</ele>
        <time>2017-08-15T09:43:11Z</time>
      </trkpt>
      <trkpt lat="45.92871" lon="4.73079">
        <ele>172</ele>
        <time>2017-08-15T09:43:12Z</time>
      </trkpt>
      <trkpt lat="45.92868" lon="4.73084">
        <ele>172</ele>
        <time>2017-08-15T09:43:13Z</time>
      </trkpt>
      <trkpt lat="45.92864" lon="4.73089">
        <ele>172</ele>
        <time>2017-08-15T09:43:14Z</time>
      </trkpt>
      <trkpt lat="45.92861" lon="4.73094">
        <ele>171</ele>
        <time>2017-08-15T09:43:15Z</time>
      </trkpt>
      <trkpt lat="45.92857" lon="4.73098">
        <ele>171</ele>
        <time>2017-08-15T09:43:16Z</time>
      </trkpt>
      <trkpt lat="45.9285" lon="4.731">
        <ele>171</ele>
        <time>2017-08-15T09:43:18Z</time>
      </trkpt>
      <trkpt lat="45.92848" lon="4.73096">
        <ele>171</ele>
        <time>2017-08-15T09:43:19Z</time>
      </trkpt>
      <trkpt lat="45.92846" lon="4.73084">
        <ele>171</ele>
        <time>2017-08-15T09:43:21Z</time>
      </trkpt>
      <trkpt lat="45.92845" lon="4.73078">
        <ele>171</ele>
        <time>2017-08-15T09:43:22Z</time>
      </trkpt>
      <trkpt lat="45.92844" lon="4.73071">
        <ele>171</ele>
        <time>2017-08-15T09:43:23Z</time>
      </trkpt>
      <trkpt lat="45.92843" lon="4.73064">
        <ele>171</ele>
        <time>2017-08-15T09:43:24Z</time>
      </trkpt>
      <trkpt lat="45.92842" lon="4.73056">
        <ele>171</ele>
        <time>2017-08-15T09:43:25Z</time>
      </trkpt>
      <trkpt lat="45.9284" lon="4.73049">
        <ele>171</ele>
        <time>2017-08-15T09:43:26Z</time>
      </trkpt>
      <trkpt lat="45.92839" lon="4.73041">
        <ele>171</ele>
        <time>2017-08-15T09:43:27Z</time>
      </trkpt>
      <trkpt lat="45.92837" lon="4.73032">
        <ele>171</ele>
        <time>2017-08-15T09:43:28Z</time>
      </trkpt>
      <trkpt lat="45.92836" lon="4.73024">
        <ele>171</ele>
        <time>2017-08-15T09:43:29Z</time>
      </trkpt>
      <trkpt lat="45.92835" lon="4.73015">
        <ele>171</ele>
        <time>2017-08-15T09:43:30Z</time>
      </trkpt>
      <trkpt lat="45.92834" lon="4.73008">
        <ele>170</ele>
        <time>2017-08-15T09:43:31Z</time>
      </trkpt>
      <trkpt lat="45.92833" lon="4.73">
        <ele>170</ele>
        <time>2017-08-15T09:43:32Z</time>
      </trkpt>
      <trkpt lat="45.92832" lon="4.72992">
        <ele>170</ele>
        <time>2017-08-15T09:43:33Z</time>
      </trkpt>
      <trkpt lat="45.92831" lon="4.72984">
        <ele>170</ele>
        <time>2017-08-15T09:43:34Z</time>
      </trkpt>
      <trkpt lat="45.9283" lon="4.72977">
        <ele>170</ele>
        <time>2017-08-15T09:43:35Z</time>
      </trkpt>
      <trkpt lat="45.9283" lon="4.7297">
        <ele>170</ele>
        <time>2017-08-15T09:43:36Z</time>
      </trkpt>
      <trkpt lat="45.92829" lon="4.72963">
        <ele>170</ele>
        <time>2017-08-15T09:43:37Z</time>
      </trkpt>
      <trkpt lat="45.92828" lon="4.72956">
        <ele>170</ele>
        <time>2017-08-15T09:43:38Z</time>
      </trkpt>
      <trkpt lat="45.92828" lon="4.72949">
        <ele>170</ele>
        <time>2017-08-15T09:43:39Z</time>
      </trkpt>
      <trkpt lat="45.92827" lon="4.72943">
        <ele>170</ele>
        <time>2017-08-15T09:43:40Z</time>
      </trkpt>
      <trkpt lat="45.92826" lon="4.72936">
        <ele>170</ele>
        <time>2017-08-15T09:43:41Z</time>
      </trkpt>
      <trkpt lat="45.92826" lon="4.7293">
        <ele>170</ele>
        <time>2017-08-15T09:43:42Z</time>
      </trkpt>
      <trkpt lat="45.92826" lon="4.72922">
        <ele>170</ele>
        <time>2017-08-15T09:43:43Z</time>
      </trkpt>
      <trkpt lat="45.92825" lon="4.72915">
        <ele>170</ele>
        <time>2017-08-15T09:43:44Z</time>
      </trkpt>
      <trkpt lat="45.92824" lon="4.72907">
        <ele>170</ele>
        <time>2017-08-15T09:43:45Z</time>
      </trkpt>
      <trkpt lat="45.92823" lon="4.729">
        <ele>170</ele>
        <time>2017-08-15T09:43:46Z</time>
      </trkpt>
      <trkpt lat="45.92822" lon="4.72892">
        <ele>170</ele>
        <time>2017-08-15T09:43:47Z</time>
      </trkpt>
      <trkpt lat="45.92821" lon="4.72885">
        <ele>170</ele>
        <time>2017-08-15T09:43:48Z</time>
      </trkpt>
      <trkpt lat="45.92819" lon="4.72878">
        <ele>170</ele>
        <time>2017-08-15T09:43:49Z</time>
      </trkpt>
      <trkpt lat="45.92818" lon="4.7287">
        <ele>170</ele>
        <time>2017-08-15T09:43:50Z</time>
      </trkpt>
      <trkpt lat="45.92816" lon="4.72863">
        <ele>170</ele>
        <time>2017-08-15T09:43:51Z</time>
      </trkpt>
      <trkpt lat="45.92815" lon="4.72857">
        <ele>170</ele>
        <time>2017-08-15T09:43:52Z</time>
      </trkpt>
      <trkpt lat="45.92814" lon="4.7285">
        <ele>170</ele>
        <time>2017-08-15T09:43:53Z</time>
      </trkpt>
      <trkpt lat="45.92813" lon="4.72844">
        <ele>170</ele>
        <time>2017-08-15T09:43:54Z</time>
      </trkpt>
      <trkpt lat="45.92811" lon="4.72832">
        <ele>171</ele>
        <time>2017-08-15T09:43:56Z</time>
      </trkpt>
      <trkpt lat="45.9281" lon="4.72826">
        <ele>171</ele>
        <time>2017-08-15T09:43:57Z</time>
      </trkpt>
      <trkpt lat="45.92809" lon="4.72814">
        <ele>171</ele>
        <time>2017-08-15T09:43:59Z</time>
      </trkpt>
      <trkpt lat="45.92809" lon="4.72809">
        <ele>171</ele>
        <time>2017-08-15T09:44:00Z</time>
      </trkpt>
      <trkpt lat="45.92807" lon="4.72797">
        <ele>171</ele>
        <time>2017-08-15T09:44:02Z</time>
      </trkpt>
      <trkpt lat="45.92807" lon="4.72792">
        <ele>171</ele>
        <time>2017-08-15T09:44:03Z</time>
      </trkpt>
      <trkpt lat="45.92801" lon="4.72782">
        <ele>171</ele>
        <time>2017-08-15T09:44:06Z</time>
      </trkpt>
      <trkpt lat="45.92796" lon="4.72785">
        <ele>171</ele>
        <time>2017-08-15T09:44:07Z</time>
      </trkpt>
      <trkpt lat="45.92789" lon="4.72791">
        <ele>170</ele>
        <time>2017-08-15T09:44:09Z</time>
      </trkpt>
      <trkpt lat="45.92783" lon="4.72793">
        <ele>170</ele>
        <time>2017-08-15T09:44:10Z</time>
      </trkpt>
      <trkpt lat="45.92778" lon="4.72796">
        <ele>170</ele>
        <time>2017-08-15T09:44:11Z</time>
      </trkpt>
      <trkpt lat="45.92773" lon="4.728">
        <ele>170</ele>
        <time>2017-08-15T09:44:12Z</time>
      </trkpt>
      <trkpt lat="45.92769" lon="4.72802">
        <ele>170</ele>
        <time>2017-08-15T09:44:13Z</time>
      </trkpt>
      <trkpt lat="45.92764" lon="4.72805">
        <ele>170</ele>
        <time>2017-08-15T09:44:14Z</time>
      </trkpt>
      <trkpt lat="45.92758" lon="4.72808">
        <ele>170</ele>
        <time>2017-08-15T09:44:15Z</time>
      </trkpt>
      <trkpt lat="45.92752" lon="4.72811">
        <ele>170</ele>
        <time>2017-08-15T09:44:16Z</time>
      </trkpt>
      <trkpt lat="45.92747" lon="4.72815">
        <ele>170</ele>
        <time>2017-08-15T09:44:17Z</time>
      </trkpt>
      <trkpt lat="45.92743" lon="4.72818">
        <ele>170</ele>
        <time>2017-08-15T09:44:18Z</time>
      </trkpt>
      <trkpt lat="45.92738" lon="4.72821">
        <ele>169</ele>
        <time>2017-08-15T09:44:19Z</time>
      </trkpt>
      <trkpt lat="45.92734" lon="4.72825">
        <ele>169</ele>
        <time>2017-08-15T09:44:20Z</time>
      </trkpt>
      <trkpt lat="45.92726" lon="4.72831">
        <ele>170</ele>
        <time>2017-08-15T09:44:22Z</time>
      </trkpt>
      <trkpt lat="45.92723" lon="4.72835">
        <ele>169</ele>
        <time>2017-08-15T09:44:23Z</time>
      </trkpt>
      <trkpt lat="45.92719" lon="4.72839">
        <ele>169</ele>
        <time>2017-08-15T09:44:24Z</time>
      </trkpt>
      <trkpt lat="45.92715" lon="4.72842">
        <ele>169</ele>
        <time>2017-08-15T09:44:25Z</time>
      </trkpt>
      <trkpt lat="45.92711" lon="4.72845">
        <ele>169</ele>
        <time>2017-08-15T09:44:26Z</time>
      </trkpt>
      <trkpt lat="45.92706" lon="4.72849">
        <ele>169</ele>
        <time>2017-08-15T09:44:27Z</time>
      </trkpt>
      <trkpt lat="45.92701" lon="4.72852">
        <ele>169</ele>
        <time>2017-08-15T09:44:28Z</time>
      </trkpt>
      <trkpt lat="45.92697" lon="4.72856">
        <ele>169</ele>
        <time>2017-08-15T09:44:29Z</time>
      </trkpt>
      <trkpt lat="45.92692" lon="4.7286">
        <ele>169</ele>
        <time>2017-08-15T09:44:30Z</time>
      </trkpt>
      <trkpt lat="45.92688" lon="4.72864">
        <ele>169</ele>
        <time>2017-08-15T09:44:31Z</time>
      </trkpt>
      <trkpt lat="45.92683" lon="4.72867">
        <ele>169</ele>
        <time>2017-08-15T09:44:32Z</time>
      </trkpt>
      <trkpt lat="45.92679" lon="4.72871">
        <ele>169</ele>
        <time>2017-08-15T09:44:33Z</time>
      </trkpt>
      <trkpt lat="45.92671" lon="4.72877">
        <ele>170</ele>
        <time>2017-08-15T09:44:35Z</time>
      </trkpt>
      <trkpt lat="45.92667" lon="4.7288">
        <ele>170</ele>
        <time>2017-08-15T09:44:36Z</time>
      </trkpt>
      <trkpt lat="45.92663" lon="4.72883">
        <ele>169</ele>
        <time>2017-08-15T09:44:37Z</time>
      </trkpt>
      <trkpt lat="45.92659" lon="4.72886">
        <ele>169</ele>
        <time>2017-08-15T09:44:38Z</time>
      </trkpt>
      <trkpt lat="45.92654" lon="4.7289">
        <ele>169</ele>
        <time>2017-08-15T09:44:39Z</time>
      </trkpt>
      <trkpt lat="45.9265" lon="4.72894">
        <ele>169</ele>
        <time>2017-08-15T09:44:40Z</time>
      </trkpt>
      <trkpt lat="45.92644" lon="4.72899">
        <ele>169</ele>
        <time>2017-08-15T09:44:41Z</time>
      </trkpt>
      <trkpt lat="45.92639" lon="4.72903">
        <ele>169</ele>
        <time>2017-08-15T09:44:42Z</time>
      </trkpt>
      <trkpt lat="45.92634" lon="4.72907">
        <ele>169</ele>
        <time>2017-08-15T09:44:43Z</time>
      </trkpt>
      <trkpt lat="45.92629" lon="4.72911">
        <ele>169</ele>
        <time>2017-08-15T09:44:44Z</time>
      </trkpt>
      <trkpt lat="45.92624" lon="4.72914">
        <ele>169</ele>
        <time>2017-08-15T09:44:45Z</time>
      </trkpt>
      <trkpt lat="45.92619" lon="4.72918">
        <ele>169</ele>
        <time>2017-08-15T09:44:46Z</time>
      </trkpt>
      <trkpt lat="45.92615" lon="4.72923">
        <ele>169</ele>
        <time>2017-08-15T09:44:47Z</time>
      </trkpt>
      <trkpt lat="45.92611" lon="4.72927">
        <ele>169</ele>
        <time>2017-08-15T09:44:48Z</time>
      </trkpt>
      <trkpt lat="45.92607" lon="4.72932">
        <ele>169</ele>
        <time>2017-08-15T09:44:49Z</time>
      </trkpt>
      <trkpt lat="45.92603" lon="4.72936">
        <ele>169</ele>
        <time>2017-08-15T09:44:50Z</time>
      </trkpt>
      <trkpt lat="45.92599" lon="4.7294">
        <ele>169</ele>
        <time>2017-08-15T09:44:51Z</time>
      </trkpt>
      <trkpt lat="45.92595" lon="4.72944">
        <ele>169</ele>
        <time>2017-08-15T09:44:52Z</time>
      </trkpt>
      <trkpt lat="45.92592" lon="4.72949">
        <ele>169</ele>
        <time>2017-08-15T09:44:53Z</time>
      </trkpt>
      <trkpt lat="45.92588" lon="4.72953">
        <ele>169</ele>
        <time>2017-08-15T09:44:54Z</time>
      </trkpt>
      <trkpt lat="45.92585" lon="4.72958">
        <ele>169</ele>
        <time>2017-08-15T09:44:55Z</time>
      </trkpt>
      <trkpt lat="45.92581" lon="4.72963">
        <ele>169</ele>
        <time>2017-08-15T09:44:56Z</time>
      </trkpt>
      <trkpt lat="45.92577" lon="4.72967">
        <ele>169</ele>
        <time>2017-08-15T09:44:57Z</time>
      </trkpt>
      <trkpt lat="45.92572" lon="4.72971">
        <ele>169</ele>
        <time>2017-08-15T09:44:58Z</time>
      </trkpt>
      <trkpt lat="45.92568" lon="4.72976">
        <ele>169</ele>
        <time>2017-08-15T09:44:59Z</time>
      </trkpt>
      <trkpt lat="45.92564" lon="4.72981">
        <ele>169</ele>
        <time>2017-08-15T09:45:00Z</time>
      </trkpt>
      <trkpt lat="45.92559" lon="4.72986">
        <ele>169</ele>
        <time>2017-08-15T09:45:01Z</time>
      </trkpt>
      <trkpt lat="45.92554" lon="4.72991">
        <ele>169</ele>
        <time>2017-08-15T09:45:02Z</time>
      </trkpt>
      <trkpt lat="45.9255" lon="4.72996">
        <ele>169</ele>
        <time>2017-08-15T09:45:03Z</time>
      </trkpt>
      <trkpt lat="45.92545" lon="4.73">
        <ele>169</ele>
        <time>2017-08-15T09:45:04Z</time>
      </trkpt>
      <trkpt lat="45.92541" lon="4.73004">
        <ele>169</ele>
        <time>2017-08-15T09:45:05Z</time>
      </trkpt>
      <trkpt lat="45.92537" lon="4.73008">
        <ele>169</ele>
        <time>2017-08-15T09:45:06Z</time>
      </trkpt>
      <trkpt lat="45.92533" lon="4.73012">
        <ele>169</ele>
        <time>2017-08-15T09:45:07Z</time>
      </trkpt>
      <trkpt lat="45.92529" lon="4.73016">
        <ele>169</ele>
        <time>2017-08-15T09:45:08Z</time>
      </trkpt>
      <trkpt lat="45.92522" lon="4.73022">
        <ele>169</ele>
        <time>2017-08-15T09:45:10Z</time>
      </trkpt>
      <trkpt lat="45.92518" lon="4.73026">
        <ele>169</ele>
        <time>2017-08-15T09:45:11Z</time>
      </trkpt>
      <trkpt lat="45.92514" lon="4.73029">
        <ele>169</ele>
        <time>2017-08-15T09:45:12Z</time>
      </trkpt>
      <trkpt lat="45.9251" lon="4.73033">
        <ele>169</ele>
        <time>2017-08-15T09:45:13Z</time>
      </trkpt>
      <trkpt lat="45.92505" lon="4.73036">
        <ele>169</ele>
        <time>2017-08-15T09:45:14Z</time>
      </trkpt>
      <trkpt lat="45.925" lon="4.7304">
        <ele>170</ele>
        <time>2017-08-15T09:45:15Z</time>
      </trkpt>
      <trkpt lat="45.92495" lon="4.73044">
        <ele>170</ele>
        <time>2017-08-15T09:45:16Z</time>
      </trkpt>
      <trkpt lat="45.92491" lon="4.73049">
        <ele>170</ele>
        <time>2017-08-15T09:45:17Z</time>
      </trkpt>
      <trkpt lat="45.92486" lon="4.73053">
        <ele>170</ele>
        <time>2017-08-15T09:45:18Z</time>
      </trkpt>
      <trkpt lat="45.92481" lon="4.73057">
        <ele>170</ele>
        <time>2017-08-15T09:45:19Z</time>
      </trkpt>
      <trkpt lat="45.92476" lon="4.7306">
        <ele>170</ele>
        <time>2017-08-15T09:45:20Z</time>
      </trkpt>
      <trkpt lat="45.92472" lon="4.73063">
        <ele>170</ele>
        <time>2017-08-15T09:45:21Z</time>
      </trkpt>
      <trkpt lat="45.92467" lon="4.73067">
        <ele>170</ele>
        <time>2017-08-15T09:45:22Z</time>
      </trkpt>
      <trkpt lat="45.92463" lon="4.73071">
        <ele>170</ele>
        <time>2017-08-15T09:45:23Z</time>
      </trkpt>
      <trkpt lat="45.92456" lon="4.73077">
        <ele>170</ele>
        <time>2017-08-15T09:45:25Z</time>
      </trkpt>
      <trkpt lat="45.92452" lon="4.7308">
        <ele>170</ele>
        <time>2017-08-15T09:45:26Z</time>
      </trkpt>
      <trkpt lat="45.92445" lon="4.73087">
        <ele>170</ele>
        <time>2017-08-15T09:45:28Z</time>
      </trkpt>
      <trkpt lat="45.92441" lon="4.7309">
        <ele>171</ele>
        <time>2017-08-15T09:45:29Z</time>
      </trkpt>
      <trkpt lat="45.92437" lon="4.73094">
        <ele>171</ele>
        <time>2017-08-15T09:45:30Z</time>
      </trkpt>
      <trkpt lat="45.92432" lon="4.73098">
        <ele>171</ele>
        <time>2017-08-15T09:45:31Z</time>
      </trkpt>
      <trkpt lat="45.92428" lon="4.73101">
        <ele>171</ele>
        <time>2017-08-15T09:45:32Z</time>
      </trkpt>
      <trkpt lat="45.92423" lon="4.73104">
        <ele>171</ele>
        <time>2017-08-15T09:45:33Z</time>
      </trkpt>
      <trkpt lat="45.92416" lon="4.73111">
        <ele>171</ele>
        <time>2017-08-15T09:45:35Z</time>
      </trkpt>
      <trkpt lat="45.92413" lon="4.73115">
        <ele>171</ele>
        <time>2017-08-15T09:45:36Z</time>
      </trkpt>
      <trkpt lat="45.92409" lon="4.73123">
        <ele>171</ele>
        <time>2017-08-15T09:45:38Z</time>
      </trkpt>
      <trkpt lat="45.92408" lon="4.73129">
        <ele>171</ele>
        <time>2017-08-15T09:45:39Z</time>
      </trkpt>
      <trkpt lat="45.92407" lon="4.73135">
        <ele>171</ele>
        <time>2017-08-15T09:45:40Z</time>
      </trkpt>
      <trkpt lat="45.92407" lon="4.73143">
        <ele>171</ele>
        <time>2017-08-15T09:45:41Z</time>
      </trkpt>
      <trkpt lat="45.92407" lon="4.7315">
        <ele>171</ele>
        <time>2017-08-15T09:45:42Z</time>
      </trkpt>
      <trkpt lat="45.92407" lon="4.73158">
        <ele>170</ele>
        <time>2017-08-15T09:45:43Z</time>
      </trkpt>
      <trkpt lat="45.92407" lon="4.73166">
        <ele>170</ele>
        <time>2017-08-15T09:45:44Z</time>
      </trkpt>
      <trkpt lat="45.92407" lon="4.73174">
        <ele>171</ele>
        <time>2017-08-15T09:45:45Z</time>
      </trkpt>
      <trkpt lat="45.92406" lon="4.73183">
        <ele>171</ele>
        <time>2017-08-15T09:45:46Z</time>
      </trkpt>
      <trkpt lat="45.92406" lon="4.73192">
        <ele>171</ele>
        <time>2017-08-15T09:45:47Z</time>
      </trkpt>
      <trkpt lat="45.92407" lon="4.73202">
        <ele>171</ele>
        <time>2017-08-15T09:45:48Z</time>
      </trkpt>
      <trkpt lat="45.92407" lon="4.73212">
        <ele>171</ele>
        <time>2017-08-15T09:45:49Z</time>
      </trkpt>
      <trkpt lat="45.92407" lon="4.7322">
        <ele>171</ele>
        <time>2017-08-15T09:45:50Z</time>
      </trkpt>
      <trkpt lat="45.92407" lon="4.73229">
        <ele>171</ele>
        <time>2017-08-15T09:45:51Z</time>
      </trkpt>
      <trkpt lat="45.92407" lon="4.73237">
        <ele>171</ele>
        <time>2017-08-15T09:45:52Z</time>
      </trkpt>
      <trkpt lat="45.92407" lon="4.73244">
        <ele>171</ele>
        <time>2017-08-15T09:45:53Z</time>
      </trkpt>
      <trkpt lat="45.92407" lon="4.73252">
        <ele>171</ele>
        <time>2017-08-15T09:45:54Z</time>
      </trkpt>
      <trkpt lat="45.92407" lon="4.73259">
        <ele>171</ele>
        <time>2017-08-15T09:45:55Z</time>
      </trkpt>
      <trkpt lat="45.92408" lon="4.73266">
        <ele>171</ele>
        <time>2017-08-15T09:45:56Z</time>
      </trkpt>
      <trkpt lat="45.92408" lon="4.73274">
        <ele>171</ele>
        <time>2017-08-15T09:45:57Z</time>
      </trkpt>
      <trkpt lat="45.92408" lon="4.73281">
        <ele>171</ele>
        <time>2017-08-15T09:45:58Z</time>
      </trkpt>
      <trkpt lat="45.92409" lon="4.73289">
        <ele>171</ele>
        <time>2017-08-15T09:45:59Z</time>
      </trkpt>
      <trkpt lat="45.92409" lon="4.73297">
        <ele>171</ele>
        <time>2017-08-15T09:46:00Z</time>
      </trkpt>
      <trkpt lat="45.9241" lon="4.73306">
        <ele>171</ele>
        <time>2017-08-15T09:46:01Z</time>
      </trkpt>
      <trkpt lat="45.92411" lon="4.73314">
        <ele>171</ele>
        <time>2017-08-15T09:46:02Z</time>
      </trkpt>
      <trkpt lat="45.92411" lon="4.73321">
        <ele>171</ele>
        <time>2017-08-15T09:46:03Z</time>
      </trkpt>
      <trkpt lat="45.92411" lon="4.73329">
        <ele>171</ele>
        <time>2017-08-15T09:46:04Z</time>
      </trkpt>
      <trkpt lat="45.92412" lon="4.73336">
        <ele>171</ele>
        <time>2017-08-15T09:46:05Z</time>
      </trkpt>
      <trkpt lat="45.92413" lon="4.73344">
        <ele>171</ele>
        <time>2017-08-15T09:46:06Z</time>
      </trkpt>
      <trkpt lat="45.92414" lon="4.7335">
        <ele>171</ele>
        <time>2017-08-15T09:46:07Z</time>
      </trkpt>
      <trkpt lat="45.92415" lon="4.73357">
        <ele>171</ele>
        <time>2017-08-15T09:46:08Z</time>
      </trkpt>
      <trkpt lat="45.92417" lon="4.73363">
        <ele>171</ele>
        <time>2017-08-15T09:46:09Z</time>
      </trkpt>
      <trkpt lat="45.92418" lon="4.73375">
        <ele>172</ele>
        <time>2017-08-15T09:46:11Z</time>
      </trkpt>
      <trkpt lat="45.92419" lon="4.73381">
        <ele>172</ele>
        <time>2017-08-15T09:46:12Z</time>
      </trkpt>
      <trkpt lat="45.92421" lon="4.73387">
        <ele>172</ele>
        <time>2017-08-15T09:46:13Z</time>
      </trkpt>
      <trkpt lat="45.92423" lon="4.73394">
        <ele>172</ele>
        <time>2017-08-15T09:46:14Z</time>
      </trkpt>
      <trkpt lat="45.92426" lon="4.73401">
        <ele>172</ele>
        <time>2017-08-15T09:46:15Z</time>
      </trkpt>
      <trkpt lat="45.9243" lon="4.73406">
        <ele>172</ele>
        <time>2017-08-15T09:46:16Z</time>
      </trkpt>
      <trkpt lat="45.92435" lon="4.73411">
        <ele>172</ele>
        <time>2017-08-15T09:46:17Z</time>
      </trkpt>
      <trkpt lat="45.9244" lon="4.73414">
        <ele>172</ele>
        <time>2017-08-15T09:46:18Z</time>
      </trkpt>
      <trkpt lat="45.92444" lon="4.73418">
        <ele>173</ele>
        <time>2017-08-15T09:46:19Z</time>
      </trkpt>
      <trkpt lat="45.92448" lon="4.73422">
        <ele>173</ele>
        <time>2017-08-15T09:46:20Z</time>
      </trkpt>
      <trkpt lat="45.92452" lon="4.73426">
        <ele>173</ele>
        <time>2017-08-15T09:46:21Z</time>
      </trkpt>
      <trkpt lat="45.92456" lon="4.73431">
        <ele>173</ele>
        <time>2017-08-15T09:46:22Z</time>
      </trkpt>
      <trkpt lat="45.9246" lon="4.73435">
        <ele>173</ele>
        <time>2017-08-15T09:46:23Z</time>
      </trkpt>
      <trkpt lat="45.92462" lon="4.73441">
        <ele>173</ele>
        <time>2017-08-15T09:46:24Z</time>
      </trkpt>
      <trkpt lat="45.92465" lon="4.73447">
        <ele>173</ele>
        <time>2017-08-15T09:46:25Z</time>
      </trkpt>
      <trkpt lat="45.92466" lon="4.73453">
        <ele>173</ele>
        <time>2017-08-15T09:46:26Z</time>
      </trkpt>
      <trkpt lat="45.92467" lon="4.7346">
        <ele>173</ele>
        <time>2017-08-15T09:46:27Z</time>
      </trkpt>
      <trkpt lat="45.92467" lon="4.73468">
        <ele>173</ele>
        <time>2017-08-15T09:46:28Z</time>
      </trkpt>
      <trkpt lat="45.92466" lon="4.73475">
        <ele>173</ele>
        <time>2017-08-15T09:46:29Z</time>
      </trkpt>
      <trkpt lat="45.92466" lon="4.73484">
        <ele>173</ele>
        <time>2017-08-15T09:46:30Z</time>
      </trkpt>
      <trkpt lat="45.92466" lon="4.73492">
        <ele>173</ele>
        <time>2017-08-15T09:46:31Z</time>
      </trkpt>
      <trkpt lat="45.92466" lon="4.735">
        <ele>173</ele>
        <time>2017-08-15T09:46:32Z</time>
      </trkpt>
      <trkpt lat="45.92466" lon="4.73507">
        <ele>174</ele>
        <time>2017-08-15T09:46:33Z</time>
      </trkpt>
      <trkpt lat="45.92466" lon="4.73514">
        <ele>174</ele>
        <time>2017-08-15T09:46:34Z</time>
      </trkpt>
      <trkpt lat="45.92466" lon="4.73521">
        <ele>174</ele>
        <time>2017-08-15T09:46:35Z</time>
      </trkpt>
      <trkpt lat="45.92466" lon="4.73528">
        <ele>174</ele>
        <time>2017-08-15T09:46:36Z</time>
      </trkpt>
      <trkpt lat="45.92465" lon="4.73538">
        <ele>174</ele>
        <time>2017-08-15T09:46:38Z</time>
      </trkpt>
      <trkpt lat="45.92464" lon="4.73543">
        <ele>173</ele>
        <time>2017-08-15T09:46:39Z</time>
      </trkpt>
      <trkpt lat="45.92463" lon="4.73553">
        <ele>173</ele>
        <time>2017-08-15T09:46:41Z</time>
      </trkpt>
      <trkpt lat="45.92462" lon="4.73559">
        <ele>173</ele>
        <time>2017-08-15T09:46:42Z</time>
      </trkpt>
      <trkpt lat="45.92462" lon="4.73566">
        <ele>173</ele>
        <time>2017-08-15T09:46:43Z</time>
      </trkpt>
      <trkpt lat="45.92461" lon="4.73572">
        <ele>173</ele>
        <time>2017-08-15T09:46:44Z</time>
      </trkpt>
      <trkpt lat="45.92461" lon="4.7358">
        <ele>173</ele>
        <time>2017-08-15T09:46:45Z</time>
      </trkpt>
      <trkpt lat="45.92461" lon="4.73588">
        <ele>174</ele>
        <time>2017-08-15T09:46:46Z</time>
      </trkpt>
      <trkpt lat="45.92461" lon="4.73596">
        <ele>174</ele>
        <time>2017-08-15T09:46:47Z</time>
      </trkpt>
      <trkpt lat="45.92461" lon="4.73603">
        <ele>174</ele>
        <time>2017-08-15T09:46:48Z</time>
      </trkpt>
      <trkpt lat="45.92462" lon="4.7361">
        <ele>174</ele>
        <time>2017-08-15T09:46:49Z</time>
      </trkpt>
      <trkpt lat="45.92463" lon="4.73617">
        <ele>174</ele>
        <time>2017-08-15T09:46:50Z</time>
      </trkpt>
      <trkpt lat="45.92464" lon="4.73625">
        <ele>174</ele>
        <time>2017-08-15T09:46:51Z</time>
      </trkpt>
      <trkpt lat="45.92464" lon="4.73632">
        <ele>174</ele>
        <time>2017-08-15T09:46:52Z</time>
      </trkpt>
      <trkpt lat="45.92466" lon="4.73645">
        <ele>174</ele>
        <time>2017-08-15T09:46:54Z</time>
      </trkpt>
      <trkpt lat="45.92466" lon="4.73651">
        <ele>174</ele>
        <time>2017-08-15T09:46:55Z</time>
      </trkpt>
      <trkpt lat="45.92465" lon="4.73662">
        <ele>174</ele>
        <time>2017-08-15T09:46:57Z</time>
      </trkpt>
      <trkpt lat="45.92464" lon="4.73668">
        <ele>174</ele>
        <time>2017-08-15T09:46:58Z</time>
      </trkpt>
      <trkpt lat="45.92463" lon="4.73679">
        <ele>174</ele>
        <time>2017-08-15T09:47:00Z</time>
      </trkpt>
      <trkpt lat="45.92462" lon="4.73685">
        <ele>174</ele>
        <time>2017-08-15T09:47:01Z</time>
      </trkpt>
      <trkpt lat="45.92461" lon="4.73696">
        <ele>174</ele>
        <time>2017-08-15T09:47:03Z</time>
      </trkpt>
      <trkpt lat="45.9246" lon="4.73701">
        <ele>174</ele>
        <time>2017-08-15T09:47:04Z</time>
      </trkpt>
      <trkpt lat="45.92461" lon="4.73705">
        <ele>174</ele>
        <time>2017-08-15T09:47:14Z</time>
      </trkpt>
      <trkpt lat="45.92459" lon="4.73706">
        <ele>174</ele>
        <time>2017-08-15T09:47:15Z</time>
      </trkpt>
      <trkpt lat="45.92458" lon="4.73706">
        <ele>174</ele>
        <time>2017-08-15T09:47:30.195Z</time>
      </trkpt>
    </trkseg>
  </trk>
</gpx>